<?xml version="1.0" encoding="UTF-8" standalone="no" ?>
<gpx xmlns="http://www.topografix.com/GPX/1/1" xmlns:xsi="http://www.w3.org/2001/XMLSchema-instance" xsi:schemaLocation="http://www.topografix.com/GPX/1/1 http://www.topografix.com/GPX/1/1/gpx.xsd" version="1.1" creator="VisuGPX - https://www.visugpx.com">
  <metadata>
    <name>Chaumerac col de la Gardette</name>
    <desc><![CDATA[Col de la  Gardette par  bayles,  Hauches, Charron, Veronne]]></desc>
  </metadata>
  <trk>
    <name><![CDATA[2013-02-08 CHAUMERAC COL GARDETTE GEO]]></name>
    <trkseg>
      <trkpt lat="44.71096" lon="4.66549">
        <ele>181</ele>
        <time>2013-02-08T08:05:07Z</time>
      </trkpt>
      <trkpt lat="44.71085" lon="4.66513">
        <ele>182</ele>
        <time>2013-02-08T08:05:42Z</time>
      </trkpt>
      <trkpt lat="44.71084" lon="4.6651">
        <ele>182</ele>
        <time>2013-02-08T08:05:44Z</time>
      </trkpt>
      <trkpt lat="44.71082" lon="4.66506">
        <ele>183</ele>
        <time>2013-02-08T08:05:47Z</time>
      </trkpt>
      <trkpt lat="44.71081" lon="4.66505">
        <ele>183</ele>
        <time>2013-02-08T08:05:50Z</time>
      </trkpt>
      <trkpt lat="44.7108" lon="4.66502">
        <ele>183</ele>
        <time>2013-02-08T08:05:52Z</time>
      </trkpt>
      <trkpt lat="44.71079" lon="4.66498">
        <ele>184</ele>
        <time>2013-02-08T08:05:55Z</time>
      </trkpt>
      <trkpt lat="44.71077" lon="4.66494">
        <ele>184</ele>
        <time>2013-02-08T08:05:58Z</time>
      </trkpt>
      <trkpt lat="44.71076" lon="4.66491">
        <ele>184</ele>
        <time>2013-02-08T08:06:00Z</time>
      </trkpt>
      <trkpt lat="44.71075" lon="4.66488">
        <ele>185</ele>
        <time>2013-02-08T08:06:02Z</time>
      </trkpt>
      <trkpt lat="44.71075" lon="4.66486">
        <ele>185</ele>
        <time>2013-02-08T08:06:04Z</time>
      </trkpt>
      <trkpt lat="44.71074" lon="4.66483">
        <ele>185</ele>
        <time>2013-02-08T08:06:06Z</time>
      </trkpt>
      <trkpt lat="44.71072" lon="4.66481">
        <ele>185</ele>
        <time>2013-02-08T08:06:08Z</time>
      </trkpt>
      <trkpt lat="44.71071" lon="4.66478">
        <ele>185</ele>
        <time>2013-02-08T08:06:10Z</time>
      </trkpt>
      <trkpt lat="44.71071" lon="4.66475">
        <ele>186</ele>
        <time>2013-02-08T08:06:12Z</time>
      </trkpt>
      <trkpt lat="44.71069" lon="4.66471">
        <ele>186</ele>
        <time>2013-02-08T08:06:15Z</time>
      </trkpt>
      <trkpt lat="44.71069" lon="4.66469">
        <ele>186</ele>
        <time>2013-02-08T08:06:17Z</time>
      </trkpt>
      <trkpt lat="44.7107" lon="4.66468">
        <ele>186</ele>
        <time>2013-02-08T08:06:20Z</time>
      </trkpt>
      <trkpt lat="44.71069" lon="4.66466">
        <ele>186</ele>
        <time>2013-02-08T08:06:26Z</time>
      </trkpt>
      <trkpt lat="44.71068" lon="4.66465">
        <ele>186</ele>
        <time>2013-02-08T08:06:28Z</time>
      </trkpt>
      <trkpt lat="44.71067" lon="4.66463">
        <ele>186</ele>
        <time>2013-02-08T08:06:30Z</time>
      </trkpt>
      <trkpt lat="44.71067" lon="4.66461">
        <ele>186</ele>
        <time>2013-02-08T08:06:32Z</time>
      </trkpt>
      <trkpt lat="44.71066" lon="4.66459">
        <ele>187</ele>
        <time>2013-02-08T08:06:34Z</time>
      </trkpt>
      <trkpt lat="44.71066" lon="4.66457">
        <ele>187</ele>
        <time>2013-02-08T08:06:36Z</time>
      </trkpt>
      <trkpt lat="44.71065" lon="4.66455">
        <ele>187</ele>
        <time>2013-02-08T08:06:38Z</time>
      </trkpt>
      <trkpt lat="44.71064" lon="4.66452">
        <ele>187</ele>
        <time>2013-02-08T08:06:40Z</time>
      </trkpt>
      <trkpt lat="44.71063" lon="4.6645">
        <ele>187</ele>
        <time>2013-02-08T08:06:42Z</time>
      </trkpt>
      <trkpt lat="44.71062" lon="4.66447">
        <ele>187</ele>
        <time>2013-02-08T08:06:44Z</time>
      </trkpt>
      <trkpt lat="44.71061" lon="4.66444">
        <ele>187</ele>
        <time>2013-02-08T08:06:46Z</time>
      </trkpt>
      <trkpt lat="44.71061" lon="4.66442">
        <ele>187</ele>
        <time>2013-02-08T08:06:48Z</time>
      </trkpt>
      <trkpt lat="44.7106" lon="4.6644">
        <ele>188</ele>
        <time>2013-02-08T08:06:50Z</time>
      </trkpt>
      <trkpt lat="44.71059" lon="4.66438">
        <ele>188</ele>
        <time>2013-02-08T08:06:52Z</time>
      </trkpt>
      <trkpt lat="44.71059" lon="4.66435">
        <ele>188</ele>
        <time>2013-02-08T08:06:54Z</time>
      </trkpt>
      <trkpt lat="44.71058" lon="4.66433">
        <ele>188</ele>
        <time>2013-02-08T08:06:56Z</time>
      </trkpt>
      <trkpt lat="44.71057" lon="4.66431">
        <ele>188</ele>
        <time>2013-02-08T08:06:58Z</time>
      </trkpt>
      <trkpt lat="44.71056" lon="4.66429">
        <ele>188</ele>
        <time>2013-02-08T08:07:00Z</time>
      </trkpt>
      <trkpt lat="44.71056" lon="4.66426">
        <ele>188</ele>
        <time>2013-02-08T08:07:02Z</time>
      </trkpt>
      <trkpt lat="44.71055" lon="4.66424">
        <ele>188</ele>
        <time>2013-02-08T08:07:04Z</time>
      </trkpt>
      <trkpt lat="44.71054" lon="4.66422">
        <ele>188</ele>
        <time>2013-02-08T08:07:06Z</time>
      </trkpt>
      <trkpt lat="44.71053" lon="4.66419">
        <ele>188</ele>
        <time>2013-02-08T08:07:08Z</time>
      </trkpt>
      <trkpt lat="44.71052" lon="4.66417">
        <ele>188</ele>
        <time>2013-02-08T08:07:10Z</time>
      </trkpt>
      <trkpt lat="44.71051" lon="4.66415">
        <ele>193</ele>
        <time>2013-02-08T08:07:12Z</time>
      </trkpt>
      <trkpt lat="44.71051" lon="4.66413">
        <ele>193</ele>
        <time>2013-02-08T08:07:14Z</time>
      </trkpt>
      <trkpt lat="44.7105" lon="4.6641">
        <ele>193</ele>
        <time>2013-02-08T08:07:16Z</time>
      </trkpt>
      <trkpt lat="44.71049" lon="4.66408">
        <ele>193</ele>
        <time>2013-02-08T08:07:18Z</time>
      </trkpt>
      <trkpt lat="44.7105" lon="4.66406">
        <ele>193</ele>
        <time>2013-02-08T08:07:20Z</time>
      </trkpt>
      <trkpt lat="44.71051" lon="4.66404">
        <ele>193</ele>
        <time>2013-02-08T08:07:30Z</time>
      </trkpt>
      <trkpt lat="44.71053" lon="4.66403">
        <ele>193</ele>
        <time>2013-02-08T08:07:32Z</time>
      </trkpt>
      <trkpt lat="44.71055" lon="4.66402">
        <ele>193</ele>
        <time>2013-02-08T08:07:34Z</time>
      </trkpt>
      <trkpt lat="44.71058" lon="4.66402">
        <ele>193</ele>
        <time>2013-02-08T08:07:36Z</time>
      </trkpt>
      <trkpt lat="44.7106" lon="4.66403">
        <ele>193</ele>
        <time>2013-02-08T08:07:38Z</time>
      </trkpt>
      <trkpt lat="44.71062" lon="4.66403">
        <ele>193</ele>
        <time>2013-02-08T08:07:40Z</time>
      </trkpt>
      <trkpt lat="44.71065" lon="4.66403">
        <ele>193</ele>
        <time>2013-02-08T08:07:43Z</time>
      </trkpt>
      <trkpt lat="44.71067" lon="4.66401">
        <ele>193</ele>
        <time>2013-02-08T08:07:45Z</time>
      </trkpt>
      <trkpt lat="44.71069" lon="4.66401">
        <ele>193</ele>
        <time>2013-02-08T08:07:47Z</time>
      </trkpt>
      <trkpt lat="44.71071" lon="4.66402">
        <ele>193</ele>
        <time>2013-02-08T08:07:49Z</time>
      </trkpt>
      <trkpt lat="44.71076" lon="4.66404">
        <ele>193</ele>
        <time>2013-02-08T08:07:51Z</time>
      </trkpt>
      <trkpt lat="44.71079" lon="4.66404">
        <ele>192</ele>
        <time>2013-02-08T08:07:53Z</time>
      </trkpt>
      <trkpt lat="44.71081" lon="4.66405">
        <ele>192</ele>
        <time>2013-02-08T08:07:56Z</time>
      </trkpt>
      <trkpt lat="44.71085" lon="4.66406">
        <ele>191</ele>
        <time>2013-02-08T08:07:59Z</time>
      </trkpt>
      <trkpt lat="44.71089" lon="4.66408">
        <ele>191</ele>
        <time>2013-02-08T08:08:02Z</time>
      </trkpt>
      <trkpt lat="44.71092" lon="4.66409">
        <ele>191</ele>
        <time>2013-02-08T08:08:04Z</time>
      </trkpt>
      <trkpt lat="44.71094" lon="4.66407">
        <ele>191</ele>
        <time>2013-02-08T08:08:07Z</time>
      </trkpt>
      <trkpt lat="44.71097" lon="4.66406">
        <ele>191</ele>
        <time>2013-02-08T08:08:09Z</time>
      </trkpt>
      <trkpt lat="44.711" lon="4.66406">
        <ele>191</ele>
        <time>2013-02-08T08:08:13Z</time>
      </trkpt>
      <trkpt lat="44.71104" lon="4.66404">
        <ele>191</ele>
        <time>2013-02-08T08:08:15Z</time>
      </trkpt>
      <trkpt lat="44.71106" lon="4.66405">
        <ele>191</ele>
        <time>2013-02-08T08:08:17Z</time>
      </trkpt>
      <trkpt lat="44.71109" lon="4.66404">
        <ele>191</ele>
        <time>2013-02-08T08:08:21Z</time>
      </trkpt>
      <trkpt lat="44.71113" lon="4.66404">
        <ele>191</ele>
        <time>2013-02-08T08:08:25Z</time>
      </trkpt>
      <trkpt lat="44.71115" lon="4.66403">
        <ele>191</ele>
        <time>2013-02-08T08:08:27Z</time>
      </trkpt>
      <trkpt lat="44.71118" lon="4.66403">
        <ele>191</ele>
        <time>2013-02-08T08:08:31Z</time>
      </trkpt>
      <trkpt lat="44.71121" lon="4.66404">
        <ele>191</ele>
        <time>2013-02-08T08:08:34Z</time>
      </trkpt>
      <trkpt lat="44.71122" lon="4.66406">
        <ele>190</ele>
        <time>2013-02-08T08:08:36Z</time>
      </trkpt>
      <trkpt lat="44.71123" lon="4.66408">
        <ele>190</ele>
        <time>2013-02-08T08:08:38Z</time>
      </trkpt>
      <trkpt lat="44.71125" lon="4.66409">
        <ele>190</ele>
        <time>2013-02-08T08:08:40Z</time>
      </trkpt>
      <trkpt lat="44.71128" lon="4.66409">
        <ele>190</ele>
        <time>2013-02-08T08:08:42Z</time>
      </trkpt>
      <trkpt lat="44.71132" lon="4.66408">
        <ele>190</ele>
        <time>2013-02-08T08:08:45Z</time>
      </trkpt>
      <trkpt lat="44.71133" lon="4.66408">
        <ele>190</ele>
        <time>2013-02-08T08:08:47Z</time>
      </trkpt>
      <trkpt lat="44.71136" lon="4.66408">
        <ele>190</ele>
        <time>2013-02-08T08:08:49Z</time>
      </trkpt>
      <trkpt lat="44.71139" lon="4.66406">
        <ele>190</ele>
        <time>2013-02-08T08:08:52Z</time>
      </trkpt>
      <trkpt lat="44.71143" lon="4.66406">
        <ele>189</ele>
        <time>2013-02-08T08:08:55Z</time>
      </trkpt>
      <trkpt lat="44.71146" lon="4.66407">
        <ele>189</ele>
        <time>2013-02-08T08:08:57Z</time>
      </trkpt>
      <trkpt lat="44.7115" lon="4.66406">
        <ele>189</ele>
        <time>2013-02-08T08:08:59Z</time>
      </trkpt>
      <trkpt lat="44.71152" lon="4.66407">
        <ele>189</ele>
        <time>2013-02-08T08:09:01Z</time>
      </trkpt>
      <trkpt lat="44.71155" lon="4.66408">
        <ele>189</ele>
        <time>2013-02-08T08:09:03Z</time>
      </trkpt>
      <trkpt lat="44.71159" lon="4.66409">
        <ele>188</ele>
        <time>2013-02-08T08:09:05Z</time>
      </trkpt>
      <trkpt lat="44.71161" lon="4.66409">
        <ele>188</ele>
        <time>2013-02-08T08:09:09Z</time>
      </trkpt>
      <trkpt lat="44.71165" lon="4.66412">
        <ele>188</ele>
        <time>2013-02-08T08:09:11Z</time>
      </trkpt>
      <trkpt lat="44.71167" lon="4.66413">
        <ele>186</ele>
        <time>2013-02-08T08:09:14Z</time>
      </trkpt>
      <trkpt lat="44.71171" lon="4.66414">
        <ele>186</ele>
        <time>2013-02-08T08:09:16Z</time>
      </trkpt>
      <trkpt lat="44.71173" lon="4.66416">
        <ele>186</ele>
        <time>2013-02-08T08:09:19Z</time>
      </trkpt>
      <trkpt lat="44.71176" lon="4.66419">
        <ele>184</ele>
        <time>2013-02-08T08:09:21Z</time>
      </trkpt>
      <trkpt lat="44.71178" lon="4.66421">
        <ele>184</ele>
        <time>2013-02-08T08:09:24Z</time>
      </trkpt>
      <trkpt lat="44.71182" lon="4.66424">
        <ele>183</ele>
        <time>2013-02-08T08:09:26Z</time>
      </trkpt>
      <trkpt lat="44.71184" lon="4.66425">
        <ele>183</ele>
        <time>2013-02-08T08:09:28Z</time>
      </trkpt>
      <trkpt lat="44.71186" lon="4.66425">
        <ele>183</ele>
        <time>2013-02-08T08:09:30Z</time>
      </trkpt>
      <trkpt lat="44.7119" lon="4.66426">
        <ele>182</ele>
        <time>2013-02-08T08:09:34Z</time>
      </trkpt>
      <trkpt lat="44.71193" lon="4.66426">
        <ele>182</ele>
        <time>2013-02-08T08:09:37Z</time>
      </trkpt>
      <trkpt lat="44.71196" lon="4.66421">
        <ele>182</ele>
        <time>2013-02-08T08:09:40Z</time>
      </trkpt>
      <trkpt lat="44.712" lon="4.66421">
        <ele>181</ele>
        <time>2013-02-08T08:09:42Z</time>
      </trkpt>
      <trkpt lat="44.71203" lon="4.66418">
        <ele>181</ele>
        <time>2013-02-08T08:09:46Z</time>
      </trkpt>
      <trkpt lat="44.71206" lon="4.66415">
        <ele>182</ele>
        <time>2013-02-08T08:09:49Z</time>
      </trkpt>
      <trkpt lat="44.71208" lon="4.66413">
        <ele>182</ele>
        <time>2013-02-08T08:09:52Z</time>
      </trkpt>
      <trkpt lat="44.71211" lon="4.66412">
        <ele>182</ele>
        <time>2013-02-08T08:09:54Z</time>
      </trkpt>
      <trkpt lat="44.71214" lon="4.66413">
        <ele>181</ele>
        <time>2013-02-08T08:09:56Z</time>
      </trkpt>
      <trkpt lat="44.71217" lon="4.66414">
        <ele>181</ele>
        <time>2013-02-08T08:09:59Z</time>
      </trkpt>
      <trkpt lat="44.7122" lon="4.66415">
        <ele>181</ele>
        <time>2013-02-08T08:10:02Z</time>
      </trkpt>
      <trkpt lat="44.71223" lon="4.66416">
        <ele>181</ele>
        <time>2013-02-08T08:10:05Z</time>
      </trkpt>
      <trkpt lat="44.71224" lon="4.66415">
        <ele>181</ele>
        <time>2013-02-08T08:10:07Z</time>
      </trkpt>
      <trkpt lat="44.71226" lon="4.66415">
        <ele>180</ele>
        <time>2013-02-08T08:10:10Z</time>
      </trkpt>
      <trkpt lat="44.71227" lon="4.66416">
        <ele>180</ele>
        <time>2013-02-08T08:10:13Z</time>
      </trkpt>
      <trkpt lat="44.7123" lon="4.66417">
        <ele>180</ele>
        <time>2013-02-08T08:10:15Z</time>
      </trkpt>
      <trkpt lat="44.71233" lon="4.66418">
        <ele>179</ele>
        <time>2013-02-08T08:10:19Z</time>
      </trkpt>
      <trkpt lat="44.71237" lon="4.66419">
        <ele>179</ele>
        <time>2013-02-08T08:10:21Z</time>
      </trkpt>
      <trkpt lat="44.7124" lon="4.6642">
        <ele>179</ele>
        <time>2013-02-08T08:10:23Z</time>
      </trkpt>
      <trkpt lat="44.71242" lon="4.66421">
        <ele>178</ele>
        <time>2013-02-08T08:10:26Z</time>
      </trkpt>
      <trkpt lat="44.71245" lon="4.66423">
        <ele>178</ele>
        <time>2013-02-08T08:10:28Z</time>
      </trkpt>
      <trkpt lat="44.71247" lon="4.66423">
        <ele>178</ele>
        <time>2013-02-08T08:10:31Z</time>
      </trkpt>
      <trkpt lat="44.7125" lon="4.66425">
        <ele>176</ele>
        <time>2013-02-08T08:10:33Z</time>
      </trkpt>
      <trkpt lat="44.71253" lon="4.66426">
        <ele>176</ele>
        <time>2013-02-08T08:10:35Z</time>
      </trkpt>
      <trkpt lat="44.71255" lon="4.66426">
        <ele>176</ele>
        <time>2013-02-08T08:10:37Z</time>
      </trkpt>
      <trkpt lat="44.71258" lon="4.66427">
        <ele>175</ele>
        <time>2013-02-08T08:10:39Z</time>
      </trkpt>
      <trkpt lat="44.71261" lon="4.66427">
        <ele>175</ele>
        <time>2013-02-08T08:10:42Z</time>
      </trkpt>
      <trkpt lat="44.71262" lon="4.66428">
        <ele>175</ele>
        <time>2013-02-08T08:10:44Z</time>
      </trkpt>
      <trkpt lat="44.71265" lon="4.66428">
        <ele>175</ele>
        <time>2013-02-08T08:10:47Z</time>
      </trkpt>
      <trkpt lat="44.71266" lon="4.66428">
        <ele>174</ele>
        <time>2013-02-08T08:10:51Z</time>
      </trkpt>
      <trkpt lat="44.71267" lon="4.66427">
        <ele>174</ele>
        <time>2013-02-08T08:10:55Z</time>
      </trkpt>
      <trkpt lat="44.71269" lon="4.66427">
        <ele>174</ele>
        <time>2013-02-08T08:11:02Z</time>
      </trkpt>
      <trkpt lat="44.71272" lon="4.66428">
        <ele>174</ele>
        <time>2013-02-08T08:11:06Z</time>
      </trkpt>
      <trkpt lat="44.71274" lon="4.66429">
        <ele>174</ele>
        <time>2013-02-08T08:11:09Z</time>
      </trkpt>
      <trkpt lat="44.71275" lon="4.6643">
        <ele>173</ele>
        <time>2013-02-08T08:11:11Z</time>
      </trkpt>
      <trkpt lat="44.71277" lon="4.6643">
        <ele>173</ele>
        <time>2013-02-08T08:11:13Z</time>
      </trkpt>
      <trkpt lat="44.71278" lon="4.66431">
        <ele>173</ele>
        <time>2013-02-08T08:11:15Z</time>
      </trkpt>
      <trkpt lat="44.71281" lon="4.66432">
        <ele>173</ele>
        <time>2013-02-08T08:11:18Z</time>
      </trkpt>
      <trkpt lat="44.71283" lon="4.66433">
        <ele>173</ele>
        <time>2013-02-08T08:11:20Z</time>
      </trkpt>
      <trkpt lat="44.71285" lon="4.66433">
        <ele>173</ele>
        <time>2013-02-08T08:11:22Z</time>
      </trkpt>
      <trkpt lat="44.71288" lon="4.66434">
        <ele>172</ele>
        <time>2013-02-08T08:11:24Z</time>
      </trkpt>
      <trkpt lat="44.71291" lon="4.66435">
        <ele>172</ele>
        <time>2013-02-08T08:11:28Z</time>
      </trkpt>
      <trkpt lat="44.71295" lon="4.66436">
        <ele>172</ele>
        <time>2013-02-08T08:11:32Z</time>
      </trkpt>
      <trkpt lat="44.71299" lon="4.66437">
        <ele>172</ele>
        <time>2013-02-08T08:11:35Z</time>
      </trkpt>
      <trkpt lat="44.71302" lon="4.66439">
        <ele>172</ele>
        <time>2013-02-08T08:11:39Z</time>
      </trkpt>
      <trkpt lat="44.71306" lon="4.66441">
        <ele>171</ele>
        <time>2013-02-08T08:11:43Z</time>
      </trkpt>
      <trkpt lat="44.71307" lon="4.66441">
        <ele>171</ele>
        <time>2013-02-08T08:11:45Z</time>
      </trkpt>
      <trkpt lat="44.71309" lon="4.66442">
        <ele>171</ele>
        <time>2013-02-08T08:11:47Z</time>
      </trkpt>
      <trkpt lat="44.71311" lon="4.66442">
        <ele>171</ele>
        <time>2013-02-08T08:11:49Z</time>
      </trkpt>
      <trkpt lat="44.71314" lon="4.6644">
        <ele>171</ele>
        <time>2013-02-08T08:11:51Z</time>
      </trkpt>
      <trkpt lat="44.71318" lon="4.66442">
        <ele>171</ele>
        <time>2013-02-08T08:11:54Z</time>
      </trkpt>
      <trkpt lat="44.7132" lon="4.66443">
        <ele>171</ele>
        <time>2013-02-08T08:11:57Z</time>
      </trkpt>
      <trkpt lat="44.71324" lon="4.66447">
        <ele>171</ele>
        <time>2013-02-08T08:12:01Z</time>
      </trkpt>
      <trkpt lat="44.71328" lon="4.66449">
        <ele>171</ele>
        <time>2013-02-08T08:12:03Z</time>
      </trkpt>
      <trkpt lat="44.71331" lon="4.66451">
        <ele>170</ele>
        <time>2013-02-08T08:12:07Z</time>
      </trkpt>
      <trkpt lat="44.71335" lon="4.66453">
        <ele>173</ele>
        <time>2013-02-08T08:12:10Z</time>
      </trkpt>
      <trkpt lat="44.71336" lon="4.66454">
        <ele>173</ele>
        <time>2013-02-08T08:12:13Z</time>
      </trkpt>
      <trkpt lat="44.7134" lon="4.66455">
        <ele>173</ele>
        <time>2013-02-08T08:12:15Z</time>
      </trkpt>
      <trkpt lat="44.71343" lon="4.66456">
        <ele>173</ele>
        <time>2013-02-08T08:12:18Z</time>
      </trkpt>
      <trkpt lat="44.71346" lon="4.66458">
        <ele>173</ele>
        <time>2013-02-08T08:12:21Z</time>
      </trkpt>
      <trkpt lat="44.71347" lon="4.66459">
        <ele>173</ele>
        <time>2013-02-08T08:12:25Z</time>
      </trkpt>
      <trkpt lat="44.71349" lon="4.66458">
        <ele>173</ele>
        <time>2013-02-08T08:12:28Z</time>
      </trkpt>
      <trkpt lat="44.71352" lon="4.66458">
        <ele>173</ele>
        <time>2013-02-08T08:12:30Z</time>
      </trkpt>
      <trkpt lat="44.71356" lon="4.66459">
        <ele>173</ele>
        <time>2013-02-08T08:12:32Z</time>
      </trkpt>
      <trkpt lat="44.71357" lon="4.66456">
        <ele>174</ele>
        <time>2013-02-08T08:12:35Z</time>
      </trkpt>
      <trkpt lat="44.7136" lon="4.66455">
        <ele>174</ele>
        <time>2013-02-08T08:12:40Z</time>
      </trkpt>
      <trkpt lat="44.71364" lon="4.66454">
        <ele>174</ele>
        <time>2013-02-08T08:12:43Z</time>
      </trkpt>
      <trkpt lat="44.71365" lon="4.66454">
        <ele>174</ele>
        <time>2013-02-08T08:12:46Z</time>
      </trkpt>
      <trkpt lat="44.71367" lon="4.66453">
        <ele>175</ele>
        <time>2013-02-08T08:12:48Z</time>
      </trkpt>
      <trkpt lat="44.71368" lon="4.66453">
        <ele>175</ele>
        <time>2013-02-08T08:12:51Z</time>
      </trkpt>
      <trkpt lat="44.71369" lon="4.66453">
        <ele>175</ele>
        <time>2013-02-08T08:12:54Z</time>
      </trkpt>
      <trkpt lat="44.7137" lon="4.66455">
        <ele>175</ele>
        <time>2013-02-08T08:12:57Z</time>
      </trkpt>
      <trkpt lat="44.71373" lon="4.66459">
        <ele>175</ele>
        <time>2013-02-08T08:13:00Z</time>
      </trkpt>
      <trkpt lat="44.71375" lon="4.6646">
        <ele>175</ele>
        <time>2013-02-08T08:13:03Z</time>
      </trkpt>
      <trkpt lat="44.71379" lon="4.66462">
        <ele>175</ele>
        <time>2013-02-08T08:13:06Z</time>
      </trkpt>
      <trkpt lat="44.71381" lon="4.66461">
        <ele>175</ele>
        <time>2013-02-08T08:13:08Z</time>
      </trkpt>
      <trkpt lat="44.71382" lon="4.6646">
        <ele>175</ele>
        <time>2013-02-08T08:13:10Z</time>
      </trkpt>
      <trkpt lat="44.71384" lon="4.66459">
        <ele>176</ele>
        <time>2013-02-08T08:13:13Z</time>
      </trkpt>
      <trkpt lat="44.71385" lon="4.66458">
        <ele>176</ele>
        <time>2013-02-08T08:13:15Z</time>
      </trkpt>
      <trkpt lat="44.71388" lon="4.66455">
        <ele>176</ele>
        <time>2013-02-08T08:13:18Z</time>
      </trkpt>
      <trkpt lat="44.7139" lon="4.66455">
        <ele>176</ele>
        <time>2013-02-08T08:13:21Z</time>
      </trkpt>
      <trkpt lat="44.71392" lon="4.66456">
        <ele>177</ele>
        <time>2013-02-08T08:13:23Z</time>
      </trkpt>
      <trkpt lat="44.71394" lon="4.66456">
        <ele>177</ele>
        <time>2013-02-08T08:13:26Z</time>
      </trkpt>
      <trkpt lat="44.71397" lon="4.66456">
        <ele>177</ele>
        <time>2013-02-08T08:13:29Z</time>
      </trkpt>
      <trkpt lat="44.71399" lon="4.66456">
        <ele>177</ele>
        <time>2013-02-08T08:13:32Z</time>
      </trkpt>
      <trkpt lat="44.71402" lon="4.66455">
        <ele>177</ele>
        <time>2013-02-08T08:13:35Z</time>
      </trkpt>
      <trkpt lat="44.71404" lon="4.66455">
        <ele>178</ele>
        <time>2013-02-08T08:13:39Z</time>
      </trkpt>
      <trkpt lat="44.71407" lon="4.66454">
        <ele>178</ele>
        <time>2013-02-08T08:13:42Z</time>
      </trkpt>
      <trkpt lat="44.71409" lon="4.66454">
        <ele>178</ele>
        <time>2013-02-08T08:13:45Z</time>
      </trkpt>
      <trkpt lat="44.71413" lon="4.66453">
        <ele>178</ele>
        <time>2013-02-08T08:13:48Z</time>
      </trkpt>
      <trkpt lat="44.71415" lon="4.66453">
        <ele>178</ele>
        <time>2013-02-08T08:13:51Z</time>
      </trkpt>
      <trkpt lat="44.71419" lon="4.66452">
        <ele>186</ele>
        <time>2013-02-08T08:13:54Z</time>
      </trkpt>
      <trkpt lat="44.71421" lon="4.66452">
        <ele>187</ele>
        <time>2013-02-08T08:13:56Z</time>
      </trkpt>
      <trkpt lat="44.71423" lon="4.66452">
        <ele>187</ele>
        <time>2013-02-08T08:13:58Z</time>
      </trkpt>
      <trkpt lat="44.71425" lon="4.66452">
        <ele>187</ele>
        <time>2013-02-08T08:14:00Z</time>
      </trkpt>
      <trkpt lat="44.71426" lon="4.66452">
        <ele>187</ele>
        <time>2013-02-08T08:14:03Z</time>
      </trkpt>
      <trkpt lat="44.71431" lon="4.66451">
        <ele>187</ele>
        <time>2013-02-08T08:14:06Z</time>
      </trkpt>
      <trkpt lat="44.71434" lon="4.66451">
        <ele>187</ele>
        <time>2013-02-08T08:14:09Z</time>
      </trkpt>
      <trkpt lat="44.71436" lon="4.66451">
        <ele>187</ele>
        <time>2013-02-08T08:14:11Z</time>
      </trkpt>
      <trkpt lat="44.71438" lon="4.6645">
        <ele>187</ele>
        <time>2013-02-08T08:14:13Z</time>
      </trkpt>
      <trkpt lat="44.71439" lon="4.6645">
        <ele>187</ele>
        <time>2013-02-08T08:14:15Z</time>
      </trkpt>
      <trkpt lat="44.71441" lon="4.6645">
        <ele>188</ele>
        <time>2013-02-08T08:14:17Z</time>
      </trkpt>
      <trkpt lat="44.71443" lon="4.6645">
        <ele>188</ele>
        <time>2013-02-08T08:14:19Z</time>
      </trkpt>
      <trkpt lat="44.71445" lon="4.6645">
        <ele>188</ele>
        <time>2013-02-08T08:14:21Z</time>
      </trkpt>
      <trkpt lat="44.71446" lon="4.6645">
        <ele>188</ele>
        <time>2013-02-08T08:14:23Z</time>
      </trkpt>
      <trkpt lat="44.71447" lon="4.6645">
        <ele>188</ele>
        <time>2013-02-08T08:14:27Z</time>
      </trkpt>
      <trkpt lat="44.71449" lon="4.66449">
        <ele>188</ele>
        <time>2013-02-08T08:14:29Z</time>
      </trkpt>
      <trkpt lat="44.71451" lon="4.6645">
        <ele>188</ele>
        <time>2013-02-08T08:14:31Z</time>
      </trkpt>
      <trkpt lat="44.71453" lon="4.6645">
        <ele>188</ele>
        <time>2013-02-08T08:14:33Z</time>
      </trkpt>
      <trkpt lat="44.71455" lon="4.6645">
        <ele>188</ele>
        <time>2013-02-08T08:14:35Z</time>
      </trkpt>
      <trkpt lat="44.71456" lon="4.66451">
        <ele>188</ele>
        <time>2013-02-08T08:14:37Z</time>
      </trkpt>
      <trkpt lat="44.71458" lon="4.66451">
        <ele>189</ele>
        <time>2013-02-08T08:14:39Z</time>
      </trkpt>
      <trkpt lat="44.7146" lon="4.66451">
        <ele>189</ele>
        <time>2013-02-08T08:14:41Z</time>
      </trkpt>
      <trkpt lat="44.71462" lon="4.66451">
        <ele>189</ele>
        <time>2013-02-08T08:14:43Z</time>
      </trkpt>
      <trkpt lat="44.71463" lon="4.66451">
        <ele>189</ele>
        <time>2013-02-08T08:14:45Z</time>
      </trkpt>
      <trkpt lat="44.71465" lon="4.66451">
        <ele>189</ele>
        <time>2013-02-08T08:14:47Z</time>
      </trkpt>
      <trkpt lat="44.71467" lon="4.66451">
        <ele>189</ele>
        <time>2013-02-08T08:14:49Z</time>
      </trkpt>
      <trkpt lat="44.71469" lon="4.66451">
        <ele>189</ele>
        <time>2013-02-08T08:14:51Z</time>
      </trkpt>
      <trkpt lat="44.71471" lon="4.66452">
        <ele>190</ele>
        <time>2013-02-08T08:14:53Z</time>
      </trkpt>
      <trkpt lat="44.71473" lon="4.66453">
        <ele>190</ele>
        <time>2013-02-08T08:14:55Z</time>
      </trkpt>
      <trkpt lat="44.71475" lon="4.66453">
        <ele>190</ele>
        <time>2013-02-08T08:14:57Z</time>
      </trkpt>
      <trkpt lat="44.71477" lon="4.66454">
        <ele>190</ele>
        <time>2013-02-08T08:14:59Z</time>
      </trkpt>
      <trkpt lat="44.71478" lon="4.66454">
        <ele>190</ele>
        <time>2013-02-08T08:15:01Z</time>
      </trkpt>
      <trkpt lat="44.7148" lon="4.66455">
        <ele>190</ele>
        <time>2013-02-08T08:15:03Z</time>
      </trkpt>
      <trkpt lat="44.71482" lon="4.66454">
        <ele>190</ele>
        <time>2013-02-08T08:15:05Z</time>
      </trkpt>
      <trkpt lat="44.71484" lon="4.66454">
        <ele>190</ele>
        <time>2013-02-08T08:15:07Z</time>
      </trkpt>
      <trkpt lat="44.71486" lon="4.66454">
        <ele>190</ele>
        <time>2013-02-08T08:15:09Z</time>
      </trkpt>
      <trkpt lat="44.71488" lon="4.66454">
        <ele>190</ele>
        <time>2013-02-08T08:15:11Z</time>
      </trkpt>
      <trkpt lat="44.7149" lon="4.66454">
        <ele>190</ele>
        <time>2013-02-08T08:15:13Z</time>
      </trkpt>
      <trkpt lat="44.71491" lon="4.66454">
        <ele>191</ele>
        <time>2013-02-08T08:15:15Z</time>
      </trkpt>
      <trkpt lat="44.71493" lon="4.66454">
        <ele>191</ele>
        <time>2013-02-08T08:15:17Z</time>
      </trkpt>
      <trkpt lat="44.71496" lon="4.66454">
        <ele>191</ele>
        <time>2013-02-08T08:15:21Z</time>
      </trkpt>
      <trkpt lat="44.715" lon="4.66453">
        <ele>200</ele>
        <time>2013-02-08T08:15:24Z</time>
      </trkpt>
      <trkpt lat="44.71502" lon="4.66453">
        <ele>200</ele>
        <time>2013-02-08T08:15:26Z</time>
      </trkpt>
      <trkpt lat="44.71504" lon="4.66453">
        <ele>200</ele>
        <time>2013-02-08T08:15:28Z</time>
      </trkpt>
      <trkpt lat="44.71506" lon="4.66453">
        <ele>200</ele>
        <time>2013-02-08T08:15:30Z</time>
      </trkpt>
      <trkpt lat="44.71508" lon="4.66453">
        <ele>200</ele>
        <time>2013-02-08T08:15:32Z</time>
      </trkpt>
      <trkpt lat="44.7151" lon="4.66454">
        <ele>200</ele>
        <time>2013-02-08T08:15:34Z</time>
      </trkpt>
      <trkpt lat="44.71512" lon="4.66454">
        <ele>200</ele>
        <time>2013-02-08T08:15:36Z</time>
      </trkpt>
      <trkpt lat="44.71514" lon="4.66455">
        <ele>200</ele>
        <time>2013-02-08T08:15:38Z</time>
      </trkpt>
      <trkpt lat="44.71516" lon="4.66455">
        <ele>200</ele>
        <time>2013-02-08T08:15:40Z</time>
      </trkpt>
      <trkpt lat="44.71518" lon="4.66455">
        <ele>200</ele>
        <time>2013-02-08T08:15:42Z</time>
      </trkpt>
      <trkpt lat="44.7152" lon="4.66455">
        <ele>201</ele>
        <time>2013-02-08T08:15:44Z</time>
      </trkpt>
      <trkpt lat="44.71521" lon="4.66455">
        <ele>201</ele>
        <time>2013-02-08T08:15:46Z</time>
      </trkpt>
      <trkpt lat="44.71523" lon="4.66456">
        <ele>201</ele>
        <time>2013-02-08T08:15:48Z</time>
      </trkpt>
      <trkpt lat="44.71525" lon="4.66456">
        <ele>201</ele>
        <time>2013-02-08T08:15:50Z</time>
      </trkpt>
      <trkpt lat="44.71527" lon="4.66457">
        <ele>201</ele>
        <time>2013-02-08T08:15:52Z</time>
      </trkpt>
      <trkpt lat="44.71529" lon="4.66457">
        <ele>201</ele>
        <time>2013-02-08T08:15:54Z</time>
      </trkpt>
      <trkpt lat="44.7153" lon="4.66458">
        <ele>201</ele>
        <time>2013-02-08T08:15:56Z</time>
      </trkpt>
      <trkpt lat="44.71532" lon="4.66458">
        <ele>201</ele>
        <time>2013-02-08T08:15:58Z</time>
      </trkpt>
      <trkpt lat="44.71534" lon="4.66459">
        <ele>201</ele>
        <time>2013-02-08T08:16:00Z</time>
      </trkpt>
      <trkpt lat="44.71535" lon="4.66459">
        <ele>201</ele>
        <time>2013-02-08T08:16:02Z</time>
      </trkpt>
      <trkpt lat="44.71537" lon="4.66459">
        <ele>201</ele>
        <time>2013-02-08T08:16:04Z</time>
      </trkpt>
      <trkpt lat="44.71539" lon="4.66459">
        <ele>202</ele>
        <time>2013-02-08T08:16:06Z</time>
      </trkpt>
      <trkpt lat="44.7154" lon="4.66459">
        <ele>202</ele>
        <time>2013-02-08T08:16:08Z</time>
      </trkpt>
      <trkpt lat="44.71542" lon="4.66458">
        <ele>202</ele>
        <time>2013-02-08T08:16:10Z</time>
      </trkpt>
      <trkpt lat="44.71544" lon="4.66459">
        <ele>202</ele>
        <time>2013-02-08T08:16:12Z</time>
      </trkpt>
      <trkpt lat="44.71545" lon="4.6646">
        <ele>202</ele>
        <time>2013-02-08T08:16:14Z</time>
      </trkpt>
      <trkpt lat="44.71546" lon="4.6646">
        <ele>202</ele>
        <time>2013-02-08T08:16:25Z</time>
      </trkpt>
      <trkpt lat="44.71547" lon="4.6646">
        <ele>202</ele>
        <time>2013-02-08T08:16:27Z</time>
      </trkpt>
      <trkpt lat="44.71549" lon="4.6646">
        <ele>202</ele>
        <time>2013-02-08T08:16:29Z</time>
      </trkpt>
      <trkpt lat="44.71551" lon="4.6646">
        <ele>203</ele>
        <time>2013-02-08T08:16:31Z</time>
      </trkpt>
      <trkpt lat="44.71553" lon="4.6646">
        <ele>203</ele>
        <time>2013-02-08T08:16:33Z</time>
      </trkpt>
      <trkpt lat="44.71554" lon="4.66461">
        <ele>203</ele>
        <time>2013-02-08T08:16:35Z</time>
      </trkpt>
      <trkpt lat="44.71556" lon="4.6646">
        <ele>203</ele>
        <time>2013-02-08T08:16:37Z</time>
      </trkpt>
      <trkpt lat="44.71558" lon="4.6646">
        <ele>203</ele>
        <time>2013-02-08T08:16:39Z</time>
      </trkpt>
      <trkpt lat="44.71559" lon="4.6646">
        <ele>203</ele>
        <time>2013-02-08T08:16:41Z</time>
      </trkpt>
      <trkpt lat="44.71561" lon="4.6646">
        <ele>204</ele>
        <time>2013-02-08T08:16:43Z</time>
      </trkpt>
      <trkpt lat="44.71563" lon="4.66459">
        <ele>204</ele>
        <time>2013-02-08T08:16:45Z</time>
      </trkpt>
      <trkpt lat="44.71564" lon="4.66459">
        <ele>204</ele>
        <time>2013-02-08T08:16:47Z</time>
      </trkpt>
      <trkpt lat="44.71566" lon="4.66459">
        <ele>204</ele>
        <time>2013-02-08T08:16:49Z</time>
      </trkpt>
      <trkpt lat="44.71568" lon="4.6646">
        <ele>204</ele>
        <time>2013-02-08T08:16:51Z</time>
      </trkpt>
      <trkpt lat="44.71569" lon="4.6646">
        <ele>204</ele>
        <time>2013-02-08T08:16:53Z</time>
      </trkpt>
      <trkpt lat="44.7157" lon="4.6646">
        <ele>204</ele>
        <time>2013-02-08T08:16:56Z</time>
      </trkpt>
      <trkpt lat="44.71571" lon="4.66461">
        <ele>204</ele>
        <time>2013-02-08T08:17:13Z</time>
      </trkpt>
      <trkpt lat="44.71573" lon="4.66462">
        <ele>204</ele>
        <time>2013-02-08T08:17:15Z</time>
      </trkpt>
      <trkpt lat="44.71574" lon="4.66463">
        <ele>204</ele>
        <time>2013-02-08T08:17:17Z</time>
      </trkpt>
      <trkpt lat="44.71576" lon="4.66463">
        <ele>204</ele>
        <time>2013-02-08T08:17:19Z</time>
      </trkpt>
      <trkpt lat="44.71578" lon="4.66463">
        <ele>204</ele>
        <time>2013-02-08T08:17:21Z</time>
      </trkpt>
      <trkpt lat="44.71579" lon="4.66464">
        <ele>204</ele>
        <time>2013-02-08T08:17:23Z</time>
      </trkpt>
      <trkpt lat="44.71581" lon="4.66465">
        <ele>204</ele>
        <time>2013-02-08T08:17:25Z</time>
      </trkpt>
      <trkpt lat="44.71582" lon="4.66465">
        <ele>203</ele>
        <time>2013-02-08T08:17:27Z</time>
      </trkpt>
      <trkpt lat="44.71583" lon="4.66466">
        <ele>203</ele>
        <time>2013-02-08T08:17:29Z</time>
      </trkpt>
      <trkpt lat="44.71585" lon="4.66467">
        <ele>212</ele>
        <time>2013-02-08T08:17:32Z</time>
      </trkpt>
      <trkpt lat="44.71587" lon="4.66467">
        <ele>212</ele>
        <time>2013-02-08T08:17:34Z</time>
      </trkpt>
      <trkpt lat="44.71588" lon="4.66468">
        <ele>212</ele>
        <time>2013-02-08T08:17:36Z</time>
      </trkpt>
      <trkpt lat="44.7159" lon="4.66468">
        <ele>212</ele>
        <time>2013-02-08T08:17:38Z</time>
      </trkpt>
      <trkpt lat="44.71592" lon="4.66469">
        <ele>212</ele>
        <time>2013-02-08T08:17:40Z</time>
      </trkpt>
      <trkpt lat="44.71593" lon="4.6647">
        <ele>212</ele>
        <time>2013-02-08T08:17:42Z</time>
      </trkpt>
      <trkpt lat="44.71595" lon="4.6647">
        <ele>212</ele>
        <time>2013-02-08T08:17:44Z</time>
      </trkpt>
      <trkpt lat="44.71596" lon="4.66471">
        <ele>212</ele>
        <time>2013-02-08T08:17:46Z</time>
      </trkpt>
      <trkpt lat="44.71598" lon="4.66471">
        <ele>212</ele>
        <time>2013-02-08T08:17:48Z</time>
      </trkpt>
      <trkpt lat="44.71599" lon="4.66472">
        <ele>212</ele>
        <time>2013-02-08T08:17:50Z</time>
      </trkpt>
      <trkpt lat="44.716" lon="4.66472">
        <ele>212</ele>
        <time>2013-02-08T08:17:52Z</time>
      </trkpt>
      <trkpt lat="44.71601" lon="4.66472">
        <ele>212</ele>
        <time>2013-02-08T08:17:56Z</time>
      </trkpt>
      <trkpt lat="44.71603" lon="4.66473">
        <ele>212</ele>
        <time>2013-02-08T08:17:58Z</time>
      </trkpt>
      <trkpt lat="44.71604" lon="4.66473">
        <ele>212</ele>
        <time>2013-02-08T08:18:00Z</time>
      </trkpt>
      <trkpt lat="44.71606" lon="4.66473">
        <ele>212</ele>
        <time>2013-02-08T08:18:02Z</time>
      </trkpt>
      <trkpt lat="44.71607" lon="4.66474">
        <ele>212</ele>
        <time>2013-02-08T08:18:04Z</time>
      </trkpt>
      <trkpt lat="44.71608" lon="4.66474">
        <ele>212</ele>
        <time>2013-02-08T08:18:06Z</time>
      </trkpt>
      <trkpt lat="44.7161" lon="4.66474">
        <ele>212</ele>
        <time>2013-02-08T08:18:08Z</time>
      </trkpt>
      <trkpt lat="44.71611" lon="4.66475">
        <ele>212</ele>
        <time>2013-02-08T08:18:10Z</time>
      </trkpt>
      <trkpt lat="44.71613" lon="4.66475">
        <ele>213</ele>
        <time>2013-02-08T08:18:12Z</time>
      </trkpt>
      <trkpt lat="44.71615" lon="4.66475">
        <ele>213</ele>
        <time>2013-02-08T08:18:14Z</time>
      </trkpt>
      <trkpt lat="44.71616" lon="4.66475">
        <ele>213</ele>
        <time>2013-02-08T08:18:16Z</time>
      </trkpt>
      <trkpt lat="44.71618" lon="4.66476">
        <ele>213</ele>
        <time>2013-02-08T08:18:18Z</time>
      </trkpt>
      <trkpt lat="44.71619" lon="4.66476">
        <ele>213</ele>
        <time>2013-02-08T08:18:20Z</time>
      </trkpt>
      <trkpt lat="44.71621" lon="4.66476">
        <ele>213</ele>
        <time>2013-02-08T08:18:22Z</time>
      </trkpt>
      <trkpt lat="44.71623" lon="4.66477">
        <ele>213</ele>
        <time>2013-02-08T08:18:24Z</time>
      </trkpt>
      <trkpt lat="44.71624" lon="4.66477">
        <ele>214</ele>
        <time>2013-02-08T08:18:26Z</time>
      </trkpt>
      <trkpt lat="44.71626" lon="4.66477">
        <ele>214</ele>
        <time>2013-02-08T08:18:28Z</time>
      </trkpt>
      <trkpt lat="44.71627" lon="4.66477">
        <ele>214</ele>
        <time>2013-02-08T08:18:30Z</time>
      </trkpt>
      <trkpt lat="44.71629" lon="4.66478">
        <ele>214</ele>
        <time>2013-02-08T08:18:32Z</time>
      </trkpt>
      <trkpt lat="44.71631" lon="4.66478">
        <ele>214</ele>
        <time>2013-02-08T08:18:34Z</time>
      </trkpt>
      <trkpt lat="44.71632" lon="4.66478">
        <ele>214</ele>
        <time>2013-02-08T08:18:36Z</time>
      </trkpt>
      <trkpt lat="44.71633" lon="4.66478">
        <ele>214</ele>
        <time>2013-02-08T08:18:38Z</time>
      </trkpt>
      <trkpt lat="44.71635" lon="4.66478">
        <ele>214</ele>
        <time>2013-02-08T08:18:40Z</time>
      </trkpt>
      <trkpt lat="44.71636" lon="4.66478">
        <ele>214</ele>
        <time>2013-02-08T08:18:42Z</time>
      </trkpt>
      <trkpt lat="44.71638" lon="4.66478">
        <ele>214</ele>
        <time>2013-02-08T08:18:44Z</time>
      </trkpt>
      <trkpt lat="44.71639" lon="4.66478">
        <ele>214</ele>
        <time>2013-02-08T08:18:46Z</time>
      </trkpt>
      <trkpt lat="44.7164" lon="4.66477">
        <ele>214</ele>
        <time>2013-02-08T08:18:48Z</time>
      </trkpt>
      <trkpt lat="44.71642" lon="4.66477">
        <ele>214</ele>
        <time>2013-02-08T08:18:50Z</time>
      </trkpt>
      <trkpt lat="44.71643" lon="4.66476">
        <ele>215</ele>
        <time>2013-02-08T08:18:52Z</time>
      </trkpt>
      <trkpt lat="44.71645" lon="4.66477">
        <ele>215</ele>
        <time>2013-02-08T08:18:54Z</time>
      </trkpt>
      <trkpt lat="44.71646" lon="4.66477">
        <ele>215</ele>
        <time>2013-02-08T08:18:56Z</time>
      </trkpt>
      <trkpt lat="44.71648" lon="4.66477">
        <ele>215</ele>
        <time>2013-02-08T08:18:58Z</time>
      </trkpt>
      <trkpt lat="44.71649" lon="4.66477">
        <ele>215</ele>
        <time>2013-02-08T08:19:00Z</time>
      </trkpt>
      <trkpt lat="44.7165" lon="4.66476">
        <ele>215</ele>
        <time>2013-02-08T08:19:02Z</time>
      </trkpt>
      <trkpt lat="44.71652" lon="4.66476">
        <ele>215</ele>
        <time>2013-02-08T08:19:04Z</time>
      </trkpt>
      <trkpt lat="44.71654" lon="4.66476">
        <ele>215</ele>
        <time>2013-02-08T08:19:06Z</time>
      </trkpt>
      <trkpt lat="44.71655" lon="4.66475">
        <ele>215</ele>
        <time>2013-02-08T08:19:08Z</time>
      </trkpt>
      <trkpt lat="44.71657" lon="4.66475">
        <ele>215</ele>
        <time>2013-02-08T08:19:10Z</time>
      </trkpt>
      <trkpt lat="44.71659" lon="4.66474">
        <ele>215</ele>
        <time>2013-02-08T08:19:12Z</time>
      </trkpt>
      <trkpt lat="44.7166" lon="4.66473">
        <ele>215</ele>
        <time>2013-02-08T08:19:14Z</time>
      </trkpt>
      <trkpt lat="44.71662" lon="4.66472">
        <ele>215</ele>
        <time>2013-02-08T08:19:16Z</time>
      </trkpt>
      <trkpt lat="44.71663" lon="4.66472">
        <ele>216</ele>
        <time>2013-02-08T08:19:18Z</time>
      </trkpt>
      <trkpt lat="44.71664" lon="4.66471">
        <ele>216</ele>
        <time>2013-02-08T08:19:20Z</time>
      </trkpt>
      <trkpt lat="44.71666" lon="4.66469">
        <ele>216</ele>
        <time>2013-02-08T08:19:22Z</time>
      </trkpt>
      <trkpt lat="44.71667" lon="4.66468">
        <ele>224</ele>
        <time>2013-02-08T08:19:24Z</time>
      </trkpt>
      <trkpt lat="44.71669" lon="4.66468">
        <ele>224</ele>
        <time>2013-02-08T08:19:26Z</time>
      </trkpt>
      <trkpt lat="44.7167" lon="4.66467">
        <ele>224</ele>
        <time>2013-02-08T08:19:28Z</time>
      </trkpt>
      <trkpt lat="44.71671" lon="4.66466">
        <ele>225</ele>
        <time>2013-02-08T08:19:30Z</time>
      </trkpt>
      <trkpt lat="44.71673" lon="4.66465">
        <ele>225</ele>
        <time>2013-02-08T08:19:32Z</time>
      </trkpt>
      <trkpt lat="44.71674" lon="4.66465">
        <ele>225</ele>
        <time>2013-02-08T08:19:34Z</time>
      </trkpt>
      <trkpt lat="44.71676" lon="4.66465">
        <ele>225</ele>
        <time>2013-02-08T08:19:36Z</time>
      </trkpt>
      <trkpt lat="44.71677" lon="4.66464">
        <ele>226</ele>
        <time>2013-02-08T08:19:39Z</time>
      </trkpt>
      <trkpt lat="44.71679" lon="4.66464">
        <ele>226</ele>
        <time>2013-02-08T08:19:41Z</time>
      </trkpt>
      <trkpt lat="44.7168" lon="4.66464">
        <ele>226</ele>
        <time>2013-02-08T08:19:43Z</time>
      </trkpt>
      <trkpt lat="44.71681" lon="4.66463">
        <ele>226</ele>
        <time>2013-02-08T08:19:45Z</time>
      </trkpt>
      <trkpt lat="44.71682" lon="4.66463">
        <ele>226</ele>
        <time>2013-02-08T08:19:47Z</time>
      </trkpt>
      <trkpt lat="44.71684" lon="4.66462">
        <ele>227</ele>
        <time>2013-02-08T08:19:49Z</time>
      </trkpt>
      <trkpt lat="44.71685" lon="4.66462">
        <ele>227</ele>
        <time>2013-02-08T08:19:51Z</time>
      </trkpt>
      <trkpt lat="44.71686" lon="4.66462">
        <ele>227</ele>
        <time>2013-02-08T08:19:53Z</time>
      </trkpt>
      <trkpt lat="44.71687" lon="4.66462">
        <ele>227</ele>
        <time>2013-02-08T08:19:55Z</time>
      </trkpt>
      <trkpt lat="44.71689" lon="4.66462">
        <ele>227</ele>
        <time>2013-02-08T08:19:57Z</time>
      </trkpt>
      <trkpt lat="44.7169" lon="4.66461">
        <ele>227</ele>
        <time>2013-02-08T08:19:59Z</time>
      </trkpt>
      <trkpt lat="44.71692" lon="4.66461">
        <ele>227</ele>
        <time>2013-02-08T08:20:01Z</time>
      </trkpt>
      <trkpt lat="44.71693" lon="4.66461">
        <ele>227</ele>
        <time>2013-02-08T08:20:03Z</time>
      </trkpt>
      <trkpt lat="44.71695" lon="4.66461">
        <ele>228</ele>
        <time>2013-02-08T08:20:05Z</time>
      </trkpt>
      <trkpt lat="44.71697" lon="4.66461">
        <ele>228</ele>
        <time>2013-02-08T08:20:07Z</time>
      </trkpt>
      <trkpt lat="44.71699" lon="4.66461">
        <ele>228</ele>
        <time>2013-02-08T08:20:09Z</time>
      </trkpt>
      <trkpt lat="44.717" lon="4.66462">
        <ele>228</ele>
        <time>2013-02-08T08:20:11Z</time>
      </trkpt>
      <trkpt lat="44.71702" lon="4.66462">
        <ele>228</ele>
        <time>2013-02-08T08:20:13Z</time>
      </trkpt>
      <trkpt lat="44.71704" lon="4.66462">
        <ele>228</ele>
        <time>2013-02-08T08:20:15Z</time>
      </trkpt>
      <trkpt lat="44.71705" lon="4.66463">
        <ele>228</ele>
        <time>2013-02-08T08:20:17Z</time>
      </trkpt>
      <trkpt lat="44.71707" lon="4.66463">
        <ele>228</ele>
        <time>2013-02-08T08:20:19Z</time>
      </trkpt>
      <trkpt lat="44.71709" lon="4.66463">
        <ele>228</ele>
        <time>2013-02-08T08:20:21Z</time>
      </trkpt>
      <trkpt lat="44.71711" lon="4.66462">
        <ele>228</ele>
        <time>2013-02-08T08:20:23Z</time>
      </trkpt>
      <trkpt lat="44.71713" lon="4.66463">
        <ele>229</ele>
        <time>2013-02-08T08:20:25Z</time>
      </trkpt>
      <trkpt lat="44.71714" lon="4.66463">
        <ele>229</ele>
        <time>2013-02-08T08:20:27Z</time>
      </trkpt>
      <trkpt lat="44.71716" lon="4.66463">
        <ele>229</ele>
        <time>2013-02-08T08:20:29Z</time>
      </trkpt>
      <trkpt lat="44.71717" lon="4.66464">
        <ele>229</ele>
        <time>2013-02-08T08:20:31Z</time>
      </trkpt>
      <trkpt lat="44.71718" lon="4.66465">
        <ele>228</ele>
        <time>2013-02-08T08:20:33Z</time>
      </trkpt>
      <trkpt lat="44.7172" lon="4.66465">
        <ele>228</ele>
        <time>2013-02-08T08:20:35Z</time>
      </trkpt>
      <trkpt lat="44.71722" lon="4.66466">
        <ele>228</ele>
        <time>2013-02-08T08:20:37Z</time>
      </trkpt>
      <trkpt lat="44.71723" lon="4.66467">
        <ele>228</ele>
        <time>2013-02-08T08:20:39Z</time>
      </trkpt>
      <trkpt lat="44.71725" lon="4.66468">
        <ele>228</ele>
        <time>2013-02-08T08:20:41Z</time>
      </trkpt>
      <trkpt lat="44.71727" lon="4.66469">
        <ele>228</ele>
        <time>2013-02-08T08:20:43Z</time>
      </trkpt>
      <trkpt lat="44.71728" lon="4.6647">
        <ele>228</ele>
        <time>2013-02-08T08:20:45Z</time>
      </trkpt>
      <trkpt lat="44.7173" lon="4.66471">
        <ele>228</ele>
        <time>2013-02-08T08:20:47Z</time>
      </trkpt>
      <trkpt lat="44.71732" lon="4.66472">
        <ele>227</ele>
        <time>2013-02-08T08:20:49Z</time>
      </trkpt>
      <trkpt lat="44.71734" lon="4.66473">
        <ele>227</ele>
        <time>2013-02-08T08:20:51Z</time>
      </trkpt>
      <trkpt lat="44.71735" lon="4.66475">
        <ele>227</ele>
        <time>2013-02-08T08:20:53Z</time>
      </trkpt>
      <trkpt lat="44.71736" lon="4.66476">
        <ele>226</ele>
        <time>2013-02-08T08:20:55Z</time>
      </trkpt>
      <trkpt lat="44.71736" lon="4.66478">
        <ele>226</ele>
        <time>2013-02-08T08:21:09Z</time>
      </trkpt>
      <trkpt lat="44.71735" lon="4.66479">
        <ele>226</ele>
        <time>2013-02-08T08:21:23Z</time>
      </trkpt>
      <trkpt lat="44.71737" lon="4.66479">
        <ele>226</ele>
        <time>2013-02-08T08:21:28Z</time>
      </trkpt>
      <trkpt lat="44.71738" lon="4.6648">
        <ele>226</ele>
        <time>2013-02-08T08:21:30Z</time>
      </trkpt>
      <trkpt lat="44.7174" lon="4.66481">
        <ele>225</ele>
        <time>2013-02-08T08:21:32Z</time>
      </trkpt>
      <trkpt lat="44.71742" lon="4.66481">
        <ele>225</ele>
        <time>2013-02-08T08:21:34Z</time>
      </trkpt>
      <trkpt lat="44.71743" lon="4.66482">
        <ele>225</ele>
        <time>2013-02-08T08:21:36Z</time>
      </trkpt>
      <trkpt lat="44.71745" lon="4.66483">
        <ele>225</ele>
        <time>2013-02-08T08:21:38Z</time>
      </trkpt>
      <trkpt lat="44.71746" lon="4.66483">
        <ele>224</ele>
        <time>2013-02-08T08:21:40Z</time>
      </trkpt>
      <trkpt lat="44.71748" lon="4.66484">
        <ele>224</ele>
        <time>2013-02-08T08:21:42Z</time>
      </trkpt>
      <trkpt lat="44.7175" lon="4.66484">
        <ele>229</ele>
        <time>2013-02-08T08:21:44Z</time>
      </trkpt>
      <trkpt lat="44.71752" lon="4.66485">
        <ele>229</ele>
        <time>2013-02-08T08:21:46Z</time>
      </trkpt>
      <trkpt lat="44.71754" lon="4.66485">
        <ele>229</ele>
        <time>2013-02-08T08:21:48Z</time>
      </trkpt>
      <trkpt lat="44.71756" lon="4.66485">
        <ele>229</ele>
        <time>2013-02-08T08:21:50Z</time>
      </trkpt>
      <trkpt lat="44.71758" lon="4.66485">
        <ele>229</ele>
        <time>2013-02-08T08:21:52Z</time>
      </trkpt>
      <trkpt lat="44.71759" lon="4.66486">
        <ele>229</ele>
        <time>2013-02-08T08:21:54Z</time>
      </trkpt>
      <trkpt lat="44.71761" lon="4.66486">
        <ele>230</ele>
        <time>2013-02-08T08:21:56Z</time>
      </trkpt>
      <trkpt lat="44.71763" lon="4.66487">
        <ele>230</ele>
        <time>2013-02-08T08:21:58Z</time>
      </trkpt>
      <trkpt lat="44.71764" lon="4.66488">
        <ele>230</ele>
        <time>2013-02-08T08:22:00Z</time>
      </trkpt>
      <trkpt lat="44.71766" lon="4.66488">
        <ele>230</ele>
        <time>2013-02-08T08:22:02Z</time>
      </trkpt>
      <trkpt lat="44.71768" lon="4.66488">
        <ele>231</ele>
        <time>2013-02-08T08:22:04Z</time>
      </trkpt>
      <trkpt lat="44.71769" lon="4.66488">
        <ele>231</ele>
        <time>2013-02-08T08:22:06Z</time>
      </trkpt>
      <trkpt lat="44.71771" lon="4.66487">
        <ele>232</ele>
        <time>2013-02-08T08:22:08Z</time>
      </trkpt>
      <trkpt lat="44.71773" lon="4.66487">
        <ele>232</ele>
        <time>2013-02-08T08:22:10Z</time>
      </trkpt>
      <trkpt lat="44.71774" lon="4.66487">
        <ele>233</ele>
        <time>2013-02-08T08:22:12Z</time>
      </trkpt>
      <trkpt lat="44.71775" lon="4.66486">
        <ele>233</ele>
        <time>2013-02-08T08:22:21Z</time>
      </trkpt>
      <trkpt lat="44.71777" lon="4.66487">
        <ele>233</ele>
        <time>2013-02-08T08:22:23Z</time>
      </trkpt>
      <trkpt lat="44.71779" lon="4.66487">
        <ele>234</ele>
        <time>2013-02-08T08:22:25Z</time>
      </trkpt>
      <trkpt lat="44.71781" lon="4.66487">
        <ele>234</ele>
        <time>2013-02-08T08:22:27Z</time>
      </trkpt>
      <trkpt lat="44.71782" lon="4.66487">
        <ele>234</ele>
        <time>2013-02-08T08:22:29Z</time>
      </trkpt>
      <trkpt lat="44.71784" lon="4.66487">
        <ele>234</ele>
        <time>2013-02-08T08:22:31Z</time>
      </trkpt>
      <trkpt lat="44.71785" lon="4.66488">
        <ele>235</ele>
        <time>2013-02-08T08:22:33Z</time>
      </trkpt>
      <trkpt lat="44.71787" lon="4.66487">
        <ele>235</ele>
        <time>2013-02-08T08:22:35Z</time>
      </trkpt>
      <trkpt lat="44.71789" lon="4.66487">
        <ele>235</ele>
        <time>2013-02-08T08:22:37Z</time>
      </trkpt>
      <trkpt lat="44.7179" lon="4.66487">
        <ele>235</ele>
        <time>2013-02-08T08:22:39Z</time>
      </trkpt>
      <trkpt lat="44.71792" lon="4.66486">
        <ele>235</ele>
        <time>2013-02-08T08:22:41Z</time>
      </trkpt>
      <trkpt lat="44.71794" lon="4.66485">
        <ele>236</ele>
        <time>2013-02-08T08:22:43Z</time>
      </trkpt>
      <trkpt lat="44.71796" lon="4.66485">
        <ele>236</ele>
        <time>2013-02-08T08:22:45Z</time>
      </trkpt>
      <trkpt lat="44.71797" lon="4.66485">
        <ele>236</ele>
        <time>2013-02-08T08:22:47Z</time>
      </trkpt>
      <trkpt lat="44.718" lon="4.66486">
        <ele>236</ele>
        <time>2013-02-08T08:22:50Z</time>
      </trkpt>
      <trkpt lat="44.71802" lon="4.66486">
        <ele>236</ele>
        <time>2013-02-08T08:22:52Z</time>
      </trkpt>
      <trkpt lat="44.71803" lon="4.66486">
        <ele>236</ele>
        <time>2013-02-08T08:22:54Z</time>
      </trkpt>
      <trkpt lat="44.71804" lon="4.66486">
        <ele>236</ele>
        <time>2013-02-08T08:22:56Z</time>
      </trkpt>
      <trkpt lat="44.71806" lon="4.66486">
        <ele>236</ele>
        <time>2013-02-08T08:22:58Z</time>
      </trkpt>
      <trkpt lat="44.71808" lon="4.66486">
        <ele>236</ele>
        <time>2013-02-08T08:23:00Z</time>
      </trkpt>
      <trkpt lat="44.71809" lon="4.66486">
        <ele>236</ele>
        <time>2013-02-08T08:23:02Z</time>
      </trkpt>
      <trkpt lat="44.71811" lon="4.66486">
        <ele>236</ele>
        <time>2013-02-08T08:23:04Z</time>
      </trkpt>
      <trkpt lat="44.71813" lon="4.66486">
        <ele>236</ele>
        <time>2013-02-08T08:23:06Z</time>
      </trkpt>
      <trkpt lat="44.71815" lon="4.66486">
        <ele>236</ele>
        <time>2013-02-08T08:23:08Z</time>
      </trkpt>
      <trkpt lat="44.71817" lon="4.66486">
        <ele>236</ele>
        <time>2013-02-08T08:23:10Z</time>
      </trkpt>
      <trkpt lat="44.71818" lon="4.66486">
        <ele>236</ele>
        <time>2013-02-08T08:23:12Z</time>
      </trkpt>
      <trkpt lat="44.7182" lon="4.66486">
        <ele>235</ele>
        <time>2013-02-08T08:23:14Z</time>
      </trkpt>
      <trkpt lat="44.71822" lon="4.66486">
        <ele>235</ele>
        <time>2013-02-08T08:23:16Z</time>
      </trkpt>
      <trkpt lat="44.71824" lon="4.66486">
        <ele>235</ele>
        <time>2013-02-08T08:23:18Z</time>
      </trkpt>
      <trkpt lat="44.71825" lon="4.66486">
        <ele>235</ele>
        <time>2013-02-08T08:23:20Z</time>
      </trkpt>
      <trkpt lat="44.71827" lon="4.66487">
        <ele>235</ele>
        <time>2013-02-08T08:23:22Z</time>
      </trkpt>
      <trkpt lat="44.71829" lon="4.66487">
        <ele>235</ele>
        <time>2013-02-08T08:23:24Z</time>
      </trkpt>
      <trkpt lat="44.71831" lon="4.66487">
        <ele>234</ele>
        <time>2013-02-08T08:23:26Z</time>
      </trkpt>
      <trkpt lat="44.71832" lon="4.66487">
        <ele>234</ele>
        <time>2013-02-08T08:23:29Z</time>
      </trkpt>
      <trkpt lat="44.71835" lon="4.66487">
        <ele>239</ele>
        <time>2013-02-08T08:23:32Z</time>
      </trkpt>
      <trkpt lat="44.71837" lon="4.66487">
        <ele>239</ele>
        <time>2013-02-08T08:23:34Z</time>
      </trkpt>
      <trkpt lat="44.71838" lon="4.66487">
        <ele>239</ele>
        <time>2013-02-08T08:23:36Z</time>
      </trkpt>
      <trkpt lat="44.7184" lon="4.66487">
        <ele>240</ele>
        <time>2013-02-08T08:23:38Z</time>
      </trkpt>
      <trkpt lat="44.71841" lon="4.66487">
        <ele>240</ele>
        <time>2013-02-08T08:23:40Z</time>
      </trkpt>
      <trkpt lat="44.71843" lon="4.66487">
        <ele>240</ele>
        <time>2013-02-08T08:23:42Z</time>
      </trkpt>
      <trkpt lat="44.71845" lon="4.66486">
        <ele>241</ele>
        <time>2013-02-08T08:23:44Z</time>
      </trkpt>
      <trkpt lat="44.71846" lon="4.66486">
        <ele>241</ele>
        <time>2013-02-08T08:23:46Z</time>
      </trkpt>
      <trkpt lat="44.71847" lon="4.66486">
        <ele>242</ele>
        <time>2013-02-08T08:23:48Z</time>
      </trkpt>
      <trkpt lat="44.71849" lon="4.66485">
        <ele>242</ele>
        <time>2013-02-08T08:23:50Z</time>
      </trkpt>
      <trkpt lat="44.71851" lon="4.66485">
        <ele>243</ele>
        <time>2013-02-08T08:23:52Z</time>
      </trkpt>
      <trkpt lat="44.71852" lon="4.66484">
        <ele>243</ele>
        <time>2013-02-08T08:23:54Z</time>
      </trkpt>
      <trkpt lat="44.71853" lon="4.66484">
        <ele>244</ele>
        <time>2013-02-08T08:23:56Z</time>
      </trkpt>
      <trkpt lat="44.71855" lon="4.66483">
        <ele>244</ele>
        <time>2013-02-08T08:23:58Z</time>
      </trkpt>
      <trkpt lat="44.71857" lon="4.66483">
        <ele>245</ele>
        <time>2013-02-08T08:24:00Z</time>
      </trkpt>
      <trkpt lat="44.71859" lon="4.66483">
        <ele>245</ele>
        <time>2013-02-08T08:24:03Z</time>
      </trkpt>
      <trkpt lat="44.71861" lon="4.66483">
        <ele>245</ele>
        <time>2013-02-08T08:24:05Z</time>
      </trkpt>
      <trkpt lat="44.71862" lon="4.66484">
        <ele>245</ele>
        <time>2013-02-08T08:24:07Z</time>
      </trkpt>
      <trkpt lat="44.71863" lon="4.66484">
        <ele>246</ele>
        <time>2013-02-08T08:24:09Z</time>
      </trkpt>
      <trkpt lat="44.71865" lon="4.66484">
        <ele>246</ele>
        <time>2013-02-08T08:24:11Z</time>
      </trkpt>
      <trkpt lat="44.71866" lon="4.66484">
        <ele>246</ele>
        <time>2013-02-08T08:24:13Z</time>
      </trkpt>
      <trkpt lat="44.71868" lon="4.66485">
        <ele>246</ele>
        <time>2013-02-08T08:24:15Z</time>
      </trkpt>
      <trkpt lat="44.7187" lon="4.66485">
        <ele>246</ele>
        <time>2013-02-08T08:24:17Z</time>
      </trkpt>
      <trkpt lat="44.71871" lon="4.66485">
        <ele>247</ele>
        <time>2013-02-08T08:24:19Z</time>
      </trkpt>
      <trkpt lat="44.71873" lon="4.66486">
        <ele>247</ele>
        <time>2013-02-08T08:24:21Z</time>
      </trkpt>
      <trkpt lat="44.71874" lon="4.66487">
        <ele>247</ele>
        <time>2013-02-08T08:24:23Z</time>
      </trkpt>
      <trkpt lat="44.71875" lon="4.66487">
        <ele>247</ele>
        <time>2013-02-08T08:24:25Z</time>
      </trkpt>
      <trkpt lat="44.71877" lon="4.66487">
        <ele>247</ele>
        <time>2013-02-08T08:24:27Z</time>
      </trkpt>
      <trkpt lat="44.71879" lon="4.66488">
        <ele>247</ele>
        <time>2013-02-08T08:24:29Z</time>
      </trkpt>
      <trkpt lat="44.7188" lon="4.66488">
        <ele>247</ele>
        <time>2013-02-08T08:24:31Z</time>
      </trkpt>
      <trkpt lat="44.71883" lon="4.66489">
        <ele>247</ele>
        <time>2013-02-08T08:24:34Z</time>
      </trkpt>
      <trkpt lat="44.71886" lon="4.66489">
        <ele>247</ele>
        <time>2013-02-08T08:24:36Z</time>
      </trkpt>
      <trkpt lat="44.71887" lon="4.6649">
        <ele>247</ele>
        <time>2013-02-08T08:24:38Z</time>
      </trkpt>
      <trkpt lat="44.71889" lon="4.6649">
        <ele>247</ele>
        <time>2013-02-08T08:24:40Z</time>
      </trkpt>
      <trkpt lat="44.71891" lon="4.66491">
        <ele>247</ele>
        <time>2013-02-08T08:24:42Z</time>
      </trkpt>
      <trkpt lat="44.71893" lon="4.66491">
        <ele>247</ele>
        <time>2013-02-08T08:24:44Z</time>
      </trkpt>
      <trkpt lat="44.71895" lon="4.66491">
        <ele>247</ele>
        <time>2013-02-08T08:24:46Z</time>
      </trkpt>
      <trkpt lat="44.71896" lon="4.66491">
        <ele>247</ele>
        <time>2013-02-08T08:24:48Z</time>
      </trkpt>
      <trkpt lat="44.71898" lon="4.66491">
        <ele>246</ele>
        <time>2013-02-08T08:24:50Z</time>
      </trkpt>
      <trkpt lat="44.71899" lon="4.66491">
        <ele>246</ele>
        <time>2013-02-08T08:24:52Z</time>
      </trkpt>
      <trkpt lat="44.71901" lon="4.66491">
        <ele>246</ele>
        <time>2013-02-08T08:24:54Z</time>
      </trkpt>
      <trkpt lat="44.71903" lon="4.66491">
        <ele>246</ele>
        <time>2013-02-08T08:24:56Z</time>
      </trkpt>
      <trkpt lat="44.71905" lon="4.66492">
        <ele>246</ele>
        <time>2013-02-08T08:24:58Z</time>
      </trkpt>
      <trkpt lat="44.71907" lon="4.66492">
        <ele>245</ele>
        <time>2013-02-08T08:25:00Z</time>
      </trkpt>
      <trkpt lat="44.71909" lon="4.66492">
        <ele>245</ele>
        <time>2013-02-08T08:25:02Z</time>
      </trkpt>
      <trkpt lat="44.71911" lon="4.66492">
        <ele>245</ele>
        <time>2013-02-08T08:25:04Z</time>
      </trkpt>
      <trkpt lat="44.71912" lon="4.66492">
        <ele>244</ele>
        <time>2013-02-08T08:25:06Z</time>
      </trkpt>
      <trkpt lat="44.71914" lon="4.66492">
        <ele>244</ele>
        <time>2013-02-08T08:25:08Z</time>
      </trkpt>
      <trkpt lat="44.71915" lon="4.66493">
        <ele>244</ele>
        <time>2013-02-08T08:25:10Z</time>
      </trkpt>
      <trkpt lat="44.71917" lon="4.66493">
        <ele>246</ele>
        <time>2013-02-08T08:25:12Z</time>
      </trkpt>
      <trkpt lat="44.71919" lon="4.66493">
        <ele>246</ele>
        <time>2013-02-08T08:25:14Z</time>
      </trkpt>
      <trkpt lat="44.7192" lon="4.66494">
        <ele>246</ele>
        <time>2013-02-08T08:25:16Z</time>
      </trkpt>
      <trkpt lat="44.71922" lon="4.66494">
        <ele>247</ele>
        <time>2013-02-08T08:25:18Z</time>
      </trkpt>
      <trkpt lat="44.71924" lon="4.66495">
        <ele>247</ele>
        <time>2013-02-08T08:25:20Z</time>
      </trkpt>
      <trkpt lat="44.71925" lon="4.66495">
        <ele>248</ele>
        <time>2013-02-08T08:25:22Z</time>
      </trkpt>
      <trkpt lat="44.71927" lon="4.66495">
        <ele>249</ele>
        <time>2013-02-08T08:25:24Z</time>
      </trkpt>
      <trkpt lat="44.71928" lon="4.66496">
        <ele>249</ele>
        <time>2013-02-08T08:25:26Z</time>
      </trkpt>
      <trkpt lat="44.7193" lon="4.66496">
        <ele>250</ele>
        <time>2013-02-08T08:25:28Z</time>
      </trkpt>
      <trkpt lat="44.71932" lon="4.66496">
        <ele>251</ele>
        <time>2013-02-08T08:25:30Z</time>
      </trkpt>
      <trkpt lat="44.71933" lon="4.66497">
        <ele>251</ele>
        <time>2013-02-08T08:25:32Z</time>
      </trkpt>
      <trkpt lat="44.71935" lon="4.66497">
        <ele>252</ele>
        <time>2013-02-08T08:25:34Z</time>
      </trkpt>
      <trkpt lat="44.71936" lon="4.66497">
        <ele>252</ele>
        <time>2013-02-08T08:25:36Z</time>
      </trkpt>
      <trkpt lat="44.71938" lon="4.66497">
        <ele>253</ele>
        <time>2013-02-08T08:25:38Z</time>
      </trkpt>
      <trkpt lat="44.7194" lon="4.66498">
        <ele>253</ele>
        <time>2013-02-08T08:25:40Z</time>
      </trkpt>
      <trkpt lat="44.71943" lon="4.66498">
        <ele>254</ele>
        <time>2013-02-08T08:25:43Z</time>
      </trkpt>
      <trkpt lat="44.71945" lon="4.66497">
        <ele>254</ele>
        <time>2013-02-08T08:25:45Z</time>
      </trkpt>
      <trkpt lat="44.71947" lon="4.66497">
        <ele>255</ele>
        <time>2013-02-08T08:25:47Z</time>
      </trkpt>
      <trkpt lat="44.71948" lon="4.66497">
        <ele>255</ele>
        <time>2013-02-08T08:25:49Z</time>
      </trkpt>
      <trkpt lat="44.71949" lon="4.66497">
        <ele>255</ele>
        <time>2013-02-08T08:25:51Z</time>
      </trkpt>
      <trkpt lat="44.71951" lon="4.66497">
        <ele>255</ele>
        <time>2013-02-08T08:25:53Z</time>
      </trkpt>
      <trkpt lat="44.71953" lon="4.66498">
        <ele>256</ele>
        <time>2013-02-08T08:25:55Z</time>
      </trkpt>
      <trkpt lat="44.71954" lon="4.66497">
        <ele>256</ele>
        <time>2013-02-08T08:25:57Z</time>
      </trkpt>
      <trkpt lat="44.71956" lon="4.66497">
        <ele>256</ele>
        <time>2013-02-08T08:25:59Z</time>
      </trkpt>
      <trkpt lat="44.71958" lon="4.66497">
        <ele>256</ele>
        <time>2013-02-08T08:26:01Z</time>
      </trkpt>
      <trkpt lat="44.71961" lon="4.66498">
        <ele>257</ele>
        <time>2013-02-08T08:26:04Z</time>
      </trkpt>
      <trkpt lat="44.71962" lon="4.66498">
        <ele>257</ele>
        <time>2013-02-08T08:26:06Z</time>
      </trkpt>
      <trkpt lat="44.71964" lon="4.66498">
        <ele>257</ele>
        <time>2013-02-08T08:26:08Z</time>
      </trkpt>
      <trkpt lat="44.71965" lon="4.66498">
        <ele>257</ele>
        <time>2013-02-08T08:26:10Z</time>
      </trkpt>
      <trkpt lat="44.71967" lon="4.66497">
        <ele>257</ele>
        <time>2013-02-08T08:26:12Z</time>
      </trkpt>
      <trkpt lat="44.71969" lon="4.66497">
        <ele>257</ele>
        <time>2013-02-08T08:26:14Z</time>
      </trkpt>
      <trkpt lat="44.7197" lon="4.66497">
        <ele>257</ele>
        <time>2013-02-08T08:26:16Z</time>
      </trkpt>
      <trkpt lat="44.71971" lon="4.66496">
        <ele>257</ele>
        <time>2013-02-08T08:26:18Z</time>
      </trkpt>
      <trkpt lat="44.71973" lon="4.66496">
        <ele>257</ele>
        <time>2013-02-08T08:26:20Z</time>
      </trkpt>
      <trkpt lat="44.71974" lon="4.66495">
        <ele>257</ele>
        <time>2013-02-08T08:26:22Z</time>
      </trkpt>
      <trkpt lat="44.71975" lon="4.66495">
        <ele>257</ele>
        <time>2013-02-08T08:26:24Z</time>
      </trkpt>
      <trkpt lat="44.71977" lon="4.66494">
        <ele>257</ele>
        <time>2013-02-08T08:26:26Z</time>
      </trkpt>
      <trkpt lat="44.71978" lon="4.66494">
        <ele>257</ele>
        <time>2013-02-08T08:26:28Z</time>
      </trkpt>
      <trkpt lat="44.7198" lon="4.66494">
        <ele>257</ele>
        <time>2013-02-08T08:26:30Z</time>
      </trkpt>
      <trkpt lat="44.71981" lon="4.66494">
        <ele>257</ele>
        <time>2013-02-08T08:26:32Z</time>
      </trkpt>
      <trkpt lat="44.71983" lon="4.66493">
        <ele>257</ele>
        <time>2013-02-08T08:26:34Z</time>
      </trkpt>
      <trkpt lat="44.71985" lon="4.66493">
        <ele>256</ele>
        <time>2013-02-08T08:26:36Z</time>
      </trkpt>
      <trkpt lat="44.71986" lon="4.66493">
        <ele>256</ele>
        <time>2013-02-08T08:26:38Z</time>
      </trkpt>
      <trkpt lat="44.71988" lon="4.66493">
        <ele>256</ele>
        <time>2013-02-08T08:26:40Z</time>
      </trkpt>
      <trkpt lat="44.7199" lon="4.66493">
        <ele>255</ele>
        <time>2013-02-08T08:26:43Z</time>
      </trkpt>
      <trkpt lat="44.71992" lon="4.66494">
        <ele>255</ele>
        <time>2013-02-08T08:26:45Z</time>
      </trkpt>
      <trkpt lat="44.71993" lon="4.66495">
        <ele>254</ele>
        <time>2013-02-08T08:26:53Z</time>
      </trkpt>
      <trkpt lat="44.71994" lon="4.66496">
        <ele>254</ele>
        <time>2013-02-08T08:26:57Z</time>
      </trkpt>
      <trkpt lat="44.71996" lon="4.66496">
        <ele>253</ele>
        <time>2013-02-08T08:26:59Z</time>
      </trkpt>
      <trkpt lat="44.71998" lon="4.66497">
        <ele>253</ele>
        <time>2013-02-08T08:27:01Z</time>
      </trkpt>
      <trkpt lat="44.71999" lon="4.66498">
        <ele>252</ele>
        <time>2013-02-08T08:27:03Z</time>
      </trkpt>
      <trkpt lat="44.72002" lon="4.66498">
        <ele>253</ele>
        <time>2013-02-08T08:27:05Z</time>
      </trkpt>
      <trkpt lat="44.72004" lon="4.66499">
        <ele>254</ele>
        <time>2013-02-08T08:27:07Z</time>
      </trkpt>
      <trkpt lat="44.72006" lon="4.665">
        <ele>255</ele>
        <time>2013-02-08T08:27:09Z</time>
      </trkpt>
      <trkpt lat="44.72007" lon="4.66501">
        <ele>248</ele>
        <time>2013-02-08T08:27:11Z</time>
      </trkpt>
      <trkpt lat="44.72009" lon="4.66502">
        <ele>248</ele>
        <time>2013-02-08T08:27:13Z</time>
      </trkpt>
      <trkpt lat="44.72011" lon="4.66502">
        <ele>247</ele>
        <time>2013-02-08T08:27:15Z</time>
      </trkpt>
      <trkpt lat="44.72013" lon="4.66503">
        <ele>247</ele>
        <time>2013-02-08T08:27:17Z</time>
      </trkpt>
      <trkpt lat="44.72015" lon="4.66504">
        <ele>247</ele>
        <time>2013-02-08T08:27:19Z</time>
      </trkpt>
      <trkpt lat="44.72017" lon="4.66504">
        <ele>246</ele>
        <time>2013-02-08T08:27:21Z</time>
      </trkpt>
      <trkpt lat="44.72018" lon="4.66505">
        <ele>246</ele>
        <time>2013-02-08T08:27:23Z</time>
      </trkpt>
      <trkpt lat="44.7202" lon="4.66505">
        <ele>246</ele>
        <time>2013-02-08T08:27:25Z</time>
      </trkpt>
      <trkpt lat="44.72022" lon="4.66505">
        <ele>246</ele>
        <time>2013-02-08T08:27:27Z</time>
      </trkpt>
      <trkpt lat="44.72023" lon="4.66505">
        <ele>245</ele>
        <time>2013-02-08T08:27:29Z</time>
      </trkpt>
      <trkpt lat="44.72025" lon="4.66505">
        <ele>245</ele>
        <time>2013-02-08T08:27:31Z</time>
      </trkpt>
      <trkpt lat="44.72026" lon="4.66504">
        <ele>245</ele>
        <time>2013-02-08T08:27:33Z</time>
      </trkpt>
      <trkpt lat="44.72028" lon="4.66504">
        <ele>245</ele>
        <time>2013-02-08T08:27:35Z</time>
      </trkpt>
      <trkpt lat="44.7203" lon="4.66504">
        <ele>245</ele>
        <time>2013-02-08T08:27:37Z</time>
      </trkpt>
      <trkpt lat="44.72031" lon="4.66504">
        <ele>245</ele>
        <time>2013-02-08T08:27:39Z</time>
      </trkpt>
      <trkpt lat="44.72033" lon="4.66503">
        <ele>245</ele>
        <time>2013-02-08T08:27:41Z</time>
      </trkpt>
      <trkpt lat="44.72035" lon="4.66503">
        <ele>245</ele>
        <time>2013-02-08T08:27:43Z</time>
      </trkpt>
      <trkpt lat="44.72037" lon="4.66503">
        <ele>245</ele>
        <time>2013-02-08T08:27:45Z</time>
      </trkpt>
      <trkpt lat="44.72038" lon="4.66502">
        <ele>246</ele>
        <time>2013-02-08T08:27:47Z</time>
      </trkpt>
      <trkpt lat="44.7204" lon="4.66502">
        <ele>246</ele>
        <time>2013-02-08T08:27:49Z</time>
      </trkpt>
      <trkpt lat="44.72041" lon="4.66502">
        <ele>246</ele>
        <time>2013-02-08T08:27:51Z</time>
      </trkpt>
      <trkpt lat="44.72043" lon="4.66502">
        <ele>246</ele>
        <time>2013-02-08T08:27:53Z</time>
      </trkpt>
      <trkpt lat="44.72044" lon="4.66502">
        <ele>246</ele>
        <time>2013-02-08T08:27:55Z</time>
      </trkpt>
      <trkpt lat="44.72046" lon="4.66502">
        <ele>246</ele>
        <time>2013-02-08T08:28:05Z</time>
      </trkpt>
      <trkpt lat="44.72047" lon="4.66501">
        <ele>246</ele>
        <time>2013-02-08T08:28:10Z</time>
      </trkpt>
      <trkpt lat="44.72048" lon="4.66501">
        <ele>247</ele>
        <time>2013-02-08T08:28:24Z</time>
      </trkpt>
      <trkpt lat="44.72049" lon="4.665">
        <ele>247</ele>
        <time>2013-02-08T08:28:27Z</time>
      </trkpt>
      <trkpt lat="44.72051" lon="4.66499">
        <ele>265</ele>
        <time>2013-02-08T08:28:30Z</time>
      </trkpt>
      <trkpt lat="44.72052" lon="4.66499">
        <ele>265</ele>
        <time>2013-02-08T08:28:34Z</time>
      </trkpt>
      <trkpt lat="44.72053" lon="4.66498">
        <ele>265</ele>
        <time>2013-02-08T08:28:38Z</time>
      </trkpt>
      <trkpt lat="44.72055" lon="4.66497">
        <ele>265</ele>
        <time>2013-02-08T08:28:42Z</time>
      </trkpt>
      <trkpt lat="44.72056" lon="4.66497">
        <ele>265</ele>
        <time>2013-02-08T08:28:45Z</time>
      </trkpt>
      <trkpt lat="44.72058" lon="4.66496">
        <ele>265</ele>
        <time>2013-02-08T08:28:48Z</time>
      </trkpt>
      <trkpt lat="44.72059" lon="4.66496">
        <ele>265</ele>
        <time>2013-02-08T08:28:50Z</time>
      </trkpt>
      <trkpt lat="44.7206" lon="4.66495">
        <ele>265</ele>
        <time>2013-02-08T08:28:52Z</time>
      </trkpt>
      <trkpt lat="44.72062" lon="4.66495">
        <ele>265</ele>
        <time>2013-02-08T08:28:55Z</time>
      </trkpt>
      <trkpt lat="44.72064" lon="4.66495">
        <ele>264</ele>
        <time>2013-02-08T08:28:57Z</time>
      </trkpt>
      <trkpt lat="44.72065" lon="4.66493">
        <ele>264</ele>
        <time>2013-02-08T08:29:00Z</time>
      </trkpt>
      <trkpt lat="44.72066" lon="4.66493">
        <ele>264</ele>
        <time>2013-02-08T08:29:02Z</time>
      </trkpt>
      <trkpt lat="44.72068" lon="4.66493">
        <ele>264</ele>
        <time>2013-02-08T08:29:04Z</time>
      </trkpt>
      <trkpt lat="44.72069" lon="4.66492">
        <ele>264</ele>
        <time>2013-02-08T08:29:07Z</time>
      </trkpt>
      <trkpt lat="44.7207" lon="4.66492">
        <ele>264</ele>
        <time>2013-02-08T08:29:09Z</time>
      </trkpt>
      <trkpt lat="44.72072" lon="4.66492">
        <ele>264</ele>
        <time>2013-02-08T08:29:11Z</time>
      </trkpt>
      <trkpt lat="44.72073" lon="4.66492">
        <ele>264</ele>
        <time>2013-02-08T08:29:14Z</time>
      </trkpt>
      <trkpt lat="44.72075" lon="4.66491">
        <ele>264</ele>
        <time>2013-02-08T08:29:16Z</time>
      </trkpt>
      <trkpt lat="44.72076" lon="4.6649">
        <ele>264</ele>
        <time>2013-02-08T08:29:18Z</time>
      </trkpt>
      <trkpt lat="44.72078" lon="4.6649">
        <ele>263</ele>
        <time>2013-02-08T08:29:20Z</time>
      </trkpt>
      <trkpt lat="44.7208" lon="4.66489">
        <ele>263</ele>
        <time>2013-02-08T08:29:22Z</time>
      </trkpt>
      <trkpt lat="44.72081" lon="4.66489">
        <ele>264</ele>
        <time>2013-02-08T08:29:24Z</time>
      </trkpt>
      <trkpt lat="44.72083" lon="4.66488">
        <ele>264</ele>
        <time>2013-02-08T08:29:26Z</time>
      </trkpt>
      <trkpt lat="44.72085" lon="4.66487">
        <ele>265</ele>
        <time>2013-02-08T08:29:28Z</time>
      </trkpt>
      <trkpt lat="44.72086" lon="4.66486">
        <ele>265</ele>
        <time>2013-02-08T08:29:30Z</time>
      </trkpt>
      <trkpt lat="44.72088" lon="4.66485">
        <ele>265</ele>
        <time>2013-02-08T08:29:32Z</time>
      </trkpt>
      <trkpt lat="44.72089" lon="4.66485">
        <ele>266</ele>
        <time>2013-02-08T08:29:34Z</time>
      </trkpt>
      <trkpt lat="44.72091" lon="4.66484">
        <ele>266</ele>
        <time>2013-02-08T08:29:36Z</time>
      </trkpt>
      <trkpt lat="44.72093" lon="4.66484">
        <ele>266</ele>
        <time>2013-02-08T08:29:38Z</time>
      </trkpt>
      <trkpt lat="44.72094" lon="4.66483">
        <ele>267</ele>
        <time>2013-02-08T08:29:40Z</time>
      </trkpt>
      <trkpt lat="44.72096" lon="4.66482">
        <ele>267</ele>
        <time>2013-02-08T08:29:42Z</time>
      </trkpt>
      <trkpt lat="44.72097" lon="4.66481">
        <ele>267</ele>
        <time>2013-02-08T08:29:44Z</time>
      </trkpt>
      <trkpt lat="44.72099" lon="4.6648">
        <ele>267</ele>
        <time>2013-02-08T08:29:46Z</time>
      </trkpt>
      <trkpt lat="44.721" lon="4.66479">
        <ele>268</ele>
        <time>2013-02-08T08:29:48Z</time>
      </trkpt>
      <trkpt lat="44.72102" lon="4.66479">
        <ele>268</ele>
        <time>2013-02-08T08:29:50Z</time>
      </trkpt>
      <trkpt lat="44.72103" lon="4.66478">
        <ele>268</ele>
        <time>2013-02-08T08:29:52Z</time>
      </trkpt>
      <trkpt lat="44.72105" lon="4.66477">
        <ele>268</ele>
        <time>2013-02-08T08:29:54Z</time>
      </trkpt>
      <trkpt lat="44.72106" lon="4.66476">
        <ele>269</ele>
        <time>2013-02-08T08:29:56Z</time>
      </trkpt>
      <trkpt lat="44.72107" lon="4.66476">
        <ele>269</ele>
        <time>2013-02-08T08:29:58Z</time>
      </trkpt>
      <trkpt lat="44.72109" lon="4.66474">
        <ele>269</ele>
        <time>2013-02-08T08:30:01Z</time>
      </trkpt>
      <trkpt lat="44.7211" lon="4.66473">
        <ele>269</ele>
        <time>2013-02-08T08:30:03Z</time>
      </trkpt>
      <trkpt lat="44.72112" lon="4.66473">
        <ele>269</ele>
        <time>2013-02-08T08:30:05Z</time>
      </trkpt>
      <trkpt lat="44.72113" lon="4.66473">
        <ele>269</ele>
        <time>2013-02-08T08:30:07Z</time>
      </trkpt>
      <trkpt lat="44.72115" lon="4.66472">
        <ele>269</ele>
        <time>2013-02-08T08:30:09Z</time>
      </trkpt>
      <trkpt lat="44.72117" lon="4.66472">
        <ele>269</ele>
        <time>2013-02-08T08:30:11Z</time>
      </trkpt>
      <trkpt lat="44.72118" lon="4.66472">
        <ele>270</ele>
        <time>2013-02-08T08:30:13Z</time>
      </trkpt>
      <trkpt lat="44.72119" lon="4.66472">
        <ele>270</ele>
        <time>2013-02-08T08:30:15Z</time>
      </trkpt>
      <trkpt lat="44.72121" lon="4.66471">
        <ele>270</ele>
        <time>2013-02-08T08:30:17Z</time>
      </trkpt>
      <trkpt lat="44.72122" lon="4.66471">
        <ele>270</ele>
        <time>2013-02-08T08:30:19Z</time>
      </trkpt>
      <trkpt lat="44.72123" lon="4.6647">
        <ele>270</ele>
        <time>2013-02-08T08:30:21Z</time>
      </trkpt>
      <trkpt lat="44.72125" lon="4.6647">
        <ele>270</ele>
        <time>2013-02-08T08:30:23Z</time>
      </trkpt>
      <trkpt lat="44.72126" lon="4.6647">
        <ele>270</ele>
        <time>2013-02-08T08:30:25Z</time>
      </trkpt>
      <trkpt lat="44.72128" lon="4.6647">
        <ele>270</ele>
        <time>2013-02-08T08:30:27Z</time>
      </trkpt>
      <trkpt lat="44.72129" lon="4.66469">
        <ele>270</ele>
        <time>2013-02-08T08:30:29Z</time>
      </trkpt>
      <trkpt lat="44.72131" lon="4.66469">
        <ele>270</ele>
        <time>2013-02-08T08:30:31Z</time>
      </trkpt>
      <trkpt lat="44.72132" lon="4.66468">
        <ele>270</ele>
        <time>2013-02-08T08:30:33Z</time>
      </trkpt>
      <trkpt lat="44.72133" lon="4.66468">
        <ele>270</ele>
        <time>2013-02-08T08:30:35Z</time>
      </trkpt>
      <trkpt lat="44.72134" lon="4.66467">
        <ele>270</ele>
        <time>2013-02-08T08:30:37Z</time>
      </trkpt>
      <trkpt lat="44.72136" lon="4.66467">
        <ele>270</ele>
        <time>2013-02-08T08:30:40Z</time>
      </trkpt>
      <trkpt lat="44.72137" lon="4.66466">
        <ele>270</ele>
        <time>2013-02-08T08:30:42Z</time>
      </trkpt>
      <trkpt lat="44.72138" lon="4.66466">
        <ele>270</ele>
        <time>2013-02-08T08:30:44Z</time>
      </trkpt>
      <trkpt lat="44.72139" lon="4.66465">
        <ele>270</ele>
        <time>2013-02-08T08:30:46Z</time>
      </trkpt>
      <trkpt lat="44.72141" lon="4.66464">
        <ele>270</ele>
        <time>2013-02-08T08:30:48Z</time>
      </trkpt>
      <trkpt lat="44.72142" lon="4.66463">
        <ele>271</ele>
        <time>2013-02-08T08:30:51Z</time>
      </trkpt>
      <trkpt lat="44.72144" lon="4.66463">
        <ele>271</ele>
        <time>2013-02-08T08:30:53Z</time>
      </trkpt>
      <trkpt lat="44.72145" lon="4.66462">
        <ele>271</ele>
        <time>2013-02-08T08:30:55Z</time>
      </trkpt>
      <trkpt lat="44.72146" lon="4.66461">
        <ele>271</ele>
        <time>2013-02-08T08:30:57Z</time>
      </trkpt>
      <trkpt lat="44.72147" lon="4.6646">
        <ele>271</ele>
        <time>2013-02-08T08:30:59Z</time>
      </trkpt>
      <trkpt lat="44.72149" lon="4.66459">
        <ele>271</ele>
        <time>2013-02-08T08:31:01Z</time>
      </trkpt>
      <trkpt lat="44.7215" lon="4.66458">
        <ele>271</ele>
        <time>2013-02-08T08:31:03Z</time>
      </trkpt>
      <trkpt lat="44.72151" lon="4.66457">
        <ele>271</ele>
        <time>2013-02-08T08:31:05Z</time>
      </trkpt>
      <trkpt lat="44.72152" lon="4.66456">
        <ele>271</ele>
        <time>2013-02-08T08:31:08Z</time>
      </trkpt>
      <trkpt lat="44.72154" lon="4.66455">
        <ele>272</ele>
        <time>2013-02-08T08:31:10Z</time>
      </trkpt>
      <trkpt lat="44.72155" lon="4.66454">
        <ele>272</ele>
        <time>2013-02-08T08:31:12Z</time>
      </trkpt>
      <trkpt lat="44.72156" lon="4.66453">
        <ele>272</ele>
        <time>2013-02-08T08:31:14Z</time>
      </trkpt>
      <trkpt lat="44.72158" lon="4.66452">
        <ele>272</ele>
        <time>2013-02-08T08:31:17Z</time>
      </trkpt>
      <trkpt lat="44.72159" lon="4.66451">
        <ele>272</ele>
        <time>2013-02-08T08:31:20Z</time>
      </trkpt>
      <trkpt lat="44.7216" lon="4.66449">
        <ele>273</ele>
        <time>2013-02-08T08:31:22Z</time>
      </trkpt>
      <trkpt lat="44.72162" lon="4.66448">
        <ele>273</ele>
        <time>2013-02-08T08:31:24Z</time>
      </trkpt>
      <trkpt lat="44.72163" lon="4.66447">
        <ele>273</ele>
        <time>2013-02-08T08:31:27Z</time>
      </trkpt>
      <trkpt lat="44.72165" lon="4.66445">
        <ele>273</ele>
        <time>2013-02-08T08:31:30Z</time>
      </trkpt>
      <trkpt lat="44.72166" lon="4.66443">
        <ele>274</ele>
        <time>2013-02-08T08:31:32Z</time>
      </trkpt>
      <trkpt lat="44.72167" lon="4.66441">
        <ele>274</ele>
        <time>2013-02-08T08:31:35Z</time>
      </trkpt>
      <trkpt lat="44.72168" lon="4.6644">
        <ele>274</ele>
        <time>2013-02-08T08:31:37Z</time>
      </trkpt>
      <trkpt lat="44.72169" lon="4.66438">
        <ele>275</ele>
        <time>2013-02-08T08:31:40Z</time>
      </trkpt>
      <trkpt lat="44.7217" lon="4.66436">
        <ele>275</ele>
        <time>2013-02-08T08:31:42Z</time>
      </trkpt>
      <trkpt lat="44.72171" lon="4.66434">
        <ele>275</ele>
        <time>2013-02-08T08:31:44Z</time>
      </trkpt>
      <trkpt lat="44.72172" lon="4.66432">
        <ele>276</ele>
        <time>2013-02-08T08:31:46Z</time>
      </trkpt>
      <trkpt lat="44.72173" lon="4.66431">
        <ele>276</ele>
        <time>2013-02-08T08:31:48Z</time>
      </trkpt>
      <trkpt lat="44.72174" lon="4.66429">
        <ele>276</ele>
        <time>2013-02-08T08:31:50Z</time>
      </trkpt>
      <trkpt lat="44.72175" lon="4.66428">
        <ele>276</ele>
        <time>2013-02-08T08:31:52Z</time>
      </trkpt>
      <trkpt lat="44.72175" lon="4.66426">
        <ele>277</ele>
        <time>2013-02-08T08:31:54Z</time>
      </trkpt>
      <trkpt lat="44.72176" lon="4.66424">
        <ele>277</ele>
        <time>2013-02-08T08:31:56Z</time>
      </trkpt>
      <trkpt lat="44.72177" lon="4.66423">
        <ele>277</ele>
        <time>2013-02-08T08:31:58Z</time>
      </trkpt>
      <trkpt lat="44.72178" lon="4.66421">
        <ele>277</ele>
        <time>2013-02-08T08:32:00Z</time>
      </trkpt>
      <trkpt lat="44.72179" lon="4.6642">
        <ele>277</ele>
        <time>2013-02-08T08:32:02Z</time>
      </trkpt>
      <trkpt lat="44.7218" lon="4.66418">
        <ele>277</ele>
        <time>2013-02-08T08:32:04Z</time>
      </trkpt>
      <trkpt lat="44.72181" lon="4.66417">
        <ele>280</ele>
        <time>2013-02-08T08:32:06Z</time>
      </trkpt>
      <trkpt lat="44.72182" lon="4.66415">
        <ele>280</ele>
        <time>2013-02-08T08:32:08Z</time>
      </trkpt>
      <trkpt lat="44.72183" lon="4.66413">
        <ele>280</ele>
        <time>2013-02-08T08:32:10Z</time>
      </trkpt>
      <trkpt lat="44.72184" lon="4.66411">
        <ele>281</ele>
        <time>2013-02-08T08:32:12Z</time>
      </trkpt>
      <trkpt lat="44.72185" lon="4.6641">
        <ele>281</ele>
        <time>2013-02-08T08:32:14Z</time>
      </trkpt>
      <trkpt lat="44.72186" lon="4.66408">
        <ele>281</ele>
        <time>2013-02-08T08:32:16Z</time>
      </trkpt>
      <trkpt lat="44.72187" lon="4.66406">
        <ele>281</ele>
        <time>2013-02-08T08:32:18Z</time>
      </trkpt>
      <trkpt lat="44.72187" lon="4.66403">
        <ele>281</ele>
        <time>2013-02-08T08:32:21Z</time>
      </trkpt>
      <trkpt lat="44.72187" lon="4.66402">
        <ele>281</ele>
        <time>2013-02-08T08:32:34Z</time>
      </trkpt>
      <trkpt lat="44.72189" lon="4.664">
        <ele>281</ele>
        <time>2013-02-08T08:32:37Z</time>
      </trkpt>
      <trkpt lat="44.7219" lon="4.66398">
        <ele>281</ele>
        <time>2013-02-08T08:32:39Z</time>
      </trkpt>
      <trkpt lat="44.72191" lon="4.66396">
        <ele>281</ele>
        <time>2013-02-08T08:32:41Z</time>
      </trkpt>
      <trkpt lat="44.72192" lon="4.66395">
        <ele>281</ele>
        <time>2013-02-08T08:32:43Z</time>
      </trkpt>
      <trkpt lat="44.72193" lon="4.66393">
        <ele>281</ele>
        <time>2013-02-08T08:32:45Z</time>
      </trkpt>
      <trkpt lat="44.72194" lon="4.66392">
        <ele>281</ele>
        <time>2013-02-08T08:32:47Z</time>
      </trkpt>
      <trkpt lat="44.72196" lon="4.66391">
        <ele>281</ele>
        <time>2013-02-08T08:32:49Z</time>
      </trkpt>
      <trkpt lat="44.72197" lon="4.6639">
        <ele>281</ele>
        <time>2013-02-08T08:32:51Z</time>
      </trkpt>
      <trkpt lat="44.72198" lon="4.66388">
        <ele>281</ele>
        <time>2013-02-08T08:32:54Z</time>
      </trkpt>
      <trkpt lat="44.72199" lon="4.66386">
        <ele>281</ele>
        <time>2013-02-08T08:33:05Z</time>
      </trkpt>
      <trkpt lat="44.722" lon="4.66384">
        <ele>281</ele>
        <time>2013-02-08T08:33:08Z</time>
      </trkpt>
      <trkpt lat="44.72201" lon="4.66382">
        <ele>281</ele>
        <time>2013-02-08T08:33:10Z</time>
      </trkpt>
      <trkpt lat="44.72202" lon="4.66381">
        <ele>281</ele>
        <time>2013-02-08T08:33:12Z</time>
      </trkpt>
      <trkpt lat="44.72203" lon="4.66379">
        <ele>281</ele>
        <time>2013-02-08T08:33:15Z</time>
      </trkpt>
      <trkpt lat="44.72204" lon="4.66377">
        <ele>281</ele>
        <time>2013-02-08T08:33:19Z</time>
      </trkpt>
      <trkpt lat="44.72206" lon="4.66376">
        <ele>281</ele>
        <time>2013-02-08T08:33:21Z</time>
      </trkpt>
      <trkpt lat="44.72207" lon="4.66375">
        <ele>281</ele>
        <time>2013-02-08T08:33:23Z</time>
      </trkpt>
      <trkpt lat="44.72209" lon="4.66373">
        <ele>281</ele>
        <time>2013-02-08T08:33:25Z</time>
      </trkpt>
      <trkpt lat="44.7221" lon="4.66372">
        <ele>281</ele>
        <time>2013-02-08T08:33:27Z</time>
      </trkpt>
      <trkpt lat="44.72211" lon="4.66371">
        <ele>281</ele>
        <time>2013-02-08T08:33:29Z</time>
      </trkpt>
      <trkpt lat="44.72212" lon="4.6637">
        <ele>281</ele>
        <time>2013-02-08T08:33:31Z</time>
      </trkpt>
      <trkpt lat="44.72213" lon="4.66369">
        <ele>281</ele>
        <time>2013-02-08T08:33:33Z</time>
      </trkpt>
      <trkpt lat="44.72215" lon="4.66367">
        <ele>281</ele>
        <time>2013-02-08T08:33:35Z</time>
      </trkpt>
      <trkpt lat="44.72216" lon="4.66365">
        <ele>281</ele>
        <time>2013-02-08T08:33:37Z</time>
      </trkpt>
      <trkpt lat="44.72217" lon="4.66363">
        <ele>281</ele>
        <time>2013-02-08T08:33:39Z</time>
      </trkpt>
      <trkpt lat="44.72218" lon="4.66361">
        <ele>282</ele>
        <time>2013-02-08T08:33:41Z</time>
      </trkpt>
      <trkpt lat="44.7222" lon="4.66359">
        <ele>282</ele>
        <time>2013-02-08T08:33:43Z</time>
      </trkpt>
      <trkpt lat="44.72221" lon="4.66357">
        <ele>282</ele>
        <time>2013-02-08T08:33:45Z</time>
      </trkpt>
      <trkpt lat="44.72222" lon="4.66355">
        <ele>282</ele>
        <time>2013-02-08T08:33:47Z</time>
      </trkpt>
      <trkpt lat="44.72224" lon="4.66353">
        <ele>282</ele>
        <time>2013-02-08T08:33:49Z</time>
      </trkpt>
      <trkpt lat="44.72226" lon="4.66352">
        <ele>282</ele>
        <time>2013-02-08T08:33:51Z</time>
      </trkpt>
      <trkpt lat="44.72227" lon="4.6635">
        <ele>282</ele>
        <time>2013-02-08T08:33:53Z</time>
      </trkpt>
      <trkpt lat="44.72229" lon="4.66348">
        <ele>282</ele>
        <time>2013-02-08T08:33:55Z</time>
      </trkpt>
      <trkpt lat="44.7223" lon="4.66346">
        <ele>282</ele>
        <time>2013-02-08T08:33:57Z</time>
      </trkpt>
      <trkpt lat="44.72232" lon="4.66344">
        <ele>282</ele>
        <time>2013-02-08T08:33:59Z</time>
      </trkpt>
      <trkpt lat="44.72233" lon="4.66342">
        <ele>282</ele>
        <time>2013-02-08T08:34:01Z</time>
      </trkpt>
      <trkpt lat="44.72235" lon="4.6634">
        <ele>282</ele>
        <time>2013-02-08T08:34:03Z</time>
      </trkpt>
      <trkpt lat="44.72237" lon="4.66338">
        <ele>282</ele>
        <time>2013-02-08T08:34:05Z</time>
      </trkpt>
      <trkpt lat="44.72238" lon="4.66336">
        <ele>282</ele>
        <time>2013-02-08T08:34:07Z</time>
      </trkpt>
      <trkpt lat="44.7224" lon="4.66334">
        <ele>282</ele>
        <time>2013-02-08T08:34:09Z</time>
      </trkpt>
      <trkpt lat="44.72241" lon="4.66332">
        <ele>284</ele>
        <time>2013-02-08T08:34:11Z</time>
      </trkpt>
      <trkpt lat="44.72243" lon="4.6633">
        <ele>284</ele>
        <time>2013-02-08T08:34:13Z</time>
      </trkpt>
      <trkpt lat="44.72244" lon="4.66329">
        <ele>284</ele>
        <time>2013-02-08T08:34:15Z</time>
      </trkpt>
      <trkpt lat="44.72246" lon="4.66327">
        <ele>284</ele>
        <time>2013-02-08T08:34:17Z</time>
      </trkpt>
      <trkpt lat="44.72247" lon="4.66325">
        <ele>284</ele>
        <time>2013-02-08T08:34:19Z</time>
      </trkpt>
      <trkpt lat="44.72249" lon="4.66323">
        <ele>285</ele>
        <time>2013-02-08T08:34:21Z</time>
      </trkpt>
      <trkpt lat="44.7225" lon="4.66321">
        <ele>283</ele>
        <time>2013-02-08T08:34:23Z</time>
      </trkpt>
      <trkpt lat="44.72252" lon="4.66319">
        <ele>283</ele>
        <time>2013-02-08T08:34:25Z</time>
      </trkpt>
      <trkpt lat="44.72253" lon="4.66317">
        <ele>283</ele>
        <time>2013-02-08T08:34:27Z</time>
      </trkpt>
      <trkpt lat="44.72254" lon="4.66315">
        <ele>284</ele>
        <time>2013-02-08T08:34:29Z</time>
      </trkpt>
      <trkpt lat="44.72256" lon="4.66313">
        <ele>284</ele>
        <time>2013-02-08T08:34:31Z</time>
      </trkpt>
      <trkpt lat="44.72257" lon="4.66311">
        <ele>284</ele>
        <time>2013-02-08T08:34:33Z</time>
      </trkpt>
      <trkpt lat="44.72259" lon="4.6631">
        <ele>284</ele>
        <time>2013-02-08T08:34:35Z</time>
      </trkpt>
      <trkpt lat="44.7226" lon="4.66308">
        <ele>284</ele>
        <time>2013-02-08T08:34:37Z</time>
      </trkpt>
      <trkpt lat="44.72262" lon="4.66307">
        <ele>284</ele>
        <time>2013-02-08T08:34:39Z</time>
      </trkpt>
      <trkpt lat="44.72263" lon="4.66305">
        <ele>284</ele>
        <time>2013-02-08T08:34:41Z</time>
      </trkpt>
      <trkpt lat="44.72265" lon="4.66304">
        <ele>284</ele>
        <time>2013-02-08T08:34:43Z</time>
      </trkpt>
      <trkpt lat="44.72267" lon="4.66303">
        <ele>284</ele>
        <time>2013-02-08T08:34:45Z</time>
      </trkpt>
      <trkpt lat="44.72269" lon="4.66301">
        <ele>285</ele>
        <time>2013-02-08T08:34:47Z</time>
      </trkpt>
      <trkpt lat="44.7227" lon="4.663">
        <ele>285</ele>
        <time>2013-02-08T08:34:49Z</time>
      </trkpt>
      <trkpt lat="44.72272" lon="4.66298">
        <ele>285</ele>
        <time>2013-02-08T08:34:51Z</time>
      </trkpt>
      <trkpt lat="44.72274" lon="4.66297">
        <ele>285</ele>
        <time>2013-02-08T08:34:53Z</time>
      </trkpt>
      <trkpt lat="44.72276" lon="4.66295">
        <ele>285</ele>
        <time>2013-02-08T08:34:55Z</time>
      </trkpt>
      <trkpt lat="44.72278" lon="4.66294">
        <ele>285</ele>
        <time>2013-02-08T08:34:57Z</time>
      </trkpt>
      <trkpt lat="44.72279" lon="4.66292">
        <ele>285</ele>
        <time>2013-02-08T08:34:59Z</time>
      </trkpt>
      <trkpt lat="44.72281" lon="4.6629">
        <ele>285</ele>
        <time>2013-02-08T08:35:01Z</time>
      </trkpt>
      <trkpt lat="44.72282" lon="4.66289">
        <ele>285</ele>
        <time>2013-02-08T08:35:03Z</time>
      </trkpt>
      <trkpt lat="44.72284" lon="4.66288">
        <ele>285</ele>
        <time>2013-02-08T08:35:05Z</time>
      </trkpt>
      <trkpt lat="44.72286" lon="4.66286">
        <ele>285</ele>
        <time>2013-02-08T08:35:07Z</time>
      </trkpt>
      <trkpt lat="44.72288" lon="4.66284">
        <ele>285</ele>
        <time>2013-02-08T08:35:09Z</time>
      </trkpt>
      <trkpt lat="44.7229" lon="4.66283">
        <ele>285</ele>
        <time>2013-02-08T08:35:11Z</time>
      </trkpt>
      <trkpt lat="44.72291" lon="4.66282">
        <ele>285</ele>
        <time>2013-02-08T08:35:13Z</time>
      </trkpt>
      <trkpt lat="44.72293" lon="4.6628">
        <ele>285</ele>
        <time>2013-02-08T08:35:15Z</time>
      </trkpt>
      <trkpt lat="44.72295" lon="4.66278">
        <ele>285</ele>
        <time>2013-02-08T08:35:17Z</time>
      </trkpt>
      <trkpt lat="44.72296" lon="4.66276">
        <ele>285</ele>
        <time>2013-02-08T08:35:19Z</time>
      </trkpt>
      <trkpt lat="44.72297" lon="4.66274">
        <ele>285</ele>
        <time>2013-02-08T08:35:21Z</time>
      </trkpt>
      <trkpt lat="44.72298" lon="4.66272">
        <ele>285</ele>
        <time>2013-02-08T08:35:23Z</time>
      </trkpt>
      <trkpt lat="44.723" lon="4.6627">
        <ele>285</ele>
        <time>2013-02-08T08:35:25Z</time>
      </trkpt>
      <trkpt lat="44.72301" lon="4.66268">
        <ele>285</ele>
        <time>2013-02-08T08:35:27Z</time>
      </trkpt>
      <trkpt lat="44.72303" lon="4.66266">
        <ele>285</ele>
        <time>2013-02-08T08:35:29Z</time>
      </trkpt>
      <trkpt lat="44.72304" lon="4.66264">
        <ele>285</ele>
        <time>2013-02-08T08:35:31Z</time>
      </trkpt>
      <trkpt lat="44.72306" lon="4.66263">
        <ele>285</ele>
        <time>2013-02-08T08:35:33Z</time>
      </trkpt>
      <trkpt lat="44.72307" lon="4.66261">
        <ele>285</ele>
        <time>2013-02-08T08:35:35Z</time>
      </trkpt>
      <trkpt lat="44.72308" lon="4.66259">
        <ele>285</ele>
        <time>2013-02-08T08:35:37Z</time>
      </trkpt>
      <trkpt lat="44.72309" lon="4.66257">
        <ele>285</ele>
        <time>2013-02-08T08:35:39Z</time>
      </trkpt>
      <trkpt lat="44.72311" lon="4.66256">
        <ele>285</ele>
        <time>2013-02-08T08:35:41Z</time>
      </trkpt>
      <trkpt lat="44.72312" lon="4.66254">
        <ele>285</ele>
        <time>2013-02-08T08:35:43Z</time>
      </trkpt>
      <trkpt lat="44.72313" lon="4.66252">
        <ele>285</ele>
        <time>2013-02-08T08:35:45Z</time>
      </trkpt>
      <trkpt lat="44.72315" lon="4.6625">
        <ele>285</ele>
        <time>2013-02-08T08:35:47Z</time>
      </trkpt>
      <trkpt lat="44.72316" lon="4.66249">
        <ele>291</ele>
        <time>2013-02-08T08:35:49Z</time>
      </trkpt>
      <trkpt lat="44.72317" lon="4.66247">
        <ele>290</ele>
        <time>2013-02-08T08:35:51Z</time>
      </trkpt>
      <trkpt lat="44.72318" lon="4.66245">
        <ele>290</ele>
        <time>2013-02-08T08:35:53Z</time>
      </trkpt>
      <trkpt lat="44.72319" lon="4.66243">
        <ele>290</ele>
        <time>2013-02-08T08:35:55Z</time>
      </trkpt>
      <trkpt lat="44.72321" lon="4.66241">
        <ele>290</ele>
        <time>2013-02-08T08:35:57Z</time>
      </trkpt>
      <trkpt lat="44.72323" lon="4.66239">
        <ele>290</ele>
        <time>2013-02-08T08:36:00Z</time>
      </trkpt>
      <trkpt lat="44.72323" lon="4.66237">
        <ele>290</ele>
        <time>2013-02-08T08:36:02Z</time>
      </trkpt>
      <trkpt lat="44.72324" lon="4.66235">
        <ele>291</ele>
        <time>2013-02-08T08:36:04Z</time>
      </trkpt>
      <trkpt lat="44.72326" lon="4.66233">
        <ele>291</ele>
        <time>2013-02-08T08:36:06Z</time>
      </trkpt>
      <trkpt lat="44.72327" lon="4.66232">
        <ele>291</ele>
        <time>2013-02-08T08:36:08Z</time>
      </trkpt>
      <trkpt lat="44.72328" lon="4.6623">
        <ele>292</ele>
        <time>2013-02-08T08:36:10Z</time>
      </trkpt>
      <trkpt lat="44.72329" lon="4.66228">
        <ele>292</ele>
        <time>2013-02-08T08:36:12Z</time>
      </trkpt>
      <trkpt lat="44.72329" lon="4.66225">
        <ele>292</ele>
        <time>2013-02-08T08:36:14Z</time>
      </trkpt>
      <trkpt lat="44.72331" lon="4.66223">
        <ele>293</ele>
        <time>2013-02-08T08:36:16Z</time>
      </trkpt>
      <trkpt lat="44.72331" lon="4.66221">
        <ele>293</ele>
        <time>2013-02-08T08:36:18Z</time>
      </trkpt>
      <trkpt lat="44.72332" lon="4.66219">
        <ele>293</ele>
        <time>2013-02-08T08:36:20Z</time>
      </trkpt>
      <trkpt lat="44.72332" lon="4.66217">
        <ele>294</ele>
        <time>2013-02-08T08:36:22Z</time>
      </trkpt>
      <trkpt lat="44.72333" lon="4.66215">
        <ele>294</ele>
        <time>2013-02-08T08:36:24Z</time>
      </trkpt>
      <trkpt lat="44.72334" lon="4.66213">
        <ele>288</ele>
        <time>2013-02-08T08:36:26Z</time>
      </trkpt>
      <trkpt lat="44.72335" lon="4.66211">
        <ele>288</ele>
        <time>2013-02-08T08:36:28Z</time>
      </trkpt>
      <trkpt lat="44.72336" lon="4.66209">
        <ele>289</ele>
        <time>2013-02-08T08:36:30Z</time>
      </trkpt>
      <trkpt lat="44.72337" lon="4.66206">
        <ele>289</ele>
        <time>2013-02-08T08:36:32Z</time>
      </trkpt>
      <trkpt lat="44.72337" lon="4.66205">
        <ele>289</ele>
        <time>2013-02-08T08:36:34Z</time>
      </trkpt>
      <trkpt lat="44.72338" lon="4.66202">
        <ele>289</ele>
        <time>2013-02-08T08:36:36Z</time>
      </trkpt>
      <trkpt lat="44.72339" lon="4.662">
        <ele>290</ele>
        <time>2013-02-08T08:36:38Z</time>
      </trkpt>
      <trkpt lat="44.7234" lon="4.66198">
        <ele>290</ele>
        <time>2013-02-08T08:36:40Z</time>
      </trkpt>
      <trkpt lat="44.72341" lon="4.66196">
        <ele>290</ele>
        <time>2013-02-08T08:36:42Z</time>
      </trkpt>
      <trkpt lat="44.72341" lon="4.66193">
        <ele>291</ele>
        <time>2013-02-08T08:36:44Z</time>
      </trkpt>
      <trkpt lat="44.72342" lon="4.66191">
        <ele>291</ele>
        <time>2013-02-08T08:36:46Z</time>
      </trkpt>
      <trkpt lat="44.72342" lon="4.66189">
        <ele>291</ele>
        <time>2013-02-08T08:36:48Z</time>
      </trkpt>
      <trkpt lat="44.72343" lon="4.66186">
        <ele>292</ele>
        <time>2013-02-08T08:36:50Z</time>
      </trkpt>
      <trkpt lat="44.72343" lon="4.66184">
        <ele>292</ele>
        <time>2013-02-08T08:36:52Z</time>
      </trkpt>
      <trkpt lat="44.72344" lon="4.66181">
        <ele>293</ele>
        <time>2013-02-08T08:36:54Z</time>
      </trkpt>
      <trkpt lat="44.72344" lon="4.66179">
        <ele>293</ele>
        <time>2013-02-08T08:36:56Z</time>
      </trkpt>
      <trkpt lat="44.72345" lon="4.66177">
        <ele>293</ele>
        <time>2013-02-08T08:36:58Z</time>
      </trkpt>
      <trkpt lat="44.72345" lon="4.66174">
        <ele>294</ele>
        <time>2013-02-08T08:37:00Z</time>
      </trkpt>
      <trkpt lat="44.72345" lon="4.66172">
        <ele>294</ele>
        <time>2013-02-08T08:37:02Z</time>
      </trkpt>
      <trkpt lat="44.72346" lon="4.6617">
        <ele>294</ele>
        <time>2013-02-08T08:37:04Z</time>
      </trkpt>
      <trkpt lat="44.72347" lon="4.66168">
        <ele>294</ele>
        <time>2013-02-08T08:37:06Z</time>
      </trkpt>
      <trkpt lat="44.72347" lon="4.66165">
        <ele>299</ele>
        <time>2013-02-08T08:37:08Z</time>
      </trkpt>
      <trkpt lat="44.72348" lon="4.66163">
        <ele>299</ele>
        <time>2013-02-08T08:37:10Z</time>
      </trkpt>
      <trkpt lat="44.72349" lon="4.66161">
        <ele>299</ele>
        <time>2013-02-08T08:37:12Z</time>
      </trkpt>
      <trkpt lat="44.7235" lon="4.66158">
        <ele>299</ele>
        <time>2013-02-08T08:37:14Z</time>
      </trkpt>
      <trkpt lat="44.72351" lon="4.66156">
        <ele>299</ele>
        <time>2013-02-08T08:37:16Z</time>
      </trkpt>
      <trkpt lat="44.72352" lon="4.66154">
        <ele>299</ele>
        <time>2013-02-08T08:37:18Z</time>
      </trkpt>
      <trkpt lat="44.72353" lon="4.66151">
        <ele>299</ele>
        <time>2013-02-08T08:37:20Z</time>
      </trkpt>
      <trkpt lat="44.72354" lon="4.66149">
        <ele>299</ele>
        <time>2013-02-08T08:37:22Z</time>
      </trkpt>
      <trkpt lat="44.72355" lon="4.66147">
        <ele>299</ele>
        <time>2013-02-08T08:37:24Z</time>
      </trkpt>
      <trkpt lat="44.72356" lon="4.66144">
        <ele>299</ele>
        <time>2013-02-08T08:37:26Z</time>
      </trkpt>
      <trkpt lat="44.72357" lon="4.66142">
        <ele>300</ele>
        <time>2013-02-08T08:37:28Z</time>
      </trkpt>
      <trkpt lat="44.72358" lon="4.6614">
        <ele>300</ele>
        <time>2013-02-08T08:37:30Z</time>
      </trkpt>
      <trkpt lat="44.72359" lon="4.66138">
        <ele>300</ele>
        <time>2013-02-08T08:37:32Z</time>
      </trkpt>
      <trkpt lat="44.7236" lon="4.66136">
        <ele>300</ele>
        <time>2013-02-08T08:37:34Z</time>
      </trkpt>
      <trkpt lat="44.72361" lon="4.66134">
        <ele>300</ele>
        <time>2013-02-08T08:37:36Z</time>
      </trkpt>
      <trkpt lat="44.72362" lon="4.66132">
        <ele>300</ele>
        <time>2013-02-08T08:37:38Z</time>
      </trkpt>
      <trkpt lat="44.72363" lon="4.6613">
        <ele>300</ele>
        <time>2013-02-08T08:37:40Z</time>
      </trkpt>
      <trkpt lat="44.72364" lon="4.66128">
        <ele>300</ele>
        <time>2013-02-08T08:37:42Z</time>
      </trkpt>
      <trkpt lat="44.72366" lon="4.66126">
        <ele>300</ele>
        <time>2013-02-08T08:37:44Z</time>
      </trkpt>
      <trkpt lat="44.72367" lon="4.66124">
        <ele>300</ele>
        <time>2013-02-08T08:37:46Z</time>
      </trkpt>
      <trkpt lat="44.72368" lon="4.66123">
        <ele>300</ele>
        <time>2013-02-08T08:37:48Z</time>
      </trkpt>
      <trkpt lat="44.72369" lon="4.66121">
        <ele>300</ele>
        <time>2013-02-08T08:37:50Z</time>
      </trkpt>
      <trkpt lat="44.7237" lon="4.66119">
        <ele>300</ele>
        <time>2013-02-08T08:37:52Z</time>
      </trkpt>
      <trkpt lat="44.72372" lon="4.66118">
        <ele>300</ele>
        <time>2013-02-08T08:37:54Z</time>
      </trkpt>
      <trkpt lat="44.72373" lon="4.66116">
        <ele>300</ele>
        <time>2013-02-08T08:37:56Z</time>
      </trkpt>
      <trkpt lat="44.72375" lon="4.66114">
        <ele>300</ele>
        <time>2013-02-08T08:37:58Z</time>
      </trkpt>
      <trkpt lat="44.72376" lon="4.66112">
        <ele>300</ele>
        <time>2013-02-08T08:38:00Z</time>
      </trkpt>
      <trkpt lat="44.72377" lon="4.66111">
        <ele>300</ele>
        <time>2013-02-08T08:38:02Z</time>
      </trkpt>
      <trkpt lat="44.72379" lon="4.66109">
        <ele>300</ele>
        <time>2013-02-08T08:38:04Z</time>
      </trkpt>
      <trkpt lat="44.7238" lon="4.66107">
        <ele>300</ele>
        <time>2013-02-08T08:38:06Z</time>
      </trkpt>
      <trkpt lat="44.72381" lon="4.66105">
        <ele>300</ele>
        <time>2013-02-08T08:38:09Z</time>
      </trkpt>
      <trkpt lat="44.72382" lon="4.66103">
        <ele>300</ele>
        <time>2013-02-08T08:38:11Z</time>
      </trkpt>
      <trkpt lat="44.72384" lon="4.66102">
        <ele>300</ele>
        <time>2013-02-08T08:38:13Z</time>
      </trkpt>
      <trkpt lat="44.72386" lon="4.661">
        <ele>300</ele>
        <time>2013-02-08T08:38:15Z</time>
      </trkpt>
      <trkpt lat="44.72387" lon="4.66099">
        <ele>300</ele>
        <time>2013-02-08T08:38:17Z</time>
      </trkpt>
      <trkpt lat="44.72389" lon="4.66098">
        <ele>300</ele>
        <time>2013-02-08T08:38:19Z</time>
      </trkpt>
      <trkpt lat="44.7239" lon="4.66096">
        <ele>300</ele>
        <time>2013-02-08T08:38:21Z</time>
      </trkpt>
      <trkpt lat="44.72392" lon="4.66095">
        <ele>300</ele>
        <time>2013-02-08T08:38:23Z</time>
      </trkpt>
      <trkpt lat="44.72394" lon="4.66094">
        <ele>300</ele>
        <time>2013-02-08T08:38:25Z</time>
      </trkpt>
      <trkpt lat="44.72396" lon="4.66092">
        <ele>300</ele>
        <time>2013-02-08T08:38:27Z</time>
      </trkpt>
      <trkpt lat="44.72397" lon="4.66091">
        <ele>299</ele>
        <time>2013-02-08T08:38:29Z</time>
      </trkpt>
      <trkpt lat="44.72399" lon="4.6609">
        <ele>299</ele>
        <time>2013-02-08T08:38:35Z</time>
      </trkpt>
      <trkpt lat="44.724" lon="4.66089">
        <ele>299</ele>
        <time>2013-02-08T08:38:50Z</time>
      </trkpt>
      <trkpt lat="44.72401" lon="4.66088">
        <ele>299</ele>
        <time>2013-02-08T08:38:52Z</time>
      </trkpt>
      <trkpt lat="44.72402" lon="4.66087">
        <ele>299</ele>
        <time>2013-02-08T08:38:54Z</time>
      </trkpt>
      <trkpt lat="44.72404" lon="4.66085">
        <ele>299</ele>
        <time>2013-02-08T08:38:56Z</time>
      </trkpt>
      <trkpt lat="44.72406" lon="4.66084">
        <ele>299</ele>
        <time>2013-02-08T08:38:58Z</time>
      </trkpt>
      <trkpt lat="44.72407" lon="4.66082">
        <ele>302</ele>
        <time>2013-02-08T08:39:00Z</time>
      </trkpt>
      <trkpt lat="44.72409" lon="4.6608">
        <ele>302</ele>
        <time>2013-02-08T08:39:02Z</time>
      </trkpt>
      <trkpt lat="44.72411" lon="4.66079">
        <ele>301</ele>
        <time>2013-02-08T08:39:04Z</time>
      </trkpt>
      <trkpt lat="44.72412" lon="4.66077">
        <ele>301</ele>
        <time>2013-02-08T08:39:06Z</time>
      </trkpt>
      <trkpt lat="44.72414" lon="4.66075">
        <ele>302</ele>
        <time>2013-02-08T08:39:08Z</time>
      </trkpt>
      <trkpt lat="44.72416" lon="4.66073">
        <ele>302</ele>
        <time>2013-02-08T08:39:10Z</time>
      </trkpt>
      <trkpt lat="44.72417" lon="4.66071">
        <ele>299</ele>
        <time>2013-02-08T08:39:12Z</time>
      </trkpt>
      <trkpt lat="44.72419" lon="4.66069">
        <ele>299</ele>
        <time>2013-02-08T08:39:14Z</time>
      </trkpt>
      <trkpt lat="44.7242" lon="4.66067">
        <ele>299</ele>
        <time>2013-02-08T08:39:16Z</time>
      </trkpt>
      <trkpt lat="44.72422" lon="4.66065">
        <ele>299</ele>
        <time>2013-02-08T08:39:18Z</time>
      </trkpt>
      <trkpt lat="44.72423" lon="4.66063">
        <ele>299</ele>
        <time>2013-02-08T08:39:20Z</time>
      </trkpt>
      <trkpt lat="44.72424" lon="4.66061">
        <ele>299</ele>
        <time>2013-02-08T08:39:22Z</time>
      </trkpt>
      <trkpt lat="44.72425" lon="4.66058">
        <ele>299</ele>
        <time>2013-02-08T08:39:24Z</time>
      </trkpt>
      <trkpt lat="44.72426" lon="4.66056">
        <ele>299</ele>
        <time>2013-02-08T08:39:26Z</time>
      </trkpt>
      <trkpt lat="44.72427" lon="4.66054">
        <ele>300</ele>
        <time>2013-02-08T08:39:28Z</time>
      </trkpt>
      <trkpt lat="44.72429" lon="4.66051">
        <ele>300</ele>
        <time>2013-02-08T08:39:30Z</time>
      </trkpt>
      <trkpt lat="44.7243" lon="4.66049">
        <ele>300</ele>
        <time>2013-02-08T08:39:32Z</time>
      </trkpt>
      <trkpt lat="44.72431" lon="4.66046">
        <ele>300</ele>
        <time>2013-02-08T08:39:34Z</time>
      </trkpt>
      <trkpt lat="44.72432" lon="4.66044">
        <ele>300</ele>
        <time>2013-02-08T08:39:36Z</time>
      </trkpt>
      <trkpt lat="44.72434" lon="4.66042">
        <ele>300</ele>
        <time>2013-02-08T08:39:38Z</time>
      </trkpt>
      <trkpt lat="44.72435" lon="4.66039">
        <ele>300</ele>
        <time>2013-02-08T08:39:40Z</time>
      </trkpt>
      <trkpt lat="44.72436" lon="4.66037">
        <ele>300</ele>
        <time>2013-02-08T08:39:42Z</time>
      </trkpt>
      <trkpt lat="44.72437" lon="4.66035">
        <ele>301</ele>
        <time>2013-02-08T08:39:44Z</time>
      </trkpt>
      <trkpt lat="44.72438" lon="4.66033">
        <ele>301</ele>
        <time>2013-02-08T08:39:46Z</time>
      </trkpt>
      <trkpt lat="44.7244" lon="4.66031">
        <ele>301</ele>
        <time>2013-02-08T08:39:48Z</time>
      </trkpt>
      <trkpt lat="44.72441" lon="4.66029">
        <ele>301</ele>
        <time>2013-02-08T08:39:50Z</time>
      </trkpt>
      <trkpt lat="44.72442" lon="4.66026">
        <ele>301</ele>
        <time>2013-02-08T08:39:52Z</time>
      </trkpt>
      <trkpt lat="44.72443" lon="4.66024">
        <ele>301</ele>
        <time>2013-02-08T08:39:54Z</time>
      </trkpt>
      <trkpt lat="44.72445" lon="4.66021">
        <ele>301</ele>
        <time>2013-02-08T08:39:56Z</time>
      </trkpt>
      <trkpt lat="44.72446" lon="4.66019">
        <ele>301</ele>
        <time>2013-02-08T08:39:58Z</time>
      </trkpt>
      <trkpt lat="44.72447" lon="4.66016">
        <ele>301</ele>
        <time>2013-02-08T08:40:00Z</time>
      </trkpt>
      <trkpt lat="44.72448" lon="4.66014">
        <ele>301</ele>
        <time>2013-02-08T08:40:02Z</time>
      </trkpt>
      <trkpt lat="44.72451" lon="4.6601">
        <ele>301</ele>
        <time>2013-02-08T08:40:05Z</time>
      </trkpt>
      <trkpt lat="44.72452" lon="4.66007">
        <ele>301</ele>
        <time>2013-02-08T08:40:07Z</time>
      </trkpt>
      <trkpt lat="44.72453" lon="4.66005">
        <ele>301</ele>
        <time>2013-02-08T08:40:09Z</time>
      </trkpt>
      <trkpt lat="44.72454" lon="4.66003">
        <ele>301</ele>
        <time>2013-02-08T08:40:11Z</time>
      </trkpt>
      <trkpt lat="44.72456" lon="4.66001">
        <ele>301</ele>
        <time>2013-02-08T08:40:13Z</time>
      </trkpt>
      <trkpt lat="44.72457" lon="4.65998">
        <ele>307</ele>
        <time>2013-02-08T08:40:15Z</time>
      </trkpt>
      <trkpt lat="44.72458" lon="4.65995">
        <ele>307</ele>
        <time>2013-02-08T08:40:17Z</time>
      </trkpt>
      <trkpt lat="44.72459" lon="4.65993">
        <ele>307</ele>
        <time>2013-02-08T08:40:19Z</time>
      </trkpt>
      <trkpt lat="44.7246" lon="4.65991">
        <ele>307</ele>
        <time>2013-02-08T08:40:21Z</time>
      </trkpt>
      <trkpt lat="44.72461" lon="4.65989">
        <ele>307</ele>
        <time>2013-02-08T08:40:23Z</time>
      </trkpt>
      <trkpt lat="44.72462" lon="4.65986">
        <ele>307</ele>
        <time>2013-02-08T08:40:25Z</time>
      </trkpt>
      <trkpt lat="44.72463" lon="4.65984">
        <ele>307</ele>
        <time>2013-02-08T08:40:27Z</time>
      </trkpt>
      <trkpt lat="44.72464" lon="4.65982">
        <ele>307</ele>
        <time>2013-02-08T08:40:29Z</time>
      </trkpt>
      <trkpt lat="44.72466" lon="4.6598">
        <ele>307</ele>
        <time>2013-02-08T08:40:31Z</time>
      </trkpt>
      <trkpt lat="44.72467" lon="4.65977">
        <ele>307</ele>
        <time>2013-02-08T08:40:33Z</time>
      </trkpt>
      <trkpt lat="44.72468" lon="4.65975">
        <ele>307</ele>
        <time>2013-02-08T08:40:35Z</time>
      </trkpt>
      <trkpt lat="44.72469" lon="4.65973">
        <ele>307</ele>
        <time>2013-02-08T08:40:37Z</time>
      </trkpt>
      <trkpt lat="44.72471" lon="4.65971">
        <ele>307</ele>
        <time>2013-02-08T08:40:39Z</time>
      </trkpt>
      <trkpt lat="44.72472" lon="4.65969">
        <ele>308</ele>
        <time>2013-02-08T08:40:41Z</time>
      </trkpt>
      <trkpt lat="44.72473" lon="4.65966">
        <ele>308</ele>
        <time>2013-02-08T08:40:43Z</time>
      </trkpt>
      <trkpt lat="44.72474" lon="4.65965">
        <ele>308</ele>
        <time>2013-02-08T08:40:45Z</time>
      </trkpt>
      <trkpt lat="44.72475" lon="4.65963">
        <ele>308</ele>
        <time>2013-02-08T08:40:47Z</time>
      </trkpt>
      <trkpt lat="44.72477" lon="4.65961">
        <ele>308</ele>
        <time>2013-02-08T08:40:49Z</time>
      </trkpt>
      <trkpt lat="44.72478" lon="4.65958">
        <ele>308</ele>
        <time>2013-02-08T08:40:51Z</time>
      </trkpt>
      <trkpt lat="44.72479" lon="4.65956">
        <ele>308</ele>
        <time>2013-02-08T08:40:53Z</time>
      </trkpt>
      <trkpt lat="44.72479" lon="4.65954">
        <ele>308</ele>
        <time>2013-02-08T08:40:55Z</time>
      </trkpt>
      <trkpt lat="44.7248" lon="4.65952">
        <ele>308</ele>
        <time>2013-02-08T08:40:57Z</time>
      </trkpt>
      <trkpt lat="44.72481" lon="4.6595">
        <ele>308</ele>
        <time>2013-02-08T08:40:59Z</time>
      </trkpt>
      <trkpt lat="44.72483" lon="4.65948">
        <ele>308</ele>
        <time>2013-02-08T08:41:01Z</time>
      </trkpt>
      <trkpt lat="44.72484" lon="4.65946">
        <ele>308</ele>
        <time>2013-02-08T08:41:03Z</time>
      </trkpt>
      <trkpt lat="44.72485" lon="4.65944">
        <ele>308</ele>
        <time>2013-02-08T08:41:05Z</time>
      </trkpt>
      <trkpt lat="44.72486" lon="4.65942">
        <ele>309</ele>
        <time>2013-02-08T08:41:07Z</time>
      </trkpt>
      <trkpt lat="44.72488" lon="4.6594">
        <ele>309</ele>
        <time>2013-02-08T08:41:09Z</time>
      </trkpt>
      <trkpt lat="44.72488" lon="4.65938">
        <ele>309</ele>
        <time>2013-02-08T08:41:11Z</time>
      </trkpt>
      <trkpt lat="44.7249" lon="4.65936">
        <ele>309</ele>
        <time>2013-02-08T08:41:13Z</time>
      </trkpt>
      <trkpt lat="44.7249" lon="4.65934">
        <ele>309</ele>
        <time>2013-02-08T08:41:15Z</time>
      </trkpt>
      <trkpt lat="44.72492" lon="4.65931">
        <ele>309</ele>
        <time>2013-02-08T08:41:17Z</time>
      </trkpt>
      <trkpt lat="44.72493" lon="4.65929">
        <ele>309</ele>
        <time>2013-02-08T08:41:19Z</time>
      </trkpt>
      <trkpt lat="44.72494" lon="4.65927">
        <ele>309</ele>
        <time>2013-02-08T08:41:21Z</time>
      </trkpt>
      <trkpt lat="44.72495" lon="4.65925">
        <ele>309</ele>
        <time>2013-02-08T08:41:23Z</time>
      </trkpt>
      <trkpt lat="44.72496" lon="4.65922">
        <ele>309</ele>
        <time>2013-02-08T08:41:25Z</time>
      </trkpt>
      <trkpt lat="44.72498" lon="4.6592">
        <ele>309</ele>
        <time>2013-02-08T08:41:27Z</time>
      </trkpt>
      <trkpt lat="44.72499" lon="4.65918">
        <ele>309</ele>
        <time>2013-02-08T08:41:29Z</time>
      </trkpt>
      <trkpt lat="44.725" lon="4.65916">
        <ele>309</ele>
        <time>2013-02-08T08:41:31Z</time>
      </trkpt>
      <trkpt lat="44.72502" lon="4.65914">
        <ele>309</ele>
        <time>2013-02-08T08:41:33Z</time>
      </trkpt>
      <trkpt lat="44.72502" lon="4.65911">
        <ele>309</ele>
        <time>2013-02-08T08:41:35Z</time>
      </trkpt>
      <trkpt lat="44.72504" lon="4.65909">
        <ele>309</ele>
        <time>2013-02-08T08:41:37Z</time>
      </trkpt>
      <trkpt lat="44.72505" lon="4.65907">
        <ele>309</ele>
        <time>2013-02-08T08:41:39Z</time>
      </trkpt>
      <trkpt lat="44.72506" lon="4.65905">
        <ele>309</ele>
        <time>2013-02-08T08:41:41Z</time>
      </trkpt>
      <trkpt lat="44.72508" lon="4.65903">
        <ele>309</ele>
        <time>2013-02-08T08:41:43Z</time>
      </trkpt>
      <trkpt lat="44.72509" lon="4.65901">
        <ele>309</ele>
        <time>2013-02-08T08:41:45Z</time>
      </trkpt>
      <trkpt lat="44.72511" lon="4.65899">
        <ele>309</ele>
        <time>2013-02-08T08:41:47Z</time>
      </trkpt>
      <trkpt lat="44.72512" lon="4.65897">
        <ele>309</ele>
        <time>2013-02-08T08:41:49Z</time>
      </trkpt>
      <trkpt lat="44.72514" lon="4.65896">
        <ele>309</ele>
        <time>2013-02-08T08:41:51Z</time>
      </trkpt>
      <trkpt lat="44.72516" lon="4.65894">
        <ele>309</ele>
        <time>2013-02-08T08:41:53Z</time>
      </trkpt>
      <trkpt lat="44.72518" lon="4.65892">
        <ele>309</ele>
        <time>2013-02-08T08:41:55Z</time>
      </trkpt>
      <trkpt lat="44.72519" lon="4.6589">
        <ele>309</ele>
        <time>2013-02-08T08:41:57Z</time>
      </trkpt>
      <trkpt lat="44.72521" lon="4.65888">
        <ele>309</ele>
        <time>2013-02-08T08:41:59Z</time>
      </trkpt>
      <trkpt lat="44.72523" lon="4.65886">
        <ele>309</ele>
        <time>2013-02-08T08:42:01Z</time>
      </trkpt>
      <trkpt lat="44.72524" lon="4.65885">
        <ele>309</ele>
        <time>2013-02-08T08:42:03Z</time>
      </trkpt>
      <trkpt lat="44.72526" lon="4.65883">
        <ele>309</ele>
        <time>2013-02-08T08:42:05Z</time>
      </trkpt>
      <trkpt lat="44.72527" lon="4.65881">
        <ele>309</ele>
        <time>2013-02-08T08:42:07Z</time>
      </trkpt>
      <trkpt lat="44.72529" lon="4.65879">
        <ele>309</ele>
        <time>2013-02-08T08:42:09Z</time>
      </trkpt>
      <trkpt lat="44.72531" lon="4.65878">
        <ele>309</ele>
        <time>2013-02-08T08:42:11Z</time>
      </trkpt>
      <trkpt lat="44.72532" lon="4.65876">
        <ele>309</ele>
        <time>2013-02-08T08:42:13Z</time>
      </trkpt>
      <trkpt lat="44.72534" lon="4.65874">
        <ele>309</ele>
        <time>2013-02-08T08:42:15Z</time>
      </trkpt>
      <trkpt lat="44.72536" lon="4.65872">
        <ele>309</ele>
        <time>2013-02-08T08:42:17Z</time>
      </trkpt>
      <trkpt lat="44.72537" lon="4.65871">
        <ele>309</ele>
        <time>2013-02-08T08:42:19Z</time>
      </trkpt>
      <trkpt lat="44.72539" lon="4.65868">
        <ele>309</ele>
        <time>2013-02-08T08:42:21Z</time>
      </trkpt>
      <trkpt lat="44.72541" lon="4.65866">
        <ele>309</ele>
        <time>2013-02-08T08:42:23Z</time>
      </trkpt>
      <trkpt lat="44.72542" lon="4.65865">
        <ele>309</ele>
        <time>2013-02-08T08:42:25Z</time>
      </trkpt>
      <trkpt lat="44.72543" lon="4.65863">
        <ele>309</ele>
        <time>2013-02-08T08:42:27Z</time>
      </trkpt>
      <trkpt lat="44.72545" lon="4.65861">
        <ele>309</ele>
        <time>2013-02-08T08:42:29Z</time>
      </trkpt>
      <trkpt lat="44.72546" lon="4.65859">
        <ele>309</ele>
        <time>2013-02-08T08:42:31Z</time>
      </trkpt>
      <trkpt lat="44.72548" lon="4.65857">
        <ele>309</ele>
        <time>2013-02-08T08:42:33Z</time>
      </trkpt>
      <trkpt lat="44.7255" lon="4.65855">
        <ele>309</ele>
        <time>2013-02-08T08:42:35Z</time>
      </trkpt>
      <trkpt lat="44.72551" lon="4.65853">
        <ele>309</ele>
        <time>2013-02-08T08:42:37Z</time>
      </trkpt>
      <trkpt lat="44.72553" lon="4.65851">
        <ele>309</ele>
        <time>2013-02-08T08:42:39Z</time>
      </trkpt>
      <trkpt lat="44.72554" lon="4.65849">
        <ele>309</ele>
        <time>2013-02-08T08:42:41Z</time>
      </trkpt>
      <trkpt lat="44.72555" lon="4.65848">
        <ele>309</ele>
        <time>2013-02-08T08:42:44Z</time>
      </trkpt>
      <trkpt lat="44.72558" lon="4.65843">
        <ele>309</ele>
        <time>2013-02-08T08:42:47Z</time>
      </trkpt>
      <trkpt lat="44.72559" lon="4.65842">
        <ele>309</ele>
        <time>2013-02-08T08:42:49Z</time>
      </trkpt>
      <trkpt lat="44.72561" lon="4.6584">
        <ele>308</ele>
        <time>2013-02-08T08:42:51Z</time>
      </trkpt>
      <trkpt lat="44.72562" lon="4.65838">
        <ele>308</ele>
        <time>2013-02-08T08:42:53Z</time>
      </trkpt>
      <trkpt lat="44.72564" lon="4.65836">
        <ele>308</ele>
        <time>2013-02-08T08:42:55Z</time>
      </trkpt>
      <trkpt lat="44.72565" lon="4.65834">
        <ele>308</ele>
        <time>2013-02-08T08:42:57Z</time>
      </trkpt>
      <trkpt lat="44.72566" lon="4.65832">
        <ele>311</ele>
        <time>2013-02-08T08:42:59Z</time>
      </trkpt>
      <trkpt lat="44.72567" lon="4.6583">
        <ele>311</ele>
        <time>2013-02-08T08:43:01Z</time>
      </trkpt>
      <trkpt lat="44.72569" lon="4.65828">
        <ele>311</ele>
        <time>2013-02-08T08:43:03Z</time>
      </trkpt>
      <trkpt lat="44.7257" lon="4.65826">
        <ele>311</ele>
        <time>2013-02-08T08:43:05Z</time>
      </trkpt>
      <trkpt lat="44.72571" lon="4.65824">
        <ele>311</ele>
        <time>2013-02-08T08:43:07Z</time>
      </trkpt>
      <trkpt lat="44.72572" lon="4.65821">
        <ele>311</ele>
        <time>2013-02-08T08:43:09Z</time>
      </trkpt>
      <trkpt lat="44.72573" lon="4.65819">
        <ele>311</ele>
        <time>2013-02-08T08:43:11Z</time>
      </trkpt>
      <trkpt lat="44.72574" lon="4.65817">
        <ele>312</ele>
        <time>2013-02-08T08:43:13Z</time>
      </trkpt>
      <trkpt lat="44.72575" lon="4.65815">
        <ele>312</ele>
        <time>2013-02-08T08:43:15Z</time>
      </trkpt>
      <trkpt lat="44.72575" lon="4.65813">
        <ele>312</ele>
        <time>2013-02-08T08:43:17Z</time>
      </trkpt>
      <trkpt lat="44.72576" lon="4.6581">
        <ele>312</ele>
        <time>2013-02-08T08:43:19Z</time>
      </trkpt>
      <trkpt lat="44.72577" lon="4.65808">
        <ele>312</ele>
        <time>2013-02-08T08:43:21Z</time>
      </trkpt>
      <trkpt lat="44.72578" lon="4.65806">
        <ele>313</ele>
        <time>2013-02-08T08:43:23Z</time>
      </trkpt>
      <trkpt lat="44.72578" lon="4.65804">
        <ele>313</ele>
        <time>2013-02-08T08:43:25Z</time>
      </trkpt>
      <trkpt lat="44.72579" lon="4.65802">
        <ele>313</ele>
        <time>2013-02-08T08:43:27Z</time>
      </trkpt>
      <trkpt lat="44.7258" lon="4.658">
        <ele>313</ele>
        <time>2013-02-08T08:43:29Z</time>
      </trkpt>
      <trkpt lat="44.7258" lon="4.65797">
        <ele>313</ele>
        <time>2013-02-08T08:43:31Z</time>
      </trkpt>
      <trkpt lat="44.72582" lon="4.65795">
        <ele>314</ele>
        <time>2013-02-08T08:43:33Z</time>
      </trkpt>
      <trkpt lat="44.72582" lon="4.65793">
        <ele>314</ele>
        <time>2013-02-08T08:43:35Z</time>
      </trkpt>
      <trkpt lat="44.72583" lon="4.65791">
        <ele>314</ele>
        <time>2013-02-08T08:43:37Z</time>
      </trkpt>
      <trkpt lat="44.72584" lon="4.65788">
        <ele>311</ele>
        <time>2013-02-08T08:43:39Z</time>
      </trkpt>
      <trkpt lat="44.72584" lon="4.65786">
        <ele>311</ele>
        <time>2013-02-08T08:43:41Z</time>
      </trkpt>
      <trkpt lat="44.72585" lon="4.65784">
        <ele>311</ele>
        <time>2013-02-08T08:43:43Z</time>
      </trkpt>
      <trkpt lat="44.72586" lon="4.65782">
        <ele>312</ele>
        <time>2013-02-08T08:43:47Z</time>
      </trkpt>
      <trkpt lat="44.72586" lon="4.6578">
        <ele>312</ele>
        <time>2013-02-08T08:43:49Z</time>
      </trkpt>
      <trkpt lat="44.72587" lon="4.65778">
        <ele>312</ele>
        <time>2013-02-08T08:43:51Z</time>
      </trkpt>
      <trkpt lat="44.72588" lon="4.65776">
        <ele>312</ele>
        <time>2013-02-08T08:43:53Z</time>
      </trkpt>
      <trkpt lat="44.72588" lon="4.65774">
        <ele>313</ele>
        <time>2013-02-08T08:43:55Z</time>
      </trkpt>
      <trkpt lat="44.72589" lon="4.65772">
        <ele>313</ele>
        <time>2013-02-08T08:43:57Z</time>
      </trkpt>
      <trkpt lat="44.72589" lon="4.6577">
        <ele>313</ele>
        <time>2013-02-08T08:43:59Z</time>
      </trkpt>
      <trkpt lat="44.72589" lon="4.65767">
        <ele>313</ele>
        <time>2013-02-08T08:44:01Z</time>
      </trkpt>
      <trkpt lat="44.72589" lon="4.65762">
        <ele>314</ele>
        <time>2013-02-08T08:44:04Z</time>
      </trkpt>
      <trkpt lat="44.72589" lon="4.6576">
        <ele>314</ele>
        <time>2013-02-08T08:44:06Z</time>
      </trkpt>
      <trkpt lat="44.72589" lon="4.65757">
        <ele>315</ele>
        <time>2013-02-08T08:44:08Z</time>
      </trkpt>
      <trkpt lat="44.72589" lon="4.65755">
        <ele>315</ele>
        <time>2013-02-08T08:44:10Z</time>
      </trkpt>
      <trkpt lat="44.7259" lon="4.65753">
        <ele>315</ele>
        <time>2013-02-08T08:44:12Z</time>
      </trkpt>
      <trkpt lat="44.7259" lon="4.65751">
        <ele>315</ele>
        <time>2013-02-08T08:44:14Z</time>
      </trkpt>
      <trkpt lat="44.72591" lon="4.65749">
        <ele>317</ele>
        <time>2013-02-08T08:44:16Z</time>
      </trkpt>
      <trkpt lat="44.72591" lon="4.65747">
        <ele>317</ele>
        <time>2013-02-08T08:44:18Z</time>
      </trkpt>
      <trkpt lat="44.72591" lon="4.65744">
        <ele>317</ele>
        <time>2013-02-08T08:44:20Z</time>
      </trkpt>
      <trkpt lat="44.72592" lon="4.65742">
        <ele>317</ele>
        <time>2013-02-08T08:44:22Z</time>
      </trkpt>
      <trkpt lat="44.72592" lon="4.6574">
        <ele>317</ele>
        <time>2013-02-08T08:44:24Z</time>
      </trkpt>
      <trkpt lat="44.72593" lon="4.65738">
        <ele>318</ele>
        <time>2013-02-08T08:44:26Z</time>
      </trkpt>
      <trkpt lat="44.72593" lon="4.65735">
        <ele>318</ele>
        <time>2013-02-08T08:44:28Z</time>
      </trkpt>
      <trkpt lat="44.72593" lon="4.65733">
        <ele>318</ele>
        <time>2013-02-08T08:44:30Z</time>
      </trkpt>
      <trkpt lat="44.72593" lon="4.65731">
        <ele>318</ele>
        <time>2013-02-08T08:44:32Z</time>
      </trkpt>
      <trkpt lat="44.72594" lon="4.65729">
        <ele>318</ele>
        <time>2013-02-08T08:44:34Z</time>
      </trkpt>
      <trkpt lat="44.72593" lon="4.65727">
        <ele>318</ele>
        <time>2013-02-08T08:44:37Z</time>
      </trkpt>
      <trkpt lat="44.72592" lon="4.65725">
        <ele>318</ele>
        <time>2013-02-08T08:44:41Z</time>
      </trkpt>
      <trkpt lat="44.72592" lon="4.65724">
        <ele>318</ele>
        <time>2013-02-08T08:44:45Z</time>
      </trkpt>
      <trkpt lat="44.72592" lon="4.65722">
        <ele>318</ele>
        <time>2013-02-08T08:44:51Z</time>
      </trkpt>
      <trkpt lat="44.72593" lon="4.6572">
        <ele>318</ele>
        <time>2013-02-08T08:44:57Z</time>
      </trkpt>
      <trkpt lat="44.72595" lon="4.65718">
        <ele>318</ele>
        <time>2013-02-08T08:45:05Z</time>
      </trkpt>
      <trkpt lat="44.72596" lon="4.65717">
        <ele>318</ele>
        <time>2013-02-08T08:45:07Z</time>
      </trkpt>
      <trkpt lat="44.72597" lon="4.65716">
        <ele>319</ele>
        <time>2013-02-08T08:45:10Z</time>
      </trkpt>
      <trkpt lat="44.72596" lon="4.65715">
        <ele>319</ele>
        <time>2013-02-08T08:45:23Z</time>
      </trkpt>
      <trkpt lat="44.72597" lon="4.65715">
        <ele>319</ele>
        <time>2013-02-08T08:46:18Z</time>
      </trkpt>
      <trkpt lat="44.72598" lon="4.65715">
        <ele>319</ele>
        <time>2013-02-08T08:46:53Z</time>
      </trkpt>
      <trkpt lat="44.726" lon="4.65714">
        <ele>319</ele>
        <time>2013-02-08T08:47:01Z</time>
      </trkpt>
      <trkpt lat="44.726" lon="4.65712">
        <ele>319</ele>
        <time>2013-02-08T08:47:10Z</time>
      </trkpt>
      <trkpt lat="44.72599" lon="4.65711">
        <ele>319</ele>
        <time>2013-02-08T08:47:19Z</time>
      </trkpt>
      <trkpt lat="44.726" lon="4.6571">
        <ele>319</ele>
        <time>2013-02-08T08:47:27Z</time>
      </trkpt>
      <trkpt lat="44.72601" lon="4.65709">
        <ele>319</ele>
        <time>2013-02-08T08:47:30Z</time>
      </trkpt>
      <trkpt lat="44.72603" lon="4.65707">
        <ele>319</ele>
        <time>2013-02-08T08:47:38Z</time>
      </trkpt>
      <trkpt lat="44.72603" lon="4.65706">
        <ele>319</ele>
        <time>2013-02-08T08:48:13Z</time>
      </trkpt>
      <trkpt lat="44.72605" lon="4.65704">
        <ele>319</ele>
        <time>2013-02-08T08:48:15Z</time>
      </trkpt>
      <trkpt lat="44.72607" lon="4.65702">
        <ele>319</ele>
        <time>2013-02-08T08:48:17Z</time>
      </trkpt>
      <trkpt lat="44.72608" lon="4.657">
        <ele>319</ele>
        <time>2013-02-08T08:48:19Z</time>
      </trkpt>
      <trkpt lat="44.72612" lon="4.65696">
        <ele>319</ele>
        <time>2013-02-08T08:48:23Z</time>
      </trkpt>
      <trkpt lat="44.72614" lon="4.65694">
        <ele>319</ele>
        <time>2013-02-08T08:48:25Z</time>
      </trkpt>
      <trkpt lat="44.72615" lon="4.65692">
        <ele>319</ele>
        <time>2013-02-08T08:48:27Z</time>
      </trkpt>
      <trkpt lat="44.72619" lon="4.65688">
        <ele>319</ele>
        <time>2013-02-08T08:48:31Z</time>
      </trkpt>
      <trkpt lat="44.7262" lon="4.65686">
        <ele>319</ele>
        <time>2013-02-08T08:48:33Z</time>
      </trkpt>
      <trkpt lat="44.72622" lon="4.65685">
        <ele>319</ele>
        <time>2013-02-08T08:48:35Z</time>
      </trkpt>
      <trkpt lat="44.72623" lon="4.65682">
        <ele>320</ele>
        <time>2013-02-08T08:48:37Z</time>
      </trkpt>
      <trkpt lat="44.72625" lon="4.65681">
        <ele>320</ele>
        <time>2013-02-08T08:48:39Z</time>
      </trkpt>
      <trkpt lat="44.72626" lon="4.65679">
        <ele>320</ele>
        <time>2013-02-08T08:48:41Z</time>
      </trkpt>
      <trkpt lat="44.72628" lon="4.65677">
        <ele>320</ele>
        <time>2013-02-08T08:48:43Z</time>
      </trkpt>
      <trkpt lat="44.7263" lon="4.65675">
        <ele>320</ele>
        <time>2013-02-08T08:48:45Z</time>
      </trkpt>
      <trkpt lat="44.72632" lon="4.65673">
        <ele>320</ele>
        <time>2013-02-08T08:48:47Z</time>
      </trkpt>
      <trkpt lat="44.72633" lon="4.65671">
        <ele>320</ele>
        <time>2013-02-08T08:48:49Z</time>
      </trkpt>
      <trkpt lat="44.72635" lon="4.65668">
        <ele>320</ele>
        <time>2013-02-08T08:48:51Z</time>
      </trkpt>
      <trkpt lat="44.72636" lon="4.65667">
        <ele>327</ele>
        <time>2013-02-08T08:48:53Z</time>
      </trkpt>
      <trkpt lat="44.72638" lon="4.65665">
        <ele>327</ele>
        <time>2013-02-08T08:48:55Z</time>
      </trkpt>
      <trkpt lat="44.7264" lon="4.65663">
        <ele>326</ele>
        <time>2013-02-08T08:48:57Z</time>
      </trkpt>
      <trkpt lat="44.72641" lon="4.65661">
        <ele>326</ele>
        <time>2013-02-08T08:48:59Z</time>
      </trkpt>
      <trkpt lat="44.72643" lon="4.6566">
        <ele>326</ele>
        <time>2013-02-08T08:49:01Z</time>
      </trkpt>
      <trkpt lat="44.72644" lon="4.65658">
        <ele>326</ele>
        <time>2013-02-08T08:49:03Z</time>
      </trkpt>
      <trkpt lat="44.72646" lon="4.65656">
        <ele>326</ele>
        <time>2013-02-08T08:49:05Z</time>
      </trkpt>
      <trkpt lat="44.72647" lon="4.65654">
        <ele>326</ele>
        <time>2013-02-08T08:49:07Z</time>
      </trkpt>
      <trkpt lat="44.72648" lon="4.65651">
        <ele>326</ele>
        <time>2013-02-08T08:49:09Z</time>
      </trkpt>
      <trkpt lat="44.7265" lon="4.65649">
        <ele>327</ele>
        <time>2013-02-08T08:49:11Z</time>
      </trkpt>
      <trkpt lat="44.72651" lon="4.65647">
        <ele>327</ele>
        <time>2013-02-08T08:49:13Z</time>
      </trkpt>
      <trkpt lat="44.72653" lon="4.65645">
        <ele>327</ele>
        <time>2013-02-08T08:49:15Z</time>
      </trkpt>
      <trkpt lat="44.72654" lon="4.65643">
        <ele>327</ele>
        <time>2013-02-08T08:49:17Z</time>
      </trkpt>
      <trkpt lat="44.72656" lon="4.65641">
        <ele>327</ele>
        <time>2013-02-08T08:49:19Z</time>
      </trkpt>
      <trkpt lat="44.72657" lon="4.65639">
        <ele>327</ele>
        <time>2013-02-08T08:49:21Z</time>
      </trkpt>
      <trkpt lat="44.72659" lon="4.65637">
        <ele>328</ele>
        <time>2013-02-08T08:49:23Z</time>
      </trkpt>
      <trkpt lat="44.7266" lon="4.65635">
        <ele>328</ele>
        <time>2013-02-08T08:49:25Z</time>
      </trkpt>
      <trkpt lat="44.72662" lon="4.65633">
        <ele>328</ele>
        <time>2013-02-08T08:49:27Z</time>
      </trkpt>
      <trkpt lat="44.72663" lon="4.65631">
        <ele>328</ele>
        <time>2013-02-08T08:49:29Z</time>
      </trkpt>
      <trkpt lat="44.72665" lon="4.65629">
        <ele>329</ele>
        <time>2013-02-08T08:49:31Z</time>
      </trkpt>
      <trkpt lat="44.72666" lon="4.65627">
        <ele>329</ele>
        <time>2013-02-08T08:49:33Z</time>
      </trkpt>
      <trkpt lat="44.72669" lon="4.65623">
        <ele>329</ele>
        <time>2013-02-08T08:49:37Z</time>
      </trkpt>
      <trkpt lat="44.7267" lon="4.65621">
        <ele>329</ele>
        <time>2013-02-08T08:49:39Z</time>
      </trkpt>
      <trkpt lat="44.72672" lon="4.65619">
        <ele>329</ele>
        <time>2013-02-08T08:49:41Z</time>
      </trkpt>
      <trkpt lat="44.72673" lon="4.65617">
        <ele>329</ele>
        <time>2013-02-08T08:49:43Z</time>
      </trkpt>
      <trkpt lat="44.72675" lon="4.65615">
        <ele>330</ele>
        <time>2013-02-08T08:49:45Z</time>
      </trkpt>
      <trkpt lat="44.72677" lon="4.65613">
        <ele>330</ele>
        <time>2013-02-08T08:49:47Z</time>
      </trkpt>
      <trkpt lat="44.72679" lon="4.65611">
        <ele>330</ele>
        <time>2013-02-08T08:49:49Z</time>
      </trkpt>
      <trkpt lat="44.72681" lon="4.6561">
        <ele>330</ele>
        <time>2013-02-08T08:49:51Z</time>
      </trkpt>
      <trkpt lat="44.72683" lon="4.65609">
        <ele>330</ele>
        <time>2013-02-08T08:49:53Z</time>
      </trkpt>
      <trkpt lat="44.72686" lon="4.65607">
        <ele>330</ele>
        <time>2013-02-08T08:49:56Z</time>
      </trkpt>
      <trkpt lat="44.72688" lon="4.65606">
        <ele>330</ele>
        <time>2013-02-08T08:49:58Z</time>
      </trkpt>
      <trkpt lat="44.7269" lon="4.65604">
        <ele>330</ele>
        <time>2013-02-08T08:50:00Z</time>
      </trkpt>
      <trkpt lat="44.72691" lon="4.65603">
        <ele>330</ele>
        <time>2013-02-08T08:50:02Z</time>
      </trkpt>
      <trkpt lat="44.72695" lon="4.65601">
        <ele>330</ele>
        <time>2013-02-08T08:50:05Z</time>
      </trkpt>
      <trkpt lat="44.72697" lon="4.65601">
        <ele>330</ele>
        <time>2013-02-08T08:50:07Z</time>
      </trkpt>
      <trkpt lat="44.72699" lon="4.65599">
        <ele>330</ele>
        <time>2013-02-08T08:50:09Z</time>
      </trkpt>
      <trkpt lat="44.72703" lon="4.65597">
        <ele>330</ele>
        <time>2013-02-08T08:50:13Z</time>
      </trkpt>
      <trkpt lat="44.72706" lon="4.65596">
        <ele>330</ele>
        <time>2013-02-08T08:50:16Z</time>
      </trkpt>
      <trkpt lat="44.72708" lon="4.65594">
        <ele>330</ele>
        <time>2013-02-08T08:50:18Z</time>
      </trkpt>
      <trkpt lat="44.72711" lon="4.65592">
        <ele>330</ele>
        <time>2013-02-08T08:50:22Z</time>
      </trkpt>
      <trkpt lat="44.72712" lon="4.6559">
        <ele>330</ele>
        <time>2013-02-08T08:50:24Z</time>
      </trkpt>
      <trkpt lat="44.72713" lon="4.65589">
        <ele>330</ele>
        <time>2013-02-08T08:50:26Z</time>
      </trkpt>
      <trkpt lat="44.72715" lon="4.65586">
        <ele>330</ele>
        <time>2013-02-08T08:50:30Z</time>
      </trkpt>
      <trkpt lat="44.72718" lon="4.65582">
        <ele>336</ele>
        <time>2013-02-08T08:50:34Z</time>
      </trkpt>
      <trkpt lat="44.7272" lon="4.6558">
        <ele>336</ele>
        <time>2013-02-08T08:50:36Z</time>
      </trkpt>
      <trkpt lat="44.72722" lon="4.65576">
        <ele>336</ele>
        <time>2013-02-08T08:50:40Z</time>
      </trkpt>
      <trkpt lat="44.72723" lon="4.65574">
        <ele>336</ele>
        <time>2013-02-08T08:50:42Z</time>
      </trkpt>
      <trkpt lat="44.72726" lon="4.6557">
        <ele>336</ele>
        <time>2013-02-08T08:50:46Z</time>
      </trkpt>
      <trkpt lat="44.72728" lon="4.65568">
        <ele>336</ele>
        <time>2013-02-08T08:50:48Z</time>
      </trkpt>
      <trkpt lat="44.7273" lon="4.65564">
        <ele>336</ele>
        <time>2013-02-08T08:50:52Z</time>
      </trkpt>
      <trkpt lat="44.72731" lon="4.65562">
        <ele>336</ele>
        <time>2013-02-08T08:50:54Z</time>
      </trkpt>
      <trkpt lat="44.72734" lon="4.65558">
        <ele>337</ele>
        <time>2013-02-08T08:50:58Z</time>
      </trkpt>
      <trkpt lat="44.72735" lon="4.65556">
        <ele>337</ele>
        <time>2013-02-08T08:51:00Z</time>
      </trkpt>
      <trkpt lat="44.72737" lon="4.65553">
        <ele>337</ele>
        <time>2013-02-08T08:51:04Z</time>
      </trkpt>
      <trkpt lat="44.72738" lon="4.65551">
        <ele>337</ele>
        <time>2013-02-08T08:51:06Z</time>
      </trkpt>
      <trkpt lat="44.72741" lon="4.65548">
        <ele>337</ele>
        <time>2013-02-08T08:51:10Z</time>
      </trkpt>
      <trkpt lat="44.72742" lon="4.65547">
        <ele>337</ele>
        <time>2013-02-08T08:51:12Z</time>
      </trkpt>
      <trkpt lat="44.72743" lon="4.65544">
        <ele>338</ele>
        <time>2013-02-08T08:51:16Z</time>
      </trkpt>
      <trkpt lat="44.72743" lon="4.65542">
        <ele>338</ele>
        <time>2013-02-08T08:51:19Z</time>
      </trkpt>
      <trkpt lat="44.72743" lon="4.6554">
        <ele>338</ele>
        <time>2013-02-08T08:51:24Z</time>
      </trkpt>
      <trkpt lat="44.72744" lon="4.65538">
        <ele>338</ele>
        <time>2013-02-08T08:51:27Z</time>
      </trkpt>
      <trkpt lat="44.72746" lon="4.65536">
        <ele>338</ele>
        <time>2013-02-08T08:51:30Z</time>
      </trkpt>
      <trkpt lat="44.72749" lon="4.65533">
        <ele>338</ele>
        <time>2013-02-08T08:51:41Z</time>
      </trkpt>
      <trkpt lat="44.72751" lon="4.65529">
        <ele>338</ele>
        <time>2013-02-08T08:51:45Z</time>
      </trkpt>
      <trkpt lat="44.72752" lon="4.65528">
        <ele>338</ele>
        <time>2013-02-08T08:51:47Z</time>
      </trkpt>
      <trkpt lat="44.72755" lon="4.65524">
        <ele>338</ele>
        <time>2013-02-08T08:51:51Z</time>
      </trkpt>
      <trkpt lat="44.72757" lon="4.65522">
        <ele>339</ele>
        <time>2013-02-08T08:51:54Z</time>
      </trkpt>
      <trkpt lat="44.7276" lon="4.6552">
        <ele>339</ele>
        <time>2013-02-08T08:51:58Z</time>
      </trkpt>
      <trkpt lat="44.72761" lon="4.65518">
        <ele>339</ele>
        <time>2013-02-08T08:52:00Z</time>
      </trkpt>
      <trkpt lat="44.72762" lon="4.65516">
        <ele>339</ele>
        <time>2013-02-08T08:52:03Z</time>
      </trkpt>
      <trkpt lat="44.72763" lon="4.65514">
        <ele>339</ele>
        <time>2013-02-08T08:52:11Z</time>
      </trkpt>
      <trkpt lat="44.72765" lon="4.65511">
        <ele>339</ele>
        <time>2013-02-08T08:52:15Z</time>
      </trkpt>
      <trkpt lat="44.72766" lon="4.65509">
        <ele>339</ele>
        <time>2013-02-08T08:52:22Z</time>
      </trkpt>
      <trkpt lat="44.72767" lon="4.65508">
        <ele>339</ele>
        <time>2013-02-08T08:53:01Z</time>
      </trkpt>
      <trkpt lat="44.72769" lon="4.65506">
        <ele>339</ele>
        <time>2013-02-08T08:53:08Z</time>
      </trkpt>
      <trkpt lat="44.7277" lon="4.65504">
        <ele>339</ele>
        <time>2013-02-08T08:53:12Z</time>
      </trkpt>
      <trkpt lat="44.72772" lon="4.65502">
        <ele>339</ele>
        <time>2013-02-08T08:53:15Z</time>
      </trkpt>
      <trkpt lat="44.72773" lon="4.655">
        <ele>343</ele>
        <time>2013-02-08T08:53:18Z</time>
      </trkpt>
      <trkpt lat="44.72775" lon="4.65499">
        <ele>343</ele>
        <time>2013-02-08T08:53:20Z</time>
      </trkpt>
      <trkpt lat="44.72777" lon="4.65496">
        <ele>343</ele>
        <time>2013-02-08T08:53:24Z</time>
      </trkpt>
      <trkpt lat="44.72779" lon="4.65495">
        <ele>343</ele>
        <time>2013-02-08T08:53:26Z</time>
      </trkpt>
      <trkpt lat="44.72781" lon="4.65492">
        <ele>344</ele>
        <time>2013-02-08T08:53:30Z</time>
      </trkpt>
      <trkpt lat="44.72783" lon="4.65491">
        <ele>344</ele>
        <time>2013-02-08T08:53:32Z</time>
      </trkpt>
      <trkpt lat="44.72786" lon="4.65488">
        <ele>344</ele>
        <time>2013-02-08T08:53:36Z</time>
      </trkpt>
      <trkpt lat="44.72787" lon="4.65487">
        <ele>344</ele>
        <time>2013-02-08T08:53:38Z</time>
      </trkpt>
      <trkpt lat="44.7279" lon="4.65484">
        <ele>344</ele>
        <time>2013-02-08T08:53:42Z</time>
      </trkpt>
      <trkpt lat="44.72794" lon="4.65481">
        <ele>344</ele>
        <time>2013-02-08T08:53:46Z</time>
      </trkpt>
      <trkpt lat="44.72795" lon="4.6548">
        <ele>344</ele>
        <time>2013-02-08T08:53:48Z</time>
      </trkpt>
      <trkpt lat="44.72797" lon="4.65478">
        <ele>344</ele>
        <time>2013-02-08T08:53:50Z</time>
      </trkpt>
      <trkpt lat="44.72801" lon="4.65476">
        <ele>344</ele>
        <time>2013-02-08T08:53:54Z</time>
      </trkpt>
      <trkpt lat="44.72802" lon="4.65474">
        <ele>344</ele>
        <time>2013-02-08T08:53:56Z</time>
      </trkpt>
      <trkpt lat="44.72806" lon="4.65472">
        <ele>344</ele>
        <time>2013-02-08T08:54:00Z</time>
      </trkpt>
      <trkpt lat="44.72808" lon="4.65471">
        <ele>344</ele>
        <time>2013-02-08T08:54:02Z</time>
      </trkpt>
      <trkpt lat="44.72812" lon="4.65468">
        <ele>344</ele>
        <time>2013-02-08T08:54:06Z</time>
      </trkpt>
      <trkpt lat="44.72814" lon="4.65467">
        <ele>344</ele>
        <time>2013-02-08T08:54:08Z</time>
      </trkpt>
      <trkpt lat="44.72816" lon="4.65465">
        <ele>345</ele>
        <time>2013-02-08T08:54:18Z</time>
      </trkpt>
      <trkpt lat="44.7282" lon="4.65463">
        <ele>345</ele>
        <time>2013-02-08T08:54:22Z</time>
      </trkpt>
      <trkpt lat="44.72823" lon="4.65462">
        <ele>345</ele>
        <time>2013-02-08T08:54:25Z</time>
      </trkpt>
      <trkpt lat="44.72826" lon="4.65461">
        <ele>345</ele>
        <time>2013-02-08T08:54:28Z</time>
      </trkpt>
      <trkpt lat="44.72829" lon="4.65461">
        <ele>345</ele>
        <time>2013-02-08T08:54:31Z</time>
      </trkpt>
      <trkpt lat="44.72831" lon="4.6546">
        <ele>345</ele>
        <time>2013-02-08T08:54:33Z</time>
      </trkpt>
      <trkpt lat="44.72834" lon="4.6546">
        <ele>346</ele>
        <time>2013-02-08T08:54:36Z</time>
      </trkpt>
      <trkpt lat="44.72837" lon="4.65459">
        <ele>346</ele>
        <time>2013-02-08T08:54:38Z</time>
      </trkpt>
      <trkpt lat="44.72841" lon="4.65459">
        <ele>346</ele>
        <time>2013-02-08T08:54:42Z</time>
      </trkpt>
      <trkpt lat="44.72843" lon="4.65458">
        <ele>347</ele>
        <time>2013-02-08T08:54:44Z</time>
      </trkpt>
      <trkpt lat="44.72847" lon="4.65457">
        <ele>347</ele>
        <time>2013-02-08T08:54:48Z</time>
      </trkpt>
      <trkpt lat="44.72849" lon="4.65456">
        <ele>347</ele>
        <time>2013-02-08T08:54:50Z</time>
      </trkpt>
      <trkpt lat="44.72852" lon="4.65454">
        <ele>347</ele>
        <time>2013-02-08T08:54:54Z</time>
      </trkpt>
      <trkpt lat="44.72854" lon="4.65454">
        <ele>347</ele>
        <time>2013-02-08T08:54:56Z</time>
      </trkpt>
      <trkpt lat="44.72858" lon="4.65452">
        <ele>347</ele>
        <time>2013-02-08T08:55:00Z</time>
      </trkpt>
      <trkpt lat="44.7286" lon="4.65452">
        <ele>347</ele>
        <time>2013-02-08T08:55:02Z</time>
      </trkpt>
      <trkpt lat="44.72863" lon="4.65451">
        <ele>347</ele>
        <time>2013-02-08T08:55:06Z</time>
      </trkpt>
      <trkpt lat="44.72865" lon="4.6545">
        <ele>347</ele>
        <time>2013-02-08T08:55:08Z</time>
      </trkpt>
      <trkpt lat="44.72868" lon="4.65449">
        <ele>348</ele>
        <time>2013-02-08T08:55:12Z</time>
      </trkpt>
      <trkpt lat="44.7287" lon="4.65448">
        <ele>348</ele>
        <time>2013-02-08T08:55:14Z</time>
      </trkpt>
      <trkpt lat="44.72872" lon="4.65448">
        <ele>348</ele>
        <time>2013-02-08T08:55:16Z</time>
      </trkpt>
      <trkpt lat="44.72873" lon="4.65448">
        <ele>348</ele>
        <time>2013-02-08T08:55:18Z</time>
      </trkpt>
      <trkpt lat="44.72875" lon="4.65448">
        <ele>348</ele>
        <time>2013-02-08T08:55:20Z</time>
      </trkpt>
      <trkpt lat="44.72878" lon="4.65446">
        <ele>348</ele>
        <time>2013-02-08T08:55:24Z</time>
      </trkpt>
      <trkpt lat="44.7288" lon="4.65445">
        <ele>348</ele>
        <time>2013-02-08T08:55:26Z</time>
      </trkpt>
      <trkpt lat="44.72883" lon="4.65443">
        <ele>348</ele>
        <time>2013-02-08T08:55:30Z</time>
      </trkpt>
      <trkpt lat="44.72885" lon="4.65442">
        <ele>349</ele>
        <time>2013-02-08T08:55:32Z</time>
      </trkpt>
      <trkpt lat="44.72886" lon="4.65441">
        <ele>349</ele>
        <time>2013-02-08T08:55:34Z</time>
      </trkpt>
      <trkpt lat="44.72888" lon="4.65441">
        <ele>349</ele>
        <time>2013-02-08T08:55:36Z</time>
      </trkpt>
      <trkpt lat="44.72891" lon="4.65438">
        <ele>349</ele>
        <time>2013-02-08T08:55:40Z</time>
      </trkpt>
      <trkpt lat="44.72892" lon="4.65437">
        <ele>349</ele>
        <time>2013-02-08T08:55:43Z</time>
      </trkpt>
      <trkpt lat="44.72892" lon="4.65435">
        <ele>349</ele>
        <time>2013-02-08T08:55:55Z</time>
      </trkpt>
      <trkpt lat="44.72892" lon="4.65434">
        <ele>349</ele>
        <time>2013-02-08T08:56:03Z</time>
      </trkpt>
      <trkpt lat="44.72894" lon="4.65433">
        <ele>349</ele>
        <time>2013-02-08T08:56:15Z</time>
      </trkpt>
      <trkpt lat="44.72895" lon="4.65431">
        <ele>349</ele>
        <time>2013-02-08T08:56:22Z</time>
      </trkpt>
      <trkpt lat="44.72896" lon="4.6543">
        <ele>350</ele>
        <time>2013-02-08T08:56:25Z</time>
      </trkpt>
      <trkpt lat="44.72897" lon="4.65428">
        <ele>350</ele>
        <time>2013-02-08T08:56:29Z</time>
      </trkpt>
      <trkpt lat="44.72896" lon="4.65426">
        <ele>350</ele>
        <time>2013-02-08T08:56:34Z</time>
      </trkpt>
      <trkpt lat="44.72896" lon="4.65425">
        <ele>350</ele>
        <time>2013-02-08T08:56:45Z</time>
      </trkpt>
      <trkpt lat="44.72898" lon="4.65424">
        <ele>350</ele>
        <time>2013-02-08T08:56:48Z</time>
      </trkpt>
      <trkpt lat="44.729" lon="4.65424">
        <ele>350</ele>
        <time>2013-02-08T08:56:50Z</time>
      </trkpt>
      <trkpt lat="44.72901" lon="4.65423">
        <ele>350</ele>
        <time>2013-02-08T08:56:52Z</time>
      </trkpt>
      <trkpt lat="44.72902" lon="4.65422">
        <ele>351</ele>
        <time>2013-02-08T08:56:54Z</time>
      </trkpt>
      <trkpt lat="44.72904" lon="4.65421">
        <ele>351</ele>
        <time>2013-02-08T08:56:56Z</time>
      </trkpt>
      <trkpt lat="44.72905" lon="4.6542">
        <ele>351</ele>
        <time>2013-02-08T08:56:58Z</time>
      </trkpt>
      <trkpt lat="44.72907" lon="4.65418">
        <ele>351</ele>
        <time>2013-02-08T08:57:00Z</time>
      </trkpt>
      <trkpt lat="44.72908" lon="4.65417">
        <ele>352</ele>
        <time>2013-02-08T08:57:02Z</time>
      </trkpt>
      <trkpt lat="44.7291" lon="4.65415">
        <ele>353</ele>
        <time>2013-02-08T08:57:04Z</time>
      </trkpt>
      <trkpt lat="44.72912" lon="4.65414">
        <ele>353</ele>
        <time>2013-02-08T08:57:06Z</time>
      </trkpt>
      <trkpt lat="44.72913" lon="4.65412">
        <ele>353</ele>
        <time>2013-02-08T08:57:08Z</time>
      </trkpt>
      <trkpt lat="44.72915" lon="4.65411">
        <ele>353</ele>
        <time>2013-02-08T08:57:10Z</time>
      </trkpt>
      <trkpt lat="44.72916" lon="4.65409">
        <ele>353</ele>
        <time>2013-02-08T08:57:12Z</time>
      </trkpt>
      <trkpt lat="44.72918" lon="4.65407">
        <ele>355</ele>
        <time>2013-02-08T08:57:15Z</time>
      </trkpt>
      <trkpt lat="44.72919" lon="4.65405">
        <ele>356</ele>
        <time>2013-02-08T08:57:17Z</time>
      </trkpt>
      <trkpt lat="44.7292" lon="4.65404">
        <ele>356</ele>
        <time>2013-02-08T08:57:19Z</time>
      </trkpt>
      <trkpt lat="44.72921" lon="4.65402">
        <ele>356</ele>
        <time>2013-02-08T08:57:21Z</time>
      </trkpt>
      <trkpt lat="44.72923" lon="4.65401">
        <ele>357</ele>
        <time>2013-02-08T08:57:24Z</time>
      </trkpt>
      <trkpt lat="44.72924" lon="4.65401">
        <ele>357</ele>
        <time>2013-02-08T08:57:29Z</time>
      </trkpt>
      <trkpt lat="44.72926" lon="4.65401">
        <ele>357</ele>
        <time>2013-02-08T08:57:31Z</time>
      </trkpt>
      <trkpt lat="44.72927" lon="4.65402">
        <ele>357</ele>
        <time>2013-02-08T08:57:59Z</time>
      </trkpt>
      <trkpt lat="44.72928" lon="4.65402">
        <ele>357</ele>
        <time>2013-02-08T08:58:02Z</time>
      </trkpt>
      <trkpt lat="44.7293" lon="4.65403">
        <ele>357</ele>
        <time>2013-02-08T08:58:04Z</time>
      </trkpt>
      <trkpt lat="44.72931" lon="4.65403">
        <ele>357</ele>
        <time>2013-02-08T08:58:06Z</time>
      </trkpt>
      <trkpt lat="44.72932" lon="4.65403">
        <ele>357</ele>
        <time>2013-02-08T08:58:08Z</time>
      </trkpt>
      <trkpt lat="44.72934" lon="4.65403">
        <ele>357</ele>
        <time>2013-02-08T08:58:10Z</time>
      </trkpt>
      <trkpt lat="44.72936" lon="4.65404">
        <ele>357</ele>
        <time>2013-02-08T08:58:12Z</time>
      </trkpt>
      <trkpt lat="44.72937" lon="4.65404">
        <ele>358</ele>
        <time>2013-02-08T08:58:14Z</time>
      </trkpt>
      <trkpt lat="44.72939" lon="4.65404">
        <ele>358</ele>
        <time>2013-02-08T08:58:16Z</time>
      </trkpt>
      <trkpt lat="44.72941" lon="4.65405">
        <ele>358</ele>
        <time>2013-02-08T08:58:18Z</time>
      </trkpt>
      <trkpt lat="44.72944" lon="4.65406">
        <ele>358</ele>
        <time>2013-02-08T08:58:20Z</time>
      </trkpt>
      <trkpt lat="44.72947" lon="4.65407">
        <ele>358</ele>
        <time>2013-02-08T08:58:23Z</time>
      </trkpt>
      <trkpt lat="44.72949" lon="4.65407">
        <ele>359</ele>
        <time>2013-02-08T08:58:25Z</time>
      </trkpt>
      <trkpt lat="44.72951" lon="4.65408">
        <ele>359</ele>
        <time>2013-02-08T08:58:27Z</time>
      </trkpt>
      <trkpt lat="44.72952" lon="4.65409">
        <ele>359</ele>
        <time>2013-02-08T08:58:29Z</time>
      </trkpt>
      <trkpt lat="44.72955" lon="4.65411">
        <ele>359</ele>
        <time>2013-02-08T08:58:32Z</time>
      </trkpt>
      <trkpt lat="44.72957" lon="4.65412">
        <ele>359</ele>
        <time>2013-02-08T08:58:34Z</time>
      </trkpt>
      <trkpt lat="44.72959" lon="4.65414">
        <ele>359</ele>
        <time>2013-02-08T08:58:36Z</time>
      </trkpt>
      <trkpt lat="44.7296" lon="4.65416">
        <ele>360</ele>
        <time>2013-02-08T08:58:38Z</time>
      </trkpt>
      <trkpt lat="44.72961" lon="4.65418">
        <ele>357</ele>
        <time>2013-02-08T08:58:40Z</time>
      </trkpt>
      <trkpt lat="44.72963" lon="4.65419">
        <ele>357</ele>
        <time>2013-02-08T08:58:42Z</time>
      </trkpt>
      <trkpt lat="44.72963" lon="4.65421">
        <ele>357</ele>
        <time>2013-02-08T08:58:44Z</time>
      </trkpt>
      <trkpt lat="44.72965" lon="4.65423">
        <ele>357</ele>
        <time>2013-02-08T08:58:46Z</time>
      </trkpt>
      <trkpt lat="44.72965" lon="4.65424">
        <ele>357</ele>
        <time>2013-02-08T08:58:48Z</time>
      </trkpt>
      <trkpt lat="44.72966" lon="4.65426">
        <ele>357</ele>
        <time>2013-02-08T08:58:50Z</time>
      </trkpt>
      <trkpt lat="44.72967" lon="4.65428">
        <ele>357</ele>
        <time>2013-02-08T08:58:52Z</time>
      </trkpt>
      <trkpt lat="44.72968" lon="4.6543">
        <ele>357</ele>
        <time>2013-02-08T08:58:54Z</time>
      </trkpt>
      <trkpt lat="44.72969" lon="4.65433">
        <ele>357</ele>
        <time>2013-02-08T08:58:56Z</time>
      </trkpt>
      <trkpt lat="44.7297" lon="4.65435">
        <ele>357</ele>
        <time>2013-02-08T08:58:58Z</time>
      </trkpt>
      <trkpt lat="44.7297" lon="4.65438">
        <ele>357</ele>
        <time>2013-02-08T08:59:00Z</time>
      </trkpt>
      <trkpt lat="44.7297" lon="4.6544">
        <ele>357</ele>
        <time>2013-02-08T08:59:02Z</time>
      </trkpt>
      <trkpt lat="44.7297" lon="4.65442">
        <ele>357</ele>
        <time>2013-02-08T08:59:04Z</time>
      </trkpt>
      <trkpt lat="44.7297" lon="4.65445">
        <ele>357</ele>
        <time>2013-02-08T08:59:06Z</time>
      </trkpt>
      <trkpt lat="44.7297" lon="4.65447">
        <ele>357</ele>
        <time>2013-02-08T08:59:08Z</time>
      </trkpt>
      <trkpt lat="44.7297" lon="4.65449">
        <ele>357</ele>
        <time>2013-02-08T08:59:10Z</time>
      </trkpt>
      <trkpt lat="44.7297" lon="4.65453">
        <ele>357</ele>
        <time>2013-02-08T08:59:13Z</time>
      </trkpt>
      <trkpt lat="44.7297" lon="4.65456">
        <ele>357</ele>
        <time>2013-02-08T08:59:15Z</time>
      </trkpt>
      <trkpt lat="44.7297" lon="4.65458">
        <ele>357</ele>
        <time>2013-02-08T08:59:17Z</time>
      </trkpt>
      <trkpt lat="44.7297" lon="4.6546">
        <ele>357</ele>
        <time>2013-02-08T08:59:19Z</time>
      </trkpt>
      <trkpt lat="44.7297" lon="4.65462">
        <ele>357</ele>
        <time>2013-02-08T08:59:23Z</time>
      </trkpt>
      <trkpt lat="44.7297" lon="4.65464">
        <ele>356</ele>
        <time>2013-02-08T08:59:25Z</time>
      </trkpt>
      <trkpt lat="44.72969" lon="4.65466">
        <ele>356</ele>
        <time>2013-02-08T08:59:27Z</time>
      </trkpt>
      <trkpt lat="44.72968" lon="4.65468">
        <ele>356</ele>
        <time>2013-02-08T08:59:29Z</time>
      </trkpt>
      <trkpt lat="44.72968" lon="4.65471">
        <ele>356</ele>
        <time>2013-02-08T08:59:31Z</time>
      </trkpt>
      <trkpt lat="44.72967" lon="4.65473">
        <ele>356</ele>
        <time>2013-02-08T08:59:33Z</time>
      </trkpt>
      <trkpt lat="44.72966" lon="4.65476">
        <ele>356</ele>
        <time>2013-02-08T08:59:35Z</time>
      </trkpt>
      <trkpt lat="44.72966" lon="4.65479">
        <ele>356</ele>
        <time>2013-02-08T08:59:37Z</time>
      </trkpt>
      <trkpt lat="44.72965" lon="4.65481">
        <ele>356</ele>
        <time>2013-02-08T08:59:39Z</time>
      </trkpt>
      <trkpt lat="44.72965" lon="4.65483">
        <ele>356</ele>
        <time>2013-02-08T08:59:41Z</time>
      </trkpt>
      <trkpt lat="44.72964" lon="4.65485">
        <ele>356</ele>
        <time>2013-02-08T08:59:43Z</time>
      </trkpt>
      <trkpt lat="44.72963" lon="4.65487">
        <ele>356</ele>
        <time>2013-02-08T08:59:45Z</time>
      </trkpt>
      <trkpt lat="44.72962" lon="4.65489">
        <ele>356</ele>
        <time>2013-02-08T08:59:47Z</time>
      </trkpt>
      <trkpt lat="44.72961" lon="4.65492">
        <ele>356</ele>
        <time>2013-02-08T08:59:49Z</time>
      </trkpt>
      <trkpt lat="44.7296" lon="4.65493">
        <ele>355</ele>
        <time>2013-02-08T08:59:51Z</time>
      </trkpt>
      <trkpt lat="44.72959" lon="4.65495">
        <ele>355</ele>
        <time>2013-02-08T08:59:57Z</time>
      </trkpt>
      <trkpt lat="44.72958" lon="4.65496">
        <ele>355</ele>
        <time>2013-02-08T09:00:01Z</time>
      </trkpt>
      <trkpt lat="44.72957" lon="4.65498">
        <ele>355</ele>
        <time>2013-02-08T09:00:04Z</time>
      </trkpt>
      <trkpt lat="44.72957" lon="4.655">
        <ele>355</ele>
        <time>2013-02-08T09:00:07Z</time>
      </trkpt>
      <trkpt lat="44.72956" lon="4.655">
        <ele>353</ele>
        <time>2013-02-08T09:00:10Z</time>
      </trkpt>
      <trkpt lat="44.72955" lon="4.65502">
        <ele>353</ele>
        <time>2013-02-08T09:00:16Z</time>
      </trkpt>
      <trkpt lat="44.72955" lon="4.65504">
        <ele>353</ele>
        <time>2013-02-08T09:00:18Z</time>
      </trkpt>
      <trkpt lat="44.72954" lon="4.65507">
        <ele>353</ele>
        <time>2013-02-08T09:00:20Z</time>
      </trkpt>
      <trkpt lat="44.72954" lon="4.65508">
        <ele>353</ele>
        <time>2013-02-08T09:00:22Z</time>
      </trkpt>
      <trkpt lat="44.72953" lon="4.65511">
        <ele>352</ele>
        <time>2013-02-08T09:00:24Z</time>
      </trkpt>
      <trkpt lat="44.72952" lon="4.65514">
        <ele>352</ele>
        <time>2013-02-08T09:00:27Z</time>
      </trkpt>
      <trkpt lat="44.72951" lon="4.65516">
        <ele>352</ele>
        <time>2013-02-08T09:00:29Z</time>
      </trkpt>
      <trkpt lat="44.72951" lon="4.65517">
        <ele>352</ele>
        <time>2013-02-08T09:00:31Z</time>
      </trkpt>
      <trkpt lat="44.7295" lon="4.65519">
        <ele>352</ele>
        <time>2013-02-08T09:00:33Z</time>
      </trkpt>
      <trkpt lat="44.72949" lon="4.65521">
        <ele>352</ele>
        <time>2013-02-08T09:00:35Z</time>
      </trkpt>
      <trkpt lat="44.72949" lon="4.65523">
        <ele>352</ele>
        <time>2013-02-08T09:00:37Z</time>
      </trkpt>
      <trkpt lat="44.72949" lon="4.65525">
        <ele>352</ele>
        <time>2013-02-08T09:00:39Z</time>
      </trkpt>
      <trkpt lat="44.72948" lon="4.65527">
        <ele>352</ele>
        <time>2013-02-08T09:00:41Z</time>
      </trkpt>
      <trkpt lat="44.72947" lon="4.65531">
        <ele>352</ele>
        <time>2013-02-08T09:00:44Z</time>
      </trkpt>
      <trkpt lat="44.72947" lon="4.65533">
        <ele>352</ele>
        <time>2013-02-08T09:00:46Z</time>
      </trkpt>
      <trkpt lat="44.72946" lon="4.65535">
        <ele>352</ele>
        <time>2013-02-08T09:00:48Z</time>
      </trkpt>
      <trkpt lat="44.72944" lon="4.65536">
        <ele>352</ele>
        <time>2013-02-08T09:00:51Z</time>
      </trkpt>
      <trkpt lat="44.72943" lon="4.6554">
        <ele>351</ele>
        <time>2013-02-08T09:00:54Z</time>
      </trkpt>
      <trkpt lat="44.72942" lon="4.65542">
        <ele>351</ele>
        <time>2013-02-08T09:00:56Z</time>
      </trkpt>
      <trkpt lat="44.72942" lon="4.65544">
        <ele>351</ele>
        <time>2013-02-08T09:00:58Z</time>
      </trkpt>
      <trkpt lat="44.72941" lon="4.65546">
        <ele>351</ele>
        <time>2013-02-08T09:01:00Z</time>
      </trkpt>
      <trkpt lat="44.72939" lon="4.65548">
        <ele>351</ele>
        <time>2013-02-08T09:01:02Z</time>
      </trkpt>
      <trkpt lat="44.72938" lon="4.6555">
        <ele>351</ele>
        <time>2013-02-08T09:01:05Z</time>
      </trkpt>
      <trkpt lat="44.72937" lon="4.65552">
        <ele>351</ele>
        <time>2013-02-08T09:01:07Z</time>
      </trkpt>
      <trkpt lat="44.72937" lon="4.65555">
        <ele>351</ele>
        <time>2013-02-08T09:01:09Z</time>
      </trkpt>
      <trkpt lat="44.72936" lon="4.65557">
        <ele>350</ele>
        <time>2013-02-08T09:01:11Z</time>
      </trkpt>
      <trkpt lat="44.72935" lon="4.6556">
        <ele>350</ele>
        <time>2013-02-08T09:01:13Z</time>
      </trkpt>
      <trkpt lat="44.72934" lon="4.65562">
        <ele>350</ele>
        <time>2013-02-08T09:01:15Z</time>
      </trkpt>
      <trkpt lat="44.72934" lon="4.65565">
        <ele>350</ele>
        <time>2013-02-08T09:01:17Z</time>
      </trkpt>
      <trkpt lat="44.72933" lon="4.65567">
        <ele>349</ele>
        <time>2013-02-08T09:01:19Z</time>
      </trkpt>
      <trkpt lat="44.72932" lon="4.6557">
        <ele>349</ele>
        <time>2013-02-08T09:01:21Z</time>
      </trkpt>
      <trkpt lat="44.72931" lon="4.65572">
        <ele>349</ele>
        <time>2013-02-08T09:01:23Z</time>
      </trkpt>
      <trkpt lat="44.7293" lon="4.65574">
        <ele>349</ele>
        <time>2013-02-08T09:01:25Z</time>
      </trkpt>
      <trkpt lat="44.72929" lon="4.65576">
        <ele>348</ele>
        <time>2013-02-08T09:01:27Z</time>
      </trkpt>
      <trkpt lat="44.72929" lon="4.65579">
        <ele>348</ele>
        <time>2013-02-08T09:01:29Z</time>
      </trkpt>
      <trkpt lat="44.72928" lon="4.6558">
        <ele>348</ele>
        <time>2013-02-08T09:01:31Z</time>
      </trkpt>
      <trkpt lat="44.72927" lon="4.65582">
        <ele>348</ele>
        <time>2013-02-08T09:01:33Z</time>
      </trkpt>
      <trkpt lat="44.72926" lon="4.65584">
        <ele>346</ele>
        <time>2013-02-08T09:01:35Z</time>
      </trkpt>
      <trkpt lat="44.72925" lon="4.65586">
        <ele>346</ele>
        <time>2013-02-08T09:01:37Z</time>
      </trkpt>
      <trkpt lat="44.72924" lon="4.65587">
        <ele>346</ele>
        <time>2013-02-08T09:01:39Z</time>
      </trkpt>
      <trkpt lat="44.72924" lon="4.6559">
        <ele>346</ele>
        <time>2013-02-08T09:01:41Z</time>
      </trkpt>
      <trkpt lat="44.72923" lon="4.65592">
        <ele>346</ele>
        <time>2013-02-08T09:01:43Z</time>
      </trkpt>
      <trkpt lat="44.72923" lon="4.65595">
        <ele>346</ele>
        <time>2013-02-08T09:01:45Z</time>
      </trkpt>
      <trkpt lat="44.72922" lon="4.65597">
        <ele>346</ele>
        <time>2013-02-08T09:01:47Z</time>
      </trkpt>
      <trkpt lat="44.72921" lon="4.65599">
        <ele>346</ele>
        <time>2013-02-08T09:01:49Z</time>
      </trkpt>
      <trkpt lat="44.72921" lon="4.65601">
        <ele>346</ele>
        <time>2013-02-08T09:01:51Z</time>
      </trkpt>
      <trkpt lat="44.7292" lon="4.65603">
        <ele>346</ele>
        <time>2013-02-08T09:01:53Z</time>
      </trkpt>
      <trkpt lat="44.72919" lon="4.65606">
        <ele>346</ele>
        <time>2013-02-08T09:01:55Z</time>
      </trkpt>
      <trkpt lat="44.72918" lon="4.65607">
        <ele>346</ele>
        <time>2013-02-08T09:01:57Z</time>
      </trkpt>
      <trkpt lat="44.72917" lon="4.6561">
        <ele>346</ele>
        <time>2013-02-08T09:01:59Z</time>
      </trkpt>
      <trkpt lat="44.72916" lon="4.65612">
        <ele>341</ele>
        <time>2013-02-08T09:02:01Z</time>
      </trkpt>
      <trkpt lat="44.72916" lon="4.65614">
        <ele>341</ele>
        <time>2013-02-08T09:02:03Z</time>
      </trkpt>
      <trkpt lat="44.72915" lon="4.65616">
        <ele>341</ele>
        <time>2013-02-08T09:02:05Z</time>
      </trkpt>
      <trkpt lat="44.72914" lon="4.65618">
        <ele>341</ele>
        <time>2013-02-08T09:02:07Z</time>
      </trkpt>
      <trkpt lat="44.72913" lon="4.6562">
        <ele>340</ele>
        <time>2013-02-08T09:02:09Z</time>
      </trkpt>
      <trkpt lat="44.72912" lon="4.65623">
        <ele>340</ele>
        <time>2013-02-08T09:02:11Z</time>
      </trkpt>
      <trkpt lat="44.72911" lon="4.65625">
        <ele>340</ele>
        <time>2013-02-08T09:02:13Z</time>
      </trkpt>
      <trkpt lat="44.7291" lon="4.65627">
        <ele>340</ele>
        <time>2013-02-08T09:02:15Z</time>
      </trkpt>
      <trkpt lat="44.7291" lon="4.6563">
        <ele>340</ele>
        <time>2013-02-08T09:02:17Z</time>
      </trkpt>
      <trkpt lat="44.72909" lon="4.65632">
        <ele>340</ele>
        <time>2013-02-08T09:02:19Z</time>
      </trkpt>
      <trkpt lat="44.72908" lon="4.65635">
        <ele>340</ele>
        <time>2013-02-08T09:02:21Z</time>
      </trkpt>
      <trkpt lat="44.72908" lon="4.65639">
        <ele>339</ele>
        <time>2013-02-08T09:02:24Z</time>
      </trkpt>
      <trkpt lat="44.72908" lon="4.65641">
        <ele>339</ele>
        <time>2013-02-08T09:02:26Z</time>
      </trkpt>
      <trkpt lat="44.72908" lon="4.65643">
        <ele>339</ele>
        <time>2013-02-08T09:02:28Z</time>
      </trkpt>
      <trkpt lat="44.72908" lon="4.65646">
        <ele>339</ele>
        <time>2013-02-08T09:02:30Z</time>
      </trkpt>
      <trkpt lat="44.72908" lon="4.65648">
        <ele>339</ele>
        <time>2013-02-08T09:02:32Z</time>
      </trkpt>
      <trkpt lat="44.72908" lon="4.65649">
        <ele>339</ele>
        <time>2013-02-08T09:02:34Z</time>
      </trkpt>
      <trkpt lat="44.72909" lon="4.65652">
        <ele>339</ele>
        <time>2013-02-08T09:02:36Z</time>
      </trkpt>
      <trkpt lat="44.7291" lon="4.65654">
        <ele>339</ele>
        <time>2013-02-08T09:02:38Z</time>
      </trkpt>
      <trkpt lat="44.7291" lon="4.65656">
        <ele>339</ele>
        <time>2013-02-08T09:02:40Z</time>
      </trkpt>
      <trkpt lat="44.7291" lon="4.65658">
        <ele>339</ele>
        <time>2013-02-08T09:02:42Z</time>
      </trkpt>
      <trkpt lat="44.72909" lon="4.6566">
        <ele>339</ele>
        <time>2013-02-08T09:02:44Z</time>
      </trkpt>
      <trkpt lat="44.72908" lon="4.65661">
        <ele>339</ele>
        <time>2013-02-08T09:02:47Z</time>
      </trkpt>
      <trkpt lat="44.72906" lon="4.65662">
        <ele>339</ele>
        <time>2013-02-08T09:02:49Z</time>
      </trkpt>
      <trkpt lat="44.72905" lon="4.65663">
        <ele>339</ele>
        <time>2013-02-08T09:02:51Z</time>
      </trkpt>
      <trkpt lat="44.72904" lon="4.65663">
        <ele>339</ele>
        <time>2013-02-08T09:02:53Z</time>
      </trkpt>
      <trkpt lat="44.72902" lon="4.65664">
        <ele>339</ele>
        <time>2013-02-08T09:02:57Z</time>
      </trkpt>
      <trkpt lat="44.72901" lon="4.65665">
        <ele>339</ele>
        <time>2013-02-08T09:03:00Z</time>
      </trkpt>
      <trkpt lat="44.729" lon="4.65667">
        <ele>337</ele>
        <time>2013-02-08T09:03:03Z</time>
      </trkpt>
      <trkpt lat="44.72899" lon="4.65669">
        <ele>337</ele>
        <time>2013-02-08T09:03:05Z</time>
      </trkpt>
      <trkpt lat="44.72899" lon="4.65671">
        <ele>337</ele>
        <time>2013-02-08T09:03:07Z</time>
      </trkpt>
      <trkpt lat="44.72897" lon="4.65672">
        <ele>336</ele>
        <time>2013-02-08T09:03:14Z</time>
      </trkpt>
      <trkpt lat="44.72897" lon="4.65674">
        <ele>336</ele>
        <time>2013-02-08T09:03:17Z</time>
      </trkpt>
      <trkpt lat="44.72895" lon="4.65675">
        <ele>336</ele>
        <time>2013-02-08T09:03:23Z</time>
      </trkpt>
      <trkpt lat="44.72894" lon="4.65674">
        <ele>336</ele>
        <time>2013-02-08T09:03:26Z</time>
      </trkpt>
      <trkpt lat="44.72893" lon="4.65675">
        <ele>336</ele>
        <time>2013-02-08T09:03:35Z</time>
      </trkpt>
      <trkpt lat="44.72892" lon="4.65676">
        <ele>336</ele>
        <time>2013-02-08T09:03:39Z</time>
      </trkpt>
      <trkpt lat="44.72892" lon="4.65678">
        <ele>336</ele>
        <time>2013-02-08T09:03:46Z</time>
      </trkpt>
      <trkpt lat="44.72891" lon="4.6568">
        <ele>336</ele>
        <time>2013-02-08T09:03:49Z</time>
      </trkpt>
      <trkpt lat="44.72891" lon="4.65682">
        <ele>336</ele>
        <time>2013-02-08T09:03:51Z</time>
      </trkpt>
      <trkpt lat="44.7289" lon="4.65683">
        <ele>336</ele>
        <time>2013-02-08T09:03:53Z</time>
      </trkpt>
      <trkpt lat="44.7289" lon="4.65685">
        <ele>336</ele>
        <time>2013-02-08T09:03:55Z</time>
      </trkpt>
      <trkpt lat="44.72889" lon="4.65686">
        <ele>335</ele>
        <time>2013-02-08T09:03:59Z</time>
      </trkpt>
      <trkpt lat="44.72889" lon="4.65688">
        <ele>335</ele>
        <time>2013-02-08T09:04:03Z</time>
      </trkpt>
      <trkpt lat="44.7289" lon="4.6569">
        <ele>335</ele>
        <time>2013-02-08T09:04:06Z</time>
      </trkpt>
      <trkpt lat="44.7289" lon="4.65692">
        <ele>335</ele>
        <time>2013-02-08T09:04:08Z</time>
      </trkpt>
      <trkpt lat="44.7289" lon="4.65694">
        <ele>335</ele>
        <time>2013-02-08T09:04:10Z</time>
      </trkpt>
      <trkpt lat="44.7289" lon="4.65698">
        <ele>335</ele>
        <time>2013-02-08T09:04:13Z</time>
      </trkpt>
      <trkpt lat="44.7289" lon="4.65701">
        <ele>335</ele>
        <time>2013-02-08T09:04:15Z</time>
      </trkpt>
      <trkpt lat="44.72889" lon="4.65703">
        <ele>335</ele>
        <time>2013-02-08T09:04:17Z</time>
      </trkpt>
      <trkpt lat="44.72889" lon="4.65706">
        <ele>335</ele>
        <time>2013-02-08T09:04:19Z</time>
      </trkpt>
      <trkpt lat="44.72887" lon="4.65711">
        <ele>335</ele>
        <time>2013-02-08T09:04:22Z</time>
      </trkpt>
      <trkpt lat="44.72887" lon="4.65714">
        <ele>335</ele>
        <time>2013-02-08T09:04:24Z</time>
      </trkpt>
      <trkpt lat="44.72886" lon="4.65716">
        <ele>335</ele>
        <time>2013-02-08T09:04:26Z</time>
      </trkpt>
      <trkpt lat="44.72885" lon="4.65719">
        <ele>335</ele>
        <time>2013-02-08T09:04:28Z</time>
      </trkpt>
      <trkpt lat="44.72884" lon="4.65721">
        <ele>334</ele>
        <time>2013-02-08T09:04:30Z</time>
      </trkpt>
      <trkpt lat="44.72883" lon="4.65724">
        <ele>334</ele>
        <time>2013-02-08T09:04:32Z</time>
      </trkpt>
      <trkpt lat="44.72881" lon="4.65726">
        <ele>334</ele>
        <time>2013-02-08T09:04:34Z</time>
      </trkpt>
      <trkpt lat="44.7288" lon="4.65728">
        <ele>334</ele>
        <time>2013-02-08T09:04:36Z</time>
      </trkpt>
      <trkpt lat="44.72879" lon="4.65731">
        <ele>334</ele>
        <time>2013-02-08T09:04:38Z</time>
      </trkpt>
      <trkpt lat="44.72878" lon="4.65734">
        <ele>334</ele>
        <time>2013-02-08T09:04:40Z</time>
      </trkpt>
      <trkpt lat="44.72877" lon="4.65736">
        <ele>334</ele>
        <time>2013-02-08T09:04:42Z</time>
      </trkpt>
      <trkpt lat="44.72875" lon="4.65738">
        <ele>334</ele>
        <time>2013-02-08T09:04:44Z</time>
      </trkpt>
      <trkpt lat="44.72874" lon="4.6574">
        <ele>334</ele>
        <time>2013-02-08T09:04:46Z</time>
      </trkpt>
      <trkpt lat="44.72873" lon="4.65742">
        <ele>333</ele>
        <time>2013-02-08T09:04:48Z</time>
      </trkpt>
      <trkpt lat="44.72871" lon="4.65744">
        <ele>333</ele>
        <time>2013-02-08T09:04:50Z</time>
      </trkpt>
      <trkpt lat="44.72869" lon="4.65747">
        <ele>333</ele>
        <time>2013-02-08T09:04:52Z</time>
      </trkpt>
      <trkpt lat="44.72868" lon="4.6575">
        <ele>333</ele>
        <time>2013-02-08T09:04:54Z</time>
      </trkpt>
      <trkpt lat="44.72867" lon="4.65752">
        <ele>332</ele>
        <time>2013-02-08T09:04:56Z</time>
      </trkpt>
      <trkpt lat="44.72865" lon="4.65757">
        <ele>332</ele>
        <time>2013-02-08T09:04:59Z</time>
      </trkpt>
      <trkpt lat="44.72864" lon="4.65759">
        <ele>332</ele>
        <time>2013-02-08T09:05:01Z</time>
      </trkpt>
      <trkpt lat="44.72863" lon="4.65762">
        <ele>331</ele>
        <time>2013-02-08T09:05:03Z</time>
      </trkpt>
      <trkpt lat="44.72862" lon="4.65765">
        <ele>331</ele>
        <time>2013-02-08T09:05:05Z</time>
      </trkpt>
      <trkpt lat="44.72862" lon="4.65767">
        <ele>331</ele>
        <time>2013-02-08T09:05:07Z</time>
      </trkpt>
      <trkpt lat="44.72862" lon="4.6577">
        <ele>331</ele>
        <time>2013-02-08T09:05:09Z</time>
      </trkpt>
      <trkpt lat="44.72861" lon="4.65773">
        <ele>331</ele>
        <time>2013-02-08T09:05:11Z</time>
      </trkpt>
      <trkpt lat="44.72861" lon="4.65776">
        <ele>331</ele>
        <time>2013-02-08T09:05:13Z</time>
      </trkpt>
      <trkpt lat="44.72861" lon="4.65779">
        <ele>331</ele>
        <time>2013-02-08T09:05:15Z</time>
      </trkpt>
      <trkpt lat="44.72861" lon="4.65782">
        <ele>332</ele>
        <time>2013-02-08T09:05:17Z</time>
      </trkpt>
      <trkpt lat="44.72862" lon="4.65785">
        <ele>332</ele>
        <time>2013-02-08T09:05:19Z</time>
      </trkpt>
      <trkpt lat="44.72862" lon="4.65788">
        <ele>332</ele>
        <time>2013-02-08T09:05:21Z</time>
      </trkpt>
      <trkpt lat="44.72862" lon="4.6579">
        <ele>332</ele>
        <time>2013-02-08T09:05:23Z</time>
      </trkpt>
      <trkpt lat="44.72863" lon="4.65793">
        <ele>332</ele>
        <time>2013-02-08T09:05:25Z</time>
      </trkpt>
      <trkpt lat="44.72863" lon="4.65795">
        <ele>332</ele>
        <time>2013-02-08T09:05:27Z</time>
      </trkpt>
      <trkpt lat="44.72863" lon="4.65796">
        <ele>332</ele>
        <time>2013-02-08T09:05:29Z</time>
      </trkpt>
      <trkpt lat="44.72864" lon="4.65799">
        <ele>332</ele>
        <time>2013-02-08T09:05:31Z</time>
      </trkpt>
      <trkpt lat="44.72865" lon="4.65801">
        <ele>332</ele>
        <time>2013-02-08T09:05:33Z</time>
      </trkpt>
      <trkpt lat="44.72866" lon="4.65804">
        <ele>332</ele>
        <time>2013-02-08T09:05:35Z</time>
      </trkpt>
      <trkpt lat="44.72867" lon="4.65806">
        <ele>332</ele>
        <time>2013-02-08T09:05:37Z</time>
      </trkpt>
      <trkpt lat="44.72868" lon="4.65808">
        <ele>332</ele>
        <time>2013-02-08T09:05:39Z</time>
      </trkpt>
      <trkpt lat="44.72869" lon="4.65811">
        <ele>332</ele>
        <time>2013-02-08T09:05:41Z</time>
      </trkpt>
      <trkpt lat="44.7287" lon="4.65813">
        <ele>332</ele>
        <time>2013-02-08T09:05:43Z</time>
      </trkpt>
      <trkpt lat="44.72872" lon="4.65816">
        <ele>332</ele>
        <time>2013-02-08T09:05:45Z</time>
      </trkpt>
      <trkpt lat="44.72873" lon="4.65818">
        <ele>332</ele>
        <time>2013-02-08T09:05:47Z</time>
      </trkpt>
      <trkpt lat="44.72875" lon="4.6582">
        <ele>332</ele>
        <time>2013-02-08T09:05:49Z</time>
      </trkpt>
      <trkpt lat="44.72876" lon="4.65822">
        <ele>333</ele>
        <time>2013-02-08T09:05:51Z</time>
      </trkpt>
      <trkpt lat="44.72878" lon="4.65824">
        <ele>333</ele>
        <time>2013-02-08T09:05:53Z</time>
      </trkpt>
      <trkpt lat="44.72879" lon="4.65827">
        <ele>333</ele>
        <time>2013-02-08T09:05:55Z</time>
      </trkpt>
      <trkpt lat="44.72881" lon="4.65829">
        <ele>333</ele>
        <time>2013-02-08T09:05:57Z</time>
      </trkpt>
      <trkpt lat="44.72882" lon="4.65831">
        <ele>334</ele>
        <time>2013-02-08T09:05:59Z</time>
      </trkpt>
      <trkpt lat="44.72883" lon="4.65834">
        <ele>334</ele>
        <time>2013-02-08T09:06:01Z</time>
      </trkpt>
      <trkpt lat="44.72884" lon="4.65836">
        <ele>334</ele>
        <time>2013-02-08T09:06:03Z</time>
      </trkpt>
      <trkpt lat="44.72885" lon="4.65839">
        <ele>334</ele>
        <time>2013-02-08T09:06:05Z</time>
      </trkpt>
      <trkpt lat="44.72886" lon="4.65842">
        <ele>334</ele>
        <time>2013-02-08T09:06:07Z</time>
      </trkpt>
      <trkpt lat="44.72886" lon="4.65845">
        <ele>334</ele>
        <time>2013-02-08T09:06:09Z</time>
      </trkpt>
      <trkpt lat="44.72886" lon="4.65848">
        <ele>334</ele>
        <time>2013-02-08T09:06:11Z</time>
      </trkpt>
      <trkpt lat="44.72886" lon="4.65852">
        <ele>334</ele>
        <time>2013-02-08T09:06:13Z</time>
      </trkpt>
      <trkpt lat="44.72886" lon="4.65855">
        <ele>334</ele>
        <time>2013-02-08T09:06:15Z</time>
      </trkpt>
      <trkpt lat="44.72885" lon="4.65859">
        <ele>334</ele>
        <time>2013-02-08T09:06:17Z</time>
      </trkpt>
      <trkpt lat="44.72885" lon="4.65862">
        <ele>334</ele>
        <time>2013-02-08T09:06:19Z</time>
      </trkpt>
      <trkpt lat="44.72884" lon="4.65866">
        <ele>334</ele>
        <time>2013-02-08T09:06:21Z</time>
      </trkpt>
      <trkpt lat="44.72883" lon="4.65869">
        <ele>334</ele>
        <time>2013-02-08T09:06:23Z</time>
      </trkpt>
      <trkpt lat="44.72883" lon="4.65872">
        <ele>334</ele>
        <time>2013-02-08T09:06:25Z</time>
      </trkpt>
      <trkpt lat="44.72883" lon="4.65875">
        <ele>334</ele>
        <time>2013-02-08T09:06:27Z</time>
      </trkpt>
      <trkpt lat="44.72882" lon="4.65878">
        <ele>334</ele>
        <time>2013-02-08T09:06:29Z</time>
      </trkpt>
      <trkpt lat="44.72882" lon="4.65881">
        <ele>334</ele>
        <time>2013-02-08T09:06:31Z</time>
      </trkpt>
      <trkpt lat="44.72881" lon="4.65884">
        <ele>334</ele>
        <time>2013-02-08T09:06:33Z</time>
      </trkpt>
      <trkpt lat="44.7288" lon="4.65888">
        <ele>334</ele>
        <time>2013-02-08T09:06:35Z</time>
      </trkpt>
      <trkpt lat="44.72879" lon="4.6589">
        <ele>334</ele>
        <time>2013-02-08T09:06:37Z</time>
      </trkpt>
      <trkpt lat="44.72878" lon="4.65893">
        <ele>334</ele>
        <time>2013-02-08T09:06:39Z</time>
      </trkpt>
      <trkpt lat="44.72877" lon="4.65895">
        <ele>333</ele>
        <time>2013-02-08T09:06:41Z</time>
      </trkpt>
      <trkpt lat="44.72877" lon="4.65896">
        <ele>333</ele>
        <time>2013-02-08T09:06:47Z</time>
      </trkpt>
      <trkpt lat="44.72876" lon="4.65898">
        <ele>333</ele>
        <time>2013-02-08T09:06:49Z</time>
      </trkpt>
      <trkpt lat="44.72876" lon="4.659">
        <ele>333</ele>
        <time>2013-02-08T09:06:51Z</time>
      </trkpt>
      <trkpt lat="44.72875" lon="4.65901">
        <ele>333</ele>
        <time>2013-02-08T09:06:53Z</time>
      </trkpt>
      <trkpt lat="44.72875" lon="4.65903">
        <ele>333</ele>
        <time>2013-02-08T09:07:02Z</time>
      </trkpt>
      <trkpt lat="44.72875" lon="4.65905">
        <ele>333</ele>
        <time>2013-02-08T09:07:04Z</time>
      </trkpt>
      <trkpt lat="44.72874" lon="4.65907">
        <ele>333</ele>
        <time>2013-02-08T09:07:09Z</time>
      </trkpt>
      <trkpt lat="44.72874" lon="4.65908">
        <ele>333</ele>
        <time>2013-02-08T09:07:12Z</time>
      </trkpt>
      <trkpt lat="44.72874" lon="4.6591">
        <ele>333</ele>
        <time>2013-02-08T09:07:16Z</time>
      </trkpt>
      <trkpt lat="44.72873" lon="4.65913">
        <ele>333</ele>
        <time>2013-02-08T09:07:18Z</time>
      </trkpt>
      <trkpt lat="44.72872" lon="4.65917">
        <ele>334</ele>
        <time>2013-02-08T09:07:21Z</time>
      </trkpt>
      <trkpt lat="44.72871" lon="4.6592">
        <ele>334</ele>
        <time>2013-02-08T09:07:23Z</time>
      </trkpt>
      <trkpt lat="44.72871" lon="4.65923">
        <ele>334</ele>
        <time>2013-02-08T09:07:25Z</time>
      </trkpt>
      <trkpt lat="44.72871" lon="4.65925">
        <ele>334</ele>
        <time>2013-02-08T09:07:27Z</time>
      </trkpt>
      <trkpt lat="44.72871" lon="4.65928">
        <ele>334</ele>
        <time>2013-02-08T09:07:29Z</time>
      </trkpt>
      <trkpt lat="44.7287" lon="4.65931">
        <ele>334</ele>
        <time>2013-02-08T09:07:31Z</time>
      </trkpt>
      <trkpt lat="44.7287" lon="4.65934">
        <ele>334</ele>
        <time>2013-02-08T09:07:33Z</time>
      </trkpt>
      <trkpt lat="44.72869" lon="4.65936">
        <ele>334</ele>
        <time>2013-02-08T09:07:35Z</time>
      </trkpt>
      <trkpt lat="44.72869" lon="4.65939">
        <ele>334</ele>
        <time>2013-02-08T09:07:37Z</time>
      </trkpt>
      <trkpt lat="44.72868" lon="4.65943">
        <ele>334</ele>
        <time>2013-02-08T09:07:40Z</time>
      </trkpt>
      <trkpt lat="44.72868" lon="4.65946">
        <ele>335</ele>
        <time>2013-02-08T09:07:42Z</time>
      </trkpt>
      <trkpt lat="44.72868" lon="4.65949">
        <ele>335</ele>
        <time>2013-02-08T09:07:44Z</time>
      </trkpt>
      <trkpt lat="44.72868" lon="4.65952">
        <ele>335</ele>
        <time>2013-02-08T09:07:46Z</time>
      </trkpt>
      <trkpt lat="44.72867" lon="4.65955">
        <ele>335</ele>
        <time>2013-02-08T09:07:48Z</time>
      </trkpt>
      <trkpt lat="44.72867" lon="4.65958">
        <ele>335</ele>
        <time>2013-02-08T09:07:50Z</time>
      </trkpt>
      <trkpt lat="44.72867" lon="4.65961">
        <ele>335</ele>
        <time>2013-02-08T09:07:52Z</time>
      </trkpt>
      <trkpt lat="44.72867" lon="4.65964">
        <ele>335</ele>
        <time>2013-02-08T09:07:54Z</time>
      </trkpt>
      <trkpt lat="44.72866" lon="4.65967">
        <ele>335</ele>
        <time>2013-02-08T09:07:56Z</time>
      </trkpt>
      <trkpt lat="44.72866" lon="4.6597">
        <ele>335</ele>
        <time>2013-02-08T09:07:58Z</time>
      </trkpt>
      <trkpt lat="44.72865" lon="4.65974">
        <ele>335</ele>
        <time>2013-02-08T09:08:01Z</time>
      </trkpt>
      <trkpt lat="44.72865" lon="4.65976">
        <ele>335</ele>
        <time>2013-02-08T09:08:03Z</time>
      </trkpt>
      <trkpt lat="44.72864" lon="4.65979">
        <ele>335</ele>
        <time>2013-02-08T09:08:05Z</time>
      </trkpt>
      <trkpt lat="44.72864" lon="4.65981">
        <ele>335</ele>
        <time>2013-02-08T09:08:07Z</time>
      </trkpt>
      <trkpt lat="44.72863" lon="4.65984">
        <ele>335</ele>
        <time>2013-02-08T09:08:09Z</time>
      </trkpt>
      <trkpt lat="44.72863" lon="4.65986">
        <ele>335</ele>
        <time>2013-02-08T09:08:11Z</time>
      </trkpt>
      <trkpt lat="44.72862" lon="4.65989">
        <ele>335</ele>
        <time>2013-02-08T09:08:13Z</time>
      </trkpt>
      <trkpt lat="44.72862" lon="4.65994">
        <ele>335</ele>
        <time>2013-02-08T09:08:16Z</time>
      </trkpt>
      <trkpt lat="44.72862" lon="4.65997">
        <ele>334</ele>
        <time>2013-02-08T09:08:18Z</time>
      </trkpt>
      <trkpt lat="44.72862" lon="4.66">
        <ele>334</ele>
        <time>2013-02-08T09:08:20Z</time>
      </trkpt>
      <trkpt lat="44.72862" lon="4.66004">
        <ele>336</ele>
        <time>2013-02-08T09:08:23Z</time>
      </trkpt>
      <trkpt lat="44.72862" lon="4.66007">
        <ele>336</ele>
        <time>2013-02-08T09:08:25Z</time>
      </trkpt>
      <trkpt lat="44.72862" lon="4.66011">
        <ele>336</ele>
        <time>2013-02-08T09:08:28Z</time>
      </trkpt>
      <trkpt lat="44.72862" lon="4.66014">
        <ele>336</ele>
        <time>2013-02-08T09:08:30Z</time>
      </trkpt>
      <trkpt lat="44.72862" lon="4.66017">
        <ele>336</ele>
        <time>2013-02-08T09:08:32Z</time>
      </trkpt>
      <trkpt lat="44.72863" lon="4.66021">
        <ele>336</ele>
        <time>2013-02-08T09:08:34Z</time>
      </trkpt>
      <trkpt lat="44.72863" lon="4.66024">
        <ele>337</ele>
        <time>2013-02-08T09:08:36Z</time>
      </trkpt>
      <trkpt lat="44.72863" lon="4.66027">
        <ele>337</ele>
        <time>2013-02-08T09:08:38Z</time>
      </trkpt>
      <trkpt lat="44.72863" lon="4.6603">
        <ele>337</ele>
        <time>2013-02-08T09:08:40Z</time>
      </trkpt>
      <trkpt lat="44.72863" lon="4.66033">
        <ele>337</ele>
        <time>2013-02-08T09:08:42Z</time>
      </trkpt>
      <trkpt lat="44.72863" lon="4.66037">
        <ele>337</ele>
        <time>2013-02-08T09:08:44Z</time>
      </trkpt>
      <trkpt lat="44.72863" lon="4.6604">
        <ele>337</ele>
        <time>2013-02-08T09:08:46Z</time>
      </trkpt>
      <trkpt lat="44.72863" lon="4.66043">
        <ele>337</ele>
        <time>2013-02-08T09:08:48Z</time>
      </trkpt>
      <trkpt lat="44.72863" lon="4.66046">
        <ele>337</ele>
        <time>2013-02-08T09:08:50Z</time>
      </trkpt>
      <trkpt lat="44.72862" lon="4.66049">
        <ele>337</ele>
        <time>2013-02-08T09:08:52Z</time>
      </trkpt>
      <trkpt lat="44.72862" lon="4.66052">
        <ele>336</ele>
        <time>2013-02-08T09:08:54Z</time>
      </trkpt>
      <trkpt lat="44.7286" lon="4.66055">
        <ele>336</ele>
        <time>2013-02-08T09:08:56Z</time>
      </trkpt>
      <trkpt lat="44.7286" lon="4.66058">
        <ele>336</ele>
        <time>2013-02-08T09:08:58Z</time>
      </trkpt>
      <trkpt lat="44.72858" lon="4.66061">
        <ele>336</ele>
        <time>2013-02-08T09:09:00Z</time>
      </trkpt>
      <trkpt lat="44.72857" lon="4.66064">
        <ele>335</ele>
        <time>2013-02-08T09:09:02Z</time>
      </trkpt>
      <trkpt lat="44.72856" lon="4.66067">
        <ele>335</ele>
        <time>2013-02-08T09:09:04Z</time>
      </trkpt>
      <trkpt lat="44.72855" lon="4.6607">
        <ele>335</ele>
        <time>2013-02-08T09:09:06Z</time>
      </trkpt>
      <trkpt lat="44.72853" lon="4.66072">
        <ele>334</ele>
        <time>2013-02-08T09:09:08Z</time>
      </trkpt>
      <trkpt lat="44.72852" lon="4.66075">
        <ele>334</ele>
        <time>2013-02-08T09:09:10Z</time>
      </trkpt>
      <trkpt lat="44.72851" lon="4.66078">
        <ele>333</ele>
        <time>2013-02-08T09:09:12Z</time>
      </trkpt>
      <trkpt lat="44.7285" lon="4.6608">
        <ele>333</ele>
        <time>2013-02-08T09:09:14Z</time>
      </trkpt>
      <trkpt lat="44.72849" lon="4.66083">
        <ele>332</ele>
        <time>2013-02-08T09:09:16Z</time>
      </trkpt>
      <trkpt lat="44.72848" lon="4.66086">
        <ele>333</ele>
        <time>2013-02-08T09:09:18Z</time>
      </trkpt>
      <trkpt lat="44.72847" lon="4.66089">
        <ele>333</ele>
        <time>2013-02-08T09:09:20Z</time>
      </trkpt>
      <trkpt lat="44.72846" lon="4.66092">
        <ele>333</ele>
        <time>2013-02-08T09:09:22Z</time>
      </trkpt>
      <trkpt lat="44.72845" lon="4.66095">
        <ele>333</ele>
        <time>2013-02-08T09:09:24Z</time>
      </trkpt>
      <trkpt lat="44.72844" lon="4.66099">
        <ele>333</ele>
        <time>2013-02-08T09:09:26Z</time>
      </trkpt>
      <trkpt lat="44.72844" lon="4.66101">
        <ele>334</ele>
        <time>2013-02-08T09:09:28Z</time>
      </trkpt>
      <trkpt lat="44.72842" lon="4.66105">
        <ele>334</ele>
        <time>2013-02-08T09:09:30Z</time>
      </trkpt>
      <trkpt lat="44.72841" lon="4.66108">
        <ele>334</ele>
        <time>2013-02-08T09:09:32Z</time>
      </trkpt>
      <trkpt lat="44.7284" lon="4.66111">
        <ele>334</ele>
        <time>2013-02-08T09:09:34Z</time>
      </trkpt>
      <trkpt lat="44.72839" lon="4.66114">
        <ele>334</ele>
        <time>2013-02-08T09:09:36Z</time>
      </trkpt>
      <trkpt lat="44.72838" lon="4.66117">
        <ele>335</ele>
        <time>2013-02-08T09:09:38Z</time>
      </trkpt>
      <trkpt lat="44.72837" lon="4.6612">
        <ele>335</ele>
        <time>2013-02-08T09:09:40Z</time>
      </trkpt>
      <trkpt lat="44.72835" lon="4.66123">
        <ele>335</ele>
        <time>2013-02-08T09:09:42Z</time>
      </trkpt>
      <trkpt lat="44.72834" lon="4.66128">
        <ele>335</ele>
        <time>2013-02-08T09:09:45Z</time>
      </trkpt>
      <trkpt lat="44.72833" lon="4.6613">
        <ele>322</ele>
        <time>2013-02-08T09:09:47Z</time>
      </trkpt>
      <trkpt lat="44.72832" lon="4.66134">
        <ele>322</ele>
        <time>2013-02-08T09:09:50Z</time>
      </trkpt>
      <trkpt lat="44.72831" lon="4.66137">
        <ele>322</ele>
        <time>2013-02-08T09:09:52Z</time>
      </trkpt>
      <trkpt lat="44.7283" lon="4.6614">
        <ele>322</ele>
        <time>2013-02-08T09:09:54Z</time>
      </trkpt>
      <trkpt lat="44.72829" lon="4.66142">
        <ele>322</ele>
        <time>2013-02-08T09:09:56Z</time>
      </trkpt>
      <trkpt lat="44.72827" lon="4.66145">
        <ele>322</ele>
        <time>2013-02-08T09:09:58Z</time>
      </trkpt>
      <trkpt lat="44.72826" lon="4.66148">
        <ele>322</ele>
        <time>2013-02-08T09:10:00Z</time>
      </trkpt>
      <trkpt lat="44.72824" lon="4.66152">
        <ele>323</ele>
        <time>2013-02-08T09:10:03Z</time>
      </trkpt>
      <trkpt lat="44.72822" lon="4.66154">
        <ele>323</ele>
        <time>2013-02-08T09:10:05Z</time>
      </trkpt>
      <trkpt lat="44.72821" lon="4.66157">
        <ele>323</ele>
        <time>2013-02-08T09:10:07Z</time>
      </trkpt>
      <trkpt lat="44.7282" lon="4.6616">
        <ele>323</ele>
        <time>2013-02-08T09:10:09Z</time>
      </trkpt>
      <trkpt lat="44.72818" lon="4.66164">
        <ele>323</ele>
        <time>2013-02-08T09:10:12Z</time>
      </trkpt>
      <trkpt lat="44.72817" lon="4.66167">
        <ele>323</ele>
        <time>2013-02-08T09:10:14Z</time>
      </trkpt>
      <trkpt lat="44.72816" lon="4.6617">
        <ele>323</ele>
        <time>2013-02-08T09:10:16Z</time>
      </trkpt>
      <trkpt lat="44.72815" lon="4.66173">
        <ele>323</ele>
        <time>2013-02-08T09:10:18Z</time>
      </trkpt>
      <trkpt lat="44.72814" lon="4.66175">
        <ele>323</ele>
        <time>2013-02-08T09:10:20Z</time>
      </trkpt>
      <trkpt lat="44.72812" lon="4.66178">
        <ele>322</ele>
        <time>2013-02-08T09:10:22Z</time>
      </trkpt>
      <trkpt lat="44.72811" lon="4.6618">
        <ele>322</ele>
        <time>2013-02-08T09:10:24Z</time>
      </trkpt>
      <trkpt lat="44.7281" lon="4.66183">
        <ele>322</ele>
        <time>2013-02-08T09:10:26Z</time>
      </trkpt>
      <trkpt lat="44.72809" lon="4.66187">
        <ele>322</ele>
        <time>2013-02-08T09:10:29Z</time>
      </trkpt>
      <trkpt lat="44.72806" lon="4.66191">
        <ele>321</ele>
        <time>2013-02-08T09:10:32Z</time>
      </trkpt>
      <trkpt lat="44.72805" lon="4.66193">
        <ele>321</ele>
        <time>2013-02-08T09:10:34Z</time>
      </trkpt>
      <trkpt lat="44.72803" lon="4.66196">
        <ele>321</ele>
        <time>2013-02-08T09:10:36Z</time>
      </trkpt>
      <trkpt lat="44.72801" lon="4.66199">
        <ele>321</ele>
        <time>2013-02-08T09:10:38Z</time>
      </trkpt>
      <trkpt lat="44.72799" lon="4.66202">
        <ele>321</ele>
        <time>2013-02-08T09:10:40Z</time>
      </trkpt>
      <trkpt lat="44.72797" lon="4.66204">
        <ele>320</ele>
        <time>2013-02-08T09:10:42Z</time>
      </trkpt>
      <trkpt lat="44.72796" lon="4.66207">
        <ele>320</ele>
        <time>2013-02-08T09:10:44Z</time>
      </trkpt>
      <trkpt lat="44.72794" lon="4.6621">
        <ele>320</ele>
        <time>2013-02-08T09:10:46Z</time>
      </trkpt>
      <trkpt lat="44.72792" lon="4.66213">
        <ele>320</ele>
        <time>2013-02-08T09:10:48Z</time>
      </trkpt>
      <trkpt lat="44.7279" lon="4.66215">
        <ele>320</ele>
        <time>2013-02-08T09:10:50Z</time>
      </trkpt>
      <trkpt lat="44.72789" lon="4.66218">
        <ele>320</ele>
        <time>2013-02-08T09:10:52Z</time>
      </trkpt>
      <trkpt lat="44.72787" lon="4.6622">
        <ele>319</ele>
        <time>2013-02-08T09:10:54Z</time>
      </trkpt>
      <trkpt lat="44.72786" lon="4.66223">
        <ele>319</ele>
        <time>2013-02-08T09:10:56Z</time>
      </trkpt>
      <trkpt lat="44.72785" lon="4.66226">
        <ele>319</ele>
        <time>2013-02-08T09:10:58Z</time>
      </trkpt>
      <trkpt lat="44.72783" lon="4.66228">
        <ele>319</ele>
        <time>2013-02-08T09:11:00Z</time>
      </trkpt>
      <trkpt lat="44.72782" lon="4.66231">
        <ele>319</ele>
        <time>2013-02-08T09:11:02Z</time>
      </trkpt>
      <trkpt lat="44.72781" lon="4.66233">
        <ele>318</ele>
        <time>2013-02-08T09:11:04Z</time>
      </trkpt>
      <trkpt lat="44.72779" lon="4.66237">
        <ele>318</ele>
        <time>2013-02-08T09:11:07Z</time>
      </trkpt>
      <trkpt lat="44.72777" lon="4.66239">
        <ele>318</ele>
        <time>2013-02-08T09:11:09Z</time>
      </trkpt>
      <trkpt lat="44.72776" lon="4.66241">
        <ele>317</ele>
        <time>2013-02-08T09:11:11Z</time>
      </trkpt>
      <trkpt lat="44.72775" lon="4.66243">
        <ele>317</ele>
        <time>2013-02-08T09:11:13Z</time>
      </trkpt>
      <trkpt lat="44.72773" lon="4.66246">
        <ele>317</ele>
        <time>2013-02-08T09:11:15Z</time>
      </trkpt>
      <trkpt lat="44.72772" lon="4.66248">
        <ele>317</ele>
        <time>2013-02-08T09:11:17Z</time>
      </trkpt>
      <trkpt lat="44.72771" lon="4.6625">
        <ele>318</ele>
        <time>2013-02-08T09:11:22Z</time>
      </trkpt>
      <trkpt lat="44.72769" lon="4.66252">
        <ele>318</ele>
        <time>2013-02-08T09:11:24Z</time>
      </trkpt>
      <trkpt lat="44.72768" lon="4.66254">
        <ele>317</ele>
        <time>2013-02-08T09:11:26Z</time>
      </trkpt>
      <trkpt lat="44.72766" lon="4.66257">
        <ele>317</ele>
        <time>2013-02-08T09:11:28Z</time>
      </trkpt>
      <trkpt lat="44.72764" lon="4.66259">
        <ele>317</ele>
        <time>2013-02-08T09:11:30Z</time>
      </trkpt>
      <trkpt lat="44.72762" lon="4.66261">
        <ele>317</ele>
        <time>2013-02-08T09:11:32Z</time>
      </trkpt>
      <trkpt lat="44.7276" lon="4.66263">
        <ele>317</ele>
        <time>2013-02-08T09:11:34Z</time>
      </trkpt>
      <trkpt lat="44.72759" lon="4.66265">
        <ele>317</ele>
        <time>2013-02-08T09:11:36Z</time>
      </trkpt>
      <trkpt lat="44.72757" lon="4.66268">
        <ele>317</ele>
        <time>2013-02-08T09:11:38Z</time>
      </trkpt>
      <trkpt lat="44.72756" lon="4.6627">
        <ele>317</ele>
        <time>2013-02-08T09:11:40Z</time>
      </trkpt>
      <trkpt lat="44.72755" lon="4.66272">
        <ele>318</ele>
        <time>2013-02-08T09:11:42Z</time>
      </trkpt>
      <trkpt lat="44.72753" lon="4.66274">
        <ele>318</ele>
        <time>2013-02-08T09:11:44Z</time>
      </trkpt>
      <trkpt lat="44.72751" lon="4.66277">
        <ele>318</ele>
        <time>2013-02-08T09:11:46Z</time>
      </trkpt>
      <trkpt lat="44.72749" lon="4.66278">
        <ele>308</ele>
        <time>2013-02-08T09:11:48Z</time>
      </trkpt>
      <trkpt lat="44.72746" lon="4.66281">
        <ele>308</ele>
        <time>2013-02-08T09:11:51Z</time>
      </trkpt>
      <trkpt lat="44.72744" lon="4.66282">
        <ele>308</ele>
        <time>2013-02-08T09:11:53Z</time>
      </trkpt>
      <trkpt lat="44.72741" lon="4.66285">
        <ele>308</ele>
        <time>2013-02-08T09:11:56Z</time>
      </trkpt>
      <trkpt lat="44.72739" lon="4.66287">
        <ele>308</ele>
        <time>2013-02-08T09:11:58Z</time>
      </trkpt>
      <trkpt lat="44.72737" lon="4.66289">
        <ele>308</ele>
        <time>2013-02-08T09:12:00Z</time>
      </trkpt>
      <trkpt lat="44.72736" lon="4.66291">
        <ele>308</ele>
        <time>2013-02-08T09:12:02Z</time>
      </trkpt>
      <trkpt lat="44.72734" lon="4.66293">
        <ele>308</ele>
        <time>2013-02-08T09:12:04Z</time>
      </trkpt>
      <trkpt lat="44.72732" lon="4.66295">
        <ele>308</ele>
        <time>2013-02-08T09:12:06Z</time>
      </trkpt>
      <trkpt lat="44.7273" lon="4.66297">
        <ele>308</ele>
        <time>2013-02-08T09:12:08Z</time>
      </trkpt>
      <trkpt lat="44.72728" lon="4.66299">
        <ele>308</ele>
        <time>2013-02-08T09:12:10Z</time>
      </trkpt>
      <trkpt lat="44.72727" lon="4.663">
        <ele>308</ele>
        <time>2013-02-08T09:12:12Z</time>
      </trkpt>
      <trkpt lat="44.72726" lon="4.66301">
        <ele>308</ele>
        <time>2013-02-08T09:12:14Z</time>
      </trkpt>
      <trkpt lat="44.72725" lon="4.66301">
        <ele>308</ele>
        <time>2013-02-08T09:12:24Z</time>
      </trkpt>
      <trkpt lat="44.72723" lon="4.66301">
        <ele>308</ele>
        <time>2013-02-08T09:12:27Z</time>
      </trkpt>
      <trkpt lat="44.72722" lon="4.66302">
        <ele>308</ele>
        <time>2013-02-08T09:12:34Z</time>
      </trkpt>
      <trkpt lat="44.72721" lon="4.66304">
        <ele>308</ele>
        <time>2013-02-08T09:12:37Z</time>
      </trkpt>
      <trkpt lat="44.72719" lon="4.66306">
        <ele>308</ele>
        <time>2013-02-08T09:12:39Z</time>
      </trkpt>
      <trkpt lat="44.72718" lon="4.66307">
        <ele>308</ele>
        <time>2013-02-08T09:12:41Z</time>
      </trkpt>
      <trkpt lat="44.72717" lon="4.66309">
        <ele>308</ele>
        <time>2013-02-08T09:12:43Z</time>
      </trkpt>
      <trkpt lat="44.72716" lon="4.6631">
        <ele>308</ele>
        <time>2013-02-08T09:12:45Z</time>
      </trkpt>
      <trkpt lat="44.72715" lon="4.66312">
        <ele>308</ele>
        <time>2013-02-08T09:12:47Z</time>
      </trkpt>
      <trkpt lat="44.72714" lon="4.66314">
        <ele>308</ele>
        <time>2013-02-08T09:12:49Z</time>
      </trkpt>
      <trkpt lat="44.72712" lon="4.66316">
        <ele>308</ele>
        <time>2013-02-08T09:12:51Z</time>
      </trkpt>
      <trkpt lat="44.72711" lon="4.6632">
        <ele>307</ele>
        <time>2013-02-08T09:12:54Z</time>
      </trkpt>
      <trkpt lat="44.7271" lon="4.66323">
        <ele>307</ele>
        <time>2013-02-08T09:12:56Z</time>
      </trkpt>
      <trkpt lat="44.7271" lon="4.66326">
        <ele>307</ele>
        <time>2013-02-08T09:12:58Z</time>
      </trkpt>
      <trkpt lat="44.72709" lon="4.66329">
        <ele>307</ele>
        <time>2013-02-08T09:13:00Z</time>
      </trkpt>
      <trkpt lat="44.72709" lon="4.66332">
        <ele>307</ele>
        <time>2013-02-08T09:13:02Z</time>
      </trkpt>
      <trkpt lat="44.72709" lon="4.66336">
        <ele>307</ele>
        <time>2013-02-08T09:13:04Z</time>
      </trkpt>
      <trkpt lat="44.72708" lon="4.66339">
        <ele>307</ele>
        <time>2013-02-08T09:13:06Z</time>
      </trkpt>
      <trkpt lat="44.72707" lon="4.66344">
        <ele>306</ele>
        <time>2013-02-08T09:13:09Z</time>
      </trkpt>
      <trkpt lat="44.72707" lon="4.66347">
        <ele>306</ele>
        <time>2013-02-08T09:13:11Z</time>
      </trkpt>
      <trkpt lat="44.72707" lon="4.6635">
        <ele>306</ele>
        <time>2013-02-08T09:13:13Z</time>
      </trkpt>
      <trkpt lat="44.72707" lon="4.66353">
        <ele>306</ele>
        <time>2013-02-08T09:13:15Z</time>
      </trkpt>
      <trkpt lat="44.72707" lon="4.66356">
        <ele>306</ele>
        <time>2013-02-08T09:13:17Z</time>
      </trkpt>
      <trkpt lat="44.72707" lon="4.66359">
        <ele>306</ele>
        <time>2013-02-08T09:13:19Z</time>
      </trkpt>
      <trkpt lat="44.72708" lon="4.66363">
        <ele>306</ele>
        <time>2013-02-08T09:13:21Z</time>
      </trkpt>
      <trkpt lat="44.72708" lon="4.66366">
        <ele>306</ele>
        <time>2013-02-08T09:13:23Z</time>
      </trkpt>
      <trkpt lat="44.72709" lon="4.6637">
        <ele>306</ele>
        <time>2013-02-08T09:13:25Z</time>
      </trkpt>
      <trkpt lat="44.72709" lon="4.66373">
        <ele>306</ele>
        <time>2013-02-08T09:13:27Z</time>
      </trkpt>
      <trkpt lat="44.72709" lon="4.66376">
        <ele>305</ele>
        <time>2013-02-08T09:13:29Z</time>
      </trkpt>
      <trkpt lat="44.72708" lon="4.6638">
        <ele>305</ele>
        <time>2013-02-08T09:13:32Z</time>
      </trkpt>
      <trkpt lat="44.72708" lon="4.66383">
        <ele>305</ele>
        <time>2013-02-08T09:13:34Z</time>
      </trkpt>
      <trkpt lat="44.72707" lon="4.66385">
        <ele>305</ele>
        <time>2013-02-08T09:13:36Z</time>
      </trkpt>
      <trkpt lat="44.72706" lon="4.66388">
        <ele>305</ele>
        <time>2013-02-08T09:13:38Z</time>
      </trkpt>
      <trkpt lat="44.72706" lon="4.6639">
        <ele>305</ele>
        <time>2013-02-08T09:13:40Z</time>
      </trkpt>
      <trkpt lat="44.72706" lon="4.66393">
        <ele>305</ele>
        <time>2013-02-08T09:13:42Z</time>
      </trkpt>
      <trkpt lat="44.72705" lon="4.66396">
        <ele>305</ele>
        <time>2013-02-08T09:13:44Z</time>
      </trkpt>
      <trkpt lat="44.72704" lon="4.66398">
        <ele>304</ele>
        <time>2013-02-08T09:13:46Z</time>
      </trkpt>
      <trkpt lat="44.72704" lon="4.66401">
        <ele>304</ele>
        <time>2013-02-08T09:13:48Z</time>
      </trkpt>
      <trkpt lat="44.72703" lon="4.66404">
        <ele>304</ele>
        <time>2013-02-08T09:13:50Z</time>
      </trkpt>
      <trkpt lat="44.72702" lon="4.66407">
        <ele>304</ele>
        <time>2013-02-08T09:13:52Z</time>
      </trkpt>
      <trkpt lat="44.72702" lon="4.6641">
        <ele>304</ele>
        <time>2013-02-08T09:13:54Z</time>
      </trkpt>
      <trkpt lat="44.72701" lon="4.66414">
        <ele>304</ele>
        <time>2013-02-08T09:13:57Z</time>
      </trkpt>
      <trkpt lat="44.72701" lon="4.66417">
        <ele>299</ele>
        <time>2013-02-08T09:13:59Z</time>
      </trkpt>
      <trkpt lat="44.72701" lon="4.66419">
        <ele>298</ele>
        <time>2013-02-08T09:14:01Z</time>
      </trkpt>
      <trkpt lat="44.727" lon="4.66423">
        <ele>298</ele>
        <time>2013-02-08T09:14:04Z</time>
      </trkpt>
      <trkpt lat="44.727" lon="4.66425">
        <ele>298</ele>
        <time>2013-02-08T09:14:06Z</time>
      </trkpt>
      <trkpt lat="44.727" lon="4.66427">
        <ele>298</ele>
        <time>2013-02-08T09:14:08Z</time>
      </trkpt>
      <trkpt lat="44.72701" lon="4.66427">
        <ele>298</ele>
        <time>2013-02-08T09:14:11Z</time>
      </trkpt>
      <trkpt lat="44.72702" lon="4.66427">
        <ele>298</ele>
        <time>2013-02-08T09:20:40Z</time>
      </trkpt>
      <trkpt lat="44.72704" lon="4.66427">
        <ele>298</ele>
        <time>2013-02-08T09:20:44Z</time>
      </trkpt>
      <trkpt lat="44.72707" lon="4.66427">
        <ele>299</ele>
        <time>2013-02-08T09:20:46Z</time>
      </trkpt>
      <trkpt lat="44.72709" lon="4.66428">
        <ele>299</ele>
        <time>2013-02-08T09:20:48Z</time>
      </trkpt>
      <trkpt lat="44.7271" lon="4.66429">
        <ele>299</ele>
        <time>2013-02-08T09:20:50Z</time>
      </trkpt>
      <trkpt lat="44.72712" lon="4.6643">
        <ele>299</ele>
        <time>2013-02-08T09:20:53Z</time>
      </trkpt>
      <trkpt lat="44.72714" lon="4.66431">
        <ele>299</ele>
        <time>2013-02-08T09:20:55Z</time>
      </trkpt>
      <trkpt lat="44.72715" lon="4.66433">
        <ele>299</ele>
        <time>2013-02-08T09:20:57Z</time>
      </trkpt>
      <trkpt lat="44.72717" lon="4.66435">
        <ele>299</ele>
        <time>2013-02-08T09:20:59Z</time>
      </trkpt>
      <trkpt lat="44.72718" lon="4.66437">
        <ele>299</ele>
        <time>2013-02-08T09:21:01Z</time>
      </trkpt>
      <trkpt lat="44.7272" lon="4.66439">
        <ele>299</ele>
        <time>2013-02-08T09:21:03Z</time>
      </trkpt>
      <trkpt lat="44.7272" lon="4.66441">
        <ele>299</ele>
        <time>2013-02-08T09:21:05Z</time>
      </trkpt>
      <trkpt lat="44.72722" lon="4.66443">
        <ele>299</ele>
        <time>2013-02-08T09:21:07Z</time>
      </trkpt>
      <trkpt lat="44.72722" lon="4.66445">
        <ele>299</ele>
        <time>2013-02-08T09:21:09Z</time>
      </trkpt>
      <trkpt lat="44.72722" lon="4.66447">
        <ele>299</ele>
        <time>2013-02-08T09:21:17Z</time>
      </trkpt>
      <trkpt lat="44.72722" lon="4.66448">
        <ele>298</ele>
        <time>2013-02-08T09:21:23Z</time>
      </trkpt>
      <trkpt lat="44.72722" lon="4.6645">
        <ele>298</ele>
        <time>2013-02-08T09:21:31Z</time>
      </trkpt>
      <trkpt lat="44.72722" lon="4.66452">
        <ele>298</ele>
        <time>2013-02-08T09:21:38Z</time>
      </trkpt>
      <trkpt lat="44.72723" lon="4.66454">
        <ele>298</ele>
        <time>2013-02-08T09:21:40Z</time>
      </trkpt>
      <trkpt lat="44.72723" lon="4.66457">
        <ele>298</ele>
        <time>2013-02-08T09:21:42Z</time>
      </trkpt>
      <trkpt lat="44.72724" lon="4.66459">
        <ele>298</ele>
        <time>2013-02-08T09:21:44Z</time>
      </trkpt>
      <trkpt lat="44.72724" lon="4.66463">
        <ele>297</ele>
        <time>2013-02-08T09:21:47Z</time>
      </trkpt>
      <trkpt lat="44.72724" lon="4.66466">
        <ele>297</ele>
        <time>2013-02-08T09:21:49Z</time>
      </trkpt>
      <trkpt lat="44.72724" lon="4.66469">
        <ele>297</ele>
        <time>2013-02-08T09:21:51Z</time>
      </trkpt>
      <trkpt lat="44.72724" lon="4.66473">
        <ele>297</ele>
        <time>2013-02-08T09:21:54Z</time>
      </trkpt>
      <trkpt lat="44.72724" lon="4.66475">
        <ele>297</ele>
        <time>2013-02-08T09:21:56Z</time>
      </trkpt>
      <trkpt lat="44.72725" lon="4.66478">
        <ele>297</ele>
        <time>2013-02-08T09:21:58Z</time>
      </trkpt>
      <trkpt lat="44.72725" lon="4.6648">
        <ele>297</ele>
        <time>2013-02-08T09:22:00Z</time>
      </trkpt>
      <trkpt lat="44.72726" lon="4.66483">
        <ele>296</ele>
        <time>2013-02-08T09:22:02Z</time>
      </trkpt>
      <trkpt lat="44.72726" lon="4.66487">
        <ele>296</ele>
        <time>2013-02-08T09:22:05Z</time>
      </trkpt>
      <trkpt lat="44.72727" lon="4.66492">
        <ele>296</ele>
        <time>2013-02-08T09:22:08Z</time>
      </trkpt>
      <trkpt lat="44.72728" lon="4.66495">
        <ele>296</ele>
        <time>2013-02-08T09:22:10Z</time>
      </trkpt>
      <trkpt lat="44.72728" lon="4.66498">
        <ele>296</ele>
        <time>2013-02-08T09:22:12Z</time>
      </trkpt>
      <trkpt lat="44.72728" lon="4.66501">
        <ele>290</ele>
        <time>2013-02-08T09:22:14Z</time>
      </trkpt>
      <trkpt lat="44.72727" lon="4.66504">
        <ele>290</ele>
        <time>2013-02-08T09:22:16Z</time>
      </trkpt>
      <trkpt lat="44.72726" lon="4.66507">
        <ele>290</ele>
        <time>2013-02-08T09:22:18Z</time>
      </trkpt>
      <trkpt lat="44.72726" lon="4.6651">
        <ele>289</ele>
        <time>2013-02-08T09:22:20Z</time>
      </trkpt>
      <trkpt lat="44.72725" lon="4.66514">
        <ele>289</ele>
        <time>2013-02-08T09:22:22Z</time>
      </trkpt>
      <trkpt lat="44.72726" lon="4.66518">
        <ele>289</ele>
        <time>2013-02-08T09:22:25Z</time>
      </trkpt>
      <trkpt lat="44.72727" lon="4.66521">
        <ele>289</ele>
        <time>2013-02-08T09:22:27Z</time>
      </trkpt>
      <trkpt lat="44.72728" lon="4.66524">
        <ele>288</ele>
        <time>2013-02-08T09:22:29Z</time>
      </trkpt>
      <trkpt lat="44.72728" lon="4.66526">
        <ele>288</ele>
        <time>2013-02-08T09:22:31Z</time>
      </trkpt>
      <trkpt lat="44.72729" lon="4.66527">
        <ele>288</ele>
        <time>2013-02-08T09:22:36Z</time>
      </trkpt>
      <trkpt lat="44.7273" lon="4.66529">
        <ele>288</ele>
        <time>2013-02-08T09:22:38Z</time>
      </trkpt>
      <trkpt lat="44.72731" lon="4.66531">
        <ele>288</ele>
        <time>2013-02-08T09:22:40Z</time>
      </trkpt>
      <trkpt lat="44.72732" lon="4.66533">
        <ele>288</ele>
        <time>2013-02-08T09:22:42Z</time>
      </trkpt>
      <trkpt lat="44.72734" lon="4.66535">
        <ele>288</ele>
        <time>2013-02-08T09:22:44Z</time>
      </trkpt>
      <trkpt lat="44.72735" lon="4.66537">
        <ele>288</ele>
        <time>2013-02-08T09:22:46Z</time>
      </trkpt>
      <trkpt lat="44.72736" lon="4.66538">
        <ele>287</ele>
        <time>2013-02-08T09:22:48Z</time>
      </trkpt>
      <trkpt lat="44.72738" lon="4.66541">
        <ele>287</ele>
        <time>2013-02-08T09:22:50Z</time>
      </trkpt>
      <trkpt lat="44.72739" lon="4.66543">
        <ele>287</ele>
        <time>2013-02-08T09:22:52Z</time>
      </trkpt>
      <trkpt lat="44.72741" lon="4.66545">
        <ele>287</ele>
        <time>2013-02-08T09:22:54Z</time>
      </trkpt>
      <trkpt lat="44.72743" lon="4.66546">
        <ele>287</ele>
        <time>2013-02-08T09:22:56Z</time>
      </trkpt>
      <trkpt lat="44.72745" lon="4.66548">
        <ele>287</ele>
        <time>2013-02-08T09:22:58Z</time>
      </trkpt>
      <trkpt lat="44.72747" lon="4.6655">
        <ele>287</ele>
        <time>2013-02-08T09:23:00Z</time>
      </trkpt>
      <trkpt lat="44.72748" lon="4.66552">
        <ele>287</ele>
        <time>2013-02-08T09:23:02Z</time>
      </trkpt>
      <trkpt lat="44.72751" lon="4.66555">
        <ele>295</ele>
        <time>2013-02-08T09:23:05Z</time>
      </trkpt>
      <trkpt lat="44.72753" lon="4.66558">
        <ele>294</ele>
        <time>2013-02-08T09:23:07Z</time>
      </trkpt>
      <trkpt lat="44.72755" lon="4.66561">
        <ele>294</ele>
        <time>2013-02-08T09:23:09Z</time>
      </trkpt>
      <trkpt lat="44.72756" lon="4.66563">
        <ele>294</ele>
        <time>2013-02-08T09:23:11Z</time>
      </trkpt>
      <trkpt lat="44.72758" lon="4.66565">
        <ele>293</ele>
        <time>2013-02-08T09:23:13Z</time>
      </trkpt>
      <trkpt lat="44.7276" lon="4.6657">
        <ele>293</ele>
        <time>2013-02-08T09:23:16Z</time>
      </trkpt>
      <trkpt lat="44.72761" lon="4.66572">
        <ele>292</ele>
        <time>2013-02-08T09:23:18Z</time>
      </trkpt>
      <trkpt lat="44.72763" lon="4.66575">
        <ele>292</ele>
        <time>2013-02-08T09:23:20Z</time>
      </trkpt>
      <trkpt lat="44.72764" lon="4.66578">
        <ele>292</ele>
        <time>2013-02-08T09:23:22Z</time>
      </trkpt>
      <trkpt lat="44.72765" lon="4.6658">
        <ele>292</ele>
        <time>2013-02-08T09:23:24Z</time>
      </trkpt>
      <trkpt lat="44.72767" lon="4.66583">
        <ele>292</ele>
        <time>2013-02-08T09:23:26Z</time>
      </trkpt>
      <trkpt lat="44.72768" lon="4.66587">
        <ele>288</ele>
        <time>2013-02-08T09:23:29Z</time>
      </trkpt>
      <trkpt lat="44.72769" lon="4.66589">
        <ele>288</ele>
        <time>2013-02-08T09:23:31Z</time>
      </trkpt>
      <trkpt lat="44.7277" lon="4.66591">
        <ele>288</ele>
        <time>2013-02-08T09:23:33Z</time>
      </trkpt>
      <trkpt lat="44.72772" lon="4.66594">
        <ele>288</ele>
        <time>2013-02-08T09:23:35Z</time>
      </trkpt>
      <trkpt lat="44.72773" lon="4.66596">
        <ele>288</ele>
        <time>2013-02-08T09:23:37Z</time>
      </trkpt>
      <trkpt lat="44.72774" lon="4.66598">
        <ele>288</ele>
        <time>2013-02-08T09:23:39Z</time>
      </trkpt>
      <trkpt lat="44.72775" lon="4.666">
        <ele>288</ele>
        <time>2013-02-08T09:23:41Z</time>
      </trkpt>
      <trkpt lat="44.72777" lon="4.66603">
        <ele>289</ele>
        <time>2013-02-08T09:23:43Z</time>
      </trkpt>
      <trkpt lat="44.72778" lon="4.66605">
        <ele>289</ele>
        <time>2013-02-08T09:23:45Z</time>
      </trkpt>
      <trkpt lat="44.7278" lon="4.66607">
        <ele>289</ele>
        <time>2013-02-08T09:23:47Z</time>
      </trkpt>
      <trkpt lat="44.72781" lon="4.66609">
        <ele>289</ele>
        <time>2013-02-08T09:23:49Z</time>
      </trkpt>
      <trkpt lat="44.72782" lon="4.66611">
        <ele>289</ele>
        <time>2013-02-08T09:23:51Z</time>
      </trkpt>
      <trkpt lat="44.72783" lon="4.66614">
        <ele>289</ele>
        <time>2013-02-08T09:23:53Z</time>
      </trkpt>
      <trkpt lat="44.72784" lon="4.66617">
        <ele>289</ele>
        <time>2013-02-08T09:23:55Z</time>
      </trkpt>
      <trkpt lat="44.72785" lon="4.6662">
        <ele>289</ele>
        <time>2013-02-08T09:23:57Z</time>
      </trkpt>
      <trkpt lat="44.72786" lon="4.66622">
        <ele>289</ele>
        <time>2013-02-08T09:23:59Z</time>
      </trkpt>
      <trkpt lat="44.72788" lon="4.66624">
        <ele>289</ele>
        <time>2013-02-08T09:24:01Z</time>
      </trkpt>
      <trkpt lat="44.7279" lon="4.66626">
        <ele>289</ele>
        <time>2013-02-08T09:24:03Z</time>
      </trkpt>
      <trkpt lat="44.72792" lon="4.66627">
        <ele>289</ele>
        <time>2013-02-08T09:24:06Z</time>
      </trkpt>
      <trkpt lat="44.72796" lon="4.66628">
        <ele>289</ele>
        <time>2013-02-08T09:24:09Z</time>
      </trkpt>
      <trkpt lat="44.72797" lon="4.66627">
        <ele>289</ele>
        <time>2013-02-08T09:24:11Z</time>
      </trkpt>
      <trkpt lat="44.72801" lon="4.66626">
        <ele>290</ele>
        <time>2013-02-08T09:24:14Z</time>
      </trkpt>
      <trkpt lat="44.72802" lon="4.66625">
        <ele>290</ele>
        <time>2013-02-08T09:24:16Z</time>
      </trkpt>
      <trkpt lat="44.72803" lon="4.66625">
        <ele>290</ele>
        <time>2013-02-08T09:24:18Z</time>
      </trkpt>
      <trkpt lat="44.72805" lon="4.66624">
        <ele>290</ele>
        <time>2013-02-08T09:24:26Z</time>
      </trkpt>
      <trkpt lat="44.72806" lon="4.66624">
        <ele>291</ele>
        <time>2013-02-08T09:24:28Z</time>
      </trkpt>
      <trkpt lat="44.72808" lon="4.66624">
        <ele>291</ele>
        <time>2013-02-08T09:24:30Z</time>
      </trkpt>
      <trkpt lat="44.7281" lon="4.66624">
        <ele>291</ele>
        <time>2013-02-08T09:24:32Z</time>
      </trkpt>
      <trkpt lat="44.72811" lon="4.66624">
        <ele>291</ele>
        <time>2013-02-08T09:24:34Z</time>
      </trkpt>
      <trkpt lat="44.72813" lon="4.66624">
        <ele>291</ele>
        <time>2013-02-08T09:24:36Z</time>
      </trkpt>
      <trkpt lat="44.72815" lon="4.66624">
        <ele>291</ele>
        <time>2013-02-08T09:24:38Z</time>
      </trkpt>
      <trkpt lat="44.72816" lon="4.66624">
        <ele>291</ele>
        <time>2013-02-08T09:24:40Z</time>
      </trkpt>
      <trkpt lat="44.72817" lon="4.66624">
        <ele>292</ele>
        <time>2013-02-08T09:24:42Z</time>
      </trkpt>
      <trkpt lat="44.72818" lon="4.66623">
        <ele>292</ele>
        <time>2013-02-08T09:24:45Z</time>
      </trkpt>
      <trkpt lat="44.7282" lon="4.66622">
        <ele>292</ele>
        <time>2013-02-08T09:24:50Z</time>
      </trkpt>
      <trkpt lat="44.72821" lon="4.66621">
        <ele>292</ele>
        <time>2013-02-08T09:24:57Z</time>
      </trkpt>
      <trkpt lat="44.72822" lon="4.66619">
        <ele>293</ele>
        <time>2013-02-08T09:25:00Z</time>
      </trkpt>
      <trkpt lat="44.72823" lon="4.66617">
        <ele>293</ele>
        <time>2013-02-08T09:25:02Z</time>
      </trkpt>
      <trkpt lat="44.72823" lon="4.66615">
        <ele>293</ele>
        <time>2013-02-08T09:25:04Z</time>
      </trkpt>
      <trkpt lat="44.72823" lon="4.66614">
        <ele>293</ele>
        <time>2013-02-08T09:25:06Z</time>
      </trkpt>
      <trkpt lat="44.72824" lon="4.66611">
        <ele>294</ele>
        <time>2013-02-08T09:25:08Z</time>
      </trkpt>
      <trkpt lat="44.72824" lon="4.66609">
        <ele>294</ele>
        <time>2013-02-08T09:25:10Z</time>
      </trkpt>
      <trkpt lat="44.72824" lon="4.66607">
        <ele>295</ele>
        <time>2013-02-08T09:25:12Z</time>
      </trkpt>
      <trkpt lat="44.72825" lon="4.66605">
        <ele>295</ele>
        <time>2013-02-08T09:25:14Z</time>
      </trkpt>
      <trkpt lat="44.72825" lon="4.66603">
        <ele>296</ele>
        <time>2013-02-08T09:25:16Z</time>
      </trkpt>
      <trkpt lat="44.72825" lon="4.666">
        <ele>296</ele>
        <time>2013-02-08T09:25:18Z</time>
      </trkpt>
      <trkpt lat="44.72824" lon="4.66598">
        <ele>297</ele>
        <time>2013-02-08T09:25:20Z</time>
      </trkpt>
      <trkpt lat="44.72824" lon="4.66596">
        <ele>297</ele>
        <time>2013-02-08T09:25:22Z</time>
      </trkpt>
      <trkpt lat="44.72824" lon="4.66594">
        <ele>298</ele>
        <time>2013-02-08T09:25:24Z</time>
      </trkpt>
      <trkpt lat="44.72825" lon="4.66591">
        <ele>299</ele>
        <time>2013-02-08T09:25:26Z</time>
      </trkpt>
      <trkpt lat="44.72825" lon="4.66589">
        <ele>300</ele>
        <time>2013-02-08T09:25:28Z</time>
      </trkpt>
      <trkpt lat="44.72826" lon="4.66588">
        <ele>300</ele>
        <time>2013-02-08T09:25:30Z</time>
      </trkpt>
      <trkpt lat="44.72828" lon="4.66586">
        <ele>301</ele>
        <time>2013-02-08T09:25:33Z</time>
      </trkpt>
      <trkpt lat="44.72831" lon="4.66584">
        <ele>303</ele>
        <time>2013-02-08T09:25:36Z</time>
      </trkpt>
      <trkpt lat="44.72833" lon="4.66583">
        <ele>305</ele>
        <time>2013-02-08T09:25:38Z</time>
      </trkpt>
      <trkpt lat="44.72834" lon="4.66582">
        <ele>305</ele>
        <time>2013-02-08T09:25:40Z</time>
      </trkpt>
      <trkpt lat="44.72835" lon="4.66581">
        <ele>306</ele>
        <time>2013-02-08T09:25:42Z</time>
      </trkpt>
      <trkpt lat="44.72837" lon="4.6658">
        <ele>306</ele>
        <time>2013-02-08T09:25:44Z</time>
      </trkpt>
      <trkpt lat="44.72838" lon="4.66579">
        <ele>307</ele>
        <time>2013-02-08T09:25:46Z</time>
      </trkpt>
      <trkpt lat="44.72839" lon="4.66578">
        <ele>307</ele>
        <time>2013-02-08T09:25:48Z</time>
      </trkpt>
      <trkpt lat="44.72841" lon="4.66576">
        <ele>308</ele>
        <time>2013-02-08T09:25:50Z</time>
      </trkpt>
      <trkpt lat="44.72842" lon="4.66575">
        <ele>308</ele>
        <time>2013-02-08T09:25:52Z</time>
      </trkpt>
      <trkpt lat="44.72843" lon="4.66573">
        <ele>309</ele>
        <time>2013-02-08T09:25:54Z</time>
      </trkpt>
      <trkpt lat="44.72844" lon="4.66572">
        <ele>309</ele>
        <time>2013-02-08T09:25:56Z</time>
      </trkpt>
      <trkpt lat="44.72846" lon="4.66571">
        <ele>309</ele>
        <time>2013-02-08T09:25:58Z</time>
      </trkpt>
      <trkpt lat="44.72847" lon="4.6657">
        <ele>309</ele>
        <time>2013-02-08T09:26:00Z</time>
      </trkpt>
      <trkpt lat="44.72849" lon="4.66569">
        <ele>310</ele>
        <time>2013-02-08T09:26:02Z</time>
      </trkpt>
      <trkpt lat="44.72851" lon="4.66569">
        <ele>310</ele>
        <time>2013-02-08T09:26:04Z</time>
      </trkpt>
      <trkpt lat="44.72853" lon="4.66568">
        <ele>310</ele>
        <time>2013-02-08T09:26:06Z</time>
      </trkpt>
      <trkpt lat="44.72854" lon="4.66568">
        <ele>310</ele>
        <time>2013-02-08T09:26:08Z</time>
      </trkpt>
      <trkpt lat="44.72856" lon="4.66569">
        <ele>310</ele>
        <time>2013-02-08T09:26:10Z</time>
      </trkpt>
      <trkpt lat="44.72858" lon="4.66569">
        <ele>311</ele>
        <time>2013-02-08T09:26:12Z</time>
      </trkpt>
      <trkpt lat="44.7286" lon="4.66568">
        <ele>311</ele>
        <time>2013-02-08T09:26:14Z</time>
      </trkpt>
      <trkpt lat="44.72862" lon="4.66568">
        <ele>311</ele>
        <time>2013-02-08T09:26:16Z</time>
      </trkpt>
      <trkpt lat="44.72864" lon="4.66567">
        <ele>311</ele>
        <time>2013-02-08T09:26:18Z</time>
      </trkpt>
      <trkpt lat="44.72865" lon="4.66567">
        <ele>311</ele>
        <time>2013-02-08T09:26:20Z</time>
      </trkpt>
      <trkpt lat="44.72867" lon="4.66566">
        <ele>311</ele>
        <time>2013-02-08T09:26:22Z</time>
      </trkpt>
      <trkpt lat="44.72869" lon="4.66565">
        <ele>311</ele>
        <time>2013-02-08T09:26:24Z</time>
      </trkpt>
      <trkpt lat="44.72871" lon="4.66564">
        <ele>312</ele>
        <time>2013-02-08T09:26:26Z</time>
      </trkpt>
      <trkpt lat="44.72873" lon="4.66564">
        <ele>312</ele>
        <time>2013-02-08T09:26:28Z</time>
      </trkpt>
      <trkpt lat="44.72875" lon="4.66563">
        <ele>312</ele>
        <time>2013-02-08T09:26:30Z</time>
      </trkpt>
      <trkpt lat="44.72876" lon="4.66562">
        <ele>312</ele>
        <time>2013-02-08T09:26:32Z</time>
      </trkpt>
      <trkpt lat="44.72878" lon="4.66561">
        <ele>312</ele>
        <time>2013-02-08T09:26:34Z</time>
      </trkpt>
      <trkpt lat="44.72879" lon="4.66559">
        <ele>312</ele>
        <time>2013-02-08T09:26:38Z</time>
      </trkpt>
      <trkpt lat="44.72881" lon="4.66558">
        <ele>312</ele>
        <time>2013-02-08T09:26:40Z</time>
      </trkpt>
      <trkpt lat="44.72884" lon="4.66556">
        <ele>313</ele>
        <time>2013-02-08T09:26:42Z</time>
      </trkpt>
      <trkpt lat="44.72886" lon="4.66555">
        <ele>313</ele>
        <time>2013-02-08T09:26:44Z</time>
      </trkpt>
      <trkpt lat="44.72887" lon="4.66553">
        <ele>313</ele>
        <time>2013-02-08T09:26:46Z</time>
      </trkpt>
      <trkpt lat="44.72889" lon="4.66552">
        <ele>313</ele>
        <time>2013-02-08T09:26:48Z</time>
      </trkpt>
      <trkpt lat="44.72891" lon="4.66551">
        <ele>313</ele>
        <time>2013-02-08T09:26:50Z</time>
      </trkpt>
      <trkpt lat="44.72894" lon="4.66549">
        <ele>313</ele>
        <time>2013-02-08T09:26:53Z</time>
      </trkpt>
      <trkpt lat="44.72896" lon="4.66548">
        <ele>314</ele>
        <time>2013-02-08T09:26:55Z</time>
      </trkpt>
      <trkpt lat="44.72899" lon="4.66546">
        <ele>314</ele>
        <time>2013-02-08T09:26:58Z</time>
      </trkpt>
      <trkpt lat="44.72901" lon="4.66545">
        <ele>314</ele>
        <time>2013-02-08T09:27:00Z</time>
      </trkpt>
      <trkpt lat="44.72905" lon="4.66544">
        <ele>314</ele>
        <time>2013-02-08T09:27:03Z</time>
      </trkpt>
      <trkpt lat="44.72907" lon="4.66542">
        <ele>314</ele>
        <time>2013-02-08T09:27:05Z</time>
      </trkpt>
      <trkpt lat="44.72909" lon="4.66541">
        <ele>315</ele>
        <time>2013-02-08T09:27:07Z</time>
      </trkpt>
      <trkpt lat="44.72911" lon="4.6654">
        <ele>315</ele>
        <time>2013-02-08T09:27:09Z</time>
      </trkpt>
      <trkpt lat="44.72914" lon="4.66537">
        <ele>315</ele>
        <time>2013-02-08T09:27:12Z</time>
      </trkpt>
      <trkpt lat="44.72916" lon="4.66535">
        <ele>316</ele>
        <time>2013-02-08T09:27:14Z</time>
      </trkpt>
      <trkpt lat="44.72918" lon="4.66534">
        <ele>320</ele>
        <time>2013-02-08T09:27:16Z</time>
      </trkpt>
      <trkpt lat="44.72921" lon="4.66532">
        <ele>320</ele>
        <time>2013-02-08T09:27:19Z</time>
      </trkpt>
      <trkpt lat="44.72924" lon="4.66531">
        <ele>320</ele>
        <time>2013-02-08T09:27:21Z</time>
      </trkpt>
      <trkpt lat="44.72927" lon="4.6653">
        <ele>321</ele>
        <time>2013-02-08T09:27:24Z</time>
      </trkpt>
      <trkpt lat="44.72929" lon="4.66529">
        <ele>321</ele>
        <time>2013-02-08T09:27:26Z</time>
      </trkpt>
      <trkpt lat="44.72931" lon="4.66528">
        <ele>321</ele>
        <time>2013-02-08T09:27:28Z</time>
      </trkpt>
      <trkpt lat="44.72933" lon="4.66527">
        <ele>321</ele>
        <time>2013-02-08T09:27:30Z</time>
      </trkpt>
      <trkpt lat="44.72936" lon="4.66526">
        <ele>321</ele>
        <time>2013-02-08T09:27:32Z</time>
      </trkpt>
      <trkpt lat="44.72938" lon="4.66525">
        <ele>321</ele>
        <time>2013-02-08T09:27:34Z</time>
      </trkpt>
      <trkpt lat="44.7294" lon="4.66524">
        <ele>321</ele>
        <time>2013-02-08T09:27:36Z</time>
      </trkpt>
      <trkpt lat="44.72942" lon="4.66524">
        <ele>321</ele>
        <time>2013-02-08T09:27:38Z</time>
      </trkpt>
      <trkpt lat="44.72946" lon="4.66522">
        <ele>321</ele>
        <time>2013-02-08T09:27:41Z</time>
      </trkpt>
      <trkpt lat="44.72949" lon="4.66522">
        <ele>321</ele>
        <time>2013-02-08T09:27:43Z</time>
      </trkpt>
      <trkpt lat="44.72951" lon="4.66522">
        <ele>321</ele>
        <time>2013-02-08T09:27:45Z</time>
      </trkpt>
      <trkpt lat="44.72953" lon="4.66521">
        <ele>322</ele>
        <time>2013-02-08T09:27:47Z</time>
      </trkpt>
      <trkpt lat="44.72955" lon="4.66521">
        <ele>322</ele>
        <time>2013-02-08T09:27:49Z</time>
      </trkpt>
      <trkpt lat="44.72959" lon="4.66521">
        <ele>322</ele>
        <time>2013-02-08T09:27:52Z</time>
      </trkpt>
      <trkpt lat="44.72961" lon="4.66522">
        <ele>322</ele>
        <time>2013-02-08T09:27:54Z</time>
      </trkpt>
      <trkpt lat="44.72965" lon="4.66522">
        <ele>322</ele>
        <time>2013-02-08T09:27:57Z</time>
      </trkpt>
      <trkpt lat="44.72966" lon="4.66523">
        <ele>322</ele>
        <time>2013-02-08T09:27:59Z</time>
      </trkpt>
      <trkpt lat="44.72969" lon="4.66523">
        <ele>322</ele>
        <time>2013-02-08T09:28:01Z</time>
      </trkpt>
      <trkpt lat="44.72971" lon="4.66523">
        <ele>322</ele>
        <time>2013-02-08T09:28:03Z</time>
      </trkpt>
      <trkpt lat="44.72973" lon="4.66523">
        <ele>322</ele>
        <time>2013-02-08T09:28:05Z</time>
      </trkpt>
      <trkpt lat="44.72975" lon="4.66523">
        <ele>322</ele>
        <time>2013-02-08T09:28:07Z</time>
      </trkpt>
      <trkpt lat="44.72978" lon="4.66523">
        <ele>323</ele>
        <time>2013-02-08T09:28:09Z</time>
      </trkpt>
      <trkpt lat="44.7298" lon="4.66523">
        <ele>323</ele>
        <time>2013-02-08T09:28:11Z</time>
      </trkpt>
      <trkpt lat="44.72983" lon="4.66524">
        <ele>323</ele>
        <time>2013-02-08T09:28:14Z</time>
      </trkpt>
      <trkpt lat="44.72986" lon="4.66524">
        <ele>323</ele>
        <time>2013-02-08T09:28:17Z</time>
      </trkpt>
      <trkpt lat="44.72989" lon="4.66524">
        <ele>323</ele>
        <time>2013-02-08T09:28:19Z</time>
      </trkpt>
      <trkpt lat="44.72992" lon="4.66524">
        <ele>323</ele>
        <time>2013-02-08T09:28:22Z</time>
      </trkpt>
      <trkpt lat="44.72994" lon="4.66524">
        <ele>323</ele>
        <time>2013-02-08T09:28:24Z</time>
      </trkpt>
      <trkpt lat="44.72997" lon="4.66524">
        <ele>323</ele>
        <time>2013-02-08T09:28:27Z</time>
      </trkpt>
      <trkpt lat="44.73" lon="4.66523">
        <ele>324</ele>
        <time>2013-02-08T09:28:29Z</time>
      </trkpt>
      <trkpt lat="44.73002" lon="4.66522">
        <ele>328</ele>
        <time>2013-02-08T09:28:31Z</time>
      </trkpt>
      <trkpt lat="44.73004" lon="4.66521">
        <ele>328</ele>
        <time>2013-02-08T09:28:33Z</time>
      </trkpt>
      <trkpt lat="44.73006" lon="4.6652">
        <ele>329</ele>
        <time>2013-02-08T09:28:35Z</time>
      </trkpt>
      <trkpt lat="44.73008" lon="4.6652">
        <ele>329</ele>
        <time>2013-02-08T09:28:49Z</time>
      </trkpt>
      <trkpt lat="44.7301" lon="4.6652">
        <ele>329</ele>
        <time>2013-02-08T09:28:53Z</time>
      </trkpt>
      <trkpt lat="44.73011" lon="4.6652">
        <ele>329</ele>
        <time>2013-02-08T09:28:55Z</time>
      </trkpt>
      <trkpt lat="44.73013" lon="4.6652">
        <ele>329</ele>
        <time>2013-02-08T09:28:57Z</time>
      </trkpt>
      <trkpt lat="44.73015" lon="4.6652">
        <ele>329</ele>
        <time>2013-02-08T09:28:59Z</time>
      </trkpt>
      <trkpt lat="44.73016" lon="4.66521">
        <ele>329</ele>
        <time>2013-02-08T09:29:01Z</time>
      </trkpt>
      <trkpt lat="44.73019" lon="4.66522">
        <ele>329</ele>
        <time>2013-02-08T09:29:03Z</time>
      </trkpt>
      <trkpt lat="44.73021" lon="4.66524">
        <ele>329</ele>
        <time>2013-02-08T09:29:05Z</time>
      </trkpt>
      <trkpt lat="44.73021" lon="4.66525">
        <ele>329</ele>
        <time>2013-02-08T09:29:11Z</time>
      </trkpt>
      <trkpt lat="44.7302" lon="4.66524">
        <ele>329</ele>
        <time>2013-02-08T09:29:24Z</time>
      </trkpt>
      <trkpt lat="44.7302" lon="4.66523">
        <ele>329</ele>
        <time>2013-02-08T09:29:30Z</time>
      </trkpt>
      <trkpt lat="44.73021" lon="4.66522">
        <ele>329</ele>
        <time>2013-02-08T09:29:40Z</time>
      </trkpt>
      <trkpt lat="44.73023" lon="4.66523">
        <ele>329</ele>
        <time>2013-02-08T09:29:43Z</time>
      </trkpt>
      <trkpt lat="44.73024" lon="4.66524">
        <ele>329</ele>
        <time>2013-02-08T09:29:50Z</time>
      </trkpt>
      <trkpt lat="44.73026" lon="4.66525">
        <ele>329</ele>
        <time>2013-02-08T09:29:55Z</time>
      </trkpt>
      <trkpt lat="44.73027" lon="4.66526">
        <ele>329</ele>
        <time>2013-02-08T09:29:57Z</time>
      </trkpt>
      <trkpt lat="44.73029" lon="4.66528">
        <ele>329</ele>
        <time>2013-02-08T09:29:59Z</time>
      </trkpt>
      <trkpt lat="44.73031" lon="4.6653">
        <ele>329</ele>
        <time>2013-02-08T09:30:01Z</time>
      </trkpt>
      <trkpt lat="44.73032" lon="4.66532">
        <ele>329</ele>
        <time>2013-02-08T09:30:03Z</time>
      </trkpt>
      <trkpt lat="44.73034" lon="4.66533">
        <ele>329</ele>
        <time>2013-02-08T09:30:05Z</time>
      </trkpt>
      <trkpt lat="44.73035" lon="4.66535">
        <ele>330</ele>
        <time>2013-02-08T09:30:07Z</time>
      </trkpt>
      <trkpt lat="44.73037" lon="4.66537">
        <ele>330</ele>
        <time>2013-02-08T09:30:11Z</time>
      </trkpt>
      <trkpt lat="44.73038" lon="4.66538">
        <ele>330</ele>
        <time>2013-02-08T09:30:13Z</time>
      </trkpt>
      <trkpt lat="44.73039" lon="4.66539">
        <ele>330</ele>
        <time>2013-02-08T09:30:15Z</time>
      </trkpt>
      <trkpt lat="44.7304" lon="4.66541">
        <ele>330</ele>
        <time>2013-02-08T09:30:17Z</time>
      </trkpt>
      <trkpt lat="44.73042" lon="4.66543">
        <ele>330</ele>
        <time>2013-02-08T09:30:19Z</time>
      </trkpt>
      <trkpt lat="44.73043" lon="4.66545">
        <ele>330</ele>
        <time>2013-02-08T09:30:21Z</time>
      </trkpt>
      <trkpt lat="44.73044" lon="4.66548">
        <ele>330</ele>
        <time>2013-02-08T09:30:23Z</time>
      </trkpt>
      <trkpt lat="44.73045" lon="4.6655">
        <ele>330</ele>
        <time>2013-02-08T09:30:25Z</time>
      </trkpt>
      <trkpt lat="44.73046" lon="4.66553">
        <ele>330</ele>
        <time>2013-02-08T09:30:27Z</time>
      </trkpt>
      <trkpt lat="44.73047" lon="4.66555">
        <ele>330</ele>
        <time>2013-02-08T09:30:29Z</time>
      </trkpt>
      <trkpt lat="44.73048" lon="4.66558">
        <ele>330</ele>
        <time>2013-02-08T09:30:31Z</time>
      </trkpt>
      <trkpt lat="44.73049" lon="4.6656">
        <ele>330</ele>
        <time>2013-02-08T09:30:33Z</time>
      </trkpt>
      <trkpt lat="44.73051" lon="4.66562">
        <ele>330</ele>
        <time>2013-02-08T09:30:35Z</time>
      </trkpt>
      <trkpt lat="44.73052" lon="4.66564">
        <ele>330</ele>
        <time>2013-02-08T09:30:37Z</time>
      </trkpt>
      <trkpt lat="44.73053" lon="4.66566">
        <ele>330</ele>
        <time>2013-02-08T09:30:39Z</time>
      </trkpt>
      <trkpt lat="44.73055" lon="4.66569">
        <ele>331</ele>
        <time>2013-02-08T09:30:41Z</time>
      </trkpt>
      <trkpt lat="44.73056" lon="4.66571">
        <ele>331</ele>
        <time>2013-02-08T09:30:43Z</time>
      </trkpt>
      <trkpt lat="44.73057" lon="4.66574">
        <ele>331</ele>
        <time>2013-02-08T09:30:45Z</time>
      </trkpt>
      <trkpt lat="44.73058" lon="4.66577">
        <ele>331</ele>
        <time>2013-02-08T09:30:47Z</time>
      </trkpt>
      <trkpt lat="44.73059" lon="4.66581">
        <ele>331</ele>
        <time>2013-02-08T09:30:49Z</time>
      </trkpt>
      <trkpt lat="44.7306" lon="4.66584">
        <ele>328</ele>
        <time>2013-02-08T09:30:51Z</time>
      </trkpt>
      <trkpt lat="44.7306" lon="4.66587">
        <ele>328</ele>
        <time>2013-02-08T09:30:53Z</time>
      </trkpt>
      <trkpt lat="44.73061" lon="4.66591">
        <ele>328</ele>
        <time>2013-02-08T09:30:55Z</time>
      </trkpt>
      <trkpt lat="44.73062" lon="4.66594">
        <ele>328</ele>
        <time>2013-02-08T09:30:57Z</time>
      </trkpt>
      <trkpt lat="44.73063" lon="4.66597">
        <ele>328</ele>
        <time>2013-02-08T09:30:59Z</time>
      </trkpt>
      <trkpt lat="44.73064" lon="4.666">
        <ele>328</ele>
        <time>2013-02-08T09:31:01Z</time>
      </trkpt>
      <trkpt lat="44.73065" lon="4.66601">
        <ele>328</ele>
        <time>2013-02-08T09:31:03Z</time>
      </trkpt>
      <trkpt lat="44.73066" lon="4.66603">
        <ele>328</ele>
        <time>2013-02-08T09:31:05Z</time>
      </trkpt>
      <trkpt lat="44.73068" lon="4.66606">
        <ele>328</ele>
        <time>2013-02-08T09:31:07Z</time>
      </trkpt>
      <trkpt lat="44.73069" lon="4.66608">
        <ele>328</ele>
        <time>2013-02-08T09:31:09Z</time>
      </trkpt>
      <trkpt lat="44.73071" lon="4.6661">
        <ele>327</ele>
        <time>2013-02-08T09:31:11Z</time>
      </trkpt>
      <trkpt lat="44.73072" lon="4.66613">
        <ele>327</ele>
        <time>2013-02-08T09:31:13Z</time>
      </trkpt>
      <trkpt lat="44.73074" lon="4.66615">
        <ele>327</ele>
        <time>2013-02-08T09:31:15Z</time>
      </trkpt>
      <trkpt lat="44.73075" lon="4.66618">
        <ele>327</ele>
        <time>2013-02-08T09:31:17Z</time>
      </trkpt>
      <trkpt lat="44.73076" lon="4.66621">
        <ele>327</ele>
        <time>2013-02-08T09:31:19Z</time>
      </trkpt>
      <trkpt lat="44.73078" lon="4.66625">
        <ele>327</ele>
        <time>2013-02-08T09:31:22Z</time>
      </trkpt>
      <trkpt lat="44.7308" lon="4.66627">
        <ele>326</ele>
        <time>2013-02-08T09:31:24Z</time>
      </trkpt>
      <trkpt lat="44.73081" lon="4.6663">
        <ele>326</ele>
        <time>2013-02-08T09:31:26Z</time>
      </trkpt>
      <trkpt lat="44.73082" lon="4.66631">
        <ele>326</ele>
        <time>2013-02-08T09:31:28Z</time>
      </trkpt>
      <trkpt lat="44.73084" lon="4.66633">
        <ele>334</ele>
        <time>2013-02-08T09:31:30Z</time>
      </trkpt>
      <trkpt lat="44.73086" lon="4.66634">
        <ele>334</ele>
        <time>2013-02-08T09:31:32Z</time>
      </trkpt>
      <trkpt lat="44.73089" lon="4.66636">
        <ele>334</ele>
        <time>2013-02-08T09:31:35Z</time>
      </trkpt>
      <trkpt lat="44.73091" lon="4.66637">
        <ele>334</ele>
        <time>2013-02-08T09:31:37Z</time>
      </trkpt>
      <trkpt lat="44.73094" lon="4.66638">
        <ele>334</ele>
        <time>2013-02-08T09:31:40Z</time>
      </trkpt>
      <trkpt lat="44.73096" lon="4.66638">
        <ele>334</ele>
        <time>2013-02-08T09:31:42Z</time>
      </trkpt>
      <trkpt lat="44.73099" lon="4.66637">
        <ele>334</ele>
        <time>2013-02-08T09:31:44Z</time>
      </trkpt>
      <trkpt lat="44.73101" lon="4.66637">
        <ele>334</ele>
        <time>2013-02-08T09:31:46Z</time>
      </trkpt>
      <trkpt lat="44.73104" lon="4.66638">
        <ele>334</ele>
        <time>2013-02-08T09:31:48Z</time>
      </trkpt>
      <trkpt lat="44.73106" lon="4.66638">
        <ele>334</ele>
        <time>2013-02-08T09:31:50Z</time>
      </trkpt>
      <trkpt lat="44.73108" lon="4.66638">
        <ele>334</ele>
        <time>2013-02-08T09:31:52Z</time>
      </trkpt>
      <trkpt lat="44.73111" lon="4.66638">
        <ele>335</ele>
        <time>2013-02-08T09:31:54Z</time>
      </trkpt>
      <trkpt lat="44.73113" lon="4.66638">
        <ele>335</ele>
        <time>2013-02-08T09:31:56Z</time>
      </trkpt>
      <trkpt lat="44.73115" lon="4.66639">
        <ele>335</ele>
        <time>2013-02-08T09:31:58Z</time>
      </trkpt>
      <trkpt lat="44.73118" lon="4.66639">
        <ele>335</ele>
        <time>2013-02-08T09:32:01Z</time>
      </trkpt>
      <trkpt lat="44.73121" lon="4.6664">
        <ele>335</ele>
        <time>2013-02-08T09:32:03Z</time>
      </trkpt>
      <trkpt lat="44.73123" lon="4.6664">
        <ele>335</ele>
        <time>2013-02-08T09:32:05Z</time>
      </trkpt>
      <trkpt lat="44.73125" lon="4.66641">
        <ele>335</ele>
        <time>2013-02-08T09:32:07Z</time>
      </trkpt>
      <trkpt lat="44.73127" lon="4.66642">
        <ele>336</ele>
        <time>2013-02-08T09:32:09Z</time>
      </trkpt>
      <trkpt lat="44.73129" lon="4.66643">
        <ele>336</ele>
        <time>2013-02-08T09:32:11Z</time>
      </trkpt>
      <trkpt lat="44.73132" lon="4.66644">
        <ele>336</ele>
        <time>2013-02-08T09:32:13Z</time>
      </trkpt>
      <trkpt lat="44.73134" lon="4.66645">
        <ele>336</ele>
        <time>2013-02-08T09:32:15Z</time>
      </trkpt>
      <trkpt lat="44.73136" lon="4.66646">
        <ele>336</ele>
        <time>2013-02-08T09:32:17Z</time>
      </trkpt>
      <trkpt lat="44.73139" lon="4.66647">
        <ele>336</ele>
        <time>2013-02-08T09:32:20Z</time>
      </trkpt>
      <trkpt lat="44.73142" lon="4.66648">
        <ele>336</ele>
        <time>2013-02-08T09:32:22Z</time>
      </trkpt>
      <trkpt lat="44.73144" lon="4.66648">
        <ele>336</ele>
        <time>2013-02-08T09:32:24Z</time>
      </trkpt>
      <trkpt lat="44.73146" lon="4.66648">
        <ele>337</ele>
        <time>2013-02-08T09:32:26Z</time>
      </trkpt>
      <trkpt lat="44.73148" lon="4.66648">
        <ele>337</ele>
        <time>2013-02-08T09:32:28Z</time>
      </trkpt>
      <trkpt lat="44.7315" lon="4.66648">
        <ele>337</ele>
        <time>2013-02-08T09:32:30Z</time>
      </trkpt>
      <trkpt lat="44.73153" lon="4.66649">
        <ele>337</ele>
        <time>2013-02-08T09:32:33Z</time>
      </trkpt>
      <trkpt lat="44.73155" lon="4.6665">
        <ele>337</ele>
        <time>2013-02-08T09:32:35Z</time>
      </trkpt>
      <trkpt lat="44.73157" lon="4.6665">
        <ele>337</ele>
        <time>2013-02-08T09:32:37Z</time>
      </trkpt>
      <trkpt lat="44.73159" lon="4.66651">
        <ele>337</ele>
        <time>2013-02-08T09:32:39Z</time>
      </trkpt>
      <trkpt lat="44.73161" lon="4.66652">
        <ele>337</ele>
        <time>2013-02-08T09:32:41Z</time>
      </trkpt>
      <trkpt lat="44.73164" lon="4.66652">
        <ele>337</ele>
        <time>2013-02-08T09:32:43Z</time>
      </trkpt>
      <trkpt lat="44.73167" lon="4.66652">
        <ele>340</ele>
        <time>2013-02-08T09:32:46Z</time>
      </trkpt>
      <trkpt lat="44.73169" lon="4.66652">
        <ele>340</ele>
        <time>2013-02-08T09:32:48Z</time>
      </trkpt>
      <trkpt lat="44.73171" lon="4.66651">
        <ele>340</ele>
        <time>2013-02-08T09:32:50Z</time>
      </trkpt>
      <trkpt lat="44.73172" lon="4.6665">
        <ele>340</ele>
        <time>2013-02-08T09:32:52Z</time>
      </trkpt>
      <trkpt lat="44.73174" lon="4.6665">
        <ele>341</ele>
        <time>2013-02-08T09:33:00Z</time>
      </trkpt>
      <trkpt lat="44.73176" lon="4.66649">
        <ele>341</ele>
        <time>2013-02-08T09:33:02Z</time>
      </trkpt>
      <trkpt lat="44.7318" lon="4.66649">
        <ele>341</ele>
        <time>2013-02-08T09:33:05Z</time>
      </trkpt>
      <trkpt lat="44.73182" lon="4.66649">
        <ele>341</ele>
        <time>2013-02-08T09:33:07Z</time>
      </trkpt>
      <trkpt lat="44.73183" lon="4.66649">
        <ele>341</ele>
        <time>2013-02-08T09:33:09Z</time>
      </trkpt>
      <trkpt lat="44.73186" lon="4.66649">
        <ele>341</ele>
        <time>2013-02-08T09:33:11Z</time>
      </trkpt>
      <trkpt lat="44.73189" lon="4.66649">
        <ele>341</ele>
        <time>2013-02-08T09:33:14Z</time>
      </trkpt>
      <trkpt lat="44.73191" lon="4.66649">
        <ele>341</ele>
        <time>2013-02-08T09:33:16Z</time>
      </trkpt>
      <trkpt lat="44.73193" lon="4.66649">
        <ele>342</ele>
        <time>2013-02-08T09:33:18Z</time>
      </trkpt>
      <trkpt lat="44.73195" lon="4.66648">
        <ele>342</ele>
        <time>2013-02-08T09:33:20Z</time>
      </trkpt>
      <trkpt lat="44.73197" lon="4.66648">
        <ele>342</ele>
        <time>2013-02-08T09:33:22Z</time>
      </trkpt>
      <trkpt lat="44.732" lon="4.66647">
        <ele>342</ele>
        <time>2013-02-08T09:33:25Z</time>
      </trkpt>
      <trkpt lat="44.73203" lon="4.66646">
        <ele>342</ele>
        <time>2013-02-08T09:33:27Z</time>
      </trkpt>
      <trkpt lat="44.73205" lon="4.66646">
        <ele>342</ele>
        <time>2013-02-08T09:33:29Z</time>
      </trkpt>
      <trkpt lat="44.73206" lon="4.66646">
        <ele>342</ele>
        <time>2013-02-08T09:33:31Z</time>
      </trkpt>
      <trkpt lat="44.73209" lon="4.66645">
        <ele>342</ele>
        <time>2013-02-08T09:33:34Z</time>
      </trkpt>
      <trkpt lat="44.73212" lon="4.66645">
        <ele>342</ele>
        <time>2013-02-08T09:33:36Z</time>
      </trkpt>
      <trkpt lat="44.73214" lon="4.66644">
        <ele>343</ele>
        <time>2013-02-08T09:33:38Z</time>
      </trkpt>
      <trkpt lat="44.73216" lon="4.66645">
        <ele>343</ele>
        <time>2013-02-08T09:33:40Z</time>
      </trkpt>
      <trkpt lat="44.73218" lon="4.66644">
        <ele>343</ele>
        <time>2013-02-08T09:33:42Z</time>
      </trkpt>
      <trkpt lat="44.7322" lon="4.66644">
        <ele>343</ele>
        <time>2013-02-08T09:33:44Z</time>
      </trkpt>
      <trkpt lat="44.73222" lon="4.66643">
        <ele>343</ele>
        <time>2013-02-08T09:34:02Z</time>
      </trkpt>
      <trkpt lat="44.73224" lon="4.66644">
        <ele>343</ele>
        <time>2013-02-08T09:34:11Z</time>
      </trkpt>
      <trkpt lat="44.73226" lon="4.66643">
        <ele>343</ele>
        <time>2013-02-08T09:34:13Z</time>
      </trkpt>
      <trkpt lat="44.73229" lon="4.66643">
        <ele>343</ele>
        <time>2013-02-08T09:34:15Z</time>
      </trkpt>
      <trkpt lat="44.73232" lon="4.66644">
        <ele>343</ele>
        <time>2013-02-08T09:34:18Z</time>
      </trkpt>
      <trkpt lat="44.73234" lon="4.66645">
        <ele>343</ele>
        <time>2013-02-08T09:34:20Z</time>
      </trkpt>
      <trkpt lat="44.73235" lon="4.66646">
        <ele>343</ele>
        <time>2013-02-08T09:34:22Z</time>
      </trkpt>
      <trkpt lat="44.73238" lon="4.66646">
        <ele>343</ele>
        <time>2013-02-08T09:34:24Z</time>
      </trkpt>
      <trkpt lat="44.7324" lon="4.66646">
        <ele>343</ele>
        <time>2013-02-08T09:34:26Z</time>
      </trkpt>
      <trkpt lat="44.73243" lon="4.66645">
        <ele>343</ele>
        <time>2013-02-08T09:34:29Z</time>
      </trkpt>
      <trkpt lat="44.73245" lon="4.66645">
        <ele>343</ele>
        <time>2013-02-08T09:34:31Z</time>
      </trkpt>
      <trkpt lat="44.73246" lon="4.66646">
        <ele>343</ele>
        <time>2013-02-08T09:34:33Z</time>
      </trkpt>
      <trkpt lat="44.73247" lon="4.66646">
        <ele>343</ele>
        <time>2013-02-08T09:34:38Z</time>
      </trkpt>
      <trkpt lat="44.73249" lon="4.66646">
        <ele>343</ele>
        <time>2013-02-08T09:34:40Z</time>
      </trkpt>
      <trkpt lat="44.73252" lon="4.66647">
        <ele>345</ele>
        <time>2013-02-08T09:34:42Z</time>
      </trkpt>
      <trkpt lat="44.73254" lon="4.66646">
        <ele>345</ele>
        <time>2013-02-08T09:34:44Z</time>
      </trkpt>
      <trkpt lat="44.73257" lon="4.66646">
        <ele>345</ele>
        <time>2013-02-08T09:34:47Z</time>
      </trkpt>
      <trkpt lat="44.73259" lon="4.66646">
        <ele>345</ele>
        <time>2013-02-08T09:34:49Z</time>
      </trkpt>
      <trkpt lat="44.73262" lon="4.66646">
        <ele>345</ele>
        <time>2013-02-08T09:34:51Z</time>
      </trkpt>
      <trkpt lat="44.73265" lon="4.66645">
        <ele>345</ele>
        <time>2013-02-08T09:34:54Z</time>
      </trkpt>
      <trkpt lat="44.73269" lon="4.66644">
        <ele>345</ele>
        <time>2013-02-08T09:34:57Z</time>
      </trkpt>
      <trkpt lat="44.73272" lon="4.66643">
        <ele>345</ele>
        <time>2013-02-08T09:35:00Z</time>
      </trkpt>
      <trkpt lat="44.73274" lon="4.66643">
        <ele>345</ele>
        <time>2013-02-08T09:35:02Z</time>
      </trkpt>
      <trkpt lat="44.73276" lon="4.66642">
        <ele>346</ele>
        <time>2013-02-08T09:35:04Z</time>
      </trkpt>
      <trkpt lat="44.73279" lon="4.66641">
        <ele>346</ele>
        <time>2013-02-08T09:35:07Z</time>
      </trkpt>
      <trkpt lat="44.73281" lon="4.66642">
        <ele>346</ele>
        <time>2013-02-08T09:35:09Z</time>
      </trkpt>
      <trkpt lat="44.73284" lon="4.66644">
        <ele>346</ele>
        <time>2013-02-08T09:35:12Z</time>
      </trkpt>
      <trkpt lat="44.73286" lon="4.66645">
        <ele>346</ele>
        <time>2013-02-08T09:35:14Z</time>
      </trkpt>
      <trkpt lat="44.73288" lon="4.66646">
        <ele>346</ele>
        <time>2013-02-08T09:35:16Z</time>
      </trkpt>
      <trkpt lat="44.73291" lon="4.66647">
        <ele>346</ele>
        <time>2013-02-08T09:35:18Z</time>
      </trkpt>
      <trkpt lat="44.73294" lon="4.66646">
        <ele>346</ele>
        <time>2013-02-08T09:35:21Z</time>
      </trkpt>
      <trkpt lat="44.73296" lon="4.66644">
        <ele>346</ele>
        <time>2013-02-08T09:35:23Z</time>
      </trkpt>
      <trkpt lat="44.73299" lon="4.66639">
        <ele>346</ele>
        <time>2013-02-08T09:35:27Z</time>
      </trkpt>
      <trkpt lat="44.73301" lon="4.66638">
        <ele>346</ele>
        <time>2013-02-08T09:35:29Z</time>
      </trkpt>
      <trkpt lat="44.73304" lon="4.66638">
        <ele>346</ele>
        <time>2013-02-08T09:35:31Z</time>
      </trkpt>
      <trkpt lat="44.73307" lon="4.66638">
        <ele>346</ele>
        <time>2013-02-08T09:35:34Z</time>
      </trkpt>
      <trkpt lat="44.73309" lon="4.66639">
        <ele>346</ele>
        <time>2013-02-08T09:35:36Z</time>
      </trkpt>
      <trkpt lat="44.73311" lon="4.66641">
        <ele>346</ele>
        <time>2013-02-08T09:35:38Z</time>
      </trkpt>
      <trkpt lat="44.73312" lon="4.66644">
        <ele>346</ele>
        <time>2013-02-08T09:35:40Z</time>
      </trkpt>
      <trkpt lat="44.73315" lon="4.66648">
        <ele>346</ele>
        <time>2013-02-08T09:35:43Z</time>
      </trkpt>
      <trkpt lat="44.73319" lon="4.66651">
        <ele>346</ele>
        <time>2013-02-08T09:35:47Z</time>
      </trkpt>
      <trkpt lat="44.73322" lon="4.66652">
        <ele>346</ele>
        <time>2013-02-08T09:35:51Z</time>
      </trkpt>
      <trkpt lat="44.73326" lon="4.6665">
        <ele>346</ele>
        <time>2013-02-08T09:35:54Z</time>
      </trkpt>
      <trkpt lat="44.73328" lon="4.66649">
        <ele>346</ele>
        <time>2013-02-08T09:35:56Z</time>
      </trkpt>
      <trkpt lat="44.73332" lon="4.66647">
        <ele>346</ele>
        <time>2013-02-08T09:35:59Z</time>
      </trkpt>
      <trkpt lat="44.73336" lon="4.66647">
        <ele>348</ele>
        <time>2013-02-08T09:36:02Z</time>
      </trkpt>
      <trkpt lat="44.7334" lon="4.66648">
        <ele>348</ele>
        <time>2013-02-08T09:36:05Z</time>
      </trkpt>
      <trkpt lat="44.73342" lon="4.6665">
        <ele>348</ele>
        <time>2013-02-08T09:36:07Z</time>
      </trkpt>
      <trkpt lat="44.73345" lon="4.66652">
        <ele>348</ele>
        <time>2013-02-08T09:36:10Z</time>
      </trkpt>
      <trkpt lat="44.73348" lon="4.66652">
        <ele>348</ele>
        <time>2013-02-08T09:36:12Z</time>
      </trkpt>
      <trkpt lat="44.73351" lon="4.66652">
        <ele>348</ele>
        <time>2013-02-08T09:36:15Z</time>
      </trkpt>
      <trkpt lat="44.73354" lon="4.66652">
        <ele>349</ele>
        <time>2013-02-08T09:36:17Z</time>
      </trkpt>
      <trkpt lat="44.73356" lon="4.66651">
        <ele>349</ele>
        <time>2013-02-08T09:36:19Z</time>
      </trkpt>
      <trkpt lat="44.73361" lon="4.6665">
        <ele>349</ele>
        <time>2013-02-08T09:36:22Z</time>
      </trkpt>
      <trkpt lat="44.73364" lon="4.66651">
        <ele>349</ele>
        <time>2013-02-08T09:36:25Z</time>
      </trkpt>
      <trkpt lat="44.73369" lon="4.66651">
        <ele>350</ele>
        <time>2013-02-08T09:36:29Z</time>
      </trkpt>
      <trkpt lat="44.73371" lon="4.66651">
        <ele>350</ele>
        <time>2013-02-08T09:36:31Z</time>
      </trkpt>
      <trkpt lat="44.73374" lon="4.66652">
        <ele>350</ele>
        <time>2013-02-08T09:36:34Z</time>
      </trkpt>
      <trkpt lat="44.73377" lon="4.66652">
        <ele>350</ele>
        <time>2013-02-08T09:36:36Z</time>
      </trkpt>
      <trkpt lat="44.7338" lon="4.66653">
        <ele>350</ele>
        <time>2013-02-08T09:36:39Z</time>
      </trkpt>
      <trkpt lat="44.73383" lon="4.66653">
        <ele>350</ele>
        <time>2013-02-08T09:36:41Z</time>
      </trkpt>
      <trkpt lat="44.73385" lon="4.66653">
        <ele>350</ele>
        <time>2013-02-08T09:36:43Z</time>
      </trkpt>
      <trkpt lat="44.73388" lon="4.66653">
        <ele>351</ele>
        <time>2013-02-08T09:36:45Z</time>
      </trkpt>
      <trkpt lat="44.7339" lon="4.66653">
        <ele>351</ele>
        <time>2013-02-08T09:36:47Z</time>
      </trkpt>
      <trkpt lat="44.73393" lon="4.66653">
        <ele>351</ele>
        <time>2013-02-08T09:36:49Z</time>
      </trkpt>
      <trkpt lat="44.73395" lon="4.66653">
        <ele>351</ele>
        <time>2013-02-08T09:36:51Z</time>
      </trkpt>
      <trkpt lat="44.73399" lon="4.66654">
        <ele>351</ele>
        <time>2013-02-08T09:36:54Z</time>
      </trkpt>
      <trkpt lat="44.73402" lon="4.66655">
        <ele>351</ele>
        <time>2013-02-08T09:36:57Z</time>
      </trkpt>
      <trkpt lat="44.73404" lon="4.66656">
        <ele>351</ele>
        <time>2013-02-08T09:36:59Z</time>
      </trkpt>
      <trkpt lat="44.73408" lon="4.66657">
        <ele>351</ele>
        <time>2013-02-08T09:37:03Z</time>
      </trkpt>
      <trkpt lat="44.73409" lon="4.66659">
        <ele>351</ele>
        <time>2013-02-08T09:37:27Z</time>
      </trkpt>
      <trkpt lat="44.73409" lon="4.66661">
        <ele>351</ele>
        <time>2013-02-08T09:37:39Z</time>
      </trkpt>
      <trkpt lat="44.7341" lon="4.66665">
        <ele>352</ele>
        <time>2013-02-08T09:37:43Z</time>
      </trkpt>
      <trkpt lat="44.73412" lon="4.66666">
        <ele>352</ele>
        <time>2013-02-08T09:37:47Z</time>
      </trkpt>
      <trkpt lat="44.73413" lon="4.66667">
        <ele>350</ele>
        <time>2013-02-08T09:37:53Z</time>
      </trkpt>
      <trkpt lat="44.73415" lon="4.66672">
        <ele>349</ele>
        <time>2013-02-08T09:37:57Z</time>
      </trkpt>
      <trkpt lat="44.73417" lon="4.66674">
        <ele>348</ele>
        <time>2013-02-08T09:37:59Z</time>
      </trkpt>
      <trkpt lat="44.73418" lon="4.66678">
        <ele>349</ele>
        <time>2013-02-08T09:38:04Z</time>
      </trkpt>
      <trkpt lat="44.7342" lon="4.66678">
        <ele>349</ele>
        <time>2013-02-08T09:38:08Z</time>
      </trkpt>
      <trkpt lat="44.73422" lon="4.6668">
        <ele>349</ele>
        <time>2013-02-08T09:38:11Z</time>
      </trkpt>
      <trkpt lat="44.73423" lon="4.66682">
        <ele>348</ele>
        <time>2013-02-08T09:38:13Z</time>
      </trkpt>
      <trkpt lat="44.73425" lon="4.66686">
        <ele>348</ele>
        <time>2013-02-08T09:38:17Z</time>
      </trkpt>
      <trkpt lat="44.73428" lon="4.66687">
        <ele>347</ele>
        <time>2013-02-08T09:38:19Z</time>
      </trkpt>
      <trkpt lat="44.73429" lon="4.66688">
        <ele>347</ele>
        <time>2013-02-08T09:38:21Z</time>
      </trkpt>
      <trkpt lat="44.73431" lon="4.6669">
        <ele>347</ele>
        <time>2013-02-08T09:38:23Z</time>
      </trkpt>
      <trkpt lat="44.73433" lon="4.66691">
        <ele>347</ele>
        <time>2013-02-08T09:38:25Z</time>
      </trkpt>
      <trkpt lat="44.73436" lon="4.66694">
        <ele>346</ele>
        <time>2013-02-08T09:38:29Z</time>
      </trkpt>
      <trkpt lat="44.73437" lon="4.66695">
        <ele>346</ele>
        <time>2013-02-08T09:38:43Z</time>
      </trkpt>
      <trkpt lat="44.7344" lon="4.667">
        <ele>345</ele>
        <time>2013-02-08T09:38:47Z</time>
      </trkpt>
      <trkpt lat="44.73443" lon="4.66703">
        <ele>345</ele>
        <time>2013-02-08T09:38:50Z</time>
      </trkpt>
      <trkpt lat="44.73445" lon="4.66704">
        <ele>345</ele>
        <time>2013-02-08T09:38:52Z</time>
      </trkpt>
      <trkpt lat="44.73448" lon="4.66706">
        <ele>345</ele>
        <time>2013-02-08T09:38:55Z</time>
      </trkpt>
      <trkpt lat="44.7345" lon="4.66707">
        <ele>345</ele>
        <time>2013-02-08T09:38:57Z</time>
      </trkpt>
      <trkpt lat="44.73452" lon="4.66708">
        <ele>345</ele>
        <time>2013-02-08T09:38:59Z</time>
      </trkpt>
      <trkpt lat="44.73455" lon="4.6671">
        <ele>344</ele>
        <time>2013-02-08T09:39:03Z</time>
      </trkpt>
      <trkpt lat="44.73457" lon="4.66711">
        <ele>344</ele>
        <time>2013-02-08T09:39:05Z</time>
      </trkpt>
      <trkpt lat="44.7346" lon="4.66714">
        <ele>344</ele>
        <time>2013-02-08T09:39:09Z</time>
      </trkpt>
      <trkpt lat="44.73463" lon="4.66717">
        <ele>344</ele>
        <time>2013-02-08T09:39:12Z</time>
      </trkpt>
      <trkpt lat="44.73466" lon="4.66719">
        <ele>344</ele>
        <time>2013-02-08T09:39:15Z</time>
      </trkpt>
      <trkpt lat="44.73469" lon="4.66722">
        <ele>343</ele>
        <time>2013-02-08T09:39:19Z</time>
      </trkpt>
      <trkpt lat="44.73471" lon="4.66724">
        <ele>343</ele>
        <time>2013-02-08T09:39:21Z</time>
      </trkpt>
      <trkpt lat="44.73475" lon="4.66726">
        <ele>343</ele>
        <time>2013-02-08T09:39:25Z</time>
      </trkpt>
      <trkpt lat="44.73478" lon="4.66728">
        <ele>343</ele>
        <time>2013-02-08T09:39:28Z</time>
      </trkpt>
      <trkpt lat="44.7348" lon="4.66731">
        <ele>342</ele>
        <time>2013-02-08T09:39:30Z</time>
      </trkpt>
      <trkpt lat="44.73481" lon="4.66733">
        <ele>342</ele>
        <time>2013-02-08T09:39:32Z</time>
      </trkpt>
      <trkpt lat="44.73484" lon="4.66733">
        <ele>342</ele>
        <time>2013-02-08T09:39:34Z</time>
      </trkpt>
      <trkpt lat="44.73486" lon="4.66734">
        <ele>342</ele>
        <time>2013-02-08T09:39:37Z</time>
      </trkpt>
      <trkpt lat="44.73489" lon="4.66734">
        <ele>341</ele>
        <time>2013-02-08T09:39:39Z</time>
      </trkpt>
      <trkpt lat="44.73492" lon="4.66735">
        <ele>341</ele>
        <time>2013-02-08T09:39:42Z</time>
      </trkpt>
      <trkpt lat="44.73495" lon="4.66736">
        <ele>341</ele>
        <time>2013-02-08T09:39:45Z</time>
      </trkpt>
      <trkpt lat="44.73498" lon="4.66736">
        <ele>341</ele>
        <time>2013-02-08T09:39:47Z</time>
      </trkpt>
      <trkpt lat="44.735" lon="4.66737">
        <ele>340</ele>
        <time>2013-02-08T09:39:49Z</time>
      </trkpt>
      <trkpt lat="44.73502" lon="4.66739">
        <ele>342</ele>
        <time>2013-02-08T09:39:51Z</time>
      </trkpt>
      <trkpt lat="44.73504" lon="4.66741">
        <ele>342</ele>
        <time>2013-02-08T09:39:53Z</time>
      </trkpt>
      <trkpt lat="44.73508" lon="4.66743">
        <ele>342</ele>
        <time>2013-02-08T09:39:56Z</time>
      </trkpt>
      <trkpt lat="44.7351" lon="4.66744">
        <ele>342</ele>
        <time>2013-02-08T09:39:58Z</time>
      </trkpt>
      <trkpt lat="44.73513" lon="4.66746">
        <ele>343</ele>
        <time>2013-02-08T09:40:06Z</time>
      </trkpt>
      <trkpt lat="44.73517" lon="4.66747">
        <ele>344</ele>
        <time>2013-02-08T09:40:09Z</time>
      </trkpt>
      <trkpt lat="44.73518" lon="4.66748">
        <ele>344</ele>
        <time>2013-02-08T09:40:11Z</time>
      </trkpt>
      <trkpt lat="44.73521" lon="4.66749">
        <ele>345</ele>
        <time>2013-02-08T09:40:13Z</time>
      </trkpt>
      <trkpt lat="44.73525" lon="4.6675">
        <ele>332</ele>
        <time>2013-02-08T09:40:16Z</time>
      </trkpt>
      <trkpt lat="44.73526" lon="4.66751">
        <ele>332</ele>
        <time>2013-02-08T09:40:18Z</time>
      </trkpt>
      <trkpt lat="44.7353" lon="4.66751">
        <ele>331</ele>
        <time>2013-02-08T09:40:21Z</time>
      </trkpt>
      <trkpt lat="44.73533" lon="4.66752">
        <ele>331</ele>
        <time>2013-02-08T09:40:24Z</time>
      </trkpt>
      <trkpt lat="44.73535" lon="4.66752">
        <ele>331</ele>
        <time>2013-02-08T09:40:26Z</time>
      </trkpt>
      <trkpt lat="44.73538" lon="4.66752">
        <ele>331</ele>
        <time>2013-02-08T09:40:28Z</time>
      </trkpt>
      <trkpt lat="44.7354" lon="4.66752">
        <ele>331</ele>
        <time>2013-02-08T09:40:30Z</time>
      </trkpt>
      <trkpt lat="44.73542" lon="4.66752">
        <ele>331</ele>
        <time>2013-02-08T09:40:32Z</time>
      </trkpt>
      <trkpt lat="44.73546" lon="4.66752">
        <ele>332</ele>
        <time>2013-02-08T09:40:35Z</time>
      </trkpt>
      <trkpt lat="44.73548" lon="4.66752">
        <ele>332</ele>
        <time>2013-02-08T09:40:37Z</time>
      </trkpt>
      <trkpt lat="44.73551" lon="4.66752">
        <ele>332</ele>
        <time>2013-02-08T09:40:40Z</time>
      </trkpt>
      <trkpt lat="44.73554" lon="4.66752">
        <ele>332</ele>
        <time>2013-02-08T09:40:42Z</time>
      </trkpt>
      <trkpt lat="44.73557" lon="4.66753">
        <ele>333</ele>
        <time>2013-02-08T09:40:45Z</time>
      </trkpt>
      <trkpt lat="44.73559" lon="4.66753">
        <ele>333</ele>
        <time>2013-02-08T09:40:47Z</time>
      </trkpt>
      <trkpt lat="44.73561" lon="4.66754">
        <ele>333</ele>
        <time>2013-02-08T09:40:49Z</time>
      </trkpt>
      <trkpt lat="44.73563" lon="4.66755">
        <ele>333</ele>
        <time>2013-02-08T09:40:51Z</time>
      </trkpt>
      <trkpt lat="44.73565" lon="4.66755">
        <ele>334</ele>
        <time>2013-02-08T09:40:53Z</time>
      </trkpt>
      <trkpt lat="44.73567" lon="4.66756">
        <ele>334</ele>
        <time>2013-02-08T09:40:55Z</time>
      </trkpt>
      <trkpt lat="44.7357" lon="4.66758">
        <ele>335</ele>
        <time>2013-02-08T09:40:57Z</time>
      </trkpt>
      <trkpt lat="44.73573" lon="4.6676">
        <ele>335</ele>
        <time>2013-02-08T09:41:01Z</time>
      </trkpt>
      <trkpt lat="44.73575" lon="4.66761">
        <ele>335</ele>
        <time>2013-02-08T09:41:03Z</time>
      </trkpt>
      <trkpt lat="44.73578" lon="4.66763">
        <ele>335</ele>
        <time>2013-02-08T09:41:06Z</time>
      </trkpt>
      <trkpt lat="44.73579" lon="4.66764">
        <ele>335</ele>
        <time>2013-02-08T09:41:08Z</time>
      </trkpt>
      <trkpt lat="44.73581" lon="4.66766">
        <ele>334</ele>
        <time>2013-02-08T09:41:10Z</time>
      </trkpt>
      <trkpt lat="44.73582" lon="4.66767">
        <ele>334</ele>
        <time>2013-02-08T09:41:12Z</time>
      </trkpt>
      <trkpt lat="44.73583" lon="4.66769">
        <ele>333</ele>
        <time>2013-02-08T09:41:14Z</time>
      </trkpt>
      <trkpt lat="44.73584" lon="4.66771">
        <ele>336</ele>
        <time>2013-02-08T09:41:17Z</time>
      </trkpt>
      <trkpt lat="44.73584" lon="4.66773">
        <ele>336</ele>
        <time>2013-02-08T09:41:19Z</time>
      </trkpt>
      <trkpt lat="44.73585" lon="4.66775">
        <ele>336</ele>
        <time>2013-02-08T09:41:21Z</time>
      </trkpt>
      <trkpt lat="44.73586" lon="4.66777">
        <ele>335</ele>
        <time>2013-02-08T09:41:23Z</time>
      </trkpt>
      <trkpt lat="44.73588" lon="4.66778">
        <ele>335</ele>
        <time>2013-02-08T09:41:25Z</time>
      </trkpt>
      <trkpt lat="44.73592" lon="4.6678">
        <ele>335</ele>
        <time>2013-02-08T09:41:28Z</time>
      </trkpt>
      <trkpt lat="44.73595" lon="4.6678">
        <ele>335</ele>
        <time>2013-02-08T09:41:30Z</time>
      </trkpt>
      <trkpt lat="44.73597" lon="4.6678">
        <ele>335</ele>
        <time>2013-02-08T09:41:32Z</time>
      </trkpt>
      <trkpt lat="44.73599" lon="4.6678">
        <ele>335</ele>
        <time>2013-02-08T09:41:34Z</time>
      </trkpt>
      <trkpt lat="44.73603" lon="4.66779">
        <ele>335</ele>
        <time>2013-02-08T09:41:37Z</time>
      </trkpt>
      <trkpt lat="44.73605" lon="4.66779">
        <ele>335</ele>
        <time>2013-02-08T09:41:39Z</time>
      </trkpt>
      <trkpt lat="44.73606" lon="4.6678">
        <ele>335</ele>
        <time>2013-02-08T09:41:49Z</time>
      </trkpt>
      <trkpt lat="44.73608" lon="4.6678">
        <ele>335</ele>
        <time>2013-02-08T09:41:51Z</time>
      </trkpt>
      <trkpt lat="44.7361" lon="4.6678">
        <ele>335</ele>
        <time>2013-02-08T09:41:53Z</time>
      </trkpt>
      <trkpt lat="44.73611" lon="4.66781">
        <ele>335</ele>
        <time>2013-02-08T09:41:56Z</time>
      </trkpt>
      <trkpt lat="44.73612" lon="4.66782">
        <ele>335</ele>
        <time>2013-02-08T09:42:00Z</time>
      </trkpt>
      <trkpt lat="44.73614" lon="4.66783">
        <ele>335</ele>
        <time>2013-02-08T09:42:03Z</time>
      </trkpt>
      <trkpt lat="44.73615" lon="4.66784">
        <ele>335</ele>
        <time>2013-02-08T09:42:05Z</time>
      </trkpt>
      <trkpt lat="44.73616" lon="4.66785">
        <ele>335</ele>
        <time>2013-02-08T09:42:09Z</time>
      </trkpt>
      <trkpt lat="44.73618" lon="4.66786">
        <ele>334</ele>
        <time>2013-02-08T09:42:13Z</time>
      </trkpt>
      <trkpt lat="44.73619" lon="4.66787">
        <ele>334</ele>
        <time>2013-02-08T09:42:15Z</time>
      </trkpt>
      <trkpt lat="44.7362" lon="4.66789">
        <ele>334</ele>
        <time>2013-02-08T09:42:18Z</time>
      </trkpt>
      <trkpt lat="44.73621" lon="4.6679">
        <ele>334</ele>
        <time>2013-02-08T09:42:21Z</time>
      </trkpt>
      <trkpt lat="44.73623" lon="4.66792">
        <ele>334</ele>
        <time>2013-02-08T09:42:25Z</time>
      </trkpt>
      <trkpt lat="44.73624" lon="4.66794">
        <ele>334</ele>
        <time>2013-02-08T09:42:28Z</time>
      </trkpt>
      <trkpt lat="44.73625" lon="4.66795">
        <ele>334</ele>
        <time>2013-02-08T09:42:32Z</time>
      </trkpt>
      <trkpt lat="44.73626" lon="4.66797">
        <ele>333</ele>
        <time>2013-02-08T09:42:36Z</time>
      </trkpt>
      <trkpt lat="44.73628" lon="4.66797">
        <ele>333</ele>
        <time>2013-02-08T09:42:38Z</time>
      </trkpt>
      <trkpt lat="44.73629" lon="4.66798">
        <ele>333</ele>
        <time>2013-02-08T09:42:41Z</time>
      </trkpt>
      <trkpt lat="44.7363" lon="4.668">
        <ele>333</ele>
        <time>2013-02-08T09:42:44Z</time>
      </trkpt>
      <trkpt lat="44.73631" lon="4.66802">
        <ele>333</ele>
        <time>2013-02-08T09:42:47Z</time>
      </trkpt>
      <trkpt lat="44.73632" lon="4.66804">
        <ele>333</ele>
        <time>2013-02-08T09:42:49Z</time>
      </trkpt>
      <trkpt lat="44.73633" lon="4.66806">
        <ele>332</ele>
        <time>2013-02-08T09:42:51Z</time>
      </trkpt>
      <trkpt lat="44.73634" lon="4.66808">
        <ele>332</ele>
        <time>2013-02-08T09:42:53Z</time>
      </trkpt>
      <trkpt lat="44.73635" lon="4.6681">
        <ele>332</ele>
        <time>2013-02-08T09:42:55Z</time>
      </trkpt>
      <trkpt lat="44.73636" lon="4.66812">
        <ele>332</ele>
        <time>2013-02-08T09:42:57Z</time>
      </trkpt>
      <trkpt lat="44.73639" lon="4.66814">
        <ele>332</ele>
        <time>2013-02-08T09:42:59Z</time>
      </trkpt>
      <trkpt lat="44.73641" lon="4.66816">
        <ele>332</ele>
        <time>2013-02-08T09:43:01Z</time>
      </trkpt>
      <trkpt lat="44.73642" lon="4.66818">
        <ele>331</ele>
        <time>2013-02-08T09:43:03Z</time>
      </trkpt>
      <trkpt lat="44.73645" lon="4.66821">
        <ele>331</ele>
        <time>2013-02-08T09:43:06Z</time>
      </trkpt>
      <trkpt lat="44.73648" lon="4.66823">
        <ele>331</ele>
        <time>2013-02-08T09:43:08Z</time>
      </trkpt>
      <trkpt lat="44.7365" lon="4.66825">
        <ele>330</ele>
        <time>2013-02-08T09:43:10Z</time>
      </trkpt>
      <trkpt lat="44.73651" lon="4.66827">
        <ele>330</ele>
        <time>2013-02-08T09:43:12Z</time>
      </trkpt>
      <trkpt lat="44.73654" lon="4.6683">
        <ele>330</ele>
        <time>2013-02-08T09:43:15Z</time>
      </trkpt>
      <trkpt lat="44.73656" lon="4.66832">
        <ele>329</ele>
        <time>2013-02-08T09:43:17Z</time>
      </trkpt>
      <trkpt lat="44.73658" lon="4.66835">
        <ele>324</ele>
        <time>2013-02-08T09:43:19Z</time>
      </trkpt>
      <trkpt lat="44.73658" lon="4.66838">
        <ele>324</ele>
        <time>2013-02-08T09:43:21Z</time>
      </trkpt>
      <trkpt lat="44.73659" lon="4.66841">
        <ele>324</ele>
        <time>2013-02-08T09:43:23Z</time>
      </trkpt>
      <trkpt lat="44.73661" lon="4.66844">
        <ele>323</ele>
        <time>2013-02-08T09:43:25Z</time>
      </trkpt>
      <trkpt lat="44.73662" lon="4.66846">
        <ele>323</ele>
        <time>2013-02-08T09:43:27Z</time>
      </trkpt>
      <trkpt lat="44.73662" lon="4.6685">
        <ele>322</ele>
        <time>2013-02-08T09:43:30Z</time>
      </trkpt>
      <trkpt lat="44.73663" lon="4.66852">
        <ele>322</ele>
        <time>2013-02-08T09:43:32Z</time>
      </trkpt>
      <trkpt lat="44.73664" lon="4.66855">
        <ele>321</ele>
        <time>2013-02-08T09:43:34Z</time>
      </trkpt>
      <trkpt lat="44.73665" lon="4.66857">
        <ele>321</ele>
        <time>2013-02-08T09:43:36Z</time>
      </trkpt>
      <trkpt lat="44.73666" lon="4.66861">
        <ele>321</ele>
        <time>2013-02-08T09:43:39Z</time>
      </trkpt>
      <trkpt lat="44.73667" lon="4.66865">
        <ele>323</ele>
        <time>2013-02-08T09:43:41Z</time>
      </trkpt>
      <trkpt lat="44.73668" lon="4.66867">
        <ele>323</ele>
        <time>2013-02-08T09:43:43Z</time>
      </trkpt>
      <trkpt lat="44.73669" lon="4.6687">
        <ele>322</ele>
        <time>2013-02-08T09:43:45Z</time>
      </trkpt>
      <trkpt lat="44.7367" lon="4.66873">
        <ele>322</ele>
        <time>2013-02-08T09:43:47Z</time>
      </trkpt>
      <trkpt lat="44.73671" lon="4.66876">
        <ele>322</ele>
        <time>2013-02-08T09:43:49Z</time>
      </trkpt>
      <trkpt lat="44.73672" lon="4.66879">
        <ele>322</ele>
        <time>2013-02-08T09:43:51Z</time>
      </trkpt>
      <trkpt lat="44.73673" lon="4.66883">
        <ele>321</ele>
        <time>2013-02-08T09:43:54Z</time>
      </trkpt>
      <trkpt lat="44.73673" lon="4.66885">
        <ele>321</ele>
        <time>2013-02-08T09:43:56Z</time>
      </trkpt>
      <trkpt lat="44.73674" lon="4.66888">
        <ele>321</ele>
        <time>2013-02-08T09:43:58Z</time>
      </trkpt>
      <trkpt lat="44.73674" lon="4.66891">
        <ele>321</ele>
        <time>2013-02-08T09:44:00Z</time>
      </trkpt>
      <trkpt lat="44.73673" lon="4.66895">
        <ele>320</ele>
        <time>2013-02-08T09:44:02Z</time>
      </trkpt>
      <trkpt lat="44.73672" lon="4.66899">
        <ele>320</ele>
        <time>2013-02-08T09:44:05Z</time>
      </trkpt>
      <trkpt lat="44.73672" lon="4.66902">
        <ele>320</ele>
        <time>2013-02-08T09:44:07Z</time>
      </trkpt>
      <trkpt lat="44.73671" lon="4.66902">
        <ele>320</ele>
        <time>2013-02-08T09:44:49Z</time>
      </trkpt>
      <trkpt lat="44.73671" lon="4.66905">
        <ele>319</ele>
        <time>2013-02-08T09:44:53Z</time>
      </trkpt>
      <trkpt lat="44.73672" lon="4.66907">
        <ele>319</ele>
        <time>2013-02-08T09:44:55Z</time>
      </trkpt>
      <trkpt lat="44.73673" lon="4.66909">
        <ele>319</ele>
        <time>2013-02-08T09:44:57Z</time>
      </trkpt>
      <trkpt lat="44.73674" lon="4.66911">
        <ele>319</ele>
        <time>2013-02-08T09:44:59Z</time>
      </trkpt>
      <trkpt lat="44.73675" lon="4.66913">
        <ele>319</ele>
        <time>2013-02-08T09:45:01Z</time>
      </trkpt>
      <trkpt lat="44.73675" lon="4.66915">
        <ele>319</ele>
        <time>2013-02-08T09:45:03Z</time>
      </trkpt>
      <trkpt lat="44.73676" lon="4.66913">
        <ele>319</ele>
        <time>2013-02-08T09:53:03Z</time>
      </trkpt>
      <trkpt lat="44.73677" lon="4.66913">
        <ele>319</ele>
        <time>2013-02-08T09:54:05Z</time>
      </trkpt>
      <trkpt lat="44.73678" lon="4.66915">
        <ele>319</ele>
        <time>2013-02-08T09:54:41Z</time>
      </trkpt>
      <trkpt lat="44.73679" lon="4.66916">
        <ele>319</ele>
        <time>2013-02-08T09:55:10Z</time>
      </trkpt>
      <trkpt lat="44.73679" lon="4.66921">
        <ele>317</ele>
        <time>2013-02-08T09:55:14Z</time>
      </trkpt>
      <trkpt lat="44.73679" lon="4.66923">
        <ele>317</ele>
        <time>2013-02-08T09:55:16Z</time>
      </trkpt>
      <trkpt lat="44.73681" lon="4.66927">
        <ele>317</ele>
        <time>2013-02-08T09:55:19Z</time>
      </trkpt>
      <trkpt lat="44.73681" lon="4.66929">
        <ele>317</ele>
        <time>2013-02-08T09:55:21Z</time>
      </trkpt>
      <trkpt lat="44.73682" lon="4.66933">
        <ele>317</ele>
        <time>2013-02-08T09:55:24Z</time>
      </trkpt>
      <trkpt lat="44.73682" lon="4.66937">
        <ele>317</ele>
        <time>2013-02-08T09:55:26Z</time>
      </trkpt>
      <trkpt lat="44.73681" lon="4.66942">
        <ele>317</ele>
        <time>2013-02-08T09:55:29Z</time>
      </trkpt>
      <trkpt lat="44.73681" lon="4.66945">
        <ele>317</ele>
        <time>2013-02-08T09:55:32Z</time>
      </trkpt>
      <trkpt lat="44.73682" lon="4.66945">
        <ele>317</ele>
        <time>2013-02-08T09:55:39Z</time>
      </trkpt>
      <trkpt lat="44.73682" lon="4.66947">
        <ele>317</ele>
        <time>2013-02-08T09:55:42Z</time>
      </trkpt>
      <trkpt lat="44.73682" lon="4.66949">
        <ele>317</ele>
        <time>2013-02-08T09:55:44Z</time>
      </trkpt>
      <trkpt lat="44.73681" lon="4.66955">
        <ele>318</ele>
        <time>2013-02-08T09:55:48Z</time>
      </trkpt>
      <trkpt lat="44.73681" lon="4.66958">
        <ele>318</ele>
        <time>2013-02-08T09:55:50Z</time>
      </trkpt>
      <trkpt lat="44.73681" lon="4.66962">
        <ele>318</ele>
        <time>2013-02-08T09:55:53Z</time>
      </trkpt>
      <trkpt lat="44.73681" lon="4.66964">
        <ele>318</ele>
        <time>2013-02-08T09:55:55Z</time>
      </trkpt>
      <trkpt lat="44.73681" lon="4.66967">
        <ele>318</ele>
        <time>2013-02-08T09:55:57Z</time>
      </trkpt>
      <trkpt lat="44.73681" lon="4.66971">
        <ele>318</ele>
        <time>2013-02-08T09:56:00Z</time>
      </trkpt>
      <trkpt lat="44.73681" lon="4.66975">
        <ele>318</ele>
        <time>2013-02-08T09:56:03Z</time>
      </trkpt>
      <trkpt lat="44.7368" lon="4.66978">
        <ele>319</ele>
        <time>2013-02-08T09:56:05Z</time>
      </trkpt>
      <trkpt lat="44.7368" lon="4.66983">
        <ele>319</ele>
        <time>2013-02-08T09:56:09Z</time>
      </trkpt>
      <trkpt lat="44.7368" lon="4.66986">
        <ele>319</ele>
        <time>2013-02-08T09:56:11Z</time>
      </trkpt>
      <trkpt lat="44.73681" lon="4.66988">
        <ele>319</ele>
        <time>2013-02-08T09:56:13Z</time>
      </trkpt>
      <trkpt lat="44.73681" lon="4.6699">
        <ele>319</ele>
        <time>2013-02-08T09:56:15Z</time>
      </trkpt>
      <trkpt lat="44.73681" lon="4.66992">
        <ele>319</ele>
        <time>2013-02-08T09:56:17Z</time>
      </trkpt>
      <trkpt lat="44.73681" lon="4.66996">
        <ele>320</ele>
        <time>2013-02-08T09:56:21Z</time>
      </trkpt>
      <trkpt lat="44.73681" lon="4.66998">
        <ele>320</ele>
        <time>2013-02-08T09:56:23Z</time>
      </trkpt>
      <trkpt lat="44.73681" lon="4.67">
        <ele>320</ele>
        <time>2013-02-08T09:56:25Z</time>
      </trkpt>
      <trkpt lat="44.73681" lon="4.67002">
        <ele>324</ele>
        <time>2013-02-08T09:56:27Z</time>
      </trkpt>
      <trkpt lat="44.73681" lon="4.67003">
        <ele>324</ele>
        <time>2013-02-08T09:56:29Z</time>
      </trkpt>
      <trkpt lat="44.73681" lon="4.67005">
        <ele>324</ele>
        <time>2013-02-08T09:56:34Z</time>
      </trkpt>
      <trkpt lat="44.73682" lon="4.67009">
        <ele>324</ele>
        <time>2013-02-08T09:56:38Z</time>
      </trkpt>
      <trkpt lat="44.73682" lon="4.6701">
        <ele>324</ele>
        <time>2013-02-08T09:56:40Z</time>
      </trkpt>
      <trkpt lat="44.73682" lon="4.67012">
        <ele>324</ele>
        <time>2013-02-08T09:56:43Z</time>
      </trkpt>
      <trkpt lat="44.73682" lon="4.67014">
        <ele>324</ele>
        <time>2013-02-08T09:56:45Z</time>
      </trkpt>
      <trkpt lat="44.73684" lon="4.67015">
        <ele>325</ele>
        <time>2013-02-08T09:56:48Z</time>
      </trkpt>
      <trkpt lat="44.73684" lon="4.67017">
        <ele>325</ele>
        <time>2013-02-08T09:56:50Z</time>
      </trkpt>
      <trkpt lat="44.73685" lon="4.67019">
        <ele>325</ele>
        <time>2013-02-08T09:56:53Z</time>
      </trkpt>
      <trkpt lat="44.73685" lon="4.6702">
        <ele>325</ele>
        <time>2013-02-08T09:56:55Z</time>
      </trkpt>
      <trkpt lat="44.73686" lon="4.67022">
        <ele>325</ele>
        <time>2013-02-08T09:56:57Z</time>
      </trkpt>
      <trkpt lat="44.73686" lon="4.67024">
        <ele>325</ele>
        <time>2013-02-08T09:56:59Z</time>
      </trkpt>
      <trkpt lat="44.73687" lon="4.67026">
        <ele>326</ele>
        <time>2013-02-08T09:57:01Z</time>
      </trkpt>
      <trkpt lat="44.73687" lon="4.6703">
        <ele>326</ele>
        <time>2013-02-08T09:57:05Z</time>
      </trkpt>
      <trkpt lat="44.73686" lon="4.67032">
        <ele>326</ele>
        <time>2013-02-08T09:57:07Z</time>
      </trkpt>
      <trkpt lat="44.73686" lon="4.67034">
        <ele>326</ele>
        <time>2013-02-08T09:57:09Z</time>
      </trkpt>
      <trkpt lat="44.73685" lon="4.67036">
        <ele>327</ele>
        <time>2013-02-08T09:57:11Z</time>
      </trkpt>
      <trkpt lat="44.73684" lon="4.67038">
        <ele>327</ele>
        <time>2013-02-08T09:57:13Z</time>
      </trkpt>
      <trkpt lat="44.73684" lon="4.67042">
        <ele>327</ele>
        <time>2013-02-08T09:57:17Z</time>
      </trkpt>
      <trkpt lat="44.73683" lon="4.67045">
        <ele>328</ele>
        <time>2013-02-08T09:57:19Z</time>
      </trkpt>
      <trkpt lat="44.73683" lon="4.67047">
        <ele>328</ele>
        <time>2013-02-08T09:57:21Z</time>
      </trkpt>
      <trkpt lat="44.73683" lon="4.67051">
        <ele>328</ele>
        <time>2013-02-08T09:57:24Z</time>
      </trkpt>
      <trkpt lat="44.73682" lon="4.67055">
        <ele>329</ele>
        <time>2013-02-08T09:57:28Z</time>
      </trkpt>
      <trkpt lat="44.73682" lon="4.67057">
        <ele>329</ele>
        <time>2013-02-08T09:57:30Z</time>
      </trkpt>
      <trkpt lat="44.73682" lon="4.67061">
        <ele>330</ele>
        <time>2013-02-08T09:57:33Z</time>
      </trkpt>
      <trkpt lat="44.73681" lon="4.67063">
        <ele>330</ele>
        <time>2013-02-08T09:57:35Z</time>
      </trkpt>
      <trkpt lat="44.73681" lon="4.67065">
        <ele>330</ele>
        <time>2013-02-08T09:57:37Z</time>
      </trkpt>
      <trkpt lat="44.7368" lon="4.67067">
        <ele>330</ele>
        <time>2013-02-08T09:57:39Z</time>
      </trkpt>
      <trkpt lat="44.7368" lon="4.67069">
        <ele>331</ele>
        <time>2013-02-08T09:57:41Z</time>
      </trkpt>
      <trkpt lat="44.73678" lon="4.67073">
        <ele>331</ele>
        <time>2013-02-08T09:57:45Z</time>
      </trkpt>
      <trkpt lat="44.73678" lon="4.67075">
        <ele>332</ele>
        <time>2013-02-08T09:57:47Z</time>
      </trkpt>
      <trkpt lat="44.73676" lon="4.67077">
        <ele>332</ele>
        <time>2013-02-08T09:58:02Z</time>
      </trkpt>
      <trkpt lat="44.73675" lon="4.67078">
        <ele>332</ele>
        <time>2013-02-08T09:58:05Z</time>
      </trkpt>
      <trkpt lat="44.73675" lon="4.6708">
        <ele>333</ele>
        <time>2013-02-08T09:58:07Z</time>
      </trkpt>
      <trkpt lat="44.73673" lon="4.67083">
        <ele>333</ele>
        <time>2013-02-08T09:58:11Z</time>
      </trkpt>
      <trkpt lat="44.73672" lon="4.67085">
        <ele>336</ele>
        <time>2013-02-08T09:58:13Z</time>
      </trkpt>
      <trkpt lat="44.73671" lon="4.67086">
        <ele>336</ele>
        <time>2013-02-08T09:58:15Z</time>
      </trkpt>
      <trkpt lat="44.7367" lon="4.67088">
        <ele>336</ele>
        <time>2013-02-08T09:58:17Z</time>
      </trkpt>
      <trkpt lat="44.73669" lon="4.6709">
        <ele>336</ele>
        <time>2013-02-08T09:58:19Z</time>
      </trkpt>
      <trkpt lat="44.73667" lon="4.67091">
        <ele>337</ele>
        <time>2013-02-08T09:58:22Z</time>
      </trkpt>
      <trkpt lat="44.73666" lon="4.67093">
        <ele>335</ele>
        <time>2013-02-08T09:58:25Z</time>
      </trkpt>
      <trkpt lat="44.73666" lon="4.67095">
        <ele>335</ele>
        <time>2013-02-08T09:58:28Z</time>
      </trkpt>
      <trkpt lat="44.73665" lon="4.67097">
        <ele>335</ele>
        <time>2013-02-08T09:58:31Z</time>
      </trkpt>
      <trkpt lat="44.73663" lon="4.67099">
        <ele>335</ele>
        <time>2013-02-08T09:58:33Z</time>
      </trkpt>
      <trkpt lat="44.73662" lon="4.67101">
        <ele>336</ele>
        <time>2013-02-08T09:58:35Z</time>
      </trkpt>
      <trkpt lat="44.73661" lon="4.67103">
        <ele>336</ele>
        <time>2013-02-08T09:58:37Z</time>
      </trkpt>
      <trkpt lat="44.7366" lon="4.67105">
        <ele>336</ele>
        <time>2013-02-08T09:58:39Z</time>
      </trkpt>
      <trkpt lat="44.73658" lon="4.67107">
        <ele>336</ele>
        <time>2013-02-08T09:58:41Z</time>
      </trkpt>
      <trkpt lat="44.73658" lon="4.67109">
        <ele>336</ele>
        <time>2013-02-08T09:58:43Z</time>
      </trkpt>
      <trkpt lat="44.73657" lon="4.67112">
        <ele>336</ele>
        <time>2013-02-08T09:58:45Z</time>
      </trkpt>
      <trkpt lat="44.73656" lon="4.67114">
        <ele>336</ele>
        <time>2013-02-08T09:58:47Z</time>
      </trkpt>
      <trkpt lat="44.73655" lon="4.67116">
        <ele>336</ele>
        <time>2013-02-08T09:58:49Z</time>
      </trkpt>
      <trkpt lat="44.73653" lon="4.6712">
        <ele>336</ele>
        <time>2013-02-08T09:58:57Z</time>
      </trkpt>
      <trkpt lat="44.73652" lon="4.67122">
        <ele>337</ele>
        <time>2013-02-08T09:58:59Z</time>
      </trkpt>
      <trkpt lat="44.7365" lon="4.67124">
        <ele>337</ele>
        <time>2013-02-08T09:59:01Z</time>
      </trkpt>
      <trkpt lat="44.73649" lon="4.67126">
        <ele>337</ele>
        <time>2013-02-08T09:59:03Z</time>
      </trkpt>
      <trkpt lat="44.73648" lon="4.67128">
        <ele>337</ele>
        <time>2013-02-08T09:59:05Z</time>
      </trkpt>
      <trkpt lat="44.73646" lon="4.67129">
        <ele>337</ele>
        <time>2013-02-08T09:59:08Z</time>
      </trkpt>
      <trkpt lat="44.73645" lon="4.67131">
        <ele>337</ele>
        <time>2013-02-08T09:59:10Z</time>
      </trkpt>
      <trkpt lat="44.73644" lon="4.67133">
        <ele>337</ele>
        <time>2013-02-08T09:59:12Z</time>
      </trkpt>
      <trkpt lat="44.73643" lon="4.67135">
        <ele>337</ele>
        <time>2013-02-08T09:59:14Z</time>
      </trkpt>
      <trkpt lat="44.73642" lon="4.67137">
        <ele>337</ele>
        <time>2013-02-08T09:59:16Z</time>
      </trkpt>
      <trkpt lat="44.73641" lon="4.67139">
        <ele>337</ele>
        <time>2013-02-08T09:59:18Z</time>
      </trkpt>
      <trkpt lat="44.7364" lon="4.67141">
        <ele>337</ele>
        <time>2013-02-08T09:59:20Z</time>
      </trkpt>
      <trkpt lat="44.73639" lon="4.67144">
        <ele>338</ele>
        <time>2013-02-08T09:59:22Z</time>
      </trkpt>
      <trkpt lat="44.73637" lon="4.67146">
        <ele>338</ele>
        <time>2013-02-08T09:59:24Z</time>
      </trkpt>
      <trkpt lat="44.73636" lon="4.67147">
        <ele>338</ele>
        <time>2013-02-08T09:59:26Z</time>
      </trkpt>
      <trkpt lat="44.73634" lon="4.67149">
        <ele>338</ele>
        <time>2013-02-08T09:59:28Z</time>
      </trkpt>
      <trkpt lat="44.73632" lon="4.67151">
        <ele>338</ele>
        <time>2013-02-08T09:59:30Z</time>
      </trkpt>
      <trkpt lat="44.73631" lon="4.67152">
        <ele>337</ele>
        <time>2013-02-08T09:59:32Z</time>
      </trkpt>
      <trkpt lat="44.73629" lon="4.67154">
        <ele>337</ele>
        <time>2013-02-08T09:59:34Z</time>
      </trkpt>
      <trkpt lat="44.73627" lon="4.67156">
        <ele>337</ele>
        <time>2013-02-08T09:59:36Z</time>
      </trkpt>
      <trkpt lat="44.73626" lon="4.67159">
        <ele>337</ele>
        <time>2013-02-08T09:59:38Z</time>
      </trkpt>
      <trkpt lat="44.73625" lon="4.67161">
        <ele>337</ele>
        <time>2013-02-08T09:59:40Z</time>
      </trkpt>
      <trkpt lat="44.73624" lon="4.67164">
        <ele>337</ele>
        <time>2013-02-08T09:59:42Z</time>
      </trkpt>
      <trkpt lat="44.73624" lon="4.67168">
        <ele>344</ele>
        <time>2013-02-08T09:59:45Z</time>
      </trkpt>
      <trkpt lat="44.73624" lon="4.67171">
        <ele>344</ele>
        <time>2013-02-08T09:59:47Z</time>
      </trkpt>
      <trkpt lat="44.73624" lon="4.67174">
        <ele>344</ele>
        <time>2013-02-08T09:59:49Z</time>
      </trkpt>
      <trkpt lat="44.73624" lon="4.67177">
        <ele>344</ele>
        <time>2013-02-08T09:59:51Z</time>
      </trkpt>
      <trkpt lat="44.73624" lon="4.6718">
        <ele>344</ele>
        <time>2013-02-08T09:59:53Z</time>
      </trkpt>
      <trkpt lat="44.73624" lon="4.67184">
        <ele>344</ele>
        <time>2013-02-08T09:59:55Z</time>
      </trkpt>
      <trkpt lat="44.73624" lon="4.67187">
        <ele>344</ele>
        <time>2013-02-08T09:59:57Z</time>
      </trkpt>
      <trkpt lat="44.73625" lon="4.6719">
        <ele>344</ele>
        <time>2013-02-08T09:59:59Z</time>
      </trkpt>
      <trkpt lat="44.73625" lon="4.67193">
        <ele>345</ele>
        <time>2013-02-08T10:00:01Z</time>
      </trkpt>
      <trkpt lat="44.73626" lon="4.67197">
        <ele>345</ele>
        <time>2013-02-08T10:00:04Z</time>
      </trkpt>
      <trkpt lat="44.73626" lon="4.67201">
        <ele>345</ele>
        <time>2013-02-08T10:00:06Z</time>
      </trkpt>
      <trkpt lat="44.73626" lon="4.67203">
        <ele>345</ele>
        <time>2013-02-08T10:00:08Z</time>
      </trkpt>
      <trkpt lat="44.73626" lon="4.67206">
        <ele>345</ele>
        <time>2013-02-08T10:00:10Z</time>
      </trkpt>
      <trkpt lat="44.73626" lon="4.67209">
        <ele>346</ele>
        <time>2013-02-08T10:00:12Z</time>
      </trkpt>
      <trkpt lat="44.73625" lon="4.67212">
        <ele>346</ele>
        <time>2013-02-08T10:00:14Z</time>
      </trkpt>
      <trkpt lat="44.73625" lon="4.67214">
        <ele>346</ele>
        <time>2013-02-08T10:00:16Z</time>
      </trkpt>
      <trkpt lat="44.73625" lon="4.67217">
        <ele>346</ele>
        <time>2013-02-08T10:00:18Z</time>
      </trkpt>
      <trkpt lat="44.73625" lon="4.6722">
        <ele>346</ele>
        <time>2013-02-08T10:00:20Z</time>
      </trkpt>
      <trkpt lat="44.73624" lon="4.67222">
        <ele>346</ele>
        <time>2013-02-08T10:00:22Z</time>
      </trkpt>
      <trkpt lat="44.73624" lon="4.67223">
        <ele>346</ele>
        <time>2013-02-08T10:00:24Z</time>
      </trkpt>
      <trkpt lat="44.73624" lon="4.67225">
        <ele>346</ele>
        <time>2013-02-08T10:00:26Z</time>
      </trkpt>
      <trkpt lat="44.73624" lon="4.67227">
        <ele>347</ele>
        <time>2013-02-08T10:00:28Z</time>
      </trkpt>
      <trkpt lat="44.73624" lon="4.67229">
        <ele>347</ele>
        <time>2013-02-08T10:00:30Z</time>
      </trkpt>
      <trkpt lat="44.73624" lon="4.67232">
        <ele>347</ele>
        <time>2013-02-08T10:00:32Z</time>
      </trkpt>
      <trkpt lat="44.73624" lon="4.67234">
        <ele>347</ele>
        <time>2013-02-08T10:00:34Z</time>
      </trkpt>
      <trkpt lat="44.73624" lon="4.67237">
        <ele>347</ele>
        <time>2013-02-08T10:00:36Z</time>
      </trkpt>
      <trkpt lat="44.73624" lon="4.67239">
        <ele>347</ele>
        <time>2013-02-08T10:00:38Z</time>
      </trkpt>
      <trkpt lat="44.73624" lon="4.67241">
        <ele>347</ele>
        <time>2013-02-08T10:00:40Z</time>
      </trkpt>
      <trkpt lat="44.73625" lon="4.67245">
        <ele>347</ele>
        <time>2013-02-08T10:00:43Z</time>
      </trkpt>
      <trkpt lat="44.73625" lon="4.67247">
        <ele>347</ele>
        <time>2013-02-08T10:00:45Z</time>
      </trkpt>
      <trkpt lat="44.73625" lon="4.67249">
        <ele>347</ele>
        <time>2013-02-08T10:00:47Z</time>
      </trkpt>
      <trkpt lat="44.73625" lon="4.67251">
        <ele>353</ele>
        <time>2013-02-08T10:00:49Z</time>
      </trkpt>
      <trkpt lat="44.73626" lon="4.67253">
        <ele>353</ele>
        <time>2013-02-08T10:00:51Z</time>
      </trkpt>
      <trkpt lat="44.73626" lon="4.67256">
        <ele>353</ele>
        <time>2013-02-08T10:00:53Z</time>
      </trkpt>
      <trkpt lat="44.73626" lon="4.67258">
        <ele>353</ele>
        <time>2013-02-08T10:00:55Z</time>
      </trkpt>
      <trkpt lat="44.73626" lon="4.6726">
        <ele>353</ele>
        <time>2013-02-08T10:00:57Z</time>
      </trkpt>
      <trkpt lat="44.73626" lon="4.67262">
        <ele>353</ele>
        <time>2013-02-08T10:00:59Z</time>
      </trkpt>
      <trkpt lat="44.73626" lon="4.67264">
        <ele>353</ele>
        <time>2013-02-08T10:01:01Z</time>
      </trkpt>
      <trkpt lat="44.73626" lon="4.67266">
        <ele>353</ele>
        <time>2013-02-08T10:01:03Z</time>
      </trkpt>
      <trkpt lat="44.73626" lon="4.67268">
        <ele>353</ele>
        <time>2013-02-08T10:01:05Z</time>
      </trkpt>
      <trkpt lat="44.73626" lon="4.67271">
        <ele>353</ele>
        <time>2013-02-08T10:01:07Z</time>
      </trkpt>
      <trkpt lat="44.73626" lon="4.67273">
        <ele>353</ele>
        <time>2013-02-08T10:01:09Z</time>
      </trkpt>
      <trkpt lat="44.73625" lon="4.67276">
        <ele>353</ele>
        <time>2013-02-08T10:01:11Z</time>
      </trkpt>
      <trkpt lat="44.73625" lon="4.67278">
        <ele>353</ele>
        <time>2013-02-08T10:01:13Z</time>
      </trkpt>
      <trkpt lat="44.73625" lon="4.6728">
        <ele>354</ele>
        <time>2013-02-08T10:01:15Z</time>
      </trkpt>
      <trkpt lat="44.73626" lon="4.67282">
        <ele>354</ele>
        <time>2013-02-08T10:01:17Z</time>
      </trkpt>
      <trkpt lat="44.73626" lon="4.67285">
        <ele>354</ele>
        <time>2013-02-08T10:01:19Z</time>
      </trkpt>
      <trkpt lat="44.73626" lon="4.67287">
        <ele>354</ele>
        <time>2013-02-08T10:01:21Z</time>
      </trkpt>
      <trkpt lat="44.73626" lon="4.67289">
        <ele>354</ele>
        <time>2013-02-08T10:01:23Z</time>
      </trkpt>
      <trkpt lat="44.73626" lon="4.67291">
        <ele>354</ele>
        <time>2013-02-08T10:01:25Z</time>
      </trkpt>
      <trkpt lat="44.73626" lon="4.67293">
        <ele>354</ele>
        <time>2013-02-08T10:01:27Z</time>
      </trkpt>
      <trkpt lat="44.73626" lon="4.67296">
        <ele>354</ele>
        <time>2013-02-08T10:01:29Z</time>
      </trkpt>
      <trkpt lat="44.73626" lon="4.67298">
        <ele>354</ele>
        <time>2013-02-08T10:01:31Z</time>
      </trkpt>
      <trkpt lat="44.73625" lon="4.673">
        <ele>354</ele>
        <time>2013-02-08T10:01:33Z</time>
      </trkpt>
      <trkpt lat="44.73625" lon="4.67302">
        <ele>354</ele>
        <time>2013-02-08T10:01:35Z</time>
      </trkpt>
      <trkpt lat="44.73625" lon="4.67304">
        <ele>355</ele>
        <time>2013-02-08T10:01:37Z</time>
      </trkpt>
      <trkpt lat="44.73625" lon="4.67307">
        <ele>355</ele>
        <time>2013-02-08T10:01:39Z</time>
      </trkpt>
      <trkpt lat="44.73624" lon="4.67309">
        <ele>355</ele>
        <time>2013-02-08T10:01:41Z</time>
      </trkpt>
      <trkpt lat="44.73623" lon="4.67311">
        <ele>355</ele>
        <time>2013-02-08T10:01:43Z</time>
      </trkpt>
      <trkpt lat="44.73622" lon="4.67312">
        <ele>355</ele>
        <time>2013-02-08T10:01:46Z</time>
      </trkpt>
      <trkpt lat="44.73622" lon="4.67314">
        <ele>355</ele>
        <time>2013-02-08T10:01:54Z</time>
      </trkpt>
      <trkpt lat="44.73621" lon="4.67316">
        <ele>355</ele>
        <time>2013-02-08T10:01:56Z</time>
      </trkpt>
      <trkpt lat="44.73621" lon="4.6732">
        <ele>355</ele>
        <time>2013-02-08T10:01:59Z</time>
      </trkpt>
      <trkpt lat="44.73621" lon="4.67323">
        <ele>355</ele>
        <time>2013-02-08T10:02:01Z</time>
      </trkpt>
      <trkpt lat="44.7362" lon="4.67326">
        <ele>355</ele>
        <time>2013-02-08T10:02:03Z</time>
      </trkpt>
      <trkpt lat="44.7362" lon="4.67329">
        <ele>355</ele>
        <time>2013-02-08T10:02:05Z</time>
      </trkpt>
      <trkpt lat="44.7362" lon="4.67331">
        <ele>355</ele>
        <time>2013-02-08T10:02:07Z</time>
      </trkpt>
      <trkpt lat="44.7362" lon="4.67334">
        <ele>358</ele>
        <time>2013-02-08T10:02:09Z</time>
      </trkpt>
      <trkpt lat="44.7362" lon="4.67336">
        <ele>358</ele>
        <time>2013-02-08T10:02:11Z</time>
      </trkpt>
      <trkpt lat="44.7362" lon="4.67339">
        <ele>358</ele>
        <time>2013-02-08T10:02:13Z</time>
      </trkpt>
      <trkpt lat="44.7362" lon="4.67341">
        <ele>358</ele>
        <time>2013-02-08T10:02:15Z</time>
      </trkpt>
      <trkpt lat="44.7362" lon="4.67344">
        <ele>358</ele>
        <time>2013-02-08T10:02:17Z</time>
      </trkpt>
      <trkpt lat="44.73619" lon="4.67346">
        <ele>358</ele>
        <time>2013-02-08T10:02:19Z</time>
      </trkpt>
      <trkpt lat="44.73618" lon="4.67349">
        <ele>358</ele>
        <time>2013-02-08T10:02:21Z</time>
      </trkpt>
      <trkpt lat="44.73618" lon="4.6735">
        <ele>358</ele>
        <time>2013-02-08T10:02:39Z</time>
      </trkpt>
      <trkpt lat="44.73619" lon="4.67349">
        <ele>358</ele>
        <time>2013-02-08T10:03:30Z</time>
      </trkpt>
      <trkpt lat="44.73618" lon="4.67351">
        <ele>358</ele>
        <time>2013-02-08T10:04:13Z</time>
      </trkpt>
      <trkpt lat="44.73616" lon="4.67352">
        <ele>358</ele>
        <time>2013-02-08T10:04:15Z</time>
      </trkpt>
      <trkpt lat="44.73615" lon="4.67355">
        <ele>358</ele>
        <time>2013-02-08T10:04:17Z</time>
      </trkpt>
      <trkpt lat="44.73614" lon="4.67357">
        <ele>358</ele>
        <time>2013-02-08T10:04:19Z</time>
      </trkpt>
      <trkpt lat="44.73613" lon="4.6736">
        <ele>358</ele>
        <time>2013-02-08T10:04:21Z</time>
      </trkpt>
      <trkpt lat="44.73613" lon="4.67362">
        <ele>358</ele>
        <time>2013-02-08T10:04:23Z</time>
      </trkpt>
      <trkpt lat="44.73612" lon="4.67364">
        <ele>358</ele>
        <time>2013-02-08T10:04:25Z</time>
      </trkpt>
      <trkpt lat="44.73612" lon="4.67367">
        <ele>358</ele>
        <time>2013-02-08T10:04:27Z</time>
      </trkpt>
      <trkpt lat="44.73611" lon="4.6737">
        <ele>358</ele>
        <time>2013-02-08T10:04:29Z</time>
      </trkpt>
      <trkpt lat="44.7361" lon="4.67374">
        <ele>358</ele>
        <time>2013-02-08T10:04:32Z</time>
      </trkpt>
      <trkpt lat="44.73609" lon="4.67376">
        <ele>358</ele>
        <time>2013-02-08T10:04:34Z</time>
      </trkpt>
      <trkpt lat="44.73608" lon="4.67378">
        <ele>358</ele>
        <time>2013-02-08T10:04:38Z</time>
      </trkpt>
      <trkpt lat="44.73608" lon="4.67381">
        <ele>358</ele>
        <time>2013-02-08T10:04:40Z</time>
      </trkpt>
      <trkpt lat="44.73607" lon="4.67383">
        <ele>358</ele>
        <time>2013-02-08T10:04:42Z</time>
      </trkpt>
      <trkpt lat="44.73606" lon="4.67387">
        <ele>359</ele>
        <time>2013-02-08T10:04:44Z</time>
      </trkpt>
      <trkpt lat="44.73605" lon="4.67389">
        <ele>359</ele>
        <time>2013-02-08T10:04:46Z</time>
      </trkpt>
      <trkpt lat="44.73604" lon="4.67392">
        <ele>359</ele>
        <time>2013-02-08T10:04:48Z</time>
      </trkpt>
      <trkpt lat="44.73603" lon="4.67395">
        <ele>359</ele>
        <time>2013-02-08T10:04:50Z</time>
      </trkpt>
      <trkpt lat="44.73602" lon="4.67398">
        <ele>359</ele>
        <time>2013-02-08T10:04:52Z</time>
      </trkpt>
      <trkpt lat="44.73601" lon="4.67401">
        <ele>359</ele>
        <time>2013-02-08T10:04:54Z</time>
      </trkpt>
      <trkpt lat="44.736" lon="4.67404">
        <ele>359</ele>
        <time>2013-02-08T10:04:56Z</time>
      </trkpt>
      <trkpt lat="44.73599" lon="4.67406">
        <ele>359</ele>
        <time>2013-02-08T10:04:58Z</time>
      </trkpt>
      <trkpt lat="44.73598" lon="4.67409">
        <ele>359</ele>
        <time>2013-02-08T10:05:00Z</time>
      </trkpt>
      <trkpt lat="44.73597" lon="4.67412">
        <ele>359</ele>
        <time>2013-02-08T10:05:02Z</time>
      </trkpt>
      <trkpt lat="44.73596" lon="4.67414">
        <ele>359</ele>
        <time>2013-02-08T10:05:04Z</time>
      </trkpt>
      <trkpt lat="44.73595" lon="4.67417">
        <ele>359</ele>
        <time>2013-02-08T10:05:06Z</time>
      </trkpt>
      <trkpt lat="44.73593" lon="4.67419">
        <ele>360</ele>
        <time>2013-02-08T10:05:08Z</time>
      </trkpt>
      <trkpt lat="44.73592" lon="4.67421">
        <ele>360</ele>
        <time>2013-02-08T10:05:10Z</time>
      </trkpt>
      <trkpt lat="44.73591" lon="4.67423">
        <ele>360</ele>
        <time>2013-02-08T10:05:12Z</time>
      </trkpt>
      <trkpt lat="44.7359" lon="4.67425">
        <ele>360</ele>
        <time>2013-02-08T10:05:14Z</time>
      </trkpt>
      <trkpt lat="44.73589" lon="4.67427">
        <ele>360</ele>
        <time>2013-02-08T10:05:16Z</time>
      </trkpt>
      <trkpt lat="44.73589" lon="4.6743">
        <ele>359</ele>
        <time>2013-02-08T10:05:18Z</time>
      </trkpt>
      <trkpt lat="44.73588" lon="4.67432">
        <ele>359</ele>
        <time>2013-02-08T10:05:20Z</time>
      </trkpt>
      <trkpt lat="44.73587" lon="4.67435">
        <ele>359</ele>
        <time>2013-02-08T10:05:22Z</time>
      </trkpt>
      <trkpt lat="44.73586" lon="4.67438">
        <ele>359</ele>
        <time>2013-02-08T10:05:24Z</time>
      </trkpt>
      <trkpt lat="44.73586" lon="4.6744">
        <ele>359</ele>
        <time>2013-02-08T10:05:26Z</time>
      </trkpt>
      <trkpt lat="44.73585" lon="4.67443">
        <ele>359</ele>
        <time>2013-02-08T10:05:28Z</time>
      </trkpt>
      <trkpt lat="44.73585" lon="4.67446">
        <ele>359</ele>
        <time>2013-02-08T10:05:30Z</time>
      </trkpt>
      <trkpt lat="44.73584" lon="4.67449">
        <ele>359</ele>
        <time>2013-02-08T10:05:32Z</time>
      </trkpt>
      <trkpt lat="44.73584" lon="4.67453">
        <ele>359</ele>
        <time>2013-02-08T10:05:34Z</time>
      </trkpt>
      <trkpt lat="44.73584" lon="4.67455">
        <ele>359</ele>
        <time>2013-02-08T10:05:36Z</time>
      </trkpt>
      <trkpt lat="44.73584" lon="4.67459">
        <ele>359</ele>
        <time>2013-02-08T10:05:38Z</time>
      </trkpt>
      <trkpt lat="44.73584" lon="4.67463">
        <ele>359</ele>
        <time>2013-02-08T10:05:40Z</time>
      </trkpt>
      <trkpt lat="44.73583" lon="4.67466">
        <ele>360</ele>
        <time>2013-02-08T10:05:42Z</time>
      </trkpt>
      <trkpt lat="44.73583" lon="4.6747">
        <ele>360</ele>
        <time>2013-02-08T10:05:44Z</time>
      </trkpt>
      <trkpt lat="44.73583" lon="4.67473">
        <ele>360</ele>
        <time>2013-02-08T10:05:46Z</time>
      </trkpt>
      <trkpt lat="44.73583" lon="4.67477">
        <ele>360</ele>
        <time>2013-02-08T10:05:48Z</time>
      </trkpt>
      <trkpt lat="44.73583" lon="4.6748">
        <ele>360</ele>
        <time>2013-02-08T10:05:50Z</time>
      </trkpt>
      <trkpt lat="44.73584" lon="4.67484">
        <ele>359</ele>
        <time>2013-02-08T10:05:52Z</time>
      </trkpt>
      <trkpt lat="44.73584" lon="4.67487">
        <ele>360</ele>
        <time>2013-02-08T10:05:54Z</time>
      </trkpt>
      <trkpt lat="44.73584" lon="4.6749">
        <ele>360</ele>
        <time>2013-02-08T10:05:56Z</time>
      </trkpt>
      <trkpt lat="44.73584" lon="4.67494">
        <ele>360</ele>
        <time>2013-02-08T10:05:58Z</time>
      </trkpt>
      <trkpt lat="44.73584" lon="4.67497">
        <ele>360</ele>
        <time>2013-02-08T10:06:00Z</time>
      </trkpt>
      <trkpt lat="44.73584" lon="4.675">
        <ele>360</ele>
        <time>2013-02-08T10:06:02Z</time>
      </trkpt>
      <trkpt lat="44.73585" lon="4.67504">
        <ele>360</ele>
        <time>2013-02-08T10:06:04Z</time>
      </trkpt>
      <trkpt lat="44.73584" lon="4.67508">
        <ele>360</ele>
        <time>2013-02-08T10:06:06Z</time>
      </trkpt>
      <trkpt lat="44.73584" lon="4.67511">
        <ele>360</ele>
        <time>2013-02-08T10:06:08Z</time>
      </trkpt>
      <trkpt lat="44.73584" lon="4.67514">
        <ele>360</ele>
        <time>2013-02-08T10:06:10Z</time>
      </trkpt>
      <trkpt lat="44.73585" lon="4.67518">
        <ele>360</ele>
        <time>2013-02-08T10:06:12Z</time>
      </trkpt>
      <trkpt lat="44.73584" lon="4.67522">
        <ele>360</ele>
        <time>2013-02-08T10:06:14Z</time>
      </trkpt>
      <trkpt lat="44.73584" lon="4.67525">
        <ele>360</ele>
        <time>2013-02-08T10:06:16Z</time>
      </trkpt>
      <trkpt lat="44.73584" lon="4.67528">
        <ele>360</ele>
        <time>2013-02-08T10:06:18Z</time>
      </trkpt>
      <trkpt lat="44.73585" lon="4.67532">
        <ele>360</ele>
        <time>2013-02-08T10:06:20Z</time>
      </trkpt>
      <trkpt lat="44.73585" lon="4.67535">
        <ele>360</ele>
        <time>2013-02-08T10:06:22Z</time>
      </trkpt>
      <trkpt lat="44.73585" lon="4.67538">
        <ele>360</ele>
        <time>2013-02-08T10:06:24Z</time>
      </trkpt>
      <trkpt lat="44.73584" lon="4.67542">
        <ele>361</ele>
        <time>2013-02-08T10:06:26Z</time>
      </trkpt>
      <trkpt lat="44.73584" lon="4.67545">
        <ele>361</ele>
        <time>2013-02-08T10:06:28Z</time>
      </trkpt>
      <trkpt lat="44.73584" lon="4.67548">
        <ele>361</ele>
        <time>2013-02-08T10:06:30Z</time>
      </trkpt>
      <trkpt lat="44.73584" lon="4.67552">
        <ele>361</ele>
        <time>2013-02-08T10:06:32Z</time>
      </trkpt>
      <trkpt lat="44.73584" lon="4.67556">
        <ele>361</ele>
        <time>2013-02-08T10:06:35Z</time>
      </trkpt>
      <trkpt lat="44.73584" lon="4.67559">
        <ele>361</ele>
        <time>2013-02-08T10:06:37Z</time>
      </trkpt>
      <trkpt lat="44.73584" lon="4.67562">
        <ele>361</ele>
        <time>2013-02-08T10:06:39Z</time>
      </trkpt>
      <trkpt lat="44.73585" lon="4.67565">
        <ele>361</ele>
        <time>2013-02-08T10:06:41Z</time>
      </trkpt>
      <trkpt lat="44.73585" lon="4.67569">
        <ele>362</ele>
        <time>2013-02-08T10:06:43Z</time>
      </trkpt>
      <trkpt lat="44.73586" lon="4.67572">
        <ele>362</ele>
        <time>2013-02-08T10:06:45Z</time>
      </trkpt>
      <trkpt lat="44.73586" lon="4.67575">
        <ele>362</ele>
        <time>2013-02-08T10:06:47Z</time>
      </trkpt>
      <trkpt lat="44.73587" lon="4.67578">
        <ele>362</ele>
        <time>2013-02-08T10:06:49Z</time>
      </trkpt>
      <trkpt lat="44.73588" lon="4.67582">
        <ele>362</ele>
        <time>2013-02-08T10:06:52Z</time>
      </trkpt>
      <trkpt lat="44.73589" lon="4.67587">
        <ele>363</ele>
        <time>2013-02-08T10:06:55Z</time>
      </trkpt>
      <trkpt lat="44.73591" lon="4.67591">
        <ele>362</ele>
        <time>2013-02-08T10:06:58Z</time>
      </trkpt>
      <trkpt lat="44.73592" lon="4.67593">
        <ele>362</ele>
        <time>2013-02-08T10:07:00Z</time>
      </trkpt>
      <trkpt lat="44.73592" lon="4.67595">
        <ele>362</ele>
        <time>2013-02-08T10:07:03Z</time>
      </trkpt>
      <trkpt lat="44.73593" lon="4.67598">
        <ele>362</ele>
        <time>2013-02-08T10:07:05Z</time>
      </trkpt>
      <trkpt lat="44.73594" lon="4.67601">
        <ele>362</ele>
        <time>2013-02-08T10:07:07Z</time>
      </trkpt>
      <trkpt lat="44.73594" lon="4.67603">
        <ele>362</ele>
        <time>2013-02-08T10:07:09Z</time>
      </trkpt>
      <trkpt lat="44.73595" lon="4.67606">
        <ele>362</ele>
        <time>2013-02-08T10:07:11Z</time>
      </trkpt>
      <trkpt lat="44.73595" lon="4.67609">
        <ele>362</ele>
        <time>2013-02-08T10:07:14Z</time>
      </trkpt>
      <trkpt lat="44.73596" lon="4.67612">
        <ele>362</ele>
        <time>2013-02-08T10:07:16Z</time>
      </trkpt>
      <trkpt lat="44.73596" lon="4.67615">
        <ele>362</ele>
        <time>2013-02-08T10:07:18Z</time>
      </trkpt>
      <trkpt lat="44.73596" lon="4.67616">
        <ele>362</ele>
        <time>2013-02-08T10:07:20Z</time>
      </trkpt>
      <trkpt lat="44.73597" lon="4.67619">
        <ele>362</ele>
        <time>2013-02-08T10:07:22Z</time>
      </trkpt>
      <trkpt lat="44.73597" lon="4.67621">
        <ele>362</ele>
        <time>2013-02-08T10:07:24Z</time>
      </trkpt>
      <trkpt lat="44.73597" lon="4.67624">
        <ele>362</ele>
        <time>2013-02-08T10:07:26Z</time>
      </trkpt>
      <trkpt lat="44.73596" lon="4.67628">
        <ele>362</ele>
        <time>2013-02-08T10:07:28Z</time>
      </trkpt>
      <trkpt lat="44.73597" lon="4.67631">
        <ele>362</ele>
        <time>2013-02-08T10:07:30Z</time>
      </trkpt>
      <trkpt lat="44.73597" lon="4.67635">
        <ele>362</ele>
        <time>2013-02-08T10:07:33Z</time>
      </trkpt>
      <trkpt lat="44.73597" lon="4.67638">
        <ele>362</ele>
        <time>2013-02-08T10:07:35Z</time>
      </trkpt>
      <trkpt lat="44.73597" lon="4.67641">
        <ele>361</ele>
        <time>2013-02-08T10:07:37Z</time>
      </trkpt>
      <trkpt lat="44.73597" lon="4.67644">
        <ele>361</ele>
        <time>2013-02-08T10:07:39Z</time>
      </trkpt>
      <trkpt lat="44.73597" lon="4.67647">
        <ele>361</ele>
        <time>2013-02-08T10:07:41Z</time>
      </trkpt>
      <trkpt lat="44.73596" lon="4.67651">
        <ele>361</ele>
        <time>2013-02-08T10:07:44Z</time>
      </trkpt>
      <trkpt lat="44.73594" lon="4.67655">
        <ele>361</ele>
        <time>2013-02-08T10:07:47Z</time>
      </trkpt>
      <trkpt lat="44.73594" lon="4.67657">
        <ele>361</ele>
        <time>2013-02-08T10:08:00Z</time>
      </trkpt>
      <trkpt lat="44.73594" lon="4.67659">
        <ele>361</ele>
        <time>2013-02-08T10:08:02Z</time>
      </trkpt>
      <trkpt lat="44.73594" lon="4.67661">
        <ele>361</ele>
        <time>2013-02-08T10:08:04Z</time>
      </trkpt>
      <trkpt lat="44.73593" lon="4.67663">
        <ele>361</ele>
        <time>2013-02-08T10:08:06Z</time>
      </trkpt>
      <trkpt lat="44.73593" lon="4.67665">
        <ele>361</ele>
        <time>2013-02-08T10:08:26Z</time>
      </trkpt>
      <trkpt lat="44.73593" lon="4.67668">
        <ele>361</ele>
        <time>2013-02-08T10:08:28Z</time>
      </trkpt>
      <trkpt lat="44.73592" lon="4.6767">
        <ele>361</ele>
        <time>2013-02-08T10:08:30Z</time>
      </trkpt>
      <trkpt lat="44.73592" lon="4.67673">
        <ele>361</ele>
        <time>2013-02-08T10:08:32Z</time>
      </trkpt>
      <trkpt lat="44.73592" lon="4.67677">
        <ele>361</ele>
        <time>2013-02-08T10:08:35Z</time>
      </trkpt>
      <trkpt lat="44.73592" lon="4.6768">
        <ele>361</ele>
        <time>2013-02-08T10:08:37Z</time>
      </trkpt>
      <trkpt lat="44.73593" lon="4.67685">
        <ele>361</ele>
        <time>2013-02-08T10:08:40Z</time>
      </trkpt>
      <trkpt lat="44.73593" lon="4.67688">
        <ele>360</ele>
        <time>2013-02-08T10:08:42Z</time>
      </trkpt>
      <trkpt lat="44.73592" lon="4.67691">
        <ele>360</ele>
        <time>2013-02-08T10:08:44Z</time>
      </trkpt>
      <trkpt lat="44.73592" lon="4.67694">
        <ele>360</ele>
        <time>2013-02-08T10:08:46Z</time>
      </trkpt>
      <trkpt lat="44.73592" lon="4.67696">
        <ele>360</ele>
        <time>2013-02-08T10:08:48Z</time>
      </trkpt>
      <trkpt lat="44.73591" lon="4.677">
        <ele>360</ele>
        <time>2013-02-08T10:08:51Z</time>
      </trkpt>
      <trkpt lat="44.73591" lon="4.67703">
        <ele>360</ele>
        <time>2013-02-08T10:08:53Z</time>
      </trkpt>
      <trkpt lat="44.7359" lon="4.67706">
        <ele>360</ele>
        <time>2013-02-08T10:08:55Z</time>
      </trkpt>
      <trkpt lat="44.7359" lon="4.67709">
        <ele>360</ele>
        <time>2013-02-08T10:08:57Z</time>
      </trkpt>
      <trkpt lat="44.7359" lon="4.67712">
        <ele>360</ele>
        <time>2013-02-08T10:08:59Z</time>
      </trkpt>
      <trkpt lat="44.7359" lon="4.67715">
        <ele>360</ele>
        <time>2013-02-08T10:09:01Z</time>
      </trkpt>
      <trkpt lat="44.7359" lon="4.67719">
        <ele>360</ele>
        <time>2013-02-08T10:09:04Z</time>
      </trkpt>
      <trkpt lat="44.73591" lon="4.67723">
        <ele>360</ele>
        <time>2013-02-08T10:09:06Z</time>
      </trkpt>
      <trkpt lat="44.73591" lon="4.67726">
        <ele>359</ele>
        <time>2013-02-08T10:09:08Z</time>
      </trkpt>
      <trkpt lat="44.73592" lon="4.67729">
        <ele>359</ele>
        <time>2013-02-08T10:09:10Z</time>
      </trkpt>
      <trkpt lat="44.73593" lon="4.67732">
        <ele>359</ele>
        <time>2013-02-08T10:09:12Z</time>
      </trkpt>
      <trkpt lat="44.73594" lon="4.67735">
        <ele>359</ele>
        <time>2013-02-08T10:09:14Z</time>
      </trkpt>
      <trkpt lat="44.73594" lon="4.67737">
        <ele>359</ele>
        <time>2013-02-08T10:09:16Z</time>
      </trkpt>
      <trkpt lat="44.73595" lon="4.6774">
        <ele>359</ele>
        <time>2013-02-08T10:09:18Z</time>
      </trkpt>
      <trkpt lat="44.73595" lon="4.67742">
        <ele>359</ele>
        <time>2013-02-08T10:09:20Z</time>
      </trkpt>
      <trkpt lat="44.73596" lon="4.67744">
        <ele>359</ele>
        <time>2013-02-08T10:09:22Z</time>
      </trkpt>
      <trkpt lat="44.73597" lon="4.67747">
        <ele>359</ele>
        <time>2013-02-08T10:09:24Z</time>
      </trkpt>
      <trkpt lat="44.73597" lon="4.6775">
        <ele>359</ele>
        <time>2013-02-08T10:09:26Z</time>
      </trkpt>
      <trkpt lat="44.73599" lon="4.67753">
        <ele>358</ele>
        <time>2013-02-08T10:09:28Z</time>
      </trkpt>
      <trkpt lat="44.73599" lon="4.67756">
        <ele>358</ele>
        <time>2013-02-08T10:09:30Z</time>
      </trkpt>
      <trkpt lat="44.73599" lon="4.67759">
        <ele>358</ele>
        <time>2013-02-08T10:09:32Z</time>
      </trkpt>
      <trkpt lat="44.736" lon="4.67762">
        <ele>358</ele>
        <time>2013-02-08T10:09:34Z</time>
      </trkpt>
      <trkpt lat="44.736" lon="4.67766">
        <ele>358</ele>
        <time>2013-02-08T10:09:36Z</time>
      </trkpt>
      <trkpt lat="44.736" lon="4.67769">
        <ele>358</ele>
        <time>2013-02-08T10:09:38Z</time>
      </trkpt>
      <trkpt lat="44.73599" lon="4.67772">
        <ele>358</ele>
        <time>2013-02-08T10:09:40Z</time>
      </trkpt>
      <trkpt lat="44.73599" lon="4.67776">
        <ele>358</ele>
        <time>2013-02-08T10:09:42Z</time>
      </trkpt>
      <trkpt lat="44.73599" lon="4.67779">
        <ele>357</ele>
        <time>2013-02-08T10:09:44Z</time>
      </trkpt>
      <trkpt lat="44.73599" lon="4.67782">
        <ele>357</ele>
        <time>2013-02-08T10:09:46Z</time>
      </trkpt>
      <trkpt lat="44.73598" lon="4.67785">
        <ele>357</ele>
        <time>2013-02-08T10:09:48Z</time>
      </trkpt>
      <trkpt lat="44.73597" lon="4.67789">
        <ele>357</ele>
        <time>2013-02-08T10:09:51Z</time>
      </trkpt>
      <trkpt lat="44.73597" lon="4.67791">
        <ele>357</ele>
        <time>2013-02-08T10:09:53Z</time>
      </trkpt>
      <trkpt lat="44.73597" lon="4.67794">
        <ele>357</ele>
        <time>2013-02-08T10:09:55Z</time>
      </trkpt>
      <trkpt lat="44.73597" lon="4.67797">
        <ele>357</ele>
        <time>2013-02-08T10:09:57Z</time>
      </trkpt>
      <trkpt lat="44.73596" lon="4.67802">
        <ele>357</ele>
        <time>2013-02-08T10:10:00Z</time>
      </trkpt>
      <trkpt lat="44.73596" lon="4.67805">
        <ele>357</ele>
        <time>2013-02-08T10:10:02Z</time>
      </trkpt>
      <trkpt lat="44.73596" lon="4.67808">
        <ele>357</ele>
        <time>2013-02-08T10:10:04Z</time>
      </trkpt>
      <trkpt lat="44.73595" lon="4.67812">
        <ele>357</ele>
        <time>2013-02-08T10:10:07Z</time>
      </trkpt>
      <trkpt lat="44.73595" lon="4.67814">
        <ele>357</ele>
        <time>2013-02-08T10:10:10Z</time>
      </trkpt>
      <trkpt lat="44.73594" lon="4.67817">
        <ele>356</ele>
        <time>2013-02-08T10:10:12Z</time>
      </trkpt>
      <trkpt lat="44.73594" lon="4.67819">
        <ele>356</ele>
        <time>2013-02-08T10:10:14Z</time>
      </trkpt>
      <trkpt lat="44.73594" lon="4.67822">
        <ele>356</ele>
        <time>2013-02-08T10:10:16Z</time>
      </trkpt>
      <trkpt lat="44.73594" lon="4.67824">
        <ele>356</ele>
        <time>2013-02-08T10:10:18Z</time>
      </trkpt>
      <trkpt lat="44.73594" lon="4.67827">
        <ele>356</ele>
        <time>2013-02-08T10:10:20Z</time>
      </trkpt>
      <trkpt lat="44.73593" lon="4.6783">
        <ele>356</ele>
        <time>2013-02-08T10:10:22Z</time>
      </trkpt>
      <trkpt lat="44.73593" lon="4.67833">
        <ele>356</ele>
        <time>2013-02-08T10:10:24Z</time>
      </trkpt>
      <trkpt lat="44.73592" lon="4.67836">
        <ele>355</ele>
        <time>2013-02-08T10:10:26Z</time>
      </trkpt>
      <trkpt lat="44.73592" lon="4.67839">
        <ele>355</ele>
        <time>2013-02-08T10:10:28Z</time>
      </trkpt>
      <trkpt lat="44.73592" lon="4.67843">
        <ele>355</ele>
        <time>2013-02-08T10:10:31Z</time>
      </trkpt>
      <trkpt lat="44.73593" lon="4.67846">
        <ele>355</ele>
        <time>2013-02-08T10:10:33Z</time>
      </trkpt>
      <trkpt lat="44.73592" lon="4.67849">
        <ele>355</ele>
        <time>2013-02-08T10:10:35Z</time>
      </trkpt>
      <trkpt lat="44.73592" lon="4.67852">
        <ele>355</ele>
        <time>2013-02-08T10:10:38Z</time>
      </trkpt>
      <trkpt lat="44.73591" lon="4.67856">
        <ele>355</ele>
        <time>2013-02-08T10:10:40Z</time>
      </trkpt>
      <trkpt lat="44.73591" lon="4.67858">
        <ele>355</ele>
        <time>2013-02-08T10:10:42Z</time>
      </trkpt>
      <trkpt lat="44.73591" lon="4.67861">
        <ele>355</ele>
        <time>2013-02-08T10:10:44Z</time>
      </trkpt>
      <trkpt lat="44.73591" lon="4.67863">
        <ele>355</ele>
        <time>2013-02-08T10:10:46Z</time>
      </trkpt>
      <trkpt lat="44.73591" lon="4.67866">
        <ele>355</ele>
        <time>2013-02-08T10:10:48Z</time>
      </trkpt>
      <trkpt lat="44.7359" lon="4.67869">
        <ele>355</ele>
        <time>2013-02-08T10:10:50Z</time>
      </trkpt>
      <trkpt lat="44.7359" lon="4.67872">
        <ele>355</ele>
        <time>2013-02-08T10:10:52Z</time>
      </trkpt>
      <trkpt lat="44.73589" lon="4.67875">
        <ele>354</ele>
        <time>2013-02-08T10:10:54Z</time>
      </trkpt>
      <trkpt lat="44.73589" lon="4.67878">
        <ele>354</ele>
        <time>2013-02-08T10:10:56Z</time>
      </trkpt>
      <trkpt lat="44.73588" lon="4.67882">
        <ele>354</ele>
        <time>2013-02-08T10:10:59Z</time>
      </trkpt>
      <trkpt lat="44.73588" lon="4.67886">
        <ele>354</ele>
        <time>2013-02-08T10:11:01Z</time>
      </trkpt>
      <trkpt lat="44.73587" lon="4.6789">
        <ele>354</ele>
        <time>2013-02-08T10:11:04Z</time>
      </trkpt>
      <trkpt lat="44.73587" lon="4.67892">
        <ele>354</ele>
        <time>2013-02-08T10:11:06Z</time>
      </trkpt>
      <trkpt lat="44.73586" lon="4.67896">
        <ele>354</ele>
        <time>2013-02-08T10:11:09Z</time>
      </trkpt>
      <trkpt lat="44.73586" lon="4.67898">
        <ele>354</ele>
        <time>2013-02-08T10:11:11Z</time>
      </trkpt>
      <trkpt lat="44.73586" lon="4.679">
        <ele>354</ele>
        <time>2013-02-08T10:11:13Z</time>
      </trkpt>
      <trkpt lat="44.73586" lon="4.67903">
        <ele>354</ele>
        <time>2013-02-08T10:11:15Z</time>
      </trkpt>
      <trkpt lat="44.73585" lon="4.67905">
        <ele>354</ele>
        <time>2013-02-08T10:11:17Z</time>
      </trkpt>
      <trkpt lat="44.73585" lon="4.67908">
        <ele>353</ele>
        <time>2013-02-08T10:11:19Z</time>
      </trkpt>
      <trkpt lat="44.73584" lon="4.67911">
        <ele>353</ele>
        <time>2013-02-08T10:11:21Z</time>
      </trkpt>
      <trkpt lat="44.73584" lon="4.67914">
        <ele>353</ele>
        <time>2013-02-08T10:11:23Z</time>
      </trkpt>
      <trkpt lat="44.73585" lon="4.67916">
        <ele>353</ele>
        <time>2013-02-08T10:11:25Z</time>
      </trkpt>
      <trkpt lat="44.73585" lon="4.67918">
        <ele>353</ele>
        <time>2013-02-08T10:11:27Z</time>
      </trkpt>
      <trkpt lat="44.73586" lon="4.67919">
        <ele>353</ele>
        <time>2013-02-08T10:11:36Z</time>
      </trkpt>
      <trkpt lat="44.73587" lon="4.6792">
        <ele>352</ele>
        <time>2013-02-08T10:12:22Z</time>
      </trkpt>
      <trkpt lat="44.73589" lon="4.67921">
        <ele>352</ele>
        <time>2013-02-08T10:12:59Z</time>
      </trkpt>
      <trkpt lat="44.73588" lon="4.67923">
        <ele>352</ele>
        <time>2013-02-08T10:13:26Z</time>
      </trkpt>
      <trkpt lat="44.73588" lon="4.67921">
        <ele>352</ele>
        <time>2013-02-08T10:14:02Z</time>
      </trkpt>
      <trkpt lat="44.73589" lon="4.67922">
        <ele>352</ele>
        <time>2013-02-08T10:14:08Z</time>
      </trkpt>
      <trkpt lat="44.73591" lon="4.67923">
        <ele>352</ele>
        <time>2013-02-08T10:14:18Z</time>
      </trkpt>
      <trkpt lat="44.73592" lon="4.67924">
        <ele>352</ele>
        <time>2013-02-08T10:14:22Z</time>
      </trkpt>
      <trkpt lat="44.73593" lon="4.67925">
        <ele>352</ele>
        <time>2013-02-08T10:14:25Z</time>
      </trkpt>
      <trkpt lat="44.73594" lon="4.67926">
        <ele>352</ele>
        <time>2013-02-08T10:14:27Z</time>
      </trkpt>
      <trkpt lat="44.73596" lon="4.67926">
        <ele>352</ele>
        <time>2013-02-08T10:14:29Z</time>
      </trkpt>
      <trkpt lat="44.73597" lon="4.67926">
        <ele>351</ele>
        <time>2013-02-08T10:14:31Z</time>
      </trkpt>
      <trkpt lat="44.73599" lon="4.67926">
        <ele>351</ele>
        <time>2013-02-08T10:14:33Z</time>
      </trkpt>
      <trkpt lat="44.736" lon="4.67927">
        <ele>351</ele>
        <time>2013-02-08T10:14:35Z</time>
      </trkpt>
      <trkpt lat="44.73601" lon="4.67927">
        <ele>351</ele>
        <time>2013-02-08T10:14:37Z</time>
      </trkpt>
      <trkpt lat="44.73602" lon="4.67928">
        <ele>351</ele>
        <time>2013-02-08T10:14:39Z</time>
      </trkpt>
      <trkpt lat="44.73604" lon="4.67928">
        <ele>351</ele>
        <time>2013-02-08T10:14:41Z</time>
      </trkpt>
      <trkpt lat="44.73605" lon="4.67929">
        <ele>351</ele>
        <time>2013-02-08T10:14:43Z</time>
      </trkpt>
      <trkpt lat="44.73606" lon="4.67929">
        <ele>351</ele>
        <time>2013-02-08T10:14:45Z</time>
      </trkpt>
      <trkpt lat="44.73608" lon="4.6793">
        <ele>351</ele>
        <time>2013-02-08T10:14:48Z</time>
      </trkpt>
      <trkpt lat="44.73609" lon="4.6793">
        <ele>351</ele>
        <time>2013-02-08T10:14:51Z</time>
      </trkpt>
      <trkpt lat="44.7361" lon="4.6793">
        <ele>351</ele>
        <time>2013-02-08T10:14:53Z</time>
      </trkpt>
      <trkpt lat="44.73612" lon="4.67931">
        <ele>351</ele>
        <time>2013-02-08T10:14:56Z</time>
      </trkpt>
      <trkpt lat="44.73613" lon="4.67931">
        <ele>351</ele>
        <time>2013-02-08T10:14:58Z</time>
      </trkpt>
      <trkpt lat="44.73615" lon="4.67932">
        <ele>351</ele>
        <time>2013-02-08T10:15:00Z</time>
      </trkpt>
      <trkpt lat="44.73617" lon="4.67933">
        <ele>351</ele>
        <time>2013-02-08T10:15:02Z</time>
      </trkpt>
      <trkpt lat="44.73618" lon="4.67933">
        <ele>351</ele>
        <time>2013-02-08T10:15:04Z</time>
      </trkpt>
      <trkpt lat="44.7362" lon="4.67934">
        <ele>351</ele>
        <time>2013-02-08T10:15:06Z</time>
      </trkpt>
      <trkpt lat="44.73622" lon="4.67934">
        <ele>351</ele>
        <time>2013-02-08T10:15:08Z</time>
      </trkpt>
      <trkpt lat="44.73624" lon="4.67935">
        <ele>351</ele>
        <time>2013-02-08T10:15:10Z</time>
      </trkpt>
      <trkpt lat="44.73625" lon="4.67936">
        <ele>351</ele>
        <time>2013-02-08T10:15:12Z</time>
      </trkpt>
      <trkpt lat="44.73626" lon="4.67936">
        <ele>351</ele>
        <time>2013-02-08T10:15:14Z</time>
      </trkpt>
      <trkpt lat="44.73629" lon="4.67937">
        <ele>351</ele>
        <time>2013-02-08T10:15:16Z</time>
      </trkpt>
      <trkpt lat="44.73631" lon="4.67937">
        <ele>351</ele>
        <time>2013-02-08T10:15:18Z</time>
      </trkpt>
      <trkpt lat="44.73634" lon="4.67938">
        <ele>351</ele>
        <time>2013-02-08T10:15:21Z</time>
      </trkpt>
      <trkpt lat="44.73636" lon="4.67938">
        <ele>351</ele>
        <time>2013-02-08T10:15:23Z</time>
      </trkpt>
      <trkpt lat="44.73637" lon="4.67938">
        <ele>351</ele>
        <time>2013-02-08T10:15:25Z</time>
      </trkpt>
      <trkpt lat="44.73639" lon="4.67938">
        <ele>351</ele>
        <time>2013-02-08T10:15:27Z</time>
      </trkpt>
      <trkpt lat="44.73641" lon="4.67939">
        <ele>351</ele>
        <time>2013-02-08T10:15:29Z</time>
      </trkpt>
      <trkpt lat="44.73643" lon="4.67938">
        <ele>351</ele>
        <time>2013-02-08T10:15:31Z</time>
      </trkpt>
      <trkpt lat="44.73645" lon="4.67938">
        <ele>351</ele>
        <time>2013-02-08T10:15:33Z</time>
      </trkpt>
      <trkpt lat="44.73648" lon="4.67939">
        <ele>351</ele>
        <time>2013-02-08T10:15:36Z</time>
      </trkpt>
      <trkpt lat="44.7365" lon="4.67939">
        <ele>351</ele>
        <time>2013-02-08T10:15:38Z</time>
      </trkpt>
      <trkpt lat="44.73653" lon="4.6794">
        <ele>351</ele>
        <time>2013-02-08T10:15:41Z</time>
      </trkpt>
      <trkpt lat="44.73654" lon="4.6794">
        <ele>351</ele>
        <time>2013-02-08T10:15:43Z</time>
      </trkpt>
      <trkpt lat="44.73656" lon="4.6794">
        <ele>351</ele>
        <time>2013-02-08T10:15:46Z</time>
      </trkpt>
      <trkpt lat="44.73658" lon="4.6794">
        <ele>351</ele>
        <time>2013-02-08T10:15:48Z</time>
      </trkpt>
      <trkpt lat="44.73661" lon="4.67941">
        <ele>351</ele>
        <time>2013-02-08T10:15:51Z</time>
      </trkpt>
      <trkpt lat="44.73663" lon="4.67941">
        <ele>351</ele>
        <time>2013-02-08T10:15:53Z</time>
      </trkpt>
      <trkpt lat="44.73665" lon="4.67942">
        <ele>351</ele>
        <time>2013-02-08T10:15:55Z</time>
      </trkpt>
      <trkpt lat="44.73666" lon="4.67943">
        <ele>351</ele>
        <time>2013-02-08T10:15:57Z</time>
      </trkpt>
      <trkpt lat="44.73668" lon="4.67944">
        <ele>352</ele>
        <time>2013-02-08T10:15:59Z</time>
      </trkpt>
      <trkpt lat="44.73669" lon="4.67945">
        <ele>352</ele>
        <time>2013-02-08T10:16:01Z</time>
      </trkpt>
      <trkpt lat="44.73671" lon="4.67945">
        <ele>352</ele>
        <time>2013-02-08T10:16:03Z</time>
      </trkpt>
      <trkpt lat="44.73673" lon="4.67945">
        <ele>352</ele>
        <time>2013-02-08T10:16:05Z</time>
      </trkpt>
      <trkpt lat="44.73674" lon="4.67946">
        <ele>352</ele>
        <time>2013-02-08T10:16:07Z</time>
      </trkpt>
      <trkpt lat="44.73676" lon="4.67946">
        <ele>352</ele>
        <time>2013-02-08T10:16:10Z</time>
      </trkpt>
      <trkpt lat="44.73677" lon="4.67946">
        <ele>352</ele>
        <time>2013-02-08T10:16:13Z</time>
      </trkpt>
      <trkpt lat="44.73679" lon="4.67947">
        <ele>352</ele>
        <time>2013-02-08T10:16:15Z</time>
      </trkpt>
      <trkpt lat="44.73681" lon="4.67948">
        <ele>352</ele>
        <time>2013-02-08T10:16:17Z</time>
      </trkpt>
      <trkpt lat="44.73682" lon="4.67948">
        <ele>352</ele>
        <time>2013-02-08T10:16:19Z</time>
      </trkpt>
      <trkpt lat="44.73684" lon="4.67949">
        <ele>352</ele>
        <time>2013-02-08T10:16:21Z</time>
      </trkpt>
      <trkpt lat="44.73685" lon="4.6795">
        <ele>352</ele>
        <time>2013-02-08T10:16:23Z</time>
      </trkpt>
      <trkpt lat="44.73687" lon="4.67951">
        <ele>352</ele>
        <time>2013-02-08T10:16:25Z</time>
      </trkpt>
      <trkpt lat="44.73689" lon="4.67951">
        <ele>352</ele>
        <time>2013-02-08T10:16:27Z</time>
      </trkpt>
      <trkpt lat="44.7369" lon="4.67952">
        <ele>352</ele>
        <time>2013-02-08T10:16:29Z</time>
      </trkpt>
      <trkpt lat="44.73692" lon="4.67952">
        <ele>352</ele>
        <time>2013-02-08T10:16:31Z</time>
      </trkpt>
      <trkpt lat="44.73694" lon="4.67953">
        <ele>352</ele>
        <time>2013-02-08T10:16:33Z</time>
      </trkpt>
      <trkpt lat="44.73696" lon="4.67953">
        <ele>352</ele>
        <time>2013-02-08T10:16:35Z</time>
      </trkpt>
      <trkpt lat="44.73698" lon="4.67954">
        <ele>352</ele>
        <time>2013-02-08T10:16:37Z</time>
      </trkpt>
      <trkpt lat="44.737" lon="4.67955">
        <ele>352</ele>
        <time>2013-02-08T10:16:39Z</time>
      </trkpt>
      <trkpt lat="44.73701" lon="4.67955">
        <ele>351</ele>
        <time>2013-02-08T10:16:41Z</time>
      </trkpt>
      <trkpt lat="44.73703" lon="4.67956">
        <ele>352</ele>
        <time>2013-02-08T10:16:43Z</time>
      </trkpt>
      <trkpt lat="44.73704" lon="4.67956">
        <ele>352</ele>
        <time>2013-02-08T10:16:45Z</time>
      </trkpt>
      <trkpt lat="44.73706" lon="4.67957">
        <ele>352</ele>
        <time>2013-02-08T10:16:47Z</time>
      </trkpt>
      <trkpt lat="44.73708" lon="4.67956">
        <ele>352</ele>
        <time>2013-02-08T10:16:49Z</time>
      </trkpt>
      <trkpt lat="44.73709" lon="4.67956">
        <ele>352</ele>
        <time>2013-02-08T10:16:51Z</time>
      </trkpt>
      <trkpt lat="44.73711" lon="4.67956">
        <ele>352</ele>
        <time>2013-02-08T10:16:53Z</time>
      </trkpt>
      <trkpt lat="44.73713" lon="4.67956">
        <ele>352</ele>
        <time>2013-02-08T10:16:55Z</time>
      </trkpt>
      <trkpt lat="44.73715" lon="4.67957">
        <ele>352</ele>
        <time>2013-02-08T10:16:57Z</time>
      </trkpt>
      <trkpt lat="44.73716" lon="4.67958">
        <ele>352</ele>
        <time>2013-02-08T10:16:59Z</time>
      </trkpt>
      <trkpt lat="44.73718" lon="4.67958">
        <ele>352</ele>
        <time>2013-02-08T10:17:01Z</time>
      </trkpt>
      <trkpt lat="44.7372" lon="4.67958">
        <ele>352</ele>
        <time>2013-02-08T10:17:03Z</time>
      </trkpt>
      <trkpt lat="44.73722" lon="4.67958">
        <ele>352</ele>
        <time>2013-02-08T10:17:05Z</time>
      </trkpt>
      <trkpt lat="44.73724" lon="4.67958">
        <ele>352</ele>
        <time>2013-02-08T10:17:07Z</time>
      </trkpt>
      <trkpt lat="44.73727" lon="4.67959">
        <ele>352</ele>
        <time>2013-02-08T10:17:09Z</time>
      </trkpt>
      <trkpt lat="44.73729" lon="4.6796">
        <ele>352</ele>
        <time>2013-02-08T10:17:11Z</time>
      </trkpt>
      <trkpt lat="44.73731" lon="4.67961">
        <ele>352</ele>
        <time>2013-02-08T10:17:13Z</time>
      </trkpt>
      <trkpt lat="44.73733" lon="4.67961">
        <ele>352</ele>
        <time>2013-02-08T10:17:15Z</time>
      </trkpt>
      <trkpt lat="44.73736" lon="4.67963">
        <ele>352</ele>
        <time>2013-02-08T10:17:18Z</time>
      </trkpt>
      <trkpt lat="44.7374" lon="4.67964">
        <ele>352</ele>
        <time>2013-02-08T10:17:21Z</time>
      </trkpt>
      <trkpt lat="44.73742" lon="4.67964">
        <ele>352</ele>
        <time>2013-02-08T10:17:23Z</time>
      </trkpt>
      <trkpt lat="44.73744" lon="4.67965">
        <ele>352</ele>
        <time>2013-02-08T10:17:25Z</time>
      </trkpt>
      <trkpt lat="44.73746" lon="4.67966">
        <ele>352</ele>
        <time>2013-02-08T10:17:27Z</time>
      </trkpt>
      <trkpt lat="44.73748" lon="4.67967">
        <ele>352</ele>
        <time>2013-02-08T10:17:29Z</time>
      </trkpt>
      <trkpt lat="44.73752" lon="4.67968">
        <ele>353</ele>
        <time>2013-02-08T10:17:32Z</time>
      </trkpt>
      <trkpt lat="44.73754" lon="4.67969">
        <ele>353</ele>
        <time>2013-02-08T10:17:34Z</time>
      </trkpt>
      <trkpt lat="44.73757" lon="4.6797">
        <ele>353</ele>
        <time>2013-02-08T10:17:37Z</time>
      </trkpt>
      <trkpt lat="44.73759" lon="4.67971">
        <ele>353</ele>
        <time>2013-02-08T10:17:39Z</time>
      </trkpt>
      <trkpt lat="44.73761" lon="4.67972">
        <ele>353</ele>
        <time>2013-02-08T10:17:41Z</time>
      </trkpt>
      <trkpt lat="44.73764" lon="4.67972">
        <ele>353</ele>
        <time>2013-02-08T10:17:43Z</time>
      </trkpt>
      <trkpt lat="44.73766" lon="4.67973">
        <ele>353</ele>
        <time>2013-02-08T10:17:45Z</time>
      </trkpt>
      <trkpt lat="44.73769" lon="4.67974">
        <ele>353</ele>
        <time>2013-02-08T10:17:48Z</time>
      </trkpt>
      <trkpt lat="44.73772" lon="4.67975">
        <ele>353</ele>
        <time>2013-02-08T10:17:51Z</time>
      </trkpt>
      <trkpt lat="44.73774" lon="4.67976">
        <ele>353</ele>
        <time>2013-02-08T10:17:53Z</time>
      </trkpt>
      <trkpt lat="44.73778" lon="4.67978">
        <ele>353</ele>
        <time>2013-02-08T10:17:56Z</time>
      </trkpt>
      <trkpt lat="44.7378" lon="4.67979">
        <ele>353</ele>
        <time>2013-02-08T10:17:58Z</time>
      </trkpt>
      <trkpt lat="44.73783" lon="4.67981">
        <ele>353</ele>
        <time>2013-02-08T10:18:01Z</time>
      </trkpt>
      <trkpt lat="44.73785" lon="4.67982">
        <ele>354</ele>
        <time>2013-02-08T10:18:03Z</time>
      </trkpt>
      <trkpt lat="44.73787" lon="4.67984">
        <ele>354</ele>
        <time>2013-02-08T10:18:05Z</time>
      </trkpt>
      <trkpt lat="44.73789" lon="4.67985">
        <ele>354</ele>
        <time>2013-02-08T10:18:07Z</time>
      </trkpt>
      <trkpt lat="44.7379" lon="4.67986">
        <ele>354</ele>
        <time>2013-02-08T10:18:09Z</time>
      </trkpt>
      <trkpt lat="44.73794" lon="4.67988">
        <ele>354</ele>
        <time>2013-02-08T10:18:12Z</time>
      </trkpt>
      <trkpt lat="44.73796" lon="4.67989">
        <ele>354</ele>
        <time>2013-02-08T10:18:14Z</time>
      </trkpt>
      <trkpt lat="44.73797" lon="4.67991">
        <ele>354</ele>
        <time>2013-02-08T10:18:16Z</time>
      </trkpt>
      <trkpt lat="44.73799" lon="4.67993">
        <ele>354</ele>
        <time>2013-02-08T10:18:18Z</time>
      </trkpt>
      <trkpt lat="44.73802" lon="4.67994">
        <ele>354</ele>
        <time>2013-02-08T10:18:20Z</time>
      </trkpt>
      <trkpt lat="44.73804" lon="4.67996">
        <ele>354</ele>
        <time>2013-02-08T10:18:22Z</time>
      </trkpt>
      <trkpt lat="44.73807" lon="4.67998">
        <ele>354</ele>
        <time>2013-02-08T10:18:25Z</time>
      </trkpt>
      <trkpt lat="44.7381" lon="4.68">
        <ele>354</ele>
        <time>2013-02-08T10:18:28Z</time>
      </trkpt>
      <trkpt lat="44.73812" lon="4.68001">
        <ele>353</ele>
        <time>2013-02-08T10:18:30Z</time>
      </trkpt>
      <trkpt lat="44.73814" lon="4.68003">
        <ele>353</ele>
        <time>2013-02-08T10:18:32Z</time>
      </trkpt>
      <trkpt lat="44.73816" lon="4.68004">
        <ele>353</ele>
        <time>2013-02-08T10:18:34Z</time>
      </trkpt>
      <trkpt lat="44.73818" lon="4.68005">
        <ele>353</ele>
        <time>2013-02-08T10:18:36Z</time>
      </trkpt>
      <trkpt lat="44.73821" lon="4.68006">
        <ele>353</ele>
        <time>2013-02-08T10:18:38Z</time>
      </trkpt>
      <trkpt lat="44.73822" lon="4.68007">
        <ele>353</ele>
        <time>2013-02-08T10:18:40Z</time>
      </trkpt>
      <trkpt lat="44.73824" lon="4.68009">
        <ele>353</ele>
        <time>2013-02-08T10:18:42Z</time>
      </trkpt>
      <trkpt lat="44.73827" lon="4.6801">
        <ele>353</ele>
        <time>2013-02-08T10:18:44Z</time>
      </trkpt>
      <trkpt lat="44.73829" lon="4.68012">
        <ele>353</ele>
        <time>2013-02-08T10:18:46Z</time>
      </trkpt>
      <trkpt lat="44.7383" lon="4.68013">
        <ele>353</ele>
        <time>2013-02-08T10:18:48Z</time>
      </trkpt>
      <trkpt lat="44.73832" lon="4.68014">
        <ele>353</ele>
        <time>2013-02-08T10:18:50Z</time>
      </trkpt>
      <trkpt lat="44.73834" lon="4.68016">
        <ele>353</ele>
        <time>2013-02-08T10:18:52Z</time>
      </trkpt>
      <trkpt lat="44.73835" lon="4.68018">
        <ele>353</ele>
        <time>2013-02-08T10:18:54Z</time>
      </trkpt>
      <trkpt lat="44.73837" lon="4.6802">
        <ele>352</ele>
        <time>2013-02-08T10:18:56Z</time>
      </trkpt>
      <trkpt lat="44.73838" lon="4.68022">
        <ele>352</ele>
        <time>2013-02-08T10:18:58Z</time>
      </trkpt>
      <trkpt lat="44.73839" lon="4.68024">
        <ele>352</ele>
        <time>2013-02-08T10:19:00Z</time>
      </trkpt>
      <trkpt lat="44.73841" lon="4.68026">
        <ele>352</ele>
        <time>2013-02-08T10:19:02Z</time>
      </trkpt>
      <trkpt lat="44.73842" lon="4.68029">
        <ele>352</ele>
        <time>2013-02-08T10:19:04Z</time>
      </trkpt>
      <trkpt lat="44.73843" lon="4.68032">
        <ele>351</ele>
        <time>2013-02-08T10:19:07Z</time>
      </trkpt>
      <trkpt lat="44.73845" lon="4.68034">
        <ele>351</ele>
        <time>2013-02-08T10:19:09Z</time>
      </trkpt>
      <trkpt lat="44.73846" lon="4.68036">
        <ele>351</ele>
        <time>2013-02-08T10:19:11Z</time>
      </trkpt>
      <trkpt lat="44.73848" lon="4.68038">
        <ele>351</ele>
        <time>2013-02-08T10:19:13Z</time>
      </trkpt>
      <trkpt lat="44.73849" lon="4.68041">
        <ele>351</ele>
        <time>2013-02-08T10:19:15Z</time>
      </trkpt>
      <trkpt lat="44.73851" lon="4.68043">
        <ele>351</ele>
        <time>2013-02-08T10:19:17Z</time>
      </trkpt>
      <trkpt lat="44.73852" lon="4.68045">
        <ele>351</ele>
        <time>2013-02-08T10:19:19Z</time>
      </trkpt>
      <trkpt lat="44.73853" lon="4.68048">
        <ele>351</ele>
        <time>2013-02-08T10:19:21Z</time>
      </trkpt>
      <trkpt lat="44.73854" lon="4.68051">
        <ele>351</ele>
        <time>2013-02-08T10:19:23Z</time>
      </trkpt>
      <trkpt lat="44.73854" lon="4.68054">
        <ele>350</ele>
        <time>2013-02-08T10:19:25Z</time>
      </trkpt>
      <trkpt lat="44.73854" lon="4.68057">
        <ele>350</ele>
        <time>2013-02-08T10:19:27Z</time>
      </trkpt>
      <trkpt lat="44.73855" lon="4.68061">
        <ele>350</ele>
        <time>2013-02-08T10:19:29Z</time>
      </trkpt>
      <trkpt lat="44.73854" lon="4.68065">
        <ele>350</ele>
        <time>2013-02-08T10:19:32Z</time>
      </trkpt>
      <trkpt lat="44.73854" lon="4.68069">
        <ele>350</ele>
        <time>2013-02-08T10:19:34Z</time>
      </trkpt>
      <trkpt lat="44.73853" lon="4.68073">
        <ele>350</ele>
        <time>2013-02-08T10:19:36Z</time>
      </trkpt>
      <trkpt lat="44.73853" lon="4.68076">
        <ele>350</ele>
        <time>2013-02-08T10:19:38Z</time>
      </trkpt>
      <trkpt lat="44.73852" lon="4.6808">
        <ele>350</ele>
        <time>2013-02-08T10:19:40Z</time>
      </trkpt>
      <trkpt lat="44.73852" lon="4.68083">
        <ele>350</ele>
        <time>2013-02-08T10:19:42Z</time>
      </trkpt>
      <trkpt lat="44.73851" lon="4.68087">
        <ele>350</ele>
        <time>2013-02-08T10:19:44Z</time>
      </trkpt>
      <trkpt lat="44.73851" lon="4.6809">
        <ele>350</ele>
        <time>2013-02-08T10:19:46Z</time>
      </trkpt>
      <trkpt lat="44.73851" lon="4.68094">
        <ele>349</ele>
        <time>2013-02-08T10:19:48Z</time>
      </trkpt>
      <trkpt lat="44.73851" lon="4.68098">
        <ele>349</ele>
        <time>2013-02-08T10:19:50Z</time>
      </trkpt>
      <trkpt lat="44.7385" lon="4.68101">
        <ele>349</ele>
        <time>2013-02-08T10:19:52Z</time>
      </trkpt>
      <trkpt lat="44.7385" lon="4.68104">
        <ele>349</ele>
        <time>2013-02-08T10:19:54Z</time>
      </trkpt>
      <trkpt lat="44.7385" lon="4.68108">
        <ele>349</ele>
        <time>2013-02-08T10:19:56Z</time>
      </trkpt>
      <trkpt lat="44.7385" lon="4.68112">
        <ele>349</ele>
        <time>2013-02-08T10:19:58Z</time>
      </trkpt>
      <trkpt lat="44.7385" lon="4.68115">
        <ele>349</ele>
        <time>2013-02-08T10:20:00Z</time>
      </trkpt>
      <trkpt lat="44.7385" lon="4.68119">
        <ele>349</ele>
        <time>2013-02-08T10:20:02Z</time>
      </trkpt>
      <trkpt lat="44.7385" lon="4.68122">
        <ele>349</ele>
        <time>2013-02-08T10:20:04Z</time>
      </trkpt>
      <trkpt lat="44.73851" lon="4.68126">
        <ele>349</ele>
        <time>2013-02-08T10:20:06Z</time>
      </trkpt>
      <trkpt lat="44.73851" lon="4.68129">
        <ele>349</ele>
        <time>2013-02-08T10:20:08Z</time>
      </trkpt>
      <trkpt lat="44.73851" lon="4.68133">
        <ele>349</ele>
        <time>2013-02-08T10:20:10Z</time>
      </trkpt>
      <trkpt lat="44.73851" lon="4.68137">
        <ele>349</ele>
        <time>2013-02-08T10:20:12Z</time>
      </trkpt>
      <trkpt lat="44.73852" lon="4.6814">
        <ele>349</ele>
        <time>2013-02-08T10:20:14Z</time>
      </trkpt>
      <trkpt lat="44.73852" lon="4.68144">
        <ele>349</ele>
        <time>2013-02-08T10:20:16Z</time>
      </trkpt>
      <trkpt lat="44.73852" lon="4.68147">
        <ele>349</ele>
        <time>2013-02-08T10:20:18Z</time>
      </trkpt>
      <trkpt lat="44.73852" lon="4.68149">
        <ele>349</ele>
        <time>2013-02-08T10:20:20Z</time>
      </trkpt>
      <trkpt lat="44.73852" lon="4.68151">
        <ele>349</ele>
        <time>2013-02-08T10:20:30Z</time>
      </trkpt>
      <trkpt lat="44.7385" lon="4.68152">
        <ele>349</ele>
        <time>2013-02-08T10:20:32Z</time>
      </trkpt>
      <trkpt lat="44.73847" lon="4.68152">
        <ele>349</ele>
        <time>2013-02-08T10:20:34Z</time>
      </trkpt>
      <trkpt lat="44.73845" lon="4.68151">
        <ele>349</ele>
        <time>2013-02-08T10:20:36Z</time>
      </trkpt>
      <trkpt lat="44.73842" lon="4.68151">
        <ele>349</ele>
        <time>2013-02-08T10:20:38Z</time>
      </trkpt>
      <trkpt lat="44.7384" lon="4.68152">
        <ele>349</ele>
        <time>2013-02-08T10:20:40Z</time>
      </trkpt>
      <trkpt lat="44.7384" lon="4.68151">
        <ele>349</ele>
        <time>2013-02-08T10:20:46Z</time>
      </trkpt>
      <trkpt lat="44.73842" lon="4.68151">
        <ele>349</ele>
        <time>2013-02-08T10:20:48Z</time>
      </trkpt>
      <trkpt lat="44.73843" lon="4.68153">
        <ele>349</ele>
        <time>2013-02-08T10:20:50Z</time>
      </trkpt>
      <trkpt lat="44.73844" lon="4.68155">
        <ele>349</ele>
        <time>2013-02-08T10:20:52Z</time>
      </trkpt>
      <trkpt lat="44.73846" lon="4.68157">
        <ele>349</ele>
        <time>2013-02-08T10:20:54Z</time>
      </trkpt>
      <trkpt lat="44.73845" lon="4.68159">
        <ele>349</ele>
        <time>2013-02-08T10:20:56Z</time>
      </trkpt>
      <trkpt lat="44.73843" lon="4.68161">
        <ele>349</ele>
        <time>2013-02-08T10:20:58Z</time>
      </trkpt>
      <trkpt lat="44.73842" lon="4.68162">
        <ele>349</ele>
        <time>2013-02-08T10:21:00Z</time>
      </trkpt>
      <trkpt lat="44.73841" lon="4.68164">
        <ele>349</ele>
        <time>2013-02-08T10:21:02Z</time>
      </trkpt>
      <trkpt lat="44.73839" lon="4.68165">
        <ele>349</ele>
        <time>2013-02-08T10:21:04Z</time>
      </trkpt>
      <trkpt lat="44.73837" lon="4.68166">
        <ele>349</ele>
        <time>2013-02-08T10:21:06Z</time>
      </trkpt>
      <trkpt lat="44.73836" lon="4.68167">
        <ele>349</ele>
        <time>2013-02-08T10:21:08Z</time>
      </trkpt>
      <trkpt lat="44.73835" lon="4.68168">
        <ele>349</ele>
        <time>2013-02-08T10:21:10Z</time>
      </trkpt>
      <trkpt lat="44.73834" lon="4.68169">
        <ele>349</ele>
        <time>2013-02-08T10:21:12Z</time>
      </trkpt>
      <trkpt lat="44.73832" lon="4.6817">
        <ele>348</ele>
        <time>2013-02-08T10:21:14Z</time>
      </trkpt>
      <trkpt lat="44.73831" lon="4.68171">
        <ele>348</ele>
        <time>2013-02-08T10:21:16Z</time>
      </trkpt>
      <trkpt lat="44.73829" lon="4.68172">
        <ele>348</ele>
        <time>2013-02-08T10:21:18Z</time>
      </trkpt>
      <trkpt lat="44.73828" lon="4.68173">
        <ele>348</ele>
        <time>2013-02-08T10:21:20Z</time>
      </trkpt>
      <trkpt lat="44.73827" lon="4.68174">
        <ele>347</ele>
        <time>2013-02-08T10:21:22Z</time>
      </trkpt>
      <trkpt lat="44.73825" lon="4.68176">
        <ele>347</ele>
        <time>2013-02-08T10:21:25Z</time>
      </trkpt>
      <trkpt lat="44.73824" lon="4.68178">
        <ele>347</ele>
        <time>2013-02-08T10:21:27Z</time>
      </trkpt>
      <trkpt lat="44.73822" lon="4.68179">
        <ele>347</ele>
        <time>2013-02-08T10:21:29Z</time>
      </trkpt>
      <trkpt lat="44.73821" lon="4.6818">
        <ele>346</ele>
        <time>2013-02-08T10:21:31Z</time>
      </trkpt>
      <trkpt lat="44.73819" lon="4.68182">
        <ele>346</ele>
        <time>2013-02-08T10:21:33Z</time>
      </trkpt>
      <trkpt lat="44.73818" lon="4.68184">
        <ele>346</ele>
        <time>2013-02-08T10:21:35Z</time>
      </trkpt>
      <trkpt lat="44.73817" lon="4.68185">
        <ele>346</ele>
        <time>2013-02-08T10:21:37Z</time>
      </trkpt>
      <trkpt lat="44.73815" lon="4.68186">
        <ele>346</ele>
        <time>2013-02-08T10:21:39Z</time>
      </trkpt>
      <trkpt lat="44.73813" lon="4.68187">
        <ele>345</ele>
        <time>2013-02-08T10:21:41Z</time>
      </trkpt>
      <trkpt lat="44.73811" lon="4.68188">
        <ele>345</ele>
        <time>2013-02-08T10:21:43Z</time>
      </trkpt>
      <trkpt lat="44.7381" lon="4.68189">
        <ele>345</ele>
        <time>2013-02-08T10:21:45Z</time>
      </trkpt>
      <trkpt lat="44.73808" lon="4.68189">
        <ele>345</ele>
        <time>2013-02-08T10:21:47Z</time>
      </trkpt>
      <trkpt lat="44.73806" lon="4.6819">
        <ele>345</ele>
        <time>2013-02-08T10:21:49Z</time>
      </trkpt>
      <trkpt lat="44.73804" lon="4.6819">
        <ele>345</ele>
        <time>2013-02-08T10:21:51Z</time>
      </trkpt>
      <trkpt lat="44.73802" lon="4.68191">
        <ele>345</ele>
        <time>2013-02-08T10:21:53Z</time>
      </trkpt>
      <trkpt lat="44.738" lon="4.68192">
        <ele>344</ele>
        <time>2013-02-08T10:21:55Z</time>
      </trkpt>
      <trkpt lat="44.73798" lon="4.68192">
        <ele>344</ele>
        <time>2013-02-08T10:21:57Z</time>
      </trkpt>
      <trkpt lat="44.73797" lon="4.68192">
        <ele>344</ele>
        <time>2013-02-08T10:21:59Z</time>
      </trkpt>
      <trkpt lat="44.73795" lon="4.68192">
        <ele>344</ele>
        <time>2013-02-08T10:22:01Z</time>
      </trkpt>
      <trkpt lat="44.73793" lon="4.68192">
        <ele>344</ele>
        <time>2013-02-08T10:22:03Z</time>
      </trkpt>
      <trkpt lat="44.73791" lon="4.68191">
        <ele>344</ele>
        <time>2013-02-08T10:22:05Z</time>
      </trkpt>
      <trkpt lat="44.73789" lon="4.68191">
        <ele>343</ele>
        <time>2013-02-08T10:22:08Z</time>
      </trkpt>
      <trkpt lat="44.73787" lon="4.68191">
        <ele>343</ele>
        <time>2013-02-08T10:22:10Z</time>
      </trkpt>
      <trkpt lat="44.73785" lon="4.68191">
        <ele>343</ele>
        <time>2013-02-08T10:22:12Z</time>
      </trkpt>
      <trkpt lat="44.73783" lon="4.68191">
        <ele>343</ele>
        <time>2013-02-08T10:22:14Z</time>
      </trkpt>
      <trkpt lat="44.73782" lon="4.68191">
        <ele>343</ele>
        <time>2013-02-08T10:22:16Z</time>
      </trkpt>
      <trkpt lat="44.7378" lon="4.68191">
        <ele>343</ele>
        <time>2013-02-08T10:22:18Z</time>
      </trkpt>
      <trkpt lat="44.73779" lon="4.68191">
        <ele>343</ele>
        <time>2013-02-08T10:22:20Z</time>
      </trkpt>
      <trkpt lat="44.73777" lon="4.68192">
        <ele>343</ele>
        <time>2013-02-08T10:22:22Z</time>
      </trkpt>
      <trkpt lat="44.73776" lon="4.68192">
        <ele>342</ele>
        <time>2013-02-08T10:22:24Z</time>
      </trkpt>
      <trkpt lat="44.73774" lon="4.68192">
        <ele>342</ele>
        <time>2013-02-08T10:22:26Z</time>
      </trkpt>
      <trkpt lat="44.73773" lon="4.68191">
        <ele>342</ele>
        <time>2013-02-08T10:22:28Z</time>
      </trkpt>
      <trkpt lat="44.73772" lon="4.68191">
        <ele>342</ele>
        <time>2013-02-08T10:22:30Z</time>
      </trkpt>
      <trkpt lat="44.7377" lon="4.68192">
        <ele>342</ele>
        <time>2013-02-08T10:22:32Z</time>
      </trkpt>
      <trkpt lat="44.73769" lon="4.68193">
        <ele>342</ele>
        <time>2013-02-08T10:22:34Z</time>
      </trkpt>
      <trkpt lat="44.73768" lon="4.68193">
        <ele>342</ele>
        <time>2013-02-08T10:22:37Z</time>
      </trkpt>
      <trkpt lat="44.73766" lon="4.68193">
        <ele>342</ele>
        <time>2013-02-08T10:22:51Z</time>
      </trkpt>
      <trkpt lat="44.73764" lon="4.68193">
        <ele>342</ele>
        <time>2013-02-08T10:22:53Z</time>
      </trkpt>
      <trkpt lat="44.73762" lon="4.68193">
        <ele>342</ele>
        <time>2013-02-08T10:22:55Z</time>
      </trkpt>
      <trkpt lat="44.7376" lon="4.68193">
        <ele>342</ele>
        <time>2013-02-08T10:22:57Z</time>
      </trkpt>
      <trkpt lat="44.73758" lon="4.68194">
        <ele>341</ele>
        <time>2013-02-08T10:22:59Z</time>
      </trkpt>
      <trkpt lat="44.73756" lon="4.68194">
        <ele>341</ele>
        <time>2013-02-08T10:23:01Z</time>
      </trkpt>
      <trkpt lat="44.73754" lon="4.68194">
        <ele>341</ele>
        <time>2013-02-08T10:23:03Z</time>
      </trkpt>
      <trkpt lat="44.73751" lon="4.68194">
        <ele>341</ele>
        <time>2013-02-08T10:23:05Z</time>
      </trkpt>
      <trkpt lat="44.73749" lon="4.68193">
        <ele>334</ele>
        <time>2013-02-08T10:23:07Z</time>
      </trkpt>
      <trkpt lat="44.73747" lon="4.68193">
        <ele>334</ele>
        <time>2013-02-08T10:23:10Z</time>
      </trkpt>
      <trkpt lat="44.73745" lon="4.68193">
        <ele>334</ele>
        <time>2013-02-08T10:23:13Z</time>
      </trkpt>
      <trkpt lat="44.73744" lon="4.68192">
        <ele>334</ele>
        <time>2013-02-08T10:23:15Z</time>
      </trkpt>
      <trkpt lat="44.73743" lon="4.68192">
        <ele>334</ele>
        <time>2013-02-08T10:23:17Z</time>
      </trkpt>
      <trkpt lat="44.73741" lon="4.68193">
        <ele>334</ele>
        <time>2013-02-08T10:23:19Z</time>
      </trkpt>
      <trkpt lat="44.7374" lon="4.68193">
        <ele>334</ele>
        <time>2013-02-08T10:23:21Z</time>
      </trkpt>
      <trkpt lat="44.73738" lon="4.68194">
        <ele>334</ele>
        <time>2013-02-08T10:23:23Z</time>
      </trkpt>
      <trkpt lat="44.73736" lon="4.68194">
        <ele>334</ele>
        <time>2013-02-08T10:23:25Z</time>
      </trkpt>
      <trkpt lat="44.73735" lon="4.68195">
        <ele>334</ele>
        <time>2013-02-08T10:23:27Z</time>
      </trkpt>
      <trkpt lat="44.73733" lon="4.68195">
        <ele>333</ele>
        <time>2013-02-08T10:23:29Z</time>
      </trkpt>
      <trkpt lat="44.73732" lon="4.68195">
        <ele>333</ele>
        <time>2013-02-08T10:23:31Z</time>
      </trkpt>
      <trkpt lat="44.73729" lon="4.68194">
        <ele>333</ele>
        <time>2013-02-08T10:23:34Z</time>
      </trkpt>
      <trkpt lat="44.73727" lon="4.68194">
        <ele>333</ele>
        <time>2013-02-08T10:23:36Z</time>
      </trkpt>
      <trkpt lat="44.73725" lon="4.68194">
        <ele>333</ele>
        <time>2013-02-08T10:23:38Z</time>
      </trkpt>
      <trkpt lat="44.73723" lon="4.68194">
        <ele>333</ele>
        <time>2013-02-08T10:23:40Z</time>
      </trkpt>
      <trkpt lat="44.73721" lon="4.68194">
        <ele>333</ele>
        <time>2013-02-08T10:23:42Z</time>
      </trkpt>
      <trkpt lat="44.73719" lon="4.68195">
        <ele>332</ele>
        <time>2013-02-08T10:23:44Z</time>
      </trkpt>
      <trkpt lat="44.73718" lon="4.68195">
        <ele>332</ele>
        <time>2013-02-08T10:23:46Z</time>
      </trkpt>
      <trkpt lat="44.73716" lon="4.68196">
        <ele>332</ele>
        <time>2013-02-08T10:23:48Z</time>
      </trkpt>
      <trkpt lat="44.73714" lon="4.68197">
        <ele>332</ele>
        <time>2013-02-08T10:23:50Z</time>
      </trkpt>
      <trkpt lat="44.73712" lon="4.68197">
        <ele>332</ele>
        <time>2013-02-08T10:23:52Z</time>
      </trkpt>
      <trkpt lat="44.73711" lon="4.68197">
        <ele>332</ele>
        <time>2013-02-08T10:23:54Z</time>
      </trkpt>
      <trkpt lat="44.73709" lon="4.68197">
        <ele>332</ele>
        <time>2013-02-08T10:23:56Z</time>
      </trkpt>
      <trkpt lat="44.73707" lon="4.68197">
        <ele>331</ele>
        <time>2013-02-08T10:23:58Z</time>
      </trkpt>
      <trkpt lat="44.73706" lon="4.68196">
        <ele>331</ele>
        <time>2013-02-08T10:24:00Z</time>
      </trkpt>
      <trkpt lat="44.73705" lon="4.68196">
        <ele>331</ele>
        <time>2013-02-08T10:24:02Z</time>
      </trkpt>
      <trkpt lat="44.73703" lon="4.68196">
        <ele>331</ele>
        <time>2013-02-08T10:24:04Z</time>
      </trkpt>
      <trkpt lat="44.73702" lon="4.68196">
        <ele>331</ele>
        <time>2013-02-08T10:24:35Z</time>
      </trkpt>
      <trkpt lat="44.73701" lon="4.68196">
        <ele>331</ele>
        <time>2013-02-08T10:24:37Z</time>
      </trkpt>
      <trkpt lat="44.73699" lon="4.68196">
        <ele>331</ele>
        <time>2013-02-08T10:24:39Z</time>
      </trkpt>
      <trkpt lat="44.73697" lon="4.68195">
        <ele>331</ele>
        <time>2013-02-08T10:24:41Z</time>
      </trkpt>
      <trkpt lat="44.73695" lon="4.68195">
        <ele>330</ele>
        <time>2013-02-08T10:24:43Z</time>
      </trkpt>
      <trkpt lat="44.73693" lon="4.68195">
        <ele>330</ele>
        <time>2013-02-08T10:24:45Z</time>
      </trkpt>
      <trkpt lat="44.73691" lon="4.68195">
        <ele>330</ele>
        <time>2013-02-08T10:24:47Z</time>
      </trkpt>
      <trkpt lat="44.73689" lon="4.68195">
        <ele>330</ele>
        <time>2013-02-08T10:24:49Z</time>
      </trkpt>
      <trkpt lat="44.73687" lon="4.68195">
        <ele>330</ele>
        <time>2013-02-08T10:24:51Z</time>
      </trkpt>
      <trkpt lat="44.73686" lon="4.68195">
        <ele>330</ele>
        <time>2013-02-08T10:24:53Z</time>
      </trkpt>
      <trkpt lat="44.73683" lon="4.68195">
        <ele>330</ele>
        <time>2013-02-08T10:24:55Z</time>
      </trkpt>
      <trkpt lat="44.7368" lon="4.68195">
        <ele>329</ele>
        <time>2013-02-08T10:24:58Z</time>
      </trkpt>
      <trkpt lat="44.73677" lon="4.68195">
        <ele>329</ele>
        <time>2013-02-08T10:25:01Z</time>
      </trkpt>
      <trkpt lat="44.73675" lon="4.68196">
        <ele>329</ele>
        <time>2013-02-08T10:25:03Z</time>
      </trkpt>
      <trkpt lat="44.73673" lon="4.68196">
        <ele>329</ele>
        <time>2013-02-08T10:25:05Z</time>
      </trkpt>
      <trkpt lat="44.73671" lon="4.68197">
        <ele>329</ele>
        <time>2013-02-08T10:25:07Z</time>
      </trkpt>
      <trkpt lat="44.73668" lon="4.68197">
        <ele>329</ele>
        <time>2013-02-08T10:25:10Z</time>
      </trkpt>
      <trkpt lat="44.73666" lon="4.68197">
        <ele>323</ele>
        <time>2013-02-08T10:25:12Z</time>
      </trkpt>
      <trkpt lat="44.73664" lon="4.68198">
        <ele>323</ele>
        <time>2013-02-08T10:25:14Z</time>
      </trkpt>
      <trkpt lat="44.73662" lon="4.68198">
        <ele>323</ele>
        <time>2013-02-08T10:25:16Z</time>
      </trkpt>
      <trkpt lat="44.7366" lon="4.68198">
        <ele>323</ele>
        <time>2013-02-08T10:25:18Z</time>
      </trkpt>
      <trkpt lat="44.73658" lon="4.68199">
        <ele>323</ele>
        <time>2013-02-08T10:25:20Z</time>
      </trkpt>
      <trkpt lat="44.73657" lon="4.68199">
        <ele>323</ele>
        <time>2013-02-08T10:25:22Z</time>
      </trkpt>
      <trkpt lat="44.73655" lon="4.682">
        <ele>323</ele>
        <time>2013-02-08T10:25:24Z</time>
      </trkpt>
      <trkpt lat="44.73653" lon="4.68201">
        <ele>323</ele>
        <time>2013-02-08T10:25:26Z</time>
      </trkpt>
      <trkpt lat="44.73651" lon="4.68201">
        <ele>323</ele>
        <time>2013-02-08T10:25:28Z</time>
      </trkpt>
      <trkpt lat="44.73649" lon="4.68202">
        <ele>323</ele>
        <time>2013-02-08T10:25:30Z</time>
      </trkpt>
      <trkpt lat="44.73648" lon="4.68202">
        <ele>322</ele>
        <time>2013-02-08T10:25:32Z</time>
      </trkpt>
      <trkpt lat="44.73645" lon="4.68203">
        <ele>322</ele>
        <time>2013-02-08T10:25:34Z</time>
      </trkpt>
      <trkpt lat="44.73644" lon="4.68204">
        <ele>322</ele>
        <time>2013-02-08T10:25:36Z</time>
      </trkpt>
      <trkpt lat="44.73642" lon="4.68205">
        <ele>322</ele>
        <time>2013-02-08T10:25:38Z</time>
      </trkpt>
      <trkpt lat="44.73641" lon="4.68206">
        <ele>322</ele>
        <time>2013-02-08T10:25:40Z</time>
      </trkpt>
      <trkpt lat="44.73637" lon="4.68208">
        <ele>322</ele>
        <time>2013-02-08T10:25:43Z</time>
      </trkpt>
      <trkpt lat="44.73636" lon="4.68208">
        <ele>322</ele>
        <time>2013-02-08T10:25:45Z</time>
      </trkpt>
      <trkpt lat="44.73634" lon="4.68209">
        <ele>322</ele>
        <time>2013-02-08T10:25:47Z</time>
      </trkpt>
      <trkpt lat="44.73632" lon="4.68209">
        <ele>322</ele>
        <time>2013-02-08T10:25:49Z</time>
      </trkpt>
      <trkpt lat="44.7363" lon="4.6821">
        <ele>322</ele>
        <time>2013-02-08T10:25:51Z</time>
      </trkpt>
      <trkpt lat="44.73628" lon="4.6821">
        <ele>322</ele>
        <time>2013-02-08T10:25:53Z</time>
      </trkpt>
      <trkpt lat="44.73626" lon="4.68211">
        <ele>321</ele>
        <time>2013-02-08T10:25:55Z</time>
      </trkpt>
      <trkpt lat="44.73624" lon="4.68213">
        <ele>321</ele>
        <time>2013-02-08T10:25:57Z</time>
      </trkpt>
      <trkpt lat="44.73622" lon="4.68214">
        <ele>321</ele>
        <time>2013-02-08T10:25:59Z</time>
      </trkpt>
      <trkpt lat="44.7362" lon="4.68214">
        <ele>321</ele>
        <time>2013-02-08T10:26:01Z</time>
      </trkpt>
      <trkpt lat="44.73618" lon="4.68214">
        <ele>321</ele>
        <time>2013-02-08T10:26:03Z</time>
      </trkpt>
      <trkpt lat="44.73616" lon="4.68215">
        <ele>321</ele>
        <time>2013-02-08T10:26:05Z</time>
      </trkpt>
      <trkpt lat="44.73614" lon="4.68216">
        <ele>321</ele>
        <time>2013-02-08T10:26:07Z</time>
      </trkpt>
      <trkpt lat="44.73612" lon="4.68217">
        <ele>321</ele>
        <time>2013-02-08T10:26:09Z</time>
      </trkpt>
      <trkpt lat="44.73609" lon="4.68218">
        <ele>321</ele>
        <time>2013-02-08T10:26:11Z</time>
      </trkpt>
      <trkpt lat="44.73607" lon="4.68219">
        <ele>320</ele>
        <time>2013-02-08T10:26:13Z</time>
      </trkpt>
      <trkpt lat="44.73605" lon="4.6822">
        <ele>320</ele>
        <time>2013-02-08T10:26:15Z</time>
      </trkpt>
      <trkpt lat="44.73603" lon="4.68221">
        <ele>320</ele>
        <time>2013-02-08T10:26:17Z</time>
      </trkpt>
      <trkpt lat="44.736" lon="4.68223">
        <ele>320</ele>
        <time>2013-02-08T10:26:20Z</time>
      </trkpt>
      <trkpt lat="44.73597" lon="4.68224">
        <ele>320</ele>
        <time>2013-02-08T10:26:22Z</time>
      </trkpt>
      <trkpt lat="44.73595" lon="4.68225">
        <ele>319</ele>
        <time>2013-02-08T10:26:24Z</time>
      </trkpt>
      <trkpt lat="44.73592" lon="4.68227">
        <ele>319</ele>
        <time>2013-02-08T10:26:27Z</time>
      </trkpt>
      <trkpt lat="44.73591" lon="4.68228">
        <ele>319</ele>
        <time>2013-02-08T10:26:29Z</time>
      </trkpt>
      <trkpt lat="44.73589" lon="4.68229">
        <ele>319</ele>
        <time>2013-02-08T10:26:31Z</time>
      </trkpt>
      <trkpt lat="44.73587" lon="4.68231">
        <ele>319</ele>
        <time>2013-02-08T10:26:33Z</time>
      </trkpt>
      <trkpt lat="44.73585" lon="4.68232">
        <ele>318</ele>
        <time>2013-02-08T10:26:35Z</time>
      </trkpt>
      <trkpt lat="44.73583" lon="4.68232">
        <ele>318</ele>
        <time>2013-02-08T10:26:37Z</time>
      </trkpt>
      <trkpt lat="44.73581" lon="4.68233">
        <ele>317</ele>
        <time>2013-02-08T10:26:39Z</time>
      </trkpt>
      <trkpt lat="44.73579" lon="4.68234">
        <ele>317</ele>
        <time>2013-02-08T10:26:41Z</time>
      </trkpt>
      <trkpt lat="44.73578" lon="4.68235">
        <ele>317</ele>
        <time>2013-02-08T10:26:43Z</time>
      </trkpt>
      <trkpt lat="44.73576" lon="4.68237">
        <ele>317</ele>
        <time>2013-02-08T10:26:45Z</time>
      </trkpt>
      <trkpt lat="44.73574" lon="4.68238">
        <ele>317</ele>
        <time>2013-02-08T10:26:47Z</time>
      </trkpt>
      <trkpt lat="44.73572" lon="4.68239">
        <ele>317</ele>
        <time>2013-02-08T10:26:49Z</time>
      </trkpt>
      <trkpt lat="44.7357" lon="4.6824">
        <ele>317</ele>
        <time>2013-02-08T10:26:51Z</time>
      </trkpt>
      <trkpt lat="44.73568" lon="4.6824">
        <ele>317</ele>
        <time>2013-02-08T10:26:53Z</time>
      </trkpt>
      <trkpt lat="44.73566" lon="4.68241">
        <ele>318</ele>
        <time>2013-02-08T10:26:55Z</time>
      </trkpt>
      <trkpt lat="44.73565" lon="4.68242">
        <ele>318</ele>
        <time>2013-02-08T10:26:57Z</time>
      </trkpt>
      <trkpt lat="44.73564" lon="4.68243">
        <ele>318</ele>
        <time>2013-02-08T10:26:59Z</time>
      </trkpt>
      <trkpt lat="44.73563" lon="4.68245">
        <ele>318</ele>
        <time>2013-02-08T10:27:01Z</time>
      </trkpt>
      <trkpt lat="44.73563" lon="4.68247">
        <ele>318</ele>
        <time>2013-02-08T10:27:08Z</time>
      </trkpt>
      <trkpt lat="44.73563" lon="4.68249">
        <ele>317</ele>
        <time>2013-02-08T10:27:10Z</time>
      </trkpt>
      <trkpt lat="44.73564" lon="4.68252">
        <ele>316</ele>
        <time>2013-02-08T10:27:12Z</time>
      </trkpt>
      <trkpt lat="44.73564" lon="4.68254">
        <ele>316</ele>
        <time>2013-02-08T10:27:14Z</time>
      </trkpt>
      <trkpt lat="44.73565" lon="4.68256">
        <ele>316</ele>
        <time>2013-02-08T10:27:16Z</time>
      </trkpt>
      <trkpt lat="44.73565" lon="4.68258">
        <ele>316</ele>
        <time>2013-02-08T10:27:18Z</time>
      </trkpt>
      <trkpt lat="44.73565" lon="4.68263">
        <ele>316</ele>
        <time>2013-02-08T10:27:21Z</time>
      </trkpt>
      <trkpt lat="44.73566" lon="4.68265">
        <ele>316</ele>
        <time>2013-02-08T10:27:23Z</time>
      </trkpt>
      <trkpt lat="44.73566" lon="4.68268">
        <ele>316</ele>
        <time>2013-02-08T10:27:25Z</time>
      </trkpt>
      <trkpt lat="44.73567" lon="4.68269">
        <ele>316</ele>
        <time>2013-02-08T10:27:27Z</time>
      </trkpt>
      <trkpt lat="44.73567" lon="4.68271">
        <ele>316</ele>
        <time>2013-02-08T10:27:29Z</time>
      </trkpt>
      <trkpt lat="44.73566" lon="4.68273">
        <ele>316</ele>
        <time>2013-02-08T10:27:31Z</time>
      </trkpt>
      <trkpt lat="44.73567" lon="4.68276">
        <ele>316</ele>
        <time>2013-02-08T10:27:33Z</time>
      </trkpt>
      <trkpt lat="44.73567" lon="4.68279">
        <ele>316</ele>
        <time>2013-02-08T10:27:35Z</time>
      </trkpt>
      <trkpt lat="44.73567" lon="4.68282">
        <ele>316</ele>
        <time>2013-02-08T10:27:37Z</time>
      </trkpt>
      <trkpt lat="44.73566" lon="4.68284">
        <ele>316</ele>
        <time>2013-02-08T10:27:39Z</time>
      </trkpt>
      <trkpt lat="44.73566" lon="4.68287">
        <ele>317</ele>
        <time>2013-02-08T10:27:41Z</time>
      </trkpt>
      <trkpt lat="44.73565" lon="4.68289">
        <ele>317</ele>
        <time>2013-02-08T10:27:43Z</time>
      </trkpt>
      <trkpt lat="44.73563" lon="4.68292">
        <ele>317</ele>
        <time>2013-02-08T10:27:45Z</time>
      </trkpt>
      <trkpt lat="44.73562" lon="4.68294">
        <ele>317</ele>
        <time>2013-02-08T10:27:47Z</time>
      </trkpt>
      <trkpt lat="44.7356" lon="4.68296">
        <ele>317</ele>
        <time>2013-02-08T10:27:49Z</time>
      </trkpt>
      <trkpt lat="44.73558" lon="4.68298">
        <ele>317</ele>
        <time>2013-02-08T10:27:51Z</time>
      </trkpt>
      <trkpt lat="44.73556" lon="4.68299">
        <ele>317</ele>
        <time>2013-02-08T10:27:53Z</time>
      </trkpt>
      <trkpt lat="44.73553" lon="4.683">
        <ele>317</ele>
        <time>2013-02-08T10:27:55Z</time>
      </trkpt>
      <trkpt lat="44.73552" lon="4.68302">
        <ele>316</ele>
        <time>2013-02-08T10:27:57Z</time>
      </trkpt>
      <trkpt lat="44.7355" lon="4.68303">
        <ele>316</ele>
        <time>2013-02-08T10:27:59Z</time>
      </trkpt>
      <trkpt lat="44.73549" lon="4.68305">
        <ele>316</ele>
        <time>2013-02-08T10:28:01Z</time>
      </trkpt>
      <trkpt lat="44.73547" lon="4.68306">
        <ele>316</ele>
        <time>2013-02-08T10:28:03Z</time>
      </trkpt>
      <trkpt lat="44.73545" lon="4.68307">
        <ele>316</ele>
        <time>2013-02-08T10:28:05Z</time>
      </trkpt>
      <trkpt lat="44.73544" lon="4.68308">
        <ele>316</ele>
        <time>2013-02-08T10:28:07Z</time>
      </trkpt>
      <trkpt lat="44.73542" lon="4.68309">
        <ele>316</ele>
        <time>2013-02-08T10:28:09Z</time>
      </trkpt>
      <trkpt lat="44.73541" lon="4.68311">
        <ele>316</ele>
        <time>2013-02-08T10:28:11Z</time>
      </trkpt>
      <trkpt lat="44.73539" lon="4.68313">
        <ele>316</ele>
        <time>2013-02-08T10:28:13Z</time>
      </trkpt>
      <trkpt lat="44.73537" lon="4.68314">
        <ele>315</ele>
        <time>2013-02-08T10:28:15Z</time>
      </trkpt>
      <trkpt lat="44.73535" lon="4.68317">
        <ele>315</ele>
        <time>2013-02-08T10:28:17Z</time>
      </trkpt>
      <trkpt lat="44.73533" lon="4.68318">
        <ele>315</ele>
        <time>2013-02-08T10:28:19Z</time>
      </trkpt>
      <trkpt lat="44.73531" lon="4.68319">
        <ele>315</ele>
        <time>2013-02-08T10:28:21Z</time>
      </trkpt>
      <trkpt lat="44.73527" lon="4.68321">
        <ele>314</ele>
        <time>2013-02-08T10:28:24Z</time>
      </trkpt>
      <trkpt lat="44.73524" lon="4.68323">
        <ele>314</ele>
        <time>2013-02-08T10:28:27Z</time>
      </trkpt>
      <trkpt lat="44.73522" lon="4.68324">
        <ele>314</ele>
        <time>2013-02-08T10:28:29Z</time>
      </trkpt>
      <trkpt lat="44.73521" lon="4.68326">
        <ele>313</ele>
        <time>2013-02-08T10:28:31Z</time>
      </trkpt>
      <trkpt lat="44.73519" lon="4.68327">
        <ele>313</ele>
        <time>2013-02-08T10:28:33Z</time>
      </trkpt>
      <trkpt lat="44.73517" lon="4.68328">
        <ele>313</ele>
        <time>2013-02-08T10:28:35Z</time>
      </trkpt>
      <trkpt lat="44.73515" lon="4.68329">
        <ele>313</ele>
        <time>2013-02-08T10:28:37Z</time>
      </trkpt>
      <trkpt lat="44.73514" lon="4.68331">
        <ele>312</ele>
        <time>2013-02-08T10:28:39Z</time>
      </trkpt>
      <trkpt lat="44.73512" lon="4.68332">
        <ele>312</ele>
        <time>2013-02-08T10:28:41Z</time>
      </trkpt>
      <trkpt lat="44.73513" lon="4.68334">
        <ele>315</ele>
        <time>2013-02-08T10:29:24Z</time>
      </trkpt>
      <trkpt lat="44.73511" lon="4.68335">
        <ele>314</ele>
        <time>2013-02-08T10:29:30Z</time>
      </trkpt>
      <trkpt lat="44.73509" lon="4.68335">
        <ele>313</ele>
        <time>2013-02-08T10:29:32Z</time>
      </trkpt>
      <trkpt lat="44.73506" lon="4.68337">
        <ele>313</ele>
        <time>2013-02-08T10:29:34Z</time>
      </trkpt>
      <trkpt lat="44.73504" lon="4.68339">
        <ele>312</ele>
        <time>2013-02-08T10:29:36Z</time>
      </trkpt>
      <trkpt lat="44.73502" lon="4.6834">
        <ele>312</ele>
        <time>2013-02-08T10:29:38Z</time>
      </trkpt>
      <trkpt lat="44.735" lon="4.68341">
        <ele>309</ele>
        <time>2013-02-08T10:29:40Z</time>
      </trkpt>
      <trkpt lat="44.73497" lon="4.68343">
        <ele>309</ele>
        <time>2013-02-08T10:29:42Z</time>
      </trkpt>
      <trkpt lat="44.73495" lon="4.68345">
        <ele>309</ele>
        <time>2013-02-08T10:29:44Z</time>
      </trkpt>
      <trkpt lat="44.73492" lon="4.68348">
        <ele>309</ele>
        <time>2013-02-08T10:29:46Z</time>
      </trkpt>
      <trkpt lat="44.7349" lon="4.68349">
        <ele>309</ele>
        <time>2013-02-08T10:29:48Z</time>
      </trkpt>
      <trkpt lat="44.73488" lon="4.68352">
        <ele>309</ele>
        <time>2013-02-08T10:29:50Z</time>
      </trkpt>
      <trkpt lat="44.73486" lon="4.68354">
        <ele>309</ele>
        <time>2013-02-08T10:29:52Z</time>
      </trkpt>
      <trkpt lat="44.73483" lon="4.68357">
        <ele>309</ele>
        <time>2013-02-08T10:29:54Z</time>
      </trkpt>
      <trkpt lat="44.73481" lon="4.68359">
        <ele>309</ele>
        <time>2013-02-08T10:29:56Z</time>
      </trkpt>
      <trkpt lat="44.73479" lon="4.6836">
        <ele>309</ele>
        <time>2013-02-08T10:29:58Z</time>
      </trkpt>
      <trkpt lat="44.73477" lon="4.68362">
        <ele>309</ele>
        <time>2013-02-08T10:30:00Z</time>
      </trkpt>
      <trkpt lat="44.73474" lon="4.68363">
        <ele>309</ele>
        <time>2013-02-08T10:30:02Z</time>
      </trkpt>
      <trkpt lat="44.73472" lon="4.68366">
        <ele>309</ele>
        <time>2013-02-08T10:30:04Z</time>
      </trkpt>
      <trkpt lat="44.7347" lon="4.68368">
        <ele>309</ele>
        <time>2013-02-08T10:30:06Z</time>
      </trkpt>
      <trkpt lat="44.73468" lon="4.6837">
        <ele>309</ele>
        <time>2013-02-08T10:30:08Z</time>
      </trkpt>
      <trkpt lat="44.73466" lon="4.68373">
        <ele>309</ele>
        <time>2013-02-08T10:30:10Z</time>
      </trkpt>
      <trkpt lat="44.73464" lon="4.68374">
        <ele>309</ele>
        <time>2013-02-08T10:30:12Z</time>
      </trkpt>
      <trkpt lat="44.7346" lon="4.68377">
        <ele>309</ele>
        <time>2013-02-08T10:30:15Z</time>
      </trkpt>
      <trkpt lat="44.73457" lon="4.68381">
        <ele>309</ele>
        <time>2013-02-08T10:30:18Z</time>
      </trkpt>
      <trkpt lat="44.73455" lon="4.68383">
        <ele>308</ele>
        <time>2013-02-08T10:30:20Z</time>
      </trkpt>
      <trkpt lat="44.73452" lon="4.68385">
        <ele>308</ele>
        <time>2013-02-08T10:30:22Z</time>
      </trkpt>
      <trkpt lat="44.73449" lon="4.68388">
        <ele>308</ele>
        <time>2013-02-08T10:30:25Z</time>
      </trkpt>
      <trkpt lat="44.73446" lon="4.6839">
        <ele>308</ele>
        <time>2013-02-08T10:30:27Z</time>
      </trkpt>
      <trkpt lat="44.73444" lon="4.68392">
        <ele>308</ele>
        <time>2013-02-08T10:30:29Z</time>
      </trkpt>
      <trkpt lat="44.73442" lon="4.68394">
        <ele>307</ele>
        <time>2013-02-08T10:30:31Z</time>
      </trkpt>
      <trkpt lat="44.73439" lon="4.68396">
        <ele>307</ele>
        <time>2013-02-08T10:30:33Z</time>
      </trkpt>
      <trkpt lat="44.73437" lon="4.68398">
        <ele>307</ele>
        <time>2013-02-08T10:30:35Z</time>
      </trkpt>
      <trkpt lat="44.73434" lon="4.684">
        <ele>306</ele>
        <time>2013-02-08T10:30:37Z</time>
      </trkpt>
      <trkpt lat="44.73431" lon="4.68401">
        <ele>306</ele>
        <time>2013-02-08T10:30:39Z</time>
      </trkpt>
      <trkpt lat="44.73428" lon="4.68403">
        <ele>306</ele>
        <time>2013-02-08T10:30:42Z</time>
      </trkpt>
      <trkpt lat="44.73425" lon="4.68404">
        <ele>305</ele>
        <time>2013-02-08T10:30:44Z</time>
      </trkpt>
      <trkpt lat="44.73423" lon="4.68405">
        <ele>305</ele>
        <time>2013-02-08T10:30:46Z</time>
      </trkpt>
      <trkpt lat="44.7342" lon="4.68405">
        <ele>305</ele>
        <time>2013-02-08T10:30:48Z</time>
      </trkpt>
      <trkpt lat="44.73418" lon="4.68406">
        <ele>304</ele>
        <time>2013-02-08T10:30:50Z</time>
      </trkpt>
      <trkpt lat="44.73415" lon="4.68407">
        <ele>301</ele>
        <time>2013-02-08T10:30:52Z</time>
      </trkpt>
      <trkpt lat="44.73412" lon="4.68408">
        <ele>301</ele>
        <time>2013-02-08T10:30:54Z</time>
      </trkpt>
      <trkpt lat="44.7341" lon="4.68409">
        <ele>301</ele>
        <time>2013-02-08T10:30:56Z</time>
      </trkpt>
      <trkpt lat="44.73407" lon="4.68409">
        <ele>301</ele>
        <time>2013-02-08T10:30:58Z</time>
      </trkpt>
      <trkpt lat="44.73405" lon="4.6841">
        <ele>300</ele>
        <time>2013-02-08T10:31:00Z</time>
      </trkpt>
      <trkpt lat="44.73402" lon="4.68412">
        <ele>300</ele>
        <time>2013-02-08T10:31:02Z</time>
      </trkpt>
      <trkpt lat="44.734" lon="4.68413">
        <ele>300</ele>
        <time>2013-02-08T10:31:04Z</time>
      </trkpt>
      <trkpt lat="44.73397" lon="4.68415">
        <ele>300</ele>
        <time>2013-02-08T10:31:06Z</time>
      </trkpt>
      <trkpt lat="44.73395" lon="4.68416">
        <ele>300</ele>
        <time>2013-02-08T10:31:08Z</time>
      </trkpt>
      <trkpt lat="44.73392" lon="4.68418">
        <ele>301</ele>
        <time>2013-02-08T10:31:10Z</time>
      </trkpt>
      <trkpt lat="44.73389" lon="4.68419">
        <ele>301</ele>
        <time>2013-02-08T10:31:12Z</time>
      </trkpt>
      <trkpt lat="44.73387" lon="4.68421">
        <ele>301</ele>
        <time>2013-02-08T10:31:14Z</time>
      </trkpt>
      <trkpt lat="44.73385" lon="4.68422">
        <ele>301</ele>
        <time>2013-02-08T10:31:16Z</time>
      </trkpt>
      <trkpt lat="44.73382" lon="4.68424">
        <ele>301</ele>
        <time>2013-02-08T10:31:18Z</time>
      </trkpt>
      <trkpt lat="44.7338" lon="4.68426">
        <ele>301</ele>
        <time>2013-02-08T10:31:20Z</time>
      </trkpt>
      <trkpt lat="44.73378" lon="4.68427">
        <ele>300</ele>
        <time>2013-02-08T10:31:22Z</time>
      </trkpt>
      <trkpt lat="44.73375" lon="4.68431">
        <ele>300</ele>
        <time>2013-02-08T10:31:25Z</time>
      </trkpt>
      <trkpt lat="44.73372" lon="4.68432">
        <ele>300</ele>
        <time>2013-02-08T10:31:27Z</time>
      </trkpt>
      <trkpt lat="44.7337" lon="4.68434">
        <ele>300</ele>
        <time>2013-02-08T10:31:29Z</time>
      </trkpt>
      <trkpt lat="44.73368" lon="4.68436">
        <ele>300</ele>
        <time>2013-02-08T10:31:31Z</time>
      </trkpt>
      <trkpt lat="44.73366" lon="4.68438">
        <ele>300</ele>
        <time>2013-02-08T10:31:33Z</time>
      </trkpt>
      <trkpt lat="44.73363" lon="4.6844">
        <ele>300</ele>
        <time>2013-02-08T10:31:35Z</time>
      </trkpt>
      <trkpt lat="44.73361" lon="4.68441">
        <ele>299</ele>
        <time>2013-02-08T10:31:37Z</time>
      </trkpt>
      <trkpt lat="44.73357" lon="4.68443">
        <ele>299</ele>
        <time>2013-02-08T10:31:40Z</time>
      </trkpt>
      <trkpt lat="44.73355" lon="4.68445">
        <ele>299</ele>
        <time>2013-02-08T10:31:42Z</time>
      </trkpt>
      <trkpt lat="44.73352" lon="4.68447">
        <ele>299</ele>
        <time>2013-02-08T10:31:44Z</time>
      </trkpt>
      <trkpt lat="44.7335" lon="4.68448">
        <ele>299</ele>
        <time>2013-02-08T10:31:46Z</time>
      </trkpt>
      <trkpt lat="44.73348" lon="4.6845">
        <ele>299</ele>
        <time>2013-02-08T10:31:48Z</time>
      </trkpt>
      <trkpt lat="44.73344" lon="4.68453">
        <ele>299</ele>
        <time>2013-02-08T10:31:51Z</time>
      </trkpt>
      <trkpt lat="44.73342" lon="4.68454">
        <ele>299</ele>
        <time>2013-02-08T10:31:53Z</time>
      </trkpt>
      <trkpt lat="44.73339" lon="4.68456">
        <ele>299</ele>
        <time>2013-02-08T10:31:55Z</time>
      </trkpt>
      <trkpt lat="44.73336" lon="4.68458">
        <ele>299</ele>
        <time>2013-02-08T10:31:58Z</time>
      </trkpt>
      <trkpt lat="44.73335" lon="4.6846">
        <ele>299</ele>
        <time>2013-02-08T10:32:00Z</time>
      </trkpt>
      <trkpt lat="44.73333" lon="4.68463">
        <ele>289</ele>
        <time>2013-02-08T10:32:02Z</time>
      </trkpt>
      <trkpt lat="44.73331" lon="4.68465">
        <ele>289</ele>
        <time>2013-02-08T10:32:04Z</time>
      </trkpt>
      <trkpt lat="44.73328" lon="4.68468">
        <ele>289</ele>
        <time>2013-02-08T10:32:07Z</time>
      </trkpt>
      <trkpt lat="44.73326" lon="4.68469">
        <ele>289</ele>
        <time>2013-02-08T10:32:09Z</time>
      </trkpt>
      <trkpt lat="44.73324" lon="4.68471">
        <ele>289</ele>
        <time>2013-02-08T10:32:11Z</time>
      </trkpt>
      <trkpt lat="44.73322" lon="4.68473">
        <ele>290</ele>
        <time>2013-02-08T10:32:13Z</time>
      </trkpt>
      <trkpt lat="44.7332" lon="4.68475">
        <ele>290</ele>
        <time>2013-02-08T10:32:16Z</time>
      </trkpt>
      <trkpt lat="44.73318" lon="4.68478">
        <ele>290</ele>
        <time>2013-02-08T10:32:18Z</time>
      </trkpt>
      <trkpt lat="44.73317" lon="4.6848">
        <ele>290</ele>
        <time>2013-02-08T10:32:20Z</time>
      </trkpt>
      <trkpt lat="44.73315" lon="4.68482">
        <ele>290</ele>
        <time>2013-02-08T10:32:22Z</time>
      </trkpt>
      <trkpt lat="44.73312" lon="4.68486">
        <ele>289</ele>
        <time>2013-02-08T10:32:25Z</time>
      </trkpt>
      <trkpt lat="44.73311" lon="4.68489">
        <ele>289</ele>
        <time>2013-02-08T10:32:27Z</time>
      </trkpt>
      <trkpt lat="44.73309" lon="4.68491">
        <ele>289</ele>
        <time>2013-02-08T10:32:29Z</time>
      </trkpt>
      <trkpt lat="44.73307" lon="4.68495">
        <ele>289</ele>
        <time>2013-02-08T10:32:32Z</time>
      </trkpt>
      <trkpt lat="44.73306" lon="4.68498">
        <ele>289</ele>
        <time>2013-02-08T10:32:34Z</time>
      </trkpt>
      <trkpt lat="44.73305" lon="4.685">
        <ele>289</ele>
        <time>2013-02-08T10:32:36Z</time>
      </trkpt>
      <trkpt lat="44.73304" lon="4.68501">
        <ele>292</ele>
        <time>2013-02-08T10:32:38Z</time>
      </trkpt>
      <trkpt lat="44.73302" lon="4.685">
        <ele>288</ele>
        <time>2013-02-08T10:32:50Z</time>
      </trkpt>
      <trkpt lat="44.73301" lon="4.68499">
        <ele>288</ele>
        <time>2013-02-08T10:32:52Z</time>
      </trkpt>
      <trkpt lat="44.733" lon="4.68498">
        <ele>288</ele>
        <time>2013-02-08T10:32:56Z</time>
      </trkpt>
      <trkpt lat="44.73298" lon="4.68497">
        <ele>287</ele>
        <time>2013-02-08T10:33:01Z</time>
      </trkpt>
      <trkpt lat="44.73298" lon="4.68495">
        <ele>287</ele>
        <time>2013-02-08T10:33:04Z</time>
      </trkpt>
      <trkpt lat="44.73297" lon="4.68493">
        <ele>287</ele>
        <time>2013-02-08T10:33:07Z</time>
      </trkpt>
      <trkpt lat="44.73296" lon="4.68491">
        <ele>287</ele>
        <time>2013-02-08T10:33:09Z</time>
      </trkpt>
      <trkpt lat="44.73296" lon="4.68489">
        <ele>287</ele>
        <time>2013-02-08T10:33:11Z</time>
      </trkpt>
      <trkpt lat="44.73295" lon="4.68487">
        <ele>287</ele>
        <time>2013-02-08T10:33:14Z</time>
      </trkpt>
      <trkpt lat="44.73295" lon="4.68486">
        <ele>287</ele>
        <time>2013-02-08T10:33:16Z</time>
      </trkpt>
      <trkpt lat="44.73294" lon="4.68484">
        <ele>287</ele>
        <time>2013-02-08T10:33:18Z</time>
      </trkpt>
      <trkpt lat="44.73294" lon="4.68482">
        <ele>287</ele>
        <time>2013-02-08T10:33:20Z</time>
      </trkpt>
      <trkpt lat="44.73294" lon="4.6848">
        <ele>287</ele>
        <time>2013-02-08T10:33:22Z</time>
      </trkpt>
      <trkpt lat="44.73294" lon="4.68478">
        <ele>287</ele>
        <time>2013-02-08T10:33:24Z</time>
      </trkpt>
      <trkpt lat="44.73294" lon="4.68476">
        <ele>287</ele>
        <time>2013-02-08T10:33:26Z</time>
      </trkpt>
      <trkpt lat="44.73295" lon="4.68475">
        <ele>287</ele>
        <time>2013-02-08T10:33:28Z</time>
      </trkpt>
      <trkpt lat="44.73295" lon="4.68473">
        <ele>287</ele>
        <time>2013-02-08T10:33:33Z</time>
      </trkpt>
      <trkpt lat="44.73296" lon="4.68471">
        <ele>287</ele>
        <time>2013-02-08T10:33:35Z</time>
      </trkpt>
      <trkpt lat="44.73296" lon="4.68469">
        <ele>287</ele>
        <time>2013-02-08T10:33:37Z</time>
      </trkpt>
      <trkpt lat="44.73297" lon="4.68467">
        <ele>287</ele>
        <time>2013-02-08T10:33:39Z</time>
      </trkpt>
      <trkpt lat="44.73299" lon="4.68465">
        <ele>287</ele>
        <time>2013-02-08T10:33:41Z</time>
      </trkpt>
      <trkpt lat="44.733" lon="4.68465">
        <ele>287</ele>
        <time>2013-02-08T10:33:47Z</time>
      </trkpt>
      <trkpt lat="44.73301" lon="4.68463">
        <ele>287</ele>
        <time>2013-02-08T10:33:52Z</time>
      </trkpt>
      <trkpt lat="44.73301" lon="4.68462">
        <ele>287</ele>
        <time>2013-02-08T10:33:54Z</time>
      </trkpt>
      <trkpt lat="44.73301" lon="4.6846">
        <ele>287</ele>
        <time>2013-02-08T10:33:56Z</time>
      </trkpt>
      <trkpt lat="44.73302" lon="4.68458">
        <ele>287</ele>
        <time>2013-02-08T10:33:58Z</time>
      </trkpt>
      <trkpt lat="44.73302" lon="4.68456">
        <ele>287</ele>
        <time>2013-02-08T10:34:00Z</time>
      </trkpt>
      <trkpt lat="44.73303" lon="4.68454">
        <ele>287</ele>
        <time>2013-02-08T10:34:02Z</time>
      </trkpt>
      <trkpt lat="44.73304" lon="4.68451">
        <ele>287</ele>
        <time>2013-02-08T10:34:04Z</time>
      </trkpt>
      <trkpt lat="44.73304" lon="4.68449">
        <ele>288</ele>
        <time>2013-02-08T10:34:06Z</time>
      </trkpt>
      <trkpt lat="44.73306" lon="4.68447">
        <ele>288</ele>
        <time>2013-02-08T10:34:08Z</time>
      </trkpt>
      <trkpt lat="44.73306" lon="4.68444">
        <ele>288</ele>
        <time>2013-02-08T10:34:10Z</time>
      </trkpt>
      <trkpt lat="44.73307" lon="4.68442">
        <ele>288</ele>
        <time>2013-02-08T10:34:12Z</time>
      </trkpt>
      <trkpt lat="44.73308" lon="4.68441">
        <ele>288</ele>
        <time>2013-02-08T10:34:14Z</time>
      </trkpt>
      <trkpt lat="44.73308" lon="4.68439">
        <ele>288</ele>
        <time>2013-02-08T10:34:23Z</time>
      </trkpt>
      <trkpt lat="44.73308" lon="4.68437">
        <ele>288</ele>
        <time>2013-02-08T10:34:25Z</time>
      </trkpt>
      <trkpt lat="44.73308" lon="4.68436">
        <ele>288</ele>
        <time>2013-02-08T10:34:29Z</time>
      </trkpt>
      <trkpt lat="44.73308" lon="4.68434">
        <ele>288</ele>
        <time>2013-02-08T10:34:33Z</time>
      </trkpt>
      <trkpt lat="44.73308" lon="4.68432">
        <ele>288</ele>
        <time>2013-02-08T10:34:35Z</time>
      </trkpt>
      <trkpt lat="44.73307" lon="4.68428">
        <ele>288</ele>
        <time>2013-02-08T10:34:38Z</time>
      </trkpt>
      <trkpt lat="44.73306" lon="4.68426">
        <ele>288</ele>
        <time>2013-02-08T10:34:40Z</time>
      </trkpt>
      <trkpt lat="44.73304" lon="4.68425">
        <ele>288</ele>
        <time>2013-02-08T10:34:42Z</time>
      </trkpt>
      <trkpt lat="44.73303" lon="4.68424">
        <ele>288</ele>
        <time>2013-02-08T10:34:44Z</time>
      </trkpt>
      <trkpt lat="44.73301" lon="4.68424">
        <ele>287</ele>
        <time>2013-02-08T10:34:46Z</time>
      </trkpt>
      <trkpt lat="44.73301" lon="4.68427">
        <ele>287</ele>
        <time>2013-02-08T10:34:49Z</time>
      </trkpt>
      <trkpt lat="44.73302" lon="4.68428">
        <ele>287</ele>
        <time>2013-02-08T10:34:51Z</time>
      </trkpt>
      <trkpt lat="44.73302" lon="4.6843">
        <ele>287</ele>
        <time>2013-02-08T10:34:54Z</time>
      </trkpt>
      <trkpt lat="44.733" lon="4.6843">
        <ele>287</ele>
        <time>2013-02-08T10:34:57Z</time>
      </trkpt>
      <trkpt lat="44.73299" lon="4.68429">
        <ele>287</ele>
        <time>2013-02-08T10:34:59Z</time>
      </trkpt>
      <trkpt lat="44.73296" lon="4.68427">
        <ele>287</ele>
        <time>2013-02-08T10:35:02Z</time>
      </trkpt>
      <trkpt lat="44.73294" lon="4.68426">
        <ele>287</ele>
        <time>2013-02-08T10:35:04Z</time>
      </trkpt>
      <trkpt lat="44.7329" lon="4.68425">
        <ele>287</ele>
        <time>2013-02-08T10:35:07Z</time>
      </trkpt>
      <trkpt lat="44.73287" lon="4.68424">
        <ele>286</ele>
        <time>2013-02-08T10:35:10Z</time>
      </trkpt>
      <trkpt lat="44.73284" lon="4.68424">
        <ele>286</ele>
        <time>2013-02-08T10:35:13Z</time>
      </trkpt>
      <trkpt lat="44.73282" lon="4.68423">
        <ele>286</ele>
        <time>2013-02-08T10:35:15Z</time>
      </trkpt>
      <trkpt lat="44.73279" lon="4.68422">
        <ele>286</ele>
        <time>2013-02-08T10:35:26Z</time>
      </trkpt>
      <trkpt lat="44.73277" lon="4.68422">
        <ele>285</ele>
        <time>2013-02-08T10:35:29Z</time>
      </trkpt>
      <trkpt lat="44.73275" lon="4.68422">
        <ele>285</ele>
        <time>2013-02-08T10:35:31Z</time>
      </trkpt>
      <trkpt lat="44.73273" lon="4.68422">
        <ele>285</ele>
        <time>2013-02-08T10:35:33Z</time>
      </trkpt>
      <trkpt lat="44.73271" lon="4.68423">
        <ele>285</ele>
        <time>2013-02-08T10:35:35Z</time>
      </trkpt>
      <trkpt lat="44.7327" lon="4.68423">
        <ele>285</ele>
        <time>2013-02-08T10:35:37Z</time>
      </trkpt>
      <trkpt lat="44.73268" lon="4.68423">
        <ele>285</ele>
        <time>2013-02-08T10:35:59Z</time>
      </trkpt>
      <trkpt lat="44.73266" lon="4.68423">
        <ele>285</ele>
        <time>2013-02-08T10:36:03Z</time>
      </trkpt>
      <trkpt lat="44.73264" lon="4.68423">
        <ele>285</ele>
        <time>2013-02-08T10:36:05Z</time>
      </trkpt>
      <trkpt lat="44.73262" lon="4.68423">
        <ele>284</ele>
        <time>2013-02-08T10:36:07Z</time>
      </trkpt>
      <trkpt lat="44.73261" lon="4.68423">
        <ele>284</ele>
        <time>2013-02-08T10:36:09Z</time>
      </trkpt>
      <trkpt lat="44.73259" lon="4.68422">
        <ele>284</ele>
        <time>2013-02-08T10:36:11Z</time>
      </trkpt>
      <trkpt lat="44.73256" lon="4.68423">
        <ele>284</ele>
        <time>2013-02-08T10:36:14Z</time>
      </trkpt>
      <trkpt lat="44.73254" lon="4.68423">
        <ele>284</ele>
        <time>2013-02-08T10:36:16Z</time>
      </trkpt>
      <trkpt lat="44.73252" lon="4.68422">
        <ele>284</ele>
        <time>2013-02-08T10:36:18Z</time>
      </trkpt>
      <trkpt lat="44.7325" lon="4.68422">
        <ele>282</ele>
        <time>2013-02-08T10:36:20Z</time>
      </trkpt>
      <trkpt lat="44.73249" lon="4.68422">
        <ele>282</ele>
        <time>2013-02-08T10:36:22Z</time>
      </trkpt>
      <trkpt lat="44.73247" lon="4.68422">
        <ele>281</ele>
        <time>2013-02-08T10:36:35Z</time>
      </trkpt>
      <trkpt lat="44.73245" lon="4.68422">
        <ele>281</ele>
        <time>2013-02-08T10:36:37Z</time>
      </trkpt>
      <trkpt lat="44.73243" lon="4.68422">
        <ele>281</ele>
        <time>2013-02-08T10:36:39Z</time>
      </trkpt>
      <trkpt lat="44.73241" lon="4.68423">
        <ele>281</ele>
        <time>2013-02-08T10:36:41Z</time>
      </trkpt>
      <trkpt lat="44.73239" lon="4.68423">
        <ele>280</ele>
        <time>2013-02-08T10:36:43Z</time>
      </trkpt>
      <trkpt lat="44.73237" lon="4.68424">
        <ele>280</ele>
        <time>2013-02-08T10:36:45Z</time>
      </trkpt>
      <trkpt lat="44.73235" lon="4.68426">
        <ele>279</ele>
        <time>2013-02-08T10:36:47Z</time>
      </trkpt>
      <trkpt lat="44.73233" lon="4.68427">
        <ele>279</ele>
        <time>2013-02-08T10:36:49Z</time>
      </trkpt>
      <trkpt lat="44.73232" lon="4.68427">
        <ele>279</ele>
        <time>2013-02-08T10:36:51Z</time>
      </trkpt>
      <trkpt lat="44.7323" lon="4.68429">
        <ele>279</ele>
        <time>2013-02-08T10:36:53Z</time>
      </trkpt>
      <trkpt lat="44.73229" lon="4.6843">
        <ele>278</ele>
        <time>2013-02-08T10:36:55Z</time>
      </trkpt>
      <trkpt lat="44.73226" lon="4.6843">
        <ele>278</ele>
        <time>2013-02-08T10:36:57Z</time>
      </trkpt>
      <trkpt lat="44.73225" lon="4.6843">
        <ele>278</ele>
        <time>2013-02-08T10:36:59Z</time>
      </trkpt>
      <trkpt lat="44.73223" lon="4.68431">
        <ele>278</ele>
        <time>2013-02-08T10:37:01Z</time>
      </trkpt>
      <trkpt lat="44.73221" lon="4.68432">
        <ele>278</ele>
        <time>2013-02-08T10:37:03Z</time>
      </trkpt>
      <trkpt lat="44.73219" lon="4.68432">
        <ele>278</ele>
        <time>2013-02-08T10:37:05Z</time>
      </trkpt>
      <trkpt lat="44.73217" lon="4.68432">
        <ele>277</ele>
        <time>2013-02-08T10:37:07Z</time>
      </trkpt>
      <trkpt lat="44.73214" lon="4.68433">
        <ele>277</ele>
        <time>2013-02-08T10:37:11Z</time>
      </trkpt>
      <trkpt lat="44.73212" lon="4.68434">
        <ele>277</ele>
        <time>2013-02-08T10:37:13Z</time>
      </trkpt>
      <trkpt lat="44.73211" lon="4.68434">
        <ele>277</ele>
        <time>2013-02-08T10:37:15Z</time>
      </trkpt>
      <trkpt lat="44.73209" lon="4.68435">
        <ele>277</ele>
        <time>2013-02-08T10:37:17Z</time>
      </trkpt>
      <trkpt lat="44.73207" lon="4.68435">
        <ele>277</ele>
        <time>2013-02-08T10:37:19Z</time>
      </trkpt>
      <trkpt lat="44.73204" lon="4.68436">
        <ele>276</ele>
        <time>2013-02-08T10:37:23Z</time>
      </trkpt>
      <trkpt lat="44.73201" lon="4.68437">
        <ele>276</ele>
        <time>2013-02-08T10:37:27Z</time>
      </trkpt>
      <trkpt lat="44.732" lon="4.68438">
        <ele>276</ele>
        <time>2013-02-08T10:37:29Z</time>
      </trkpt>
      <trkpt lat="44.73198" lon="4.68438">
        <ele>276</ele>
        <time>2013-02-08T10:37:32Z</time>
      </trkpt>
      <trkpt lat="44.73196" lon="4.68438">
        <ele>276</ele>
        <time>2013-02-08T10:37:34Z</time>
      </trkpt>
      <trkpt lat="44.73195" lon="4.68439">
        <ele>276</ele>
        <time>2013-02-08T10:37:36Z</time>
      </trkpt>
      <trkpt lat="44.73193" lon="4.68439">
        <ele>276</ele>
        <time>2013-02-08T10:37:38Z</time>
      </trkpt>
      <trkpt lat="44.73191" lon="4.68439">
        <ele>276</ele>
        <time>2013-02-08T10:37:40Z</time>
      </trkpt>
      <trkpt lat="44.73189" lon="4.68439">
        <ele>276</ele>
        <time>2013-02-08T10:37:42Z</time>
      </trkpt>
      <trkpt lat="44.73187" lon="4.6844">
        <ele>276</ele>
        <time>2013-02-08T10:37:44Z</time>
      </trkpt>
      <trkpt lat="44.73185" lon="4.6844">
        <ele>276</ele>
        <time>2013-02-08T10:37:46Z</time>
      </trkpt>
      <trkpt lat="44.73183" lon="4.6844">
        <ele>276</ele>
        <time>2013-02-08T10:37:48Z</time>
      </trkpt>
      <trkpt lat="44.73182" lon="4.6844">
        <ele>276</ele>
        <time>2013-02-08T10:37:50Z</time>
      </trkpt>
      <trkpt lat="44.7318" lon="4.6844">
        <ele>276</ele>
        <time>2013-02-08T10:37:52Z</time>
      </trkpt>
      <trkpt lat="44.73178" lon="4.68441">
        <ele>275</ele>
        <time>2013-02-08T10:37:54Z</time>
      </trkpt>
      <trkpt lat="44.73176" lon="4.68441">
        <ele>275</ele>
        <time>2013-02-08T10:37:56Z</time>
      </trkpt>
      <trkpt lat="44.73172" lon="4.68441">
        <ele>275</ele>
        <time>2013-02-08T10:37:59Z</time>
      </trkpt>
      <trkpt lat="44.73169" lon="4.68441">
        <ele>275</ele>
        <time>2013-02-08T10:38:04Z</time>
      </trkpt>
      <trkpt lat="44.73167" lon="4.68441">
        <ele>275</ele>
        <time>2013-02-08T10:38:06Z</time>
      </trkpt>
      <trkpt lat="44.73163" lon="4.68441">
        <ele>271</ele>
        <time>2013-02-08T10:38:10Z</time>
      </trkpt>
      <trkpt lat="44.73161" lon="4.6844">
        <ele>271</ele>
        <time>2013-02-08T10:38:12Z</time>
      </trkpt>
      <trkpt lat="44.7316" lon="4.6844">
        <ele>271</ele>
        <time>2013-02-08T10:38:14Z</time>
      </trkpt>
      <trkpt lat="44.73158" lon="4.68439">
        <ele>271</ele>
        <time>2013-02-08T10:38:16Z</time>
      </trkpt>
      <trkpt lat="44.73156" lon="4.68439">
        <ele>271</ele>
        <time>2013-02-08T10:38:18Z</time>
      </trkpt>
      <trkpt lat="44.73154" lon="4.68438">
        <ele>271</ele>
        <time>2013-02-08T10:38:20Z</time>
      </trkpt>
      <trkpt lat="44.73152" lon="4.68437">
        <ele>271</ele>
        <time>2013-02-08T10:38:22Z</time>
      </trkpt>
      <trkpt lat="44.7315" lon="4.68437">
        <ele>271</ele>
        <time>2013-02-08T10:38:24Z</time>
      </trkpt>
      <trkpt lat="44.73148" lon="4.68436">
        <ele>271</ele>
        <time>2013-02-08T10:38:26Z</time>
      </trkpt>
      <trkpt lat="44.73146" lon="4.68436">
        <ele>271</ele>
        <time>2013-02-08T10:38:28Z</time>
      </trkpt>
      <trkpt lat="44.73145" lon="4.68434">
        <ele>270</ele>
        <time>2013-02-08T10:38:30Z</time>
      </trkpt>
      <trkpt lat="44.73143" lon="4.68433">
        <ele>270</ele>
        <time>2013-02-08T10:38:32Z</time>
      </trkpt>
      <trkpt lat="44.73142" lon="4.68432">
        <ele>270</ele>
        <time>2013-02-08T10:38:34Z</time>
      </trkpt>
      <trkpt lat="44.7314" lon="4.68431">
        <ele>270</ele>
        <time>2013-02-08T10:38:36Z</time>
      </trkpt>
      <trkpt lat="44.73138" lon="4.68431">
        <ele>270</ele>
        <time>2013-02-08T10:38:38Z</time>
      </trkpt>
      <trkpt lat="44.73137" lon="4.6843">
        <ele>270</ele>
        <time>2013-02-08T10:38:40Z</time>
      </trkpt>
      <trkpt lat="44.73136" lon="4.68429">
        <ele>270</ele>
        <time>2013-02-08T10:38:42Z</time>
      </trkpt>
      <trkpt lat="44.73134" lon="4.68427">
        <ele>270</ele>
        <time>2013-02-08T10:38:44Z</time>
      </trkpt>
      <trkpt lat="44.73132" lon="4.68426">
        <ele>270</ele>
        <time>2013-02-08T10:38:46Z</time>
      </trkpt>
      <trkpt lat="44.73131" lon="4.68425">
        <ele>270</ele>
        <time>2013-02-08T10:38:48Z</time>
      </trkpt>
      <trkpt lat="44.7313" lon="4.68424">
        <ele>269</ele>
        <time>2013-02-08T10:38:50Z</time>
      </trkpt>
      <trkpt lat="44.73128" lon="4.68423">
        <ele>269</ele>
        <time>2013-02-08T10:38:52Z</time>
      </trkpt>
      <trkpt lat="44.73127" lon="4.68422">
        <ele>269</ele>
        <time>2013-02-08T10:38:54Z</time>
      </trkpt>
      <trkpt lat="44.73126" lon="4.68421">
        <ele>269</ele>
        <time>2013-02-08T10:38:56Z</time>
      </trkpt>
      <trkpt lat="44.73124" lon="4.6842">
        <ele>269</ele>
        <time>2013-02-08T10:38:58Z</time>
      </trkpt>
      <trkpt lat="44.73123" lon="4.6842">
        <ele>269</ele>
        <time>2013-02-08T10:39:00Z</time>
      </trkpt>
      <trkpt lat="44.73122" lon="4.68419">
        <ele>269</ele>
        <time>2013-02-08T10:39:02Z</time>
      </trkpt>
      <trkpt lat="44.7312" lon="4.68419">
        <ele>269</ele>
        <time>2013-02-08T10:39:04Z</time>
      </trkpt>
      <trkpt lat="44.73119" lon="4.68419">
        <ele>269</ele>
        <time>2013-02-08T10:39:06Z</time>
      </trkpt>
      <trkpt lat="44.73118" lon="4.68419">
        <ele>268</ele>
        <time>2013-02-08T10:39:08Z</time>
      </trkpt>
      <trkpt lat="44.73116" lon="4.68419">
        <ele>268</ele>
        <time>2013-02-08T10:39:10Z</time>
      </trkpt>
      <trkpt lat="44.73114" lon="4.68419">
        <ele>268</ele>
        <time>2013-02-08T10:39:12Z</time>
      </trkpt>
      <trkpt lat="44.73113" lon="4.68419">
        <ele>268</ele>
        <time>2013-02-08T10:39:14Z</time>
      </trkpt>
      <trkpt lat="44.73111" lon="4.68419">
        <ele>268</ele>
        <time>2013-02-08T10:39:16Z</time>
      </trkpt>
      <trkpt lat="44.73109" lon="4.68419">
        <ele>268</ele>
        <time>2013-02-08T10:39:18Z</time>
      </trkpt>
      <trkpt lat="44.73107" lon="4.68419">
        <ele>268</ele>
        <time>2013-02-08T10:39:20Z</time>
      </trkpt>
      <trkpt lat="44.73106" lon="4.68419">
        <ele>267</ele>
        <time>2013-02-08T10:39:22Z</time>
      </trkpt>
      <trkpt lat="44.73104" lon="4.68419">
        <ele>267</ele>
        <time>2013-02-08T10:39:24Z</time>
      </trkpt>
      <trkpt lat="44.73101" lon="4.68418">
        <ele>267</ele>
        <time>2013-02-08T10:39:29Z</time>
      </trkpt>
      <trkpt lat="44.73098" lon="4.68417">
        <ele>267</ele>
        <time>2013-02-08T10:39:34Z</time>
      </trkpt>
      <trkpt lat="44.73097" lon="4.68416">
        <ele>266</ele>
        <time>2013-02-08T10:39:42Z</time>
      </trkpt>
      <trkpt lat="44.73095" lon="4.68416">
        <ele>266</ele>
        <time>2013-02-08T10:39:44Z</time>
      </trkpt>
      <trkpt lat="44.73094" lon="4.68415">
        <ele>266</ele>
        <time>2013-02-08T10:39:46Z</time>
      </trkpt>
      <trkpt lat="44.73092" lon="4.68414">
        <ele>266</ele>
        <time>2013-02-08T10:39:48Z</time>
      </trkpt>
      <trkpt lat="44.73089" lon="4.68415">
        <ele>266</ele>
        <time>2013-02-08T10:39:52Z</time>
      </trkpt>
      <trkpt lat="44.73088" lon="4.68416">
        <ele>265</ele>
        <time>2013-02-08T10:39:54Z</time>
      </trkpt>
      <trkpt lat="44.73086" lon="4.68416">
        <ele>265</ele>
        <time>2013-02-08T10:39:56Z</time>
      </trkpt>
      <trkpt lat="44.73085" lon="4.68417">
        <ele>265</ele>
        <time>2013-02-08T10:39:58Z</time>
      </trkpt>
      <trkpt lat="44.73083" lon="4.68417">
        <ele>265</ele>
        <time>2013-02-08T10:40:00Z</time>
      </trkpt>
      <trkpt lat="44.73081" lon="4.68418">
        <ele>265</ele>
        <time>2013-02-08T10:40:02Z</time>
      </trkpt>
      <trkpt lat="44.7308" lon="4.68418">
        <ele>264</ele>
        <time>2013-02-08T10:40:04Z</time>
      </trkpt>
      <trkpt lat="44.73078" lon="4.68418">
        <ele>264</ele>
        <time>2013-02-08T10:40:06Z</time>
      </trkpt>
      <trkpt lat="44.73075" lon="4.68419">
        <ele>263</ele>
        <time>2013-02-08T10:40:10Z</time>
      </trkpt>
      <trkpt lat="44.73073" lon="4.6842">
        <ele>263</ele>
        <time>2013-02-08T10:40:12Z</time>
      </trkpt>
      <trkpt lat="44.7307" lon="4.6842">
        <ele>263</ele>
        <time>2013-02-08T10:40:15Z</time>
      </trkpt>
      <trkpt lat="44.73068" lon="4.68421">
        <ele>263</ele>
        <time>2013-02-08T10:40:17Z</time>
      </trkpt>
      <trkpt lat="44.73066" lon="4.68421">
        <ele>262</ele>
        <time>2013-02-08T10:40:19Z</time>
      </trkpt>
      <trkpt lat="44.73063" lon="4.68421">
        <ele>262</ele>
        <time>2013-02-08T10:40:23Z</time>
      </trkpt>
      <trkpt lat="44.73061" lon="4.68421">
        <ele>262</ele>
        <time>2013-02-08T10:40:25Z</time>
      </trkpt>
      <trkpt lat="44.7306" lon="4.6842">
        <ele>262</ele>
        <time>2013-02-08T10:40:27Z</time>
      </trkpt>
      <trkpt lat="44.73058" lon="4.6842">
        <ele>261</ele>
        <time>2013-02-08T10:40:29Z</time>
      </trkpt>
      <trkpt lat="44.73056" lon="4.6842">
        <ele>261</ele>
        <time>2013-02-08T10:40:31Z</time>
      </trkpt>
      <trkpt lat="44.73053" lon="4.6842">
        <ele>261</ele>
        <time>2013-02-08T10:40:35Z</time>
      </trkpt>
      <trkpt lat="44.73051" lon="4.68421">
        <ele>261</ele>
        <time>2013-02-08T10:40:37Z</time>
      </trkpt>
      <trkpt lat="44.73048" lon="4.68421">
        <ele>261</ele>
        <time>2013-02-08T10:40:41Z</time>
      </trkpt>
      <trkpt lat="44.73046" lon="4.68421">
        <ele>260</ele>
        <time>2013-02-08T10:40:43Z</time>
      </trkpt>
      <trkpt lat="44.73043" lon="4.68421">
        <ele>260</ele>
        <time>2013-02-08T10:40:47Z</time>
      </trkpt>
      <trkpt lat="44.73041" lon="4.68421">
        <ele>260</ele>
        <time>2013-02-08T10:40:49Z</time>
      </trkpt>
      <trkpt lat="44.73038" lon="4.68421">
        <ele>260</ele>
        <time>2013-02-08T10:40:53Z</time>
      </trkpt>
      <trkpt lat="44.73037" lon="4.68421">
        <ele>260</ele>
        <time>2013-02-08T10:40:55Z</time>
      </trkpt>
      <trkpt lat="44.73033" lon="4.68421">
        <ele>259</ele>
        <time>2013-02-08T10:40:59Z</time>
      </trkpt>
      <trkpt lat="44.73031" lon="4.68421">
        <ele>259</ele>
        <time>2013-02-08T10:41:01Z</time>
      </trkpt>
      <trkpt lat="44.73029" lon="4.68422">
        <ele>259</ele>
        <time>2013-02-08T10:41:05Z</time>
      </trkpt>
      <trkpt lat="44.73026" lon="4.68422">
        <ele>259</ele>
        <time>2013-02-08T10:41:08Z</time>
      </trkpt>
      <trkpt lat="44.73025" lon="4.68422">
        <ele>258</ele>
        <time>2013-02-08T10:41:10Z</time>
      </trkpt>
      <trkpt lat="44.73023" lon="4.68422">
        <ele>258</ele>
        <time>2013-02-08T10:41:12Z</time>
      </trkpt>
      <trkpt lat="44.7302" lon="4.68423">
        <ele>258</ele>
        <time>2013-02-08T10:41:16Z</time>
      </trkpt>
      <trkpt lat="44.73019" lon="4.68423">
        <ele>258</ele>
        <time>2013-02-08T10:41:18Z</time>
      </trkpt>
      <trkpt lat="44.73016" lon="4.68423">
        <ele>258</ele>
        <time>2013-02-08T10:41:22Z</time>
      </trkpt>
      <trkpt lat="44.73014" lon="4.68424">
        <ele>257</ele>
        <time>2013-02-08T10:41:24Z</time>
      </trkpt>
      <trkpt lat="44.73011" lon="4.68424">
        <ele>257</ele>
        <time>2013-02-08T10:41:28Z</time>
      </trkpt>
      <trkpt lat="44.73009" lon="4.68424">
        <ele>257</ele>
        <time>2013-02-08T10:41:33Z</time>
      </trkpt>
      <trkpt lat="44.73006" lon="4.68425">
        <ele>257</ele>
        <time>2013-02-08T10:41:37Z</time>
      </trkpt>
      <trkpt lat="44.73005" lon="4.68425">
        <ele>257</ele>
        <time>2013-02-08T10:41:39Z</time>
      </trkpt>
      <trkpt lat="44.73002" lon="4.68426">
        <ele>256</ele>
        <time>2013-02-08T10:41:43Z</time>
      </trkpt>
      <trkpt lat="44.73" lon="4.68425">
        <ele>254</ele>
        <time>2013-02-08T10:41:45Z</time>
      </trkpt>
      <trkpt lat="44.72996" lon="4.68425">
        <ele>254</ele>
        <time>2013-02-08T10:41:49Z</time>
      </trkpt>
      <trkpt lat="44.72994" lon="4.68424">
        <ele>254</ele>
        <time>2013-02-08T10:41:51Z</time>
      </trkpt>
      <trkpt lat="44.72991" lon="4.68424">
        <ele>253</ele>
        <time>2013-02-08T10:41:55Z</time>
      </trkpt>
      <trkpt lat="44.72989" lon="4.68424">
        <ele>253</ele>
        <time>2013-02-08T10:41:57Z</time>
      </trkpt>
      <trkpt lat="44.72986" lon="4.68423">
        <ele>253</ele>
        <time>2013-02-08T10:42:01Z</time>
      </trkpt>
      <trkpt lat="44.72984" lon="4.68424">
        <ele>253</ele>
        <time>2013-02-08T10:42:03Z</time>
      </trkpt>
      <trkpt lat="44.72981" lon="4.68424">
        <ele>252</ele>
        <time>2013-02-08T10:42:07Z</time>
      </trkpt>
      <trkpt lat="44.72979" lon="4.68424">
        <ele>252</ele>
        <time>2013-02-08T10:42:09Z</time>
      </trkpt>
      <trkpt lat="44.72976" lon="4.68424">
        <ele>252</ele>
        <time>2013-02-08T10:42:13Z</time>
      </trkpt>
      <trkpt lat="44.72974" lon="4.68423">
        <ele>252</ele>
        <time>2013-02-08T10:42:15Z</time>
      </trkpt>
      <trkpt lat="44.72971" lon="4.68423">
        <ele>251</ele>
        <time>2013-02-08T10:42:19Z</time>
      </trkpt>
      <trkpt lat="44.72969" lon="4.68423">
        <ele>251</ele>
        <time>2013-02-08T10:42:21Z</time>
      </trkpt>
      <trkpt lat="44.72966" lon="4.68422">
        <ele>251</ele>
        <time>2013-02-08T10:42:25Z</time>
      </trkpt>
      <trkpt lat="44.72964" lon="4.68422">
        <ele>251</ele>
        <time>2013-02-08T10:42:27Z</time>
      </trkpt>
      <trkpt lat="44.7296" lon="4.68422">
        <ele>250</ele>
        <time>2013-02-08T10:42:31Z</time>
      </trkpt>
      <trkpt lat="44.72958" lon="4.68422">
        <ele>250</ele>
        <time>2013-02-08T10:42:33Z</time>
      </trkpt>
      <trkpt lat="44.72957" lon="4.68422">
        <ele>250</ele>
        <time>2013-02-08T10:42:35Z</time>
      </trkpt>
      <trkpt lat="44.72955" lon="4.68422">
        <ele>250</ele>
        <time>2013-02-08T10:42:37Z</time>
      </trkpt>
      <trkpt lat="44.72953" lon="4.68422">
        <ele>249</ele>
        <time>2013-02-08T10:42:39Z</time>
      </trkpt>
      <trkpt lat="44.7295" lon="4.68421">
        <ele>249</ele>
        <time>2013-02-08T10:42:43Z</time>
      </trkpt>
      <trkpt lat="44.72949" lon="4.68421">
        <ele>249</ele>
        <time>2013-02-08T10:42:45Z</time>
      </trkpt>
      <trkpt lat="44.72945" lon="4.68421">
        <ele>248</ele>
        <time>2013-02-08T10:42:49Z</time>
      </trkpt>
      <trkpt lat="44.72943" lon="4.6842">
        <ele>248</ele>
        <time>2013-02-08T10:42:51Z</time>
      </trkpt>
      <trkpt lat="44.7294" lon="4.6842">
        <ele>248</ele>
        <time>2013-02-08T10:42:55Z</time>
      </trkpt>
      <trkpt lat="44.72939" lon="4.6842">
        <ele>248</ele>
        <time>2013-02-08T10:42:57Z</time>
      </trkpt>
      <trkpt lat="44.72935" lon="4.6842">
        <ele>247</ele>
        <time>2013-02-08T10:43:01Z</time>
      </trkpt>
      <trkpt lat="44.72934" lon="4.6842">
        <ele>247</ele>
        <time>2013-02-08T10:43:03Z</time>
      </trkpt>
      <trkpt lat="44.7293" lon="4.68419">
        <ele>246</ele>
        <time>2013-02-08T10:43:07Z</time>
      </trkpt>
      <trkpt lat="44.72929" lon="4.68418">
        <ele>246</ele>
        <time>2013-02-08T10:43:09Z</time>
      </trkpt>
      <trkpt lat="44.72926" lon="4.68417">
        <ele>245</ele>
        <time>2013-02-08T10:43:13Z</time>
      </trkpt>
      <trkpt lat="44.72924" lon="4.68417">
        <ele>245</ele>
        <time>2013-02-08T10:43:15Z</time>
      </trkpt>
      <trkpt lat="44.72922" lon="4.68416">
        <ele>243</ele>
        <time>2013-02-08T10:43:19Z</time>
      </trkpt>
      <trkpt lat="44.72921" lon="4.68416">
        <ele>243</ele>
        <time>2013-02-08T10:43:21Z</time>
      </trkpt>
      <trkpt lat="44.72918" lon="4.68415">
        <ele>243</ele>
        <time>2013-02-08T10:43:25Z</time>
      </trkpt>
      <trkpt lat="44.72916" lon="4.68415">
        <ele>242</ele>
        <time>2013-02-08T10:43:28Z</time>
      </trkpt>
      <trkpt lat="44.72913" lon="4.68414">
        <ele>242</ele>
        <time>2013-02-08T10:43:32Z</time>
      </trkpt>
      <trkpt lat="44.72911" lon="4.68414">
        <ele>241</ele>
        <time>2013-02-08T10:43:34Z</time>
      </trkpt>
      <trkpt lat="44.72908" lon="4.68413">
        <ele>240</ele>
        <time>2013-02-08T10:43:38Z</time>
      </trkpt>
      <trkpt lat="44.72907" lon="4.68412">
        <ele>240</ele>
        <time>2013-02-08T10:43:40Z</time>
      </trkpt>
      <trkpt lat="44.72904" lon="4.6841">
        <ele>239</ele>
        <time>2013-02-08T10:43:44Z</time>
      </trkpt>
      <trkpt lat="44.72903" lon="4.6841">
        <ele>239</ele>
        <time>2013-02-08T10:43:46Z</time>
      </trkpt>
      <trkpt lat="44.729" lon="4.68408">
        <ele>239</ele>
        <time>2013-02-08T10:43:50Z</time>
      </trkpt>
      <trkpt lat="44.72898" lon="4.68408">
        <ele>238</ele>
        <time>2013-02-08T10:43:52Z</time>
      </trkpt>
      <trkpt lat="44.72895" lon="4.68407">
        <ele>238</ele>
        <time>2013-02-08T10:43:56Z</time>
      </trkpt>
      <trkpt lat="44.72893" lon="4.68406">
        <ele>238</ele>
        <time>2013-02-08T10:43:58Z</time>
      </trkpt>
      <trkpt lat="44.7289" lon="4.68404">
        <ele>237</ele>
        <time>2013-02-08T10:44:02Z</time>
      </trkpt>
      <trkpt lat="44.72888" lon="4.68403">
        <ele>237</ele>
        <time>2013-02-08T10:44:04Z</time>
      </trkpt>
      <trkpt lat="44.72884" lon="4.68401">
        <ele>236</ele>
        <time>2013-02-08T10:44:08Z</time>
      </trkpt>
      <trkpt lat="44.72882" lon="4.68401">
        <ele>236</ele>
        <time>2013-02-08T10:44:10Z</time>
      </trkpt>
      <trkpt lat="44.72879" lon="4.684">
        <ele>236</ele>
        <time>2013-02-08T10:44:14Z</time>
      </trkpt>
      <trkpt lat="44.72877" lon="4.684">
        <ele>236</ele>
        <time>2013-02-08T10:44:16Z</time>
      </trkpt>
      <trkpt lat="44.72874" lon="4.68399">
        <ele>236</ele>
        <time>2013-02-08T10:44:20Z</time>
      </trkpt>
      <trkpt lat="44.72872" lon="4.684">
        <ele>236</ele>
        <time>2013-02-08T10:44:22Z</time>
      </trkpt>
      <trkpt lat="44.72868" lon="4.684">
        <ele>235</ele>
        <time>2013-02-08T10:44:26Z</time>
      </trkpt>
      <trkpt lat="44.72867" lon="4.684">
        <ele>235</ele>
        <time>2013-02-08T10:44:28Z</time>
      </trkpt>
      <trkpt lat="44.72863" lon="4.68401">
        <ele>235</ele>
        <time>2013-02-08T10:44:32Z</time>
      </trkpt>
      <trkpt lat="44.7286" lon="4.68401">
        <ele>235</ele>
        <time>2013-02-08T10:44:35Z</time>
      </trkpt>
      <trkpt lat="44.72858" lon="4.68402">
        <ele>235</ele>
        <time>2013-02-08T10:44:37Z</time>
      </trkpt>
      <trkpt lat="44.72857" lon="4.68401">
        <ele>235</ele>
        <time>2013-02-08T10:44:39Z</time>
      </trkpt>
      <trkpt lat="44.72855" lon="4.68401">
        <ele>235</ele>
        <time>2013-02-08T10:44:41Z</time>
      </trkpt>
      <trkpt lat="44.72852" lon="4.68402">
        <ele>235</ele>
        <time>2013-02-08T10:44:44Z</time>
      </trkpt>
      <trkpt lat="44.72847" lon="4.68403">
        <ele>234</ele>
        <time>2013-02-08T10:44:48Z</time>
      </trkpt>
      <trkpt lat="44.72845" lon="4.68403">
        <ele>234</ele>
        <time>2013-02-08T10:44:50Z</time>
      </trkpt>
      <trkpt lat="44.72842" lon="4.68403">
        <ele>234</ele>
        <time>2013-02-08T10:44:53Z</time>
      </trkpt>
      <trkpt lat="44.7284" lon="4.68404">
        <ele>234</ele>
        <time>2013-02-08T10:44:55Z</time>
      </trkpt>
      <trkpt lat="44.72837" lon="4.68404">
        <ele>234</ele>
        <time>2013-02-08T10:44:59Z</time>
      </trkpt>
      <trkpt lat="44.72835" lon="4.68405">
        <ele>234</ele>
        <time>2013-02-08T10:45:01Z</time>
      </trkpt>
      <trkpt lat="44.72833" lon="4.68405">
        <ele>231</ele>
        <time>2013-02-08T10:45:03Z</time>
      </trkpt>
      <trkpt lat="44.72832" lon="4.68405">
        <ele>231</ele>
        <time>2013-02-08T10:45:05Z</time>
      </trkpt>
      <trkpt lat="44.7283" lon="4.68406">
        <ele>231</ele>
        <time>2013-02-08T10:45:07Z</time>
      </trkpt>
      <trkpt lat="44.72829" lon="4.68406">
        <ele>231</ele>
        <time>2013-02-08T10:45:09Z</time>
      </trkpt>
      <trkpt lat="44.72828" lon="4.68406">
        <ele>231</ele>
        <time>2013-02-08T10:45:11Z</time>
      </trkpt>
      <trkpt lat="44.72826" lon="4.68406">
        <ele>231</ele>
        <time>2013-02-08T10:45:13Z</time>
      </trkpt>
      <trkpt lat="44.72824" lon="4.68407">
        <ele>231</ele>
        <time>2013-02-08T10:45:15Z</time>
      </trkpt>
      <trkpt lat="44.72822" lon="4.68406">
        <ele>230</ele>
        <time>2013-02-08T10:45:17Z</time>
      </trkpt>
      <trkpt lat="44.72821" lon="4.68407">
        <ele>230</ele>
        <time>2013-02-08T10:45:19Z</time>
      </trkpt>
      <trkpt lat="44.72819" lon="4.68407">
        <ele>230</ele>
        <time>2013-02-08T10:45:21Z</time>
      </trkpt>
      <trkpt lat="44.72817" lon="4.68407">
        <ele>230</ele>
        <time>2013-02-08T10:45:23Z</time>
      </trkpt>
      <trkpt lat="44.72815" lon="4.68407">
        <ele>229</ele>
        <time>2013-02-08T10:45:25Z</time>
      </trkpt>
      <trkpt lat="44.72814" lon="4.68407">
        <ele>229</ele>
        <time>2013-02-08T10:45:27Z</time>
      </trkpt>
      <trkpt lat="44.72812" lon="4.68407">
        <ele>229</ele>
        <time>2013-02-08T10:45:29Z</time>
      </trkpt>
      <trkpt lat="44.72811" lon="4.68407">
        <ele>229</ele>
        <time>2013-02-08T10:45:31Z</time>
      </trkpt>
      <trkpt lat="44.7281" lon="4.68407">
        <ele>229</ele>
        <time>2013-02-08T10:45:33Z</time>
      </trkpt>
      <trkpt lat="44.72809" lon="4.68405">
        <ele>229</ele>
        <time>2013-02-08T10:45:38Z</time>
      </trkpt>
      <trkpt lat="44.72807" lon="4.68404">
        <ele>228</ele>
        <time>2013-02-08T10:45:40Z</time>
      </trkpt>
      <trkpt lat="44.72805" lon="4.68405">
        <ele>228</ele>
        <time>2013-02-08T10:45:42Z</time>
      </trkpt>
      <trkpt lat="44.72803" lon="4.68405">
        <ele>228</ele>
        <time>2013-02-08T10:45:44Z</time>
      </trkpt>
      <trkpt lat="44.72802" lon="4.68405">
        <ele>228</ele>
        <time>2013-02-08T10:45:46Z</time>
      </trkpt>
      <trkpt lat="44.728" lon="4.68406">
        <ele>228</ele>
        <time>2013-02-08T10:45:48Z</time>
      </trkpt>
      <trkpt lat="44.72798" lon="4.68406">
        <ele>227</ele>
        <time>2013-02-08T10:45:50Z</time>
      </trkpt>
      <trkpt lat="44.72796" lon="4.68406">
        <ele>227</ele>
        <time>2013-02-08T10:45:52Z</time>
      </trkpt>
      <trkpt lat="44.72794" lon="4.68406">
        <ele>227</ele>
        <time>2013-02-08T10:45:54Z</time>
      </trkpt>
      <trkpt lat="44.72792" lon="4.68406">
        <ele>227</ele>
        <time>2013-02-08T10:45:56Z</time>
      </trkpt>
      <trkpt lat="44.72791" lon="4.68406">
        <ele>227</ele>
        <time>2013-02-08T10:45:58Z</time>
      </trkpt>
      <trkpt lat="44.72789" lon="4.68406">
        <ele>227</ele>
        <time>2013-02-08T10:46:00Z</time>
      </trkpt>
      <trkpt lat="44.72787" lon="4.68406">
        <ele>226</ele>
        <time>2013-02-08T10:46:02Z</time>
      </trkpt>
      <trkpt lat="44.72785" lon="4.68406">
        <ele>226</ele>
        <time>2013-02-08T10:46:04Z</time>
      </trkpt>
      <trkpt lat="44.72783" lon="4.68406">
        <ele>226</ele>
        <time>2013-02-08T10:46:06Z</time>
      </trkpt>
      <trkpt lat="44.72781" lon="4.68406">
        <ele>226</ele>
        <time>2013-02-08T10:46:08Z</time>
      </trkpt>
      <trkpt lat="44.7278" lon="4.68406">
        <ele>226</ele>
        <time>2013-02-08T10:46:10Z</time>
      </trkpt>
      <trkpt lat="44.72778" lon="4.68405">
        <ele>226</ele>
        <time>2013-02-08T10:46:12Z</time>
      </trkpt>
      <trkpt lat="44.72776" lon="4.68404">
        <ele>225</ele>
        <time>2013-02-08T10:46:14Z</time>
      </trkpt>
      <trkpt lat="44.72774" lon="4.68404">
        <ele>225</ele>
        <time>2013-02-08T10:46:16Z</time>
      </trkpt>
      <trkpt lat="44.72773" lon="4.68403">
        <ele>225</ele>
        <time>2013-02-08T10:46:18Z</time>
      </trkpt>
      <trkpt lat="44.7277" lon="4.68403">
        <ele>225</ele>
        <time>2013-02-08T10:46:21Z</time>
      </trkpt>
      <trkpt lat="44.72768" lon="4.68403">
        <ele>225</ele>
        <time>2013-02-08T10:46:23Z</time>
      </trkpt>
      <trkpt lat="44.72766" lon="4.68403">
        <ele>225</ele>
        <time>2013-02-08T10:46:25Z</time>
      </trkpt>
      <trkpt lat="44.72764" lon="4.68404">
        <ele>225</ele>
        <time>2013-02-08T10:46:27Z</time>
      </trkpt>
      <trkpt lat="44.72762" lon="4.68404">
        <ele>225</ele>
        <time>2013-02-08T10:46:29Z</time>
      </trkpt>
      <trkpt lat="44.7276" lon="4.68404">
        <ele>224</ele>
        <time>2013-02-08T10:46:31Z</time>
      </trkpt>
      <trkpt lat="44.72758" lon="4.68403">
        <ele>224</ele>
        <time>2013-02-08T10:46:33Z</time>
      </trkpt>
      <trkpt lat="44.72756" lon="4.68402">
        <ele>224</ele>
        <time>2013-02-08T10:46:35Z</time>
      </trkpt>
      <trkpt lat="44.72754" lon="4.68402">
        <ele>224</ele>
        <time>2013-02-08T10:46:37Z</time>
      </trkpt>
      <trkpt lat="44.72752" lon="4.68402">
        <ele>224</ele>
        <time>2013-02-08T10:46:39Z</time>
      </trkpt>
      <trkpt lat="44.72751" lon="4.68402">
        <ele>224</ele>
        <time>2013-02-08T10:46:41Z</time>
      </trkpt>
      <trkpt lat="44.72749" lon="4.68401">
        <ele>221</ele>
        <time>2013-02-08T10:46:43Z</time>
      </trkpt>
      <trkpt lat="44.72747" lon="4.68401">
        <ele>221</ele>
        <time>2013-02-08T10:46:45Z</time>
      </trkpt>
      <trkpt lat="44.72744" lon="4.68401">
        <ele>220</ele>
        <time>2013-02-08T10:46:47Z</time>
      </trkpt>
      <trkpt lat="44.72742" lon="4.68401">
        <ele>220</ele>
        <time>2013-02-08T10:46:49Z</time>
      </trkpt>
      <trkpt lat="44.72739" lon="4.68398">
        <ele>220</ele>
        <time>2013-02-08T10:46:52Z</time>
      </trkpt>
      <trkpt lat="44.72738" lon="4.68396">
        <ele>220</ele>
        <time>2013-02-08T10:46:54Z</time>
      </trkpt>
      <trkpt lat="44.72738" lon="4.68392">
        <ele>220</ele>
        <time>2013-02-08T10:46:56Z</time>
      </trkpt>
      <trkpt lat="44.72738" lon="4.68389">
        <ele>219</ele>
        <time>2013-02-08T10:46:58Z</time>
      </trkpt>
      <trkpt lat="44.72738" lon="4.68385">
        <ele>219</ele>
        <time>2013-02-08T10:47:00Z</time>
      </trkpt>
      <trkpt lat="44.72737" lon="4.68381">
        <ele>219</ele>
        <time>2013-02-08T10:47:03Z</time>
      </trkpt>
      <trkpt lat="44.72735" lon="4.68377">
        <ele>219</ele>
        <time>2013-02-08T10:47:06Z</time>
      </trkpt>
      <trkpt lat="44.72734" lon="4.68373">
        <ele>219</ele>
        <time>2013-02-08T10:47:09Z</time>
      </trkpt>
      <trkpt lat="44.72733" lon="4.68369">
        <ele>218</ele>
        <time>2013-02-08T10:47:11Z</time>
      </trkpt>
      <trkpt lat="44.72732" lon="4.68366">
        <ele>218</ele>
        <time>2013-02-08T10:47:13Z</time>
      </trkpt>
      <trkpt lat="44.72731" lon="4.68362">
        <ele>218</ele>
        <time>2013-02-08T10:47:16Z</time>
      </trkpt>
      <trkpt lat="44.72729" lon="4.68359">
        <ele>218</ele>
        <time>2013-02-08T10:47:18Z</time>
      </trkpt>
      <trkpt lat="44.72728" lon="4.68357">
        <ele>218</ele>
        <time>2013-02-08T10:47:20Z</time>
      </trkpt>
      <trkpt lat="44.72726" lon="4.68355">
        <ele>218</ele>
        <time>2013-02-08T10:47:22Z</time>
      </trkpt>
      <trkpt lat="44.72725" lon="4.68353">
        <ele>218</ele>
        <time>2013-02-08T10:47:24Z</time>
      </trkpt>
      <trkpt lat="44.72723" lon="4.68352">
        <ele>218</ele>
        <time>2013-02-08T10:47:26Z</time>
      </trkpt>
      <trkpt lat="44.72721" lon="4.6835">
        <ele>218</ele>
        <time>2013-02-08T10:47:28Z</time>
      </trkpt>
      <trkpt lat="44.72719" lon="4.68348">
        <ele>218</ele>
        <time>2013-02-08T10:47:30Z</time>
      </trkpt>
      <trkpt lat="44.72717" lon="4.68347">
        <ele>218</ele>
        <time>2013-02-08T10:47:32Z</time>
      </trkpt>
      <trkpt lat="44.72714" lon="4.68345">
        <ele>218</ele>
        <time>2013-02-08T10:47:35Z</time>
      </trkpt>
      <trkpt lat="44.72711" lon="4.68345">
        <ele>217</ele>
        <time>2013-02-08T10:47:37Z</time>
      </trkpt>
      <trkpt lat="44.72708" lon="4.68344">
        <ele>217</ele>
        <time>2013-02-08T10:47:40Z</time>
      </trkpt>
      <trkpt lat="44.72705" lon="4.68344">
        <ele>217</ele>
        <time>2013-02-08T10:47:42Z</time>
      </trkpt>
      <trkpt lat="44.72703" lon="4.68344">
        <ele>217</ele>
        <time>2013-02-08T10:47:44Z</time>
      </trkpt>
      <trkpt lat="44.727" lon="4.68345">
        <ele>217</ele>
        <time>2013-02-08T10:47:47Z</time>
      </trkpt>
      <trkpt lat="44.72698" lon="4.68345">
        <ele>217</ele>
        <time>2013-02-08T10:47:49Z</time>
      </trkpt>
      <trkpt lat="44.72694" lon="4.68345">
        <ele>217</ele>
        <time>2013-02-08T10:47:52Z</time>
      </trkpt>
      <trkpt lat="44.72691" lon="4.68344">
        <ele>216</ele>
        <time>2013-02-08T10:47:55Z</time>
      </trkpt>
      <trkpt lat="44.72688" lon="4.68344">
        <ele>216</ele>
        <time>2013-02-08T10:47:57Z</time>
      </trkpt>
      <trkpt lat="44.72686" lon="4.68345">
        <ele>216</ele>
        <time>2013-02-08T10:47:59Z</time>
      </trkpt>
      <trkpt lat="44.72684" lon="4.68344">
        <ele>216</ele>
        <time>2013-02-08T10:48:01Z</time>
      </trkpt>
      <trkpt lat="44.72681" lon="4.68345">
        <ele>216</ele>
        <time>2013-02-08T10:48:03Z</time>
      </trkpt>
      <trkpt lat="44.72678" lon="4.68345">
        <ele>216</ele>
        <time>2013-02-08T10:48:06Z</time>
      </trkpt>
      <trkpt lat="44.72676" lon="4.68344">
        <ele>216</ele>
        <time>2013-02-08T10:48:08Z</time>
      </trkpt>
      <trkpt lat="44.72673" lon="4.68345">
        <ele>215</ele>
        <time>2013-02-08T10:48:10Z</time>
      </trkpt>
      <trkpt lat="44.72671" lon="4.68345">
        <ele>215</ele>
        <time>2013-02-08T10:48:12Z</time>
      </trkpt>
      <trkpt lat="44.72669" lon="4.68345">
        <ele>215</ele>
        <time>2013-02-08T10:48:14Z</time>
      </trkpt>
      <trkpt lat="44.72665" lon="4.68345">
        <ele>213</ele>
        <time>2013-02-08T10:48:17Z</time>
      </trkpt>
      <trkpt lat="44.72662" lon="4.68344">
        <ele>213</ele>
        <time>2013-02-08T10:48:20Z</time>
      </trkpt>
      <trkpt lat="44.7266" lon="4.68343">
        <ele>213</ele>
        <time>2013-02-08T10:48:22Z</time>
      </trkpt>
      <trkpt lat="44.72657" lon="4.68342">
        <ele>213</ele>
        <time>2013-02-08T10:48:24Z</time>
      </trkpt>
      <trkpt lat="44.72655" lon="4.68342">
        <ele>213</ele>
        <time>2013-02-08T10:48:26Z</time>
      </trkpt>
      <trkpt lat="44.72653" lon="4.68341">
        <ele>213</ele>
        <time>2013-02-08T10:48:28Z</time>
      </trkpt>
      <trkpt lat="44.72651" lon="4.68341">
        <ele>213</ele>
        <time>2013-02-08T10:48:30Z</time>
      </trkpt>
      <trkpt lat="44.72649" lon="4.68341">
        <ele>213</ele>
        <time>2013-02-08T10:48:32Z</time>
      </trkpt>
      <trkpt lat="44.72647" lon="4.68342">
        <ele>213</ele>
        <time>2013-02-08T10:48:34Z</time>
      </trkpt>
      <trkpt lat="44.72645" lon="4.68341">
        <ele>213</ele>
        <time>2013-02-08T10:48:36Z</time>
      </trkpt>
      <trkpt lat="44.72641" lon="4.68341">
        <ele>213</ele>
        <time>2013-02-08T10:48:39Z</time>
      </trkpt>
      <trkpt lat="44.72637" lon="4.68342">
        <ele>213</ele>
        <time>2013-02-08T10:48:43Z</time>
      </trkpt>
      <trkpt lat="44.72635" lon="4.68342">
        <ele>213</ele>
        <time>2013-02-08T10:48:45Z</time>
      </trkpt>
      <trkpt lat="44.72633" lon="4.68342">
        <ele>213</ele>
        <time>2013-02-08T10:48:47Z</time>
      </trkpt>
      <trkpt lat="44.72632" lon="4.68342">
        <ele>213</ele>
        <time>2013-02-08T10:48:49Z</time>
      </trkpt>
      <trkpt lat="44.7263" lon="4.68342">
        <ele>212</ele>
        <time>2013-02-08T10:48:51Z</time>
      </trkpt>
      <trkpt lat="44.72628" lon="4.68342">
        <ele>212</ele>
        <time>2013-02-08T10:48:53Z</time>
      </trkpt>
      <trkpt lat="44.72627" lon="4.68341">
        <ele>212</ele>
        <time>2013-02-08T10:48:55Z</time>
      </trkpt>
      <trkpt lat="44.72625" lon="4.68341">
        <ele>212</ele>
        <time>2013-02-08T10:48:59Z</time>
      </trkpt>
      <trkpt lat="44.72623" lon="4.68342">
        <ele>212</ele>
        <time>2013-02-08T10:49:02Z</time>
      </trkpt>
      <trkpt lat="44.72622" lon="4.68342">
        <ele>212</ele>
        <time>2013-02-08T10:49:04Z</time>
      </trkpt>
      <trkpt lat="44.7262" lon="4.68342">
        <ele>212</ele>
        <time>2013-02-08T10:49:06Z</time>
      </trkpt>
      <trkpt lat="44.72618" lon="4.68342">
        <ele>212</ele>
        <time>2013-02-08T10:49:08Z</time>
      </trkpt>
      <trkpt lat="44.72615" lon="4.68343">
        <ele>212</ele>
        <time>2013-02-08T10:49:10Z</time>
      </trkpt>
      <trkpt lat="44.72613" lon="4.68343">
        <ele>212</ele>
        <time>2013-02-08T10:49:12Z</time>
      </trkpt>
      <trkpt lat="44.72611" lon="4.68343">
        <ele>212</ele>
        <time>2013-02-08T10:49:14Z</time>
      </trkpt>
      <trkpt lat="44.72609" lon="4.68343">
        <ele>212</ele>
        <time>2013-02-08T10:49:16Z</time>
      </trkpt>
      <trkpt lat="44.72607" lon="4.68343">
        <ele>212</ele>
        <time>2013-02-08T10:49:18Z</time>
      </trkpt>
      <trkpt lat="44.72604" lon="4.68343">
        <ele>212</ele>
        <time>2013-02-08T10:49:20Z</time>
      </trkpt>
      <trkpt lat="44.72602" lon="4.68343">
        <ele>211</ele>
        <time>2013-02-08T10:49:22Z</time>
      </trkpt>
      <trkpt lat="44.72599" lon="4.68343">
        <ele>211</ele>
        <time>2013-02-08T10:49:24Z</time>
      </trkpt>
      <trkpt lat="44.72597" lon="4.68343">
        <ele>211</ele>
        <time>2013-02-08T10:49:26Z</time>
      </trkpt>
      <trkpt lat="44.72595" lon="4.68343">
        <ele>211</ele>
        <time>2013-02-08T10:49:28Z</time>
      </trkpt>
      <trkpt lat="44.72593" lon="4.68342">
        <ele>211</ele>
        <time>2013-02-08T10:49:30Z</time>
      </trkpt>
      <trkpt lat="44.7259" lon="4.68342">
        <ele>211</ele>
        <time>2013-02-08T10:49:32Z</time>
      </trkpt>
      <trkpt lat="44.72588" lon="4.68342">
        <ele>211</ele>
        <time>2013-02-08T10:49:34Z</time>
      </trkpt>
      <trkpt lat="44.72585" lon="4.68343">
        <ele>211</ele>
        <time>2013-02-08T10:49:36Z</time>
      </trkpt>
      <trkpt lat="44.72582" lon="4.68342">
        <ele>209</ele>
        <time>2013-02-08T10:49:39Z</time>
      </trkpt>
      <trkpt lat="44.7258" lon="4.68342">
        <ele>209</ele>
        <time>2013-02-08T10:49:41Z</time>
      </trkpt>
      <trkpt lat="44.72577" lon="4.68343">
        <ele>209</ele>
        <time>2013-02-08T10:49:43Z</time>
      </trkpt>
      <trkpt lat="44.72575" lon="4.68342">
        <ele>209</ele>
        <time>2013-02-08T10:49:45Z</time>
      </trkpt>
      <trkpt lat="44.72573" lon="4.68343">
        <ele>208</ele>
        <time>2013-02-08T10:49:47Z</time>
      </trkpt>
      <trkpt lat="44.72571" lon="4.68344">
        <ele>208</ele>
        <time>2013-02-08T10:49:49Z</time>
      </trkpt>
      <trkpt lat="44.72569" lon="4.68344">
        <ele>208</ele>
        <time>2013-02-08T10:49:51Z</time>
      </trkpt>
      <trkpt lat="44.72567" lon="4.68345">
        <ele>208</ele>
        <time>2013-02-08T10:49:53Z</time>
      </trkpt>
      <trkpt lat="44.72565" lon="4.68347">
        <ele>208</ele>
        <time>2013-02-08T10:49:55Z</time>
      </trkpt>
      <trkpt lat="44.72563" lon="4.68348">
        <ele>208</ele>
        <time>2013-02-08T10:49:57Z</time>
      </trkpt>
      <trkpt lat="44.72561" lon="4.68348">
        <ele>208</ele>
        <time>2013-02-08T10:49:59Z</time>
      </trkpt>
      <trkpt lat="44.72558" lon="4.68348">
        <ele>207</ele>
        <time>2013-02-08T10:50:01Z</time>
      </trkpt>
      <trkpt lat="44.72556" lon="4.68348">
        <ele>207</ele>
        <time>2013-02-08T10:50:03Z</time>
      </trkpt>
      <trkpt lat="44.72553" lon="4.68348">
        <ele>207</ele>
        <time>2013-02-08T10:50:05Z</time>
      </trkpt>
      <trkpt lat="44.72551" lon="4.68348">
        <ele>207</ele>
        <time>2013-02-08T10:50:07Z</time>
      </trkpt>
      <trkpt lat="44.72547" lon="4.68347">
        <ele>207</ele>
        <time>2013-02-08T10:50:10Z</time>
      </trkpt>
      <trkpt lat="44.72545" lon="4.68346">
        <ele>206</ele>
        <time>2013-02-08T10:50:12Z</time>
      </trkpt>
      <trkpt lat="44.72543" lon="4.68346">
        <ele>206</ele>
        <time>2013-02-08T10:50:14Z</time>
      </trkpt>
      <trkpt lat="44.72539" lon="4.68345">
        <ele>206</ele>
        <time>2013-02-08T10:50:17Z</time>
      </trkpt>
      <trkpt lat="44.72537" lon="4.68344">
        <ele>206</ele>
        <time>2013-02-08T10:50:20Z</time>
      </trkpt>
      <trkpt lat="44.72534" lon="4.68344">
        <ele>206</ele>
        <time>2013-02-08T10:50:22Z</time>
      </trkpt>
      <trkpt lat="44.72531" lon="4.68343">
        <ele>205</ele>
        <time>2013-02-08T10:50:24Z</time>
      </trkpt>
      <trkpt lat="44.72529" lon="4.68342">
        <ele>205</ele>
        <time>2013-02-08T10:50:26Z</time>
      </trkpt>
      <trkpt lat="44.72526" lon="4.6834">
        <ele>205</ele>
        <time>2013-02-08T10:50:29Z</time>
      </trkpt>
      <trkpt lat="44.72524" lon="4.6834">
        <ele>205</ele>
        <time>2013-02-08T10:50:31Z</time>
      </trkpt>
      <trkpt lat="44.72522" lon="4.68339">
        <ele>204</ele>
        <time>2013-02-08T10:50:33Z</time>
      </trkpt>
      <trkpt lat="44.7252" lon="4.68339">
        <ele>204</ele>
        <time>2013-02-08T10:50:35Z</time>
      </trkpt>
      <trkpt lat="44.72517" lon="4.68338">
        <ele>204</ele>
        <time>2013-02-08T10:50:39Z</time>
      </trkpt>
      <trkpt lat="44.72516" lon="4.68337">
        <ele>204</ele>
        <time>2013-02-08T10:50:46Z</time>
      </trkpt>
      <trkpt lat="44.72515" lon="4.68336">
        <ele>204</ele>
        <time>2013-02-08T10:50:48Z</time>
      </trkpt>
      <trkpt lat="44.72513" lon="4.68335">
        <ele>203</ele>
        <time>2013-02-08T10:50:50Z</time>
      </trkpt>
      <trkpt lat="44.72509" lon="4.68333">
        <ele>202</ele>
        <time>2013-02-08T10:50:53Z</time>
      </trkpt>
      <trkpt lat="44.72506" lon="4.68331">
        <ele>202</ele>
        <time>2013-02-08T10:50:56Z</time>
      </trkpt>
      <trkpt lat="44.72504" lon="4.68331">
        <ele>202</ele>
        <time>2013-02-08T10:50:58Z</time>
      </trkpt>
      <trkpt lat="44.72501" lon="4.6833">
        <ele>202</ele>
        <time>2013-02-08T10:51:00Z</time>
      </trkpt>
      <trkpt lat="44.72498" lon="4.68329">
        <ele>201</ele>
        <time>2013-02-08T10:51:03Z</time>
      </trkpt>
      <trkpt lat="44.72496" lon="4.68328">
        <ele>200</ele>
        <time>2013-02-08T10:51:05Z</time>
      </trkpt>
      <trkpt lat="44.72493" lon="4.68328">
        <ele>200</ele>
        <time>2013-02-08T10:51:07Z</time>
      </trkpt>
      <trkpt lat="44.72491" lon="4.68326">
        <ele>200</ele>
        <time>2013-02-08T10:51:13Z</time>
      </trkpt>
      <trkpt lat="44.72489" lon="4.68325">
        <ele>200</ele>
        <time>2013-02-08T10:51:15Z</time>
      </trkpt>
      <trkpt lat="44.72485" lon="4.68324">
        <ele>200</ele>
        <time>2013-02-08T10:51:18Z</time>
      </trkpt>
      <trkpt lat="44.72483" lon="4.68323">
        <ele>200</ele>
        <time>2013-02-08T10:51:20Z</time>
      </trkpt>
      <trkpt lat="44.7248" lon="4.68322">
        <ele>199</ele>
        <time>2013-02-08T10:51:23Z</time>
      </trkpt>
      <trkpt lat="44.72478" lon="4.6832">
        <ele>199</ele>
        <time>2013-02-08T10:51:25Z</time>
      </trkpt>
      <trkpt lat="44.72475" lon="4.68319">
        <ele>199</ele>
        <time>2013-02-08T10:51:27Z</time>
      </trkpt>
      <trkpt lat="44.72473" lon="4.68318">
        <ele>199</ele>
        <time>2013-02-08T10:51:29Z</time>
      </trkpt>
      <trkpt lat="44.72471" lon="4.68317">
        <ele>199</ele>
        <time>2013-02-08T10:51:31Z</time>
      </trkpt>
      <trkpt lat="44.72469" lon="4.68316">
        <ele>199</ele>
        <time>2013-02-08T10:51:33Z</time>
      </trkpt>
      <trkpt lat="44.72465" lon="4.68315">
        <ele>199</ele>
        <time>2013-02-08T10:51:36Z</time>
      </trkpt>
      <trkpt lat="44.72463" lon="4.68314">
        <ele>199</ele>
        <time>2013-02-08T10:51:38Z</time>
      </trkpt>
      <trkpt lat="44.72461" lon="4.68313">
        <ele>199</ele>
        <time>2013-02-08T10:51:40Z</time>
      </trkpt>
      <trkpt lat="44.72458" lon="4.68312">
        <ele>198</ele>
        <time>2013-02-08T10:51:42Z</time>
      </trkpt>
      <trkpt lat="44.72456" lon="4.68312">
        <ele>198</ele>
        <time>2013-02-08T10:51:44Z</time>
      </trkpt>
      <trkpt lat="44.72454" lon="4.68311">
        <ele>198</ele>
        <time>2013-02-08T10:51:46Z</time>
      </trkpt>
      <trkpt lat="44.72452" lon="4.68311">
        <ele>198</ele>
        <time>2013-02-08T10:51:48Z</time>
      </trkpt>
      <trkpt lat="44.72449" lon="4.6831">
        <ele>198</ele>
        <time>2013-02-08T10:51:50Z</time>
      </trkpt>
      <trkpt lat="44.72447" lon="4.68309">
        <ele>198</ele>
        <time>2013-02-08T10:51:52Z</time>
      </trkpt>
      <trkpt lat="44.72445" lon="4.68309">
        <ele>198</ele>
        <time>2013-02-08T10:51:54Z</time>
      </trkpt>
      <trkpt lat="44.72443" lon="4.68308">
        <ele>198</ele>
        <time>2013-02-08T10:51:56Z</time>
      </trkpt>
      <trkpt lat="44.7244" lon="4.68308">
        <ele>198</ele>
        <time>2013-02-08T10:51:58Z</time>
      </trkpt>
      <trkpt lat="44.72438" lon="4.68308">
        <ele>198</ele>
        <time>2013-02-08T10:52:00Z</time>
      </trkpt>
      <trkpt lat="44.72435" lon="4.68307">
        <ele>198</ele>
        <time>2013-02-08T10:52:02Z</time>
      </trkpt>
      <trkpt lat="44.72433" lon="4.68307">
        <ele>198</ele>
        <time>2013-02-08T10:52:04Z</time>
      </trkpt>
      <trkpt lat="44.7243" lon="4.68307">
        <ele>198</ele>
        <time>2013-02-08T10:52:06Z</time>
      </trkpt>
      <trkpt lat="44.72429" lon="4.68307">
        <ele>198</ele>
        <time>2013-02-08T10:52:08Z</time>
      </trkpt>
      <trkpt lat="44.72426" lon="4.68307">
        <ele>197</ele>
        <time>2013-02-08T10:52:10Z</time>
      </trkpt>
      <trkpt lat="44.72424" lon="4.68307">
        <ele>197</ele>
        <time>2013-02-08T10:52:12Z</time>
      </trkpt>
      <trkpt lat="44.72422" lon="4.68307">
        <ele>197</ele>
        <time>2013-02-08T10:52:14Z</time>
      </trkpt>
      <trkpt lat="44.72419" lon="4.68307">
        <ele>197</ele>
        <time>2013-02-08T10:52:16Z</time>
      </trkpt>
      <trkpt lat="44.72417" lon="4.68306">
        <ele>197</ele>
        <time>2013-02-08T10:52:18Z</time>
      </trkpt>
      <trkpt lat="44.72415" lon="4.68307">
        <ele>194</ele>
        <time>2013-02-08T10:52:20Z</time>
      </trkpt>
      <trkpt lat="44.72412" lon="4.68307">
        <ele>194</ele>
        <time>2013-02-08T10:52:23Z</time>
      </trkpt>
      <trkpt lat="44.72408" lon="4.68306">
        <ele>194</ele>
        <time>2013-02-08T10:52:26Z</time>
      </trkpt>
      <trkpt lat="44.72406" lon="4.68306">
        <ele>194</ele>
        <time>2013-02-08T10:52:28Z</time>
      </trkpt>
      <trkpt lat="44.72404" lon="4.68306">
        <ele>194</ele>
        <time>2013-02-08T10:52:30Z</time>
      </trkpt>
      <trkpt lat="44.72401" lon="4.68306">
        <ele>194</ele>
        <time>2013-02-08T10:52:32Z</time>
      </trkpt>
      <trkpt lat="44.72399" lon="4.68306">
        <ele>194</ele>
        <time>2013-02-08T10:52:34Z</time>
      </trkpt>
      <trkpt lat="44.72397" lon="4.68306">
        <ele>194</ele>
        <time>2013-02-08T10:52:36Z</time>
      </trkpt>
      <trkpt lat="44.72394" lon="4.68306">
        <ele>194</ele>
        <time>2013-02-08T10:52:38Z</time>
      </trkpt>
      <trkpt lat="44.72392" lon="4.68306">
        <ele>194</ele>
        <time>2013-02-08T10:52:40Z</time>
      </trkpt>
      <trkpt lat="44.72389" lon="4.68306">
        <ele>194</ele>
        <time>2013-02-08T10:52:42Z</time>
      </trkpt>
      <trkpt lat="44.72387" lon="4.68306">
        <ele>194</ele>
        <time>2013-02-08T10:52:44Z</time>
      </trkpt>
      <trkpt lat="44.72384" lon="4.68305">
        <ele>193</ele>
        <time>2013-02-08T10:52:46Z</time>
      </trkpt>
      <trkpt lat="44.72382" lon="4.68305">
        <ele>193</ele>
        <time>2013-02-08T10:52:48Z</time>
      </trkpt>
      <trkpt lat="44.7238" lon="4.68305">
        <ele>193</ele>
        <time>2013-02-08T10:52:50Z</time>
      </trkpt>
      <trkpt lat="44.72377" lon="4.68305">
        <ele>193</ele>
        <time>2013-02-08T10:52:53Z</time>
      </trkpt>
      <trkpt lat="44.72374" lon="4.68305">
        <ele>193</ele>
        <time>2013-02-08T10:52:55Z</time>
      </trkpt>
      <trkpt lat="44.72372" lon="4.68305">
        <ele>193</ele>
        <time>2013-02-08T10:52:57Z</time>
      </trkpt>
      <trkpt lat="44.7237" lon="4.68305">
        <ele>193</ele>
        <time>2013-02-08T10:52:59Z</time>
      </trkpt>
      <trkpt lat="44.72368" lon="4.68305">
        <ele>193</ele>
        <time>2013-02-08T10:53:01Z</time>
      </trkpt>
      <trkpt lat="44.72365" lon="4.68304">
        <ele>193</ele>
        <time>2013-02-08T10:53:03Z</time>
      </trkpt>
      <trkpt lat="44.72363" lon="4.68304">
        <ele>193</ele>
        <time>2013-02-08T10:53:05Z</time>
      </trkpt>
      <trkpt lat="44.72361" lon="4.68304">
        <ele>193</ele>
        <time>2013-02-08T10:53:07Z</time>
      </trkpt>
      <trkpt lat="44.72359" lon="4.68303">
        <ele>193</ele>
        <time>2013-02-08T10:53:09Z</time>
      </trkpt>
      <trkpt lat="44.72356" lon="4.68302">
        <ele>193</ele>
        <time>2013-02-08T10:53:12Z</time>
      </trkpt>
      <trkpt lat="44.72352" lon="4.68301">
        <ele>193</ele>
        <time>2013-02-08T10:53:15Z</time>
      </trkpt>
      <trkpt lat="44.7235" lon="4.683">
        <ele>192</ele>
        <time>2013-02-08T10:53:17Z</time>
      </trkpt>
      <trkpt lat="44.72347" lon="4.68297">
        <ele>192</ele>
        <time>2013-02-08T10:53:20Z</time>
      </trkpt>
      <trkpt lat="44.72345" lon="4.68296">
        <ele>192</ele>
        <time>2013-02-08T10:53:22Z</time>
      </trkpt>
      <trkpt lat="44.72342" lon="4.68295">
        <ele>192</ele>
        <time>2013-02-08T10:53:25Z</time>
      </trkpt>
      <trkpt lat="44.7234" lon="4.68294">
        <ele>192</ele>
        <time>2013-02-08T10:53:27Z</time>
      </trkpt>
      <trkpt lat="44.72336" lon="4.68293">
        <ele>192</ele>
        <time>2013-02-08T10:53:30Z</time>
      </trkpt>
      <trkpt lat="44.72334" lon="4.68291">
        <ele>192</ele>
        <time>2013-02-08T10:53:32Z</time>
      </trkpt>
      <trkpt lat="44.72332" lon="4.6829">
        <ele>189</ele>
        <time>2013-02-08T10:53:34Z</time>
      </trkpt>
      <trkpt lat="44.72329" lon="4.68289">
        <ele>189</ele>
        <time>2013-02-08T10:53:37Z</time>
      </trkpt>
      <trkpt lat="44.72327" lon="4.68287">
        <ele>189</ele>
        <time>2013-02-08T10:53:39Z</time>
      </trkpt>
      <trkpt lat="44.72325" lon="4.68285">
        <ele>189</ele>
        <time>2013-02-08T10:53:41Z</time>
      </trkpt>
      <trkpt lat="44.72323" lon="4.68282">
        <ele>189</ele>
        <time>2013-02-08T10:53:43Z</time>
      </trkpt>
      <trkpt lat="44.72321" lon="4.68281">
        <ele>189</ele>
        <time>2013-02-08T10:53:45Z</time>
      </trkpt>
      <trkpt lat="44.72319" lon="4.68278">
        <ele>189</ele>
        <time>2013-02-08T10:53:47Z</time>
      </trkpt>
      <trkpt lat="44.72318" lon="4.68276">
        <ele>189</ele>
        <time>2013-02-08T10:53:49Z</time>
      </trkpt>
      <trkpt lat="44.72316" lon="4.68273">
        <ele>189</ele>
        <time>2013-02-08T10:53:51Z</time>
      </trkpt>
      <trkpt lat="44.72315" lon="4.68271">
        <ele>189</ele>
        <time>2013-02-08T10:53:53Z</time>
      </trkpt>
      <trkpt lat="44.72313" lon="4.68269">
        <ele>189</ele>
        <time>2013-02-08T10:53:55Z</time>
      </trkpt>
      <trkpt lat="44.72312" lon="4.68266">
        <ele>189</ele>
        <time>2013-02-08T10:53:57Z</time>
      </trkpt>
      <trkpt lat="44.72311" lon="4.68263">
        <ele>189</ele>
        <time>2013-02-08T10:53:59Z</time>
      </trkpt>
      <trkpt lat="44.72309" lon="4.68259">
        <ele>189</ele>
        <time>2013-02-08T10:54:02Z</time>
      </trkpt>
      <trkpt lat="44.72308" lon="4.68257">
        <ele>189</ele>
        <time>2013-02-08T10:54:04Z</time>
      </trkpt>
      <trkpt lat="44.72307" lon="4.68254">
        <ele>189</ele>
        <time>2013-02-08T10:54:06Z</time>
      </trkpt>
      <trkpt lat="44.72306" lon="4.68251">
        <ele>189</ele>
        <time>2013-02-08T10:54:08Z</time>
      </trkpt>
      <trkpt lat="44.72305" lon="4.68248">
        <ele>188</ele>
        <time>2013-02-08T10:54:10Z</time>
      </trkpt>
      <trkpt lat="44.72304" lon="4.68246">
        <ele>187</ele>
        <time>2013-02-08T10:54:12Z</time>
      </trkpt>
      <trkpt lat="44.72304" lon="4.68243">
        <ele>187</ele>
        <time>2013-02-08T10:54:14Z</time>
      </trkpt>
      <trkpt lat="44.72303" lon="4.68239">
        <ele>187</ele>
        <time>2013-02-08T10:54:16Z</time>
      </trkpt>
      <trkpt lat="44.72302" lon="4.68235">
        <ele>187</ele>
        <time>2013-02-08T10:54:19Z</time>
      </trkpt>
      <trkpt lat="44.72301" lon="4.68233">
        <ele>187</ele>
        <time>2013-02-08T10:54:21Z</time>
      </trkpt>
      <trkpt lat="44.723" lon="4.68228">
        <ele>187</ele>
        <time>2013-02-08T10:54:24Z</time>
      </trkpt>
      <trkpt lat="44.72298" lon="4.68224">
        <ele>187</ele>
        <time>2013-02-08T10:54:27Z</time>
      </trkpt>
      <trkpt lat="44.72297" lon="4.68222">
        <ele>187</ele>
        <time>2013-02-08T10:54:29Z</time>
      </trkpt>
      <trkpt lat="44.72296" lon="4.6822">
        <ele>187</ele>
        <time>2013-02-08T10:54:31Z</time>
      </trkpt>
      <trkpt lat="44.72294" lon="4.68215">
        <ele>187</ele>
        <time>2013-02-08T10:54:34Z</time>
      </trkpt>
      <trkpt lat="44.72292" lon="4.68213">
        <ele>187</ele>
        <time>2013-02-08T10:54:36Z</time>
      </trkpt>
      <trkpt lat="44.72291" lon="4.6821">
        <ele>187</ele>
        <time>2013-02-08T10:54:38Z</time>
      </trkpt>
      <trkpt lat="44.7229" lon="4.68208">
        <ele>187</ele>
        <time>2013-02-08T10:54:40Z</time>
      </trkpt>
      <trkpt lat="44.72288" lon="4.68205">
        <ele>187</ele>
        <time>2013-02-08T10:54:42Z</time>
      </trkpt>
      <trkpt lat="44.72286" lon="4.68203">
        <ele>187</ele>
        <time>2013-02-08T10:54:44Z</time>
      </trkpt>
      <trkpt lat="44.72285" lon="4.68201">
        <ele>187</ele>
        <time>2013-02-08T10:54:46Z</time>
      </trkpt>
      <trkpt lat="44.72283" lon="4.68198">
        <ele>187</ele>
        <time>2013-02-08T10:54:48Z</time>
      </trkpt>
      <trkpt lat="44.72282" lon="4.68196">
        <ele>186</ele>
        <time>2013-02-08T10:54:50Z</time>
      </trkpt>
      <trkpt lat="44.72279" lon="4.68192">
        <ele>186</ele>
        <time>2013-02-08T10:54:53Z</time>
      </trkpt>
      <trkpt lat="44.72278" lon="4.6819">
        <ele>186</ele>
        <time>2013-02-08T10:54:55Z</time>
      </trkpt>
      <trkpt lat="44.72276" lon="4.68187">
        <ele>186</ele>
        <time>2013-02-08T10:54:57Z</time>
      </trkpt>
      <trkpt lat="44.72274" lon="4.68185">
        <ele>186</ele>
        <time>2013-02-08T10:54:59Z</time>
      </trkpt>
      <trkpt lat="44.72271" lon="4.68181">
        <ele>186</ele>
        <time>2013-02-08T10:55:02Z</time>
      </trkpt>
      <trkpt lat="44.72269" lon="4.68179">
        <ele>186</ele>
        <time>2013-02-08T10:55:04Z</time>
      </trkpt>
      <trkpt lat="44.72268" lon="4.68176">
        <ele>186</ele>
        <time>2013-02-08T10:55:07Z</time>
      </trkpt>
      <trkpt lat="44.72266" lon="4.68175">
        <ele>186</ele>
        <time>2013-02-08T10:55:09Z</time>
      </trkpt>
      <trkpt lat="44.72264" lon="4.68172">
        <ele>186</ele>
        <time>2013-02-08T10:55:11Z</time>
      </trkpt>
      <trkpt lat="44.72262" lon="4.6817">
        <ele>186</ele>
        <time>2013-02-08T10:55:13Z</time>
      </trkpt>
      <trkpt lat="44.7226" lon="4.68168">
        <ele>186</ele>
        <time>2013-02-08T10:55:15Z</time>
      </trkpt>
      <trkpt lat="44.72258" lon="4.68166">
        <ele>185</ele>
        <time>2013-02-08T10:55:17Z</time>
      </trkpt>
      <trkpt lat="44.72257" lon="4.68163">
        <ele>185</ele>
        <time>2013-02-08T10:55:19Z</time>
      </trkpt>
      <trkpt lat="44.72255" lon="4.68161">
        <ele>185</ele>
        <time>2013-02-08T10:55:21Z</time>
      </trkpt>
      <trkpt lat="44.72253" lon="4.68158">
        <ele>185</ele>
        <time>2013-02-08T10:55:23Z</time>
      </trkpt>
      <trkpt lat="44.72251" lon="4.68156">
        <ele>185</ele>
        <time>2013-02-08T10:55:25Z</time>
      </trkpt>
      <trkpt lat="44.72249" lon="4.68154">
        <ele>185</ele>
        <time>2013-02-08T10:55:27Z</time>
      </trkpt>
      <trkpt lat="44.72247" lon="4.68151">
        <ele>185</ele>
        <time>2013-02-08T10:55:29Z</time>
      </trkpt>
      <trkpt lat="44.72245" lon="4.68149">
        <ele>185</ele>
        <time>2013-02-08T10:55:31Z</time>
      </trkpt>
      <trkpt lat="44.72244" lon="4.68147">
        <ele>185</ele>
        <time>2013-02-08T10:55:33Z</time>
      </trkpt>
      <trkpt lat="44.72242" lon="4.68144">
        <ele>185</ele>
        <time>2013-02-08T10:55:35Z</time>
      </trkpt>
      <trkpt lat="44.7224" lon="4.68142">
        <ele>185</ele>
        <time>2013-02-08T10:55:37Z</time>
      </trkpt>
      <trkpt lat="44.72238" lon="4.6814">
        <ele>185</ele>
        <time>2013-02-08T10:55:39Z</time>
      </trkpt>
      <trkpt lat="44.72236" lon="4.68137">
        <ele>185</ele>
        <time>2013-02-08T10:55:41Z</time>
      </trkpt>
      <trkpt lat="44.72233" lon="4.68134">
        <ele>185</ele>
        <time>2013-02-08T10:55:44Z</time>
      </trkpt>
      <trkpt lat="44.72232" lon="4.68132">
        <ele>185</ele>
        <time>2013-02-08T10:55:46Z</time>
      </trkpt>
      <trkpt lat="44.72231" lon="4.68128">
        <ele>185</ele>
        <time>2013-02-08T10:55:48Z</time>
      </trkpt>
      <trkpt lat="44.72228" lon="4.68124">
        <ele>185</ele>
        <time>2013-02-08T10:55:51Z</time>
      </trkpt>
      <trkpt lat="44.72226" lon="4.68123">
        <ele>185</ele>
        <time>2013-02-08T10:55:53Z</time>
      </trkpt>
      <trkpt lat="44.72224" lon="4.68121">
        <ele>185</ele>
        <time>2013-02-08T10:55:55Z</time>
      </trkpt>
      <trkpt lat="44.72222" lon="4.68119">
        <ele>185</ele>
        <time>2013-02-08T10:55:57Z</time>
      </trkpt>
      <trkpt lat="44.7222" lon="4.68117">
        <ele>185</ele>
        <time>2013-02-08T10:55:59Z</time>
      </trkpt>
      <trkpt lat="44.72216" lon="4.68115">
        <ele>185</ele>
        <time>2013-02-08T10:56:02Z</time>
      </trkpt>
      <trkpt lat="44.72214" lon="4.68113">
        <ele>185</ele>
        <time>2013-02-08T10:56:04Z</time>
      </trkpt>
      <trkpt lat="44.72212" lon="4.68112">
        <ele>185</ele>
        <time>2013-02-08T10:56:06Z</time>
      </trkpt>
      <trkpt lat="44.72209" lon="4.68111">
        <ele>185</ele>
        <time>2013-02-08T10:56:08Z</time>
      </trkpt>
      <trkpt lat="44.72207" lon="4.6811">
        <ele>185</ele>
        <time>2013-02-08T10:56:10Z</time>
      </trkpt>
      <trkpt lat="44.72204" lon="4.68109">
        <ele>185</ele>
        <time>2013-02-08T10:56:12Z</time>
      </trkpt>
      <trkpt lat="44.72202" lon="4.68108">
        <ele>185</ele>
        <time>2013-02-08T10:56:14Z</time>
      </trkpt>
      <trkpt lat="44.722" lon="4.68107">
        <ele>184</ele>
        <time>2013-02-08T10:56:16Z</time>
      </trkpt>
      <trkpt lat="44.72197" lon="4.68106">
        <ele>184</ele>
        <time>2013-02-08T10:56:18Z</time>
      </trkpt>
      <trkpt lat="44.72195" lon="4.68105">
        <ele>184</ele>
        <time>2013-02-08T10:56:20Z</time>
      </trkpt>
      <trkpt lat="44.72192" lon="4.68104">
        <ele>184</ele>
        <time>2013-02-08T10:56:22Z</time>
      </trkpt>
      <trkpt lat="44.7219" lon="4.68103">
        <ele>184</ele>
        <time>2013-02-08T10:56:24Z</time>
      </trkpt>
      <trkpt lat="44.72188" lon="4.68102">
        <ele>184</ele>
        <time>2013-02-08T10:56:26Z</time>
      </trkpt>
      <trkpt lat="44.72186" lon="4.68101">
        <ele>184</ele>
        <time>2013-02-08T10:56:28Z</time>
      </trkpt>
      <trkpt lat="44.72184" lon="4.68099">
        <ele>184</ele>
        <time>2013-02-08T10:56:30Z</time>
      </trkpt>
      <trkpt lat="44.72182" lon="4.68097">
        <ele>184</ele>
        <time>2013-02-08T10:56:32Z</time>
      </trkpt>
      <trkpt lat="44.72179" lon="4.68096">
        <ele>184</ele>
        <time>2013-02-08T10:56:34Z</time>
      </trkpt>
      <trkpt lat="44.72178" lon="4.68094">
        <ele>184</ele>
        <time>2013-02-08T10:56:36Z</time>
      </trkpt>
      <trkpt lat="44.72176" lon="4.68092">
        <ele>184</ele>
        <time>2013-02-08T10:56:38Z</time>
      </trkpt>
      <trkpt lat="44.72173" lon="4.68091">
        <ele>184</ele>
        <time>2013-02-08T10:56:40Z</time>
      </trkpt>
      <trkpt lat="44.72171" lon="4.68089">
        <ele>184</ele>
        <time>2013-02-08T10:56:42Z</time>
      </trkpt>
      <trkpt lat="44.7217" lon="4.68088">
        <ele>184</ele>
        <time>2013-02-08T10:56:44Z</time>
      </trkpt>
      <trkpt lat="44.72168" lon="4.68088">
        <ele>184</ele>
        <time>2013-02-08T10:56:46Z</time>
      </trkpt>
      <trkpt lat="44.72165" lon="4.6809">
        <ele>184</ele>
        <time>2013-02-08T10:56:49Z</time>
      </trkpt>
      <trkpt lat="44.72163" lon="4.68092">
        <ele>183</ele>
        <time>2013-02-08T10:56:51Z</time>
      </trkpt>
      <trkpt lat="44.72162" lon="4.68094">
        <ele>183</ele>
        <time>2013-02-08T10:56:53Z</time>
      </trkpt>
      <trkpt lat="44.72162" lon="4.68097">
        <ele>183</ele>
        <time>2013-02-08T10:56:55Z</time>
      </trkpt>
      <trkpt lat="44.7216" lon="4.681">
        <ele>183</ele>
        <time>2013-02-08T10:56:57Z</time>
      </trkpt>
      <trkpt lat="44.7216" lon="4.68103">
        <ele>183</ele>
        <time>2013-02-08T10:56:59Z</time>
      </trkpt>
      <trkpt lat="44.72158" lon="4.68106">
        <ele>183</ele>
        <time>2013-02-08T10:57:01Z</time>
      </trkpt>
      <trkpt lat="44.72157" lon="4.68111">
        <ele>183</ele>
        <time>2013-02-08T10:57:04Z</time>
      </trkpt>
      <trkpt lat="44.72155" lon="4.68115">
        <ele>183</ele>
        <time>2013-02-08T10:57:07Z</time>
      </trkpt>
      <trkpt lat="44.72154" lon="4.68118">
        <ele>183</ele>
        <time>2013-02-08T10:57:09Z</time>
      </trkpt>
      <trkpt lat="44.72152" lon="4.68121">
        <ele>182</ele>
        <time>2013-02-08T10:57:11Z</time>
      </trkpt>
      <trkpt lat="44.72152" lon="4.68125">
        <ele>182</ele>
        <time>2013-02-08T10:57:13Z</time>
      </trkpt>
      <trkpt lat="44.72151" lon="4.68128">
        <ele>182</ele>
        <time>2013-02-08T10:57:15Z</time>
      </trkpt>
      <trkpt lat="44.72151" lon="4.68132">
        <ele>182</ele>
        <time>2013-02-08T10:57:18Z</time>
      </trkpt>
      <trkpt lat="44.72151" lon="4.68135">
        <ele>182</ele>
        <time>2013-02-08T10:57:24Z</time>
      </trkpt>
      <trkpt lat="44.7215" lon="4.68137">
        <ele>182</ele>
        <time>2013-02-08T10:57:26Z</time>
      </trkpt>
      <trkpt lat="44.72149" lon="4.68139">
        <ele>182</ele>
        <time>2013-02-08T10:57:28Z</time>
      </trkpt>
      <trkpt lat="44.72149" lon="4.68141">
        <ele>182</ele>
        <time>2013-02-08T10:57:31Z</time>
      </trkpt>
      <trkpt lat="44.72148" lon="4.68144">
        <ele>182</ele>
        <time>2013-02-08T10:57:33Z</time>
      </trkpt>
      <trkpt lat="44.72148" lon="4.68147">
        <ele>182</ele>
        <time>2013-02-08T10:57:35Z</time>
      </trkpt>
      <trkpt lat="44.72147" lon="4.6815">
        <ele>182</ele>
        <time>2013-02-08T10:57:37Z</time>
      </trkpt>
      <trkpt lat="44.72147" lon="4.68153">
        <ele>182</ele>
        <time>2013-02-08T10:57:39Z</time>
      </trkpt>
      <trkpt lat="44.72146" lon="4.68156">
        <ele>182</ele>
        <time>2013-02-08T10:57:41Z</time>
      </trkpt>
      <trkpt lat="44.72146" lon="4.68159">
        <ele>182</ele>
        <time>2013-02-08T10:57:43Z</time>
      </trkpt>
      <trkpt lat="44.72146" lon="4.68162">
        <ele>182</ele>
        <time>2013-02-08T10:57:45Z</time>
      </trkpt>
      <trkpt lat="44.72145" lon="4.68165">
        <ele>182</ele>
        <time>2013-02-08T10:57:47Z</time>
      </trkpt>
      <trkpt lat="44.72144" lon="4.68169">
        <ele>183</ele>
        <time>2013-02-08T10:57:49Z</time>
      </trkpt>
      <trkpt lat="44.72143" lon="4.68172">
        <ele>182</ele>
        <time>2013-02-08T10:57:51Z</time>
      </trkpt>
      <trkpt lat="44.72142" lon="4.68175">
        <ele>182</ele>
        <time>2013-02-08T10:57:53Z</time>
      </trkpt>
      <trkpt lat="44.72142" lon="4.68178">
        <ele>182</ele>
        <time>2013-02-08T10:57:55Z</time>
      </trkpt>
      <trkpt lat="44.72141" lon="4.68182">
        <ele>182</ele>
        <time>2013-02-08T10:57:57Z</time>
      </trkpt>
      <trkpt lat="44.72141" lon="4.68185">
        <ele>182</ele>
        <time>2013-02-08T10:57:59Z</time>
      </trkpt>
      <trkpt lat="44.72139" lon="4.68189">
        <ele>182</ele>
        <time>2013-02-08T10:58:02Z</time>
      </trkpt>
      <trkpt lat="44.72139" lon="4.68192">
        <ele>182</ele>
        <time>2013-02-08T10:58:04Z</time>
      </trkpt>
      <trkpt lat="44.72139" lon="4.68195">
        <ele>182</ele>
        <time>2013-02-08T10:58:06Z</time>
      </trkpt>
      <trkpt lat="44.72138" lon="4.682">
        <ele>182</ele>
        <time>2013-02-08T10:58:09Z</time>
      </trkpt>
      <trkpt lat="44.72138" lon="4.68203">
        <ele>182</ele>
        <time>2013-02-08T10:58:11Z</time>
      </trkpt>
      <trkpt lat="44.72137" lon="4.68206">
        <ele>182</ele>
        <time>2013-02-08T10:58:13Z</time>
      </trkpt>
      <trkpt lat="44.72137" lon="4.68209">
        <ele>182</ele>
        <time>2013-02-08T10:58:15Z</time>
      </trkpt>
      <trkpt lat="44.72136" lon="4.68214">
        <ele>182</ele>
        <time>2013-02-08T10:58:18Z</time>
      </trkpt>
      <trkpt lat="44.72135" lon="4.68217">
        <ele>182</ele>
        <time>2013-02-08T10:58:20Z</time>
      </trkpt>
      <trkpt lat="44.72135" lon="4.68221">
        <ele>182</ele>
        <time>2013-02-08T10:58:23Z</time>
      </trkpt>
      <trkpt lat="44.72134" lon="4.68224">
        <ele>182</ele>
        <time>2013-02-08T10:58:25Z</time>
      </trkpt>
      <trkpt lat="44.72134" lon="4.68228">
        <ele>182</ele>
        <time>2013-02-08T10:58:27Z</time>
      </trkpt>
      <trkpt lat="44.72133" lon="4.68231">
        <ele>182</ele>
        <time>2013-02-08T10:58:29Z</time>
      </trkpt>
      <trkpt lat="44.72133" lon="4.68234">
        <ele>182</ele>
        <time>2013-02-08T10:58:31Z</time>
      </trkpt>
      <trkpt lat="44.72133" lon="4.68238">
        <ele>183</ele>
        <time>2013-02-08T10:58:34Z</time>
      </trkpt>
      <trkpt lat="44.72133" lon="4.68241">
        <ele>183</ele>
        <time>2013-02-08T10:58:36Z</time>
      </trkpt>
      <trkpt lat="44.72132" lon="4.68244">
        <ele>183</ele>
        <time>2013-02-08T10:58:38Z</time>
      </trkpt>
      <trkpt lat="44.72132" lon="4.68247">
        <ele>183</ele>
        <time>2013-02-08T10:58:40Z</time>
      </trkpt>
      <trkpt lat="44.72133" lon="4.68249">
        <ele>183</ele>
        <time>2013-02-08T10:58:42Z</time>
      </trkpt>
      <trkpt lat="44.72133" lon="4.68251">
        <ele>183</ele>
        <time>2013-02-08T10:58:44Z</time>
      </trkpt>
      <trkpt lat="44.72133" lon="4.68253">
        <ele>183</ele>
        <time>2013-02-08T10:58:46Z</time>
      </trkpt>
      <trkpt lat="44.72133" lon="4.68254">
        <ele>183</ele>
        <time>2013-02-08T10:59:01Z</time>
      </trkpt>
      <trkpt lat="44.72131" lon="4.68255">
        <ele>183</ele>
        <time>2013-02-08T10:59:14Z</time>
      </trkpt>
      <trkpt lat="44.7213" lon="4.68255">
        <ele>183</ele>
        <time>2013-02-08T10:59:17Z</time>
      </trkpt>
      <trkpt lat="44.72128" lon="4.68255">
        <ele>183</ele>
        <time>2013-02-08T10:59:19Z</time>
      </trkpt>
      <trkpt lat="44.72126" lon="4.68255">
        <ele>183</ele>
        <time>2013-02-08T10:59:21Z</time>
      </trkpt>
      <trkpt lat="44.72125" lon="4.68255">
        <ele>183</ele>
        <time>2013-02-08T10:59:23Z</time>
      </trkpt>
      <trkpt lat="44.72123" lon="4.68255">
        <ele>183</ele>
        <time>2013-02-08T10:59:25Z</time>
      </trkpt>
      <trkpt lat="44.72121" lon="4.68255">
        <ele>183</ele>
        <time>2013-02-08T10:59:27Z</time>
      </trkpt>
      <trkpt lat="44.72119" lon="4.68255">
        <ele>183</ele>
        <time>2013-02-08T10:59:29Z</time>
      </trkpt>
      <trkpt lat="44.72115" lon="4.68255">
        <ele>183</ele>
        <time>2013-02-08T10:59:32Z</time>
      </trkpt>
      <trkpt lat="44.72112" lon="4.68254">
        <ele>183</ele>
        <time>2013-02-08T10:59:35Z</time>
      </trkpt>
      <trkpt lat="44.72109" lon="4.68254">
        <ele>183</ele>
        <time>2013-02-08T10:59:38Z</time>
      </trkpt>
      <trkpt lat="44.72108" lon="4.68254">
        <ele>183</ele>
        <time>2013-02-08T10:59:42Z</time>
      </trkpt>
      <trkpt lat="44.72106" lon="4.68254">
        <ele>183</ele>
        <time>2013-02-08T10:59:44Z</time>
      </trkpt>
      <trkpt lat="44.72104" lon="4.68254">
        <ele>183</ele>
        <time>2013-02-08T10:59:46Z</time>
      </trkpt>
      <trkpt lat="44.72102" lon="4.68254">
        <ele>182</ele>
        <time>2013-02-08T10:59:48Z</time>
      </trkpt>
      <trkpt lat="44.72099" lon="4.68254">
        <ele>182</ele>
        <time>2013-02-08T10:59:50Z</time>
      </trkpt>
      <trkpt lat="44.72097" lon="4.68254">
        <ele>182</ele>
        <time>2013-02-08T10:59:52Z</time>
      </trkpt>
      <trkpt lat="44.72095" lon="4.68254">
        <ele>182</ele>
        <time>2013-02-08T10:59:54Z</time>
      </trkpt>
      <trkpt lat="44.72092" lon="4.68254">
        <ele>182</ele>
        <time>2013-02-08T10:59:56Z</time>
      </trkpt>
      <trkpt lat="44.7209" lon="4.68254">
        <ele>182</ele>
        <time>2013-02-08T10:59:58Z</time>
      </trkpt>
      <trkpt lat="44.72088" lon="4.68254">
        <ele>182</ele>
        <time>2013-02-08T11:00:00Z</time>
      </trkpt>
      <trkpt lat="44.72086" lon="4.68254">
        <ele>181</ele>
        <time>2013-02-08T11:00:02Z</time>
      </trkpt>
      <trkpt lat="44.72084" lon="4.68254">
        <ele>181</ele>
        <time>2013-02-08T11:00:04Z</time>
      </trkpt>
      <trkpt lat="44.72081" lon="4.68255">
        <ele>181</ele>
        <time>2013-02-08T11:00:06Z</time>
      </trkpt>
      <trkpt lat="44.72079" lon="4.68256">
        <ele>181</ele>
        <time>2013-02-08T11:00:08Z</time>
      </trkpt>
      <trkpt lat="44.72077" lon="4.68257">
        <ele>181</ele>
        <time>2013-02-08T11:00:10Z</time>
      </trkpt>
      <trkpt lat="44.72074" lon="4.68258">
        <ele>181</ele>
        <time>2013-02-08T11:00:12Z</time>
      </trkpt>
      <trkpt lat="44.72071" lon="4.6826">
        <ele>181</ele>
        <time>2013-02-08T11:00:15Z</time>
      </trkpt>
      <trkpt lat="44.72068" lon="4.68262">
        <ele>181</ele>
        <time>2013-02-08T11:00:18Z</time>
      </trkpt>
      <trkpt lat="44.72065" lon="4.68264">
        <ele>181</ele>
        <time>2013-02-08T11:00:20Z</time>
      </trkpt>
      <trkpt lat="44.72063" lon="4.68265">
        <ele>181</ele>
        <time>2013-02-08T11:00:22Z</time>
      </trkpt>
      <trkpt lat="44.72061" lon="4.68267">
        <ele>181</ele>
        <time>2013-02-08T11:00:24Z</time>
      </trkpt>
      <trkpt lat="44.72057" lon="4.68269">
        <ele>181</ele>
        <time>2013-02-08T11:00:27Z</time>
      </trkpt>
      <trkpt lat="44.72055" lon="4.6827">
        <ele>181</ele>
        <time>2013-02-08T11:00:29Z</time>
      </trkpt>
      <trkpt lat="44.72052" lon="4.68272">
        <ele>181</ele>
        <time>2013-02-08T11:00:32Z</time>
      </trkpt>
      <trkpt lat="44.72049" lon="4.68274">
        <ele>181</ele>
        <time>2013-02-08T11:00:34Z</time>
      </trkpt>
      <trkpt lat="44.72046" lon="4.68276">
        <ele>180</ele>
        <time>2013-02-08T11:00:37Z</time>
      </trkpt>
      <trkpt lat="44.72043" lon="4.68279">
        <ele>180</ele>
        <time>2013-02-08T11:00:40Z</time>
      </trkpt>
      <trkpt lat="44.7204" lon="4.6828">
        <ele>180</ele>
        <time>2013-02-08T11:00:42Z</time>
      </trkpt>
      <trkpt lat="44.72038" lon="4.68281">
        <ele>180</ele>
        <time>2013-02-08T11:00:44Z</time>
      </trkpt>
      <trkpt lat="44.72036" lon="4.68283">
        <ele>180</ele>
        <time>2013-02-08T11:00:46Z</time>
      </trkpt>
      <trkpt lat="44.72033" lon="4.68284">
        <ele>180</ele>
        <time>2013-02-08T11:00:48Z</time>
      </trkpt>
      <trkpt lat="44.72031" lon="4.68285">
        <ele>180</ele>
        <time>2013-02-08T11:00:50Z</time>
      </trkpt>
      <trkpt lat="44.72029" lon="4.68286">
        <ele>180</ele>
        <time>2013-02-08T11:00:52Z</time>
      </trkpt>
      <trkpt lat="44.72025" lon="4.68288">
        <ele>180</ele>
        <time>2013-02-08T11:00:55Z</time>
      </trkpt>
      <trkpt lat="44.72023" lon="4.68289">
        <ele>180</ele>
        <time>2013-02-08T11:00:57Z</time>
      </trkpt>
      <trkpt lat="44.7202" lon="4.68291">
        <ele>180</ele>
        <time>2013-02-08T11:01:00Z</time>
      </trkpt>
      <trkpt lat="44.72017" lon="4.68292">
        <ele>180</ele>
        <time>2013-02-08T11:01:02Z</time>
      </trkpt>
      <trkpt lat="44.72014" lon="4.68294">
        <ele>180</ele>
        <time>2013-02-08T11:01:05Z</time>
      </trkpt>
      <trkpt lat="44.72012" lon="4.68295">
        <ele>180</ele>
        <time>2013-02-08T11:01:07Z</time>
      </trkpt>
      <trkpt lat="44.72009" lon="4.68296">
        <ele>180</ele>
        <time>2013-02-08T11:01:09Z</time>
      </trkpt>
      <trkpt lat="44.72007" lon="4.68297">
        <ele>180</ele>
        <time>2013-02-08T11:01:11Z</time>
      </trkpt>
      <trkpt lat="44.72005" lon="4.68297">
        <ele>180</ele>
        <time>2013-02-08T11:01:13Z</time>
      </trkpt>
      <trkpt lat="44.72003" lon="4.68298">
        <ele>180</ele>
        <time>2013-02-08T11:01:15Z</time>
      </trkpt>
      <trkpt lat="44.72" lon="4.68299">
        <ele>180</ele>
        <time>2013-02-08T11:01:17Z</time>
      </trkpt>
      <trkpt lat="44.71998" lon="4.683">
        <ele>178</ele>
        <time>2013-02-08T11:01:19Z</time>
      </trkpt>
      <trkpt lat="44.71996" lon="4.68301">
        <ele>178</ele>
        <time>2013-02-08T11:01:21Z</time>
      </trkpt>
      <trkpt lat="44.71993" lon="4.68301">
        <ele>178</ele>
        <time>2013-02-08T11:01:23Z</time>
      </trkpt>
      <trkpt lat="44.71991" lon="4.68302">
        <ele>178</ele>
        <time>2013-02-08T11:01:25Z</time>
      </trkpt>
      <trkpt lat="44.71989" lon="4.68303">
        <ele>178</ele>
        <time>2013-02-08T11:01:27Z</time>
      </trkpt>
      <trkpt lat="44.71986" lon="4.68304">
        <ele>178</ele>
        <time>2013-02-08T11:01:29Z</time>
      </trkpt>
      <trkpt lat="44.71984" lon="4.68304">
        <ele>178</ele>
        <time>2013-02-08T11:01:31Z</time>
      </trkpt>
      <trkpt lat="44.71982" lon="4.68305">
        <ele>178</ele>
        <time>2013-02-08T11:01:33Z</time>
      </trkpt>
      <trkpt lat="44.71979" lon="4.68306">
        <ele>178</ele>
        <time>2013-02-08T11:01:35Z</time>
      </trkpt>
      <trkpt lat="44.71977" lon="4.68307">
        <ele>178</ele>
        <time>2013-02-08T11:01:37Z</time>
      </trkpt>
      <trkpt lat="44.71975" lon="4.68308">
        <ele>178</ele>
        <time>2013-02-08T11:01:39Z</time>
      </trkpt>
      <trkpt lat="44.71972" lon="4.68309">
        <ele>178</ele>
        <time>2013-02-08T11:01:41Z</time>
      </trkpt>
      <trkpt lat="44.7197" lon="4.6831">
        <ele>178</ele>
        <time>2013-02-08T11:01:43Z</time>
      </trkpt>
      <trkpt lat="44.71968" lon="4.68311">
        <ele>178</ele>
        <time>2013-02-08T11:01:45Z</time>
      </trkpt>
      <trkpt lat="44.71965" lon="4.68312">
        <ele>178</ele>
        <time>2013-02-08T11:01:47Z</time>
      </trkpt>
      <trkpt lat="44.71963" lon="4.68313">
        <ele>178</ele>
        <time>2013-02-08T11:01:49Z</time>
      </trkpt>
      <trkpt lat="44.7196" lon="4.68315">
        <ele>178</ele>
        <time>2013-02-08T11:01:52Z</time>
      </trkpt>
      <trkpt lat="44.71957" lon="4.68316">
        <ele>178</ele>
        <time>2013-02-08T11:01:55Z</time>
      </trkpt>
      <trkpt lat="44.71954" lon="4.68317">
        <ele>178</ele>
        <time>2013-02-08T11:01:57Z</time>
      </trkpt>
      <trkpt lat="44.71952" lon="4.68318">
        <ele>178</ele>
        <time>2013-02-08T11:01:59Z</time>
      </trkpt>
      <trkpt lat="44.7195" lon="4.68319">
        <ele>178</ele>
        <time>2013-02-08T11:02:01Z</time>
      </trkpt>
      <trkpt lat="44.71951" lon="4.68318">
        <ele>178</ele>
        <time>2013-02-08T11:02:21Z</time>
      </trkpt>
      <trkpt lat="44.7195" lon="4.68319">
        <ele>178</ele>
        <time>2013-02-08T11:02:26Z</time>
      </trkpt>
      <trkpt lat="44.71948" lon="4.68319">
        <ele>178</ele>
        <time>2013-02-08T11:02:28Z</time>
      </trkpt>
      <trkpt lat="44.71946" lon="4.68319">
        <ele>178</ele>
        <time>2013-02-08T11:02:30Z</time>
      </trkpt>
      <trkpt lat="44.71943" lon="4.68319">
        <ele>178</ele>
        <time>2013-02-08T11:02:33Z</time>
      </trkpt>
      <trkpt lat="44.71941" lon="4.68318">
        <ele>178</ele>
        <time>2013-02-08T11:02:35Z</time>
      </trkpt>
      <trkpt lat="44.7194" lon="4.68318">
        <ele>178</ele>
        <time>2013-02-08T11:02:37Z</time>
      </trkpt>
      <trkpt lat="44.71938" lon="4.68317">
        <ele>177</ele>
        <time>2013-02-08T11:02:39Z</time>
      </trkpt>
      <trkpt lat="44.71935" lon="4.68316">
        <ele>177</ele>
        <time>2013-02-08T11:02:42Z</time>
      </trkpt>
      <trkpt lat="44.71932" lon="4.68314">
        <ele>177</ele>
        <time>2013-02-08T11:02:45Z</time>
      </trkpt>
      <trkpt lat="44.71928" lon="4.68313">
        <ele>177</ele>
        <time>2013-02-08T11:02:48Z</time>
      </trkpt>
      <trkpt lat="44.71927" lon="4.68311">
        <ele>177</ele>
        <time>2013-02-08T11:02:50Z</time>
      </trkpt>
      <trkpt lat="44.71924" lon="4.68309">
        <ele>177</ele>
        <time>2013-02-08T11:02:53Z</time>
      </trkpt>
      <trkpt lat="44.71921" lon="4.68308">
        <ele>177</ele>
        <time>2013-02-08T11:02:55Z</time>
      </trkpt>
      <trkpt lat="44.7192" lon="4.68307">
        <ele>177</ele>
        <time>2013-02-08T11:02:57Z</time>
      </trkpt>
      <trkpt lat="44.71917" lon="4.68305">
        <ele>177</ele>
        <time>2013-02-08T11:02:59Z</time>
      </trkpt>
      <trkpt lat="44.71915" lon="4.68304">
        <ele>176</ele>
        <time>2013-02-08T11:03:01Z</time>
      </trkpt>
      <trkpt lat="44.71914" lon="4.68302">
        <ele>176</ele>
        <time>2013-02-08T11:03:03Z</time>
      </trkpt>
      <trkpt lat="44.71913" lon="4.683">
        <ele>176</ele>
        <time>2013-02-08T11:03:05Z</time>
      </trkpt>
      <trkpt lat="44.71911" lon="4.68298">
        <ele>176</ele>
        <time>2013-02-08T11:03:10Z</time>
      </trkpt>
      <trkpt lat="44.71909" lon="4.68296">
        <ele>176</ele>
        <time>2013-02-08T11:03:12Z</time>
      </trkpt>
      <trkpt lat="44.71907" lon="4.68295">
        <ele>176</ele>
        <time>2013-02-08T11:03:14Z</time>
      </trkpt>
      <trkpt lat="44.71905" lon="4.68293">
        <ele>176</ele>
        <time>2013-02-08T11:03:16Z</time>
      </trkpt>
      <trkpt lat="44.71904" lon="4.68291">
        <ele>176</ele>
        <time>2013-02-08T11:03:18Z</time>
      </trkpt>
      <trkpt lat="44.71902" lon="4.68289">
        <ele>176</ele>
        <time>2013-02-08T11:03:20Z</time>
      </trkpt>
      <trkpt lat="44.719" lon="4.68287">
        <ele>176</ele>
        <time>2013-02-08T11:03:22Z</time>
      </trkpt>
      <trkpt lat="44.71899" lon="4.68285">
        <ele>176</ele>
        <time>2013-02-08T11:03:24Z</time>
      </trkpt>
      <trkpt lat="44.71897" lon="4.68283">
        <ele>176</ele>
        <time>2013-02-08T11:03:26Z</time>
      </trkpt>
      <trkpt lat="44.71895" lon="4.68282">
        <ele>176</ele>
        <time>2013-02-08T11:03:28Z</time>
      </trkpt>
      <trkpt lat="44.71893" lon="4.6828">
        <ele>176</ele>
        <time>2013-02-08T11:03:30Z</time>
      </trkpt>
      <trkpt lat="44.71892" lon="4.68278">
        <ele>176</ele>
        <time>2013-02-08T11:03:32Z</time>
      </trkpt>
      <trkpt lat="44.7189" lon="4.68277">
        <ele>176</ele>
        <time>2013-02-08T11:03:34Z</time>
      </trkpt>
      <trkpt lat="44.71888" lon="4.68275">
        <ele>176</ele>
        <time>2013-02-08T11:03:36Z</time>
      </trkpt>
      <trkpt lat="44.71887" lon="4.68273">
        <ele>176</ele>
        <time>2013-02-08T11:03:38Z</time>
      </trkpt>
      <trkpt lat="44.71885" lon="4.68271">
        <ele>176</ele>
        <time>2013-02-08T11:03:40Z</time>
      </trkpt>
      <trkpt lat="44.71882" lon="4.6827">
        <ele>176</ele>
        <time>2013-02-08T11:03:42Z</time>
      </trkpt>
      <trkpt lat="44.7188" lon="4.68268">
        <ele>176</ele>
        <time>2013-02-08T11:03:44Z</time>
      </trkpt>
      <trkpt lat="44.71878" lon="4.68267">
        <ele>176</ele>
        <time>2013-02-08T11:03:46Z</time>
      </trkpt>
      <trkpt lat="44.71877" lon="4.68265">
        <ele>176</ele>
        <time>2013-02-08T11:03:48Z</time>
      </trkpt>
      <trkpt lat="44.71874" lon="4.68264">
        <ele>176</ele>
        <time>2013-02-08T11:03:51Z</time>
      </trkpt>
      <trkpt lat="44.71871" lon="4.68263">
        <ele>175</ele>
        <time>2013-02-08T11:03:53Z</time>
      </trkpt>
      <trkpt lat="44.71869" lon="4.68262">
        <ele>175</ele>
        <time>2013-02-08T11:03:55Z</time>
      </trkpt>
      <trkpt lat="44.71866" lon="4.68261">
        <ele>175</ele>
        <time>2013-02-08T11:03:58Z</time>
      </trkpt>
      <trkpt lat="44.71864" lon="4.6826">
        <ele>175</ele>
        <time>2013-02-08T11:04:00Z</time>
      </trkpt>
      <trkpt lat="44.71861" lon="4.68259">
        <ele>175</ele>
        <time>2013-02-08T11:04:03Z</time>
      </trkpt>
      <trkpt lat="44.71859" lon="4.68259">
        <ele>175</ele>
        <time>2013-02-08T11:04:05Z</time>
      </trkpt>
      <trkpt lat="44.71856" lon="4.68258">
        <ele>175</ele>
        <time>2013-02-08T11:04:07Z</time>
      </trkpt>
      <trkpt lat="44.71854" lon="4.68258">
        <ele>175</ele>
        <time>2013-02-08T11:04:09Z</time>
      </trkpt>
      <trkpt lat="44.71852" lon="4.68257">
        <ele>175</ele>
        <time>2013-02-08T11:04:11Z</time>
      </trkpt>
      <trkpt lat="44.71849" lon="4.68257">
        <ele>175</ele>
        <time>2013-02-08T11:04:13Z</time>
      </trkpt>
      <trkpt lat="44.71847" lon="4.68256">
        <ele>175</ele>
        <time>2013-02-08T11:04:15Z</time>
      </trkpt>
      <trkpt lat="44.71845" lon="4.68256">
        <ele>175</ele>
        <time>2013-02-08T11:04:17Z</time>
      </trkpt>
      <trkpt lat="44.71843" lon="4.68256">
        <ele>175</ele>
        <time>2013-02-08T11:04:19Z</time>
      </trkpt>
      <trkpt lat="44.7184" lon="4.68253">
        <ele>174</ele>
        <time>2013-02-08T11:04:22Z</time>
      </trkpt>
      <trkpt lat="44.71838" lon="4.68252">
        <ele>174</ele>
        <time>2013-02-08T11:04:24Z</time>
      </trkpt>
      <trkpt lat="44.71836" lon="4.68252">
        <ele>174</ele>
        <time>2013-02-08T11:04:26Z</time>
      </trkpt>
      <trkpt lat="44.71833" lon="4.68252">
        <ele>174</ele>
        <time>2013-02-08T11:04:29Z</time>
      </trkpt>
      <trkpt lat="44.7183" lon="4.68252">
        <ele>174</ele>
        <time>2013-02-08T11:04:31Z</time>
      </trkpt>
      <trkpt lat="44.71828" lon="4.68252">
        <ele>174</ele>
        <time>2013-02-08T11:04:33Z</time>
      </trkpt>
      <trkpt lat="44.71826" lon="4.68253">
        <ele>174</ele>
        <time>2013-02-08T11:04:35Z</time>
      </trkpt>
      <trkpt lat="44.71824" lon="4.68253">
        <ele>174</ele>
        <time>2013-02-08T11:04:37Z</time>
      </trkpt>
      <trkpt lat="44.71821" lon="4.68253">
        <ele>174</ele>
        <time>2013-02-08T11:04:40Z</time>
      </trkpt>
      <trkpt lat="44.71818" lon="4.68254">
        <ele>173</ele>
        <time>2013-02-08T11:04:42Z</time>
      </trkpt>
      <trkpt lat="44.71816" lon="4.68255">
        <ele>173</ele>
        <time>2013-02-08T11:04:44Z</time>
      </trkpt>
      <trkpt lat="44.71813" lon="4.68256">
        <ele>173</ele>
        <time>2013-02-08T11:04:47Z</time>
      </trkpt>
      <trkpt lat="44.7181" lon="4.68256">
        <ele>173</ele>
        <time>2013-02-08T11:04:49Z</time>
      </trkpt>
      <trkpt lat="44.71808" lon="4.68257">
        <ele>173</ele>
        <time>2013-02-08T11:04:51Z</time>
      </trkpt>
      <trkpt lat="44.71806" lon="4.68257">
        <ele>173</ele>
        <time>2013-02-08T11:04:53Z</time>
      </trkpt>
      <trkpt lat="44.71802" lon="4.68258">
        <ele>173</ele>
        <time>2013-02-08T11:04:56Z</time>
      </trkpt>
      <trkpt lat="44.718" lon="4.68258">
        <ele>173</ele>
        <time>2013-02-08T11:04:58Z</time>
      </trkpt>
      <trkpt lat="44.71797" lon="4.68259">
        <ele>173</ele>
        <time>2013-02-08T11:05:01Z</time>
      </trkpt>
      <trkpt lat="44.71795" lon="4.68258">
        <ele>173</ele>
        <time>2013-02-08T11:05:03Z</time>
      </trkpt>
      <trkpt lat="44.71791" lon="4.68259">
        <ele>173</ele>
        <time>2013-02-08T11:05:06Z</time>
      </trkpt>
      <trkpt lat="44.71788" lon="4.68259">
        <ele>173</ele>
        <time>2013-02-08T11:05:09Z</time>
      </trkpt>
      <trkpt lat="44.71785" lon="4.68259">
        <ele>172</ele>
        <time>2013-02-08T11:05:11Z</time>
      </trkpt>
      <trkpt lat="44.71784" lon="4.68259">
        <ele>172</ele>
        <time>2013-02-08T11:05:13Z</time>
      </trkpt>
      <trkpt lat="44.71781" lon="4.68259">
        <ele>172</ele>
        <time>2013-02-08T11:05:15Z</time>
      </trkpt>
      <trkpt lat="44.71779" lon="4.6826">
        <ele>172</ele>
        <time>2013-02-08T11:05:17Z</time>
      </trkpt>
      <trkpt lat="44.71777" lon="4.68261">
        <ele>172</ele>
        <time>2013-02-08T11:05:19Z</time>
      </trkpt>
      <trkpt lat="44.71774" lon="4.68261">
        <ele>172</ele>
        <time>2013-02-08T11:05:21Z</time>
      </trkpt>
      <trkpt lat="44.71772" lon="4.68261">
        <ele>172</ele>
        <time>2013-02-08T11:05:23Z</time>
      </trkpt>
      <trkpt lat="44.7177" lon="4.68261">
        <ele>172</ele>
        <time>2013-02-08T11:05:25Z</time>
      </trkpt>
      <trkpt lat="44.71768" lon="4.68261">
        <ele>172</ele>
        <time>2013-02-08T11:05:27Z</time>
      </trkpt>
      <trkpt lat="44.71766" lon="4.68261">
        <ele>172</ele>
        <time>2013-02-08T11:05:29Z</time>
      </trkpt>
      <trkpt lat="44.71762" lon="4.68261">
        <ele>171</ele>
        <time>2013-02-08T11:05:32Z</time>
      </trkpt>
      <trkpt lat="44.7176" lon="4.68261">
        <ele>171</ele>
        <time>2013-02-08T11:05:34Z</time>
      </trkpt>
      <trkpt lat="44.71757" lon="4.68262">
        <ele>171</ele>
        <time>2013-02-08T11:05:36Z</time>
      </trkpt>
      <trkpt lat="44.71755" lon="4.68262">
        <ele>171</ele>
        <time>2013-02-08T11:05:38Z</time>
      </trkpt>
      <trkpt lat="44.71753" lon="4.68262">
        <ele>171</ele>
        <time>2013-02-08T11:05:40Z</time>
      </trkpt>
      <trkpt lat="44.7175" lon="4.68262">
        <ele>170</ele>
        <time>2013-02-08T11:05:43Z</time>
      </trkpt>
      <trkpt lat="44.71748" lon="4.68263">
        <ele>170</ele>
        <time>2013-02-08T11:05:45Z</time>
      </trkpt>
      <trkpt lat="44.71745" lon="4.68263">
        <ele>170</ele>
        <time>2013-02-08T11:05:48Z</time>
      </trkpt>
      <trkpt lat="44.71743" lon="4.68264">
        <ele>169</ele>
        <time>2013-02-08T11:05:50Z</time>
      </trkpt>
      <trkpt lat="44.7174" lon="4.68264">
        <ele>169</ele>
        <time>2013-02-08T11:05:52Z</time>
      </trkpt>
      <trkpt lat="44.71738" lon="4.68264">
        <ele>169</ele>
        <time>2013-02-08T11:05:54Z</time>
      </trkpt>
      <trkpt lat="44.71737" lon="4.68265">
        <ele>169</ele>
        <time>2013-02-08T11:05:56Z</time>
      </trkpt>
      <trkpt lat="44.71733" lon="4.68266">
        <ele>169</ele>
        <time>2013-02-08T11:05:59Z</time>
      </trkpt>
      <trkpt lat="44.71731" lon="4.68267">
        <ele>169</ele>
        <time>2013-02-08T11:06:01Z</time>
      </trkpt>
      <trkpt lat="44.71729" lon="4.68267">
        <ele>169</ele>
        <time>2013-02-08T11:06:03Z</time>
      </trkpt>
      <trkpt lat="44.71727" lon="4.68268">
        <ele>169</ele>
        <time>2013-02-08T11:06:05Z</time>
      </trkpt>
      <trkpt lat="44.71724" lon="4.68268">
        <ele>169</ele>
        <time>2013-02-08T11:06:07Z</time>
      </trkpt>
      <trkpt lat="44.71722" lon="4.68269">
        <ele>169</ele>
        <time>2013-02-08T11:06:09Z</time>
      </trkpt>
      <trkpt lat="44.7172" lon="4.68269">
        <ele>169</ele>
        <time>2013-02-08T11:06:11Z</time>
      </trkpt>
      <trkpt lat="44.71718" lon="4.6827">
        <ele>169</ele>
        <time>2013-02-08T11:06:13Z</time>
      </trkpt>
      <trkpt lat="44.71715" lon="4.68271">
        <ele>169</ele>
        <time>2013-02-08T11:06:16Z</time>
      </trkpt>
      <trkpt lat="44.71714" lon="4.68271">
        <ele>169</ele>
        <time>2013-02-08T11:06:18Z</time>
      </trkpt>
      <trkpt lat="44.71712" lon="4.68271">
        <ele>169</ele>
        <time>2013-02-08T11:06:20Z</time>
      </trkpt>
      <trkpt lat="44.71711" lon="4.68272">
        <ele>169</ele>
        <time>2013-02-08T11:06:22Z</time>
      </trkpt>
      <trkpt lat="44.71709" lon="4.68273">
        <ele>169</ele>
        <time>2013-02-08T11:06:24Z</time>
      </trkpt>
      <trkpt lat="44.71707" lon="4.68273">
        <ele>169</ele>
        <time>2013-02-08T11:06:26Z</time>
      </trkpt>
      <trkpt lat="44.71704" lon="4.68274">
        <ele>168</ele>
        <time>2013-02-08T11:06:29Z</time>
      </trkpt>
      <trkpt lat="44.71702" lon="4.68274">
        <ele>168</ele>
        <time>2013-02-08T11:06:31Z</time>
      </trkpt>
      <trkpt lat="44.71699" lon="4.68275">
        <ele>168</ele>
        <time>2013-02-08T11:06:34Z</time>
      </trkpt>
      <trkpt lat="44.71697" lon="4.68276">
        <ele>168</ele>
        <time>2013-02-08T11:06:36Z</time>
      </trkpt>
      <trkpt lat="44.71695" lon="4.68277">
        <ele>168</ele>
        <time>2013-02-08T11:06:38Z</time>
      </trkpt>
      <trkpt lat="44.71693" lon="4.68278">
        <ele>168</ele>
        <time>2013-02-08T11:06:40Z</time>
      </trkpt>
      <trkpt lat="44.71691" lon="4.68279">
        <ele>168</ele>
        <time>2013-02-08T11:06:42Z</time>
      </trkpt>
      <trkpt lat="44.71689" lon="4.68281">
        <ele>168</ele>
        <time>2013-02-08T11:06:44Z</time>
      </trkpt>
      <trkpt lat="44.71687" lon="4.68282">
        <ele>168</ele>
        <time>2013-02-08T11:06:46Z</time>
      </trkpt>
      <trkpt lat="44.71684" lon="4.68282">
        <ele>168</ele>
        <time>2013-02-08T11:06:48Z</time>
      </trkpt>
      <trkpt lat="44.71681" lon="4.68283">
        <ele>168</ele>
        <time>2013-02-08T11:06:51Z</time>
      </trkpt>
      <trkpt lat="44.71679" lon="4.68282">
        <ele>168</ele>
        <time>2013-02-08T11:06:53Z</time>
      </trkpt>
      <trkpt lat="44.71677" lon="4.68281">
        <ele>168</ele>
        <time>2013-02-08T11:06:55Z</time>
      </trkpt>
      <trkpt lat="44.71675" lon="4.6828">
        <ele>168</ele>
        <time>2013-02-08T11:06:57Z</time>
      </trkpt>
      <trkpt lat="44.71673" lon="4.68279">
        <ele>168</ele>
        <time>2013-02-08T11:06:59Z</time>
      </trkpt>
      <trkpt lat="44.71669" lon="4.68278">
        <ele>168</ele>
        <time>2013-02-08T11:07:02Z</time>
      </trkpt>
      <trkpt lat="44.71667" lon="4.68277">
        <ele>168</ele>
        <time>2013-02-08T11:07:04Z</time>
      </trkpt>
      <trkpt lat="44.71664" lon="4.68276">
        <ele>166</ele>
        <time>2013-02-08T11:07:06Z</time>
      </trkpt>
      <trkpt lat="44.71662" lon="4.68275">
        <ele>166</ele>
        <time>2013-02-08T11:07:08Z</time>
      </trkpt>
      <trkpt lat="44.7166" lon="4.68274">
        <ele>166</ele>
        <time>2013-02-08T11:07:10Z</time>
      </trkpt>
      <trkpt lat="44.71658" lon="4.68274">
        <ele>166</ele>
        <time>2013-02-08T11:07:12Z</time>
      </trkpt>
      <trkpt lat="44.71655" lon="4.68273">
        <ele>166</ele>
        <time>2013-02-08T11:07:14Z</time>
      </trkpt>
      <trkpt lat="44.71653" lon="4.68272">
        <ele>166</ele>
        <time>2013-02-08T11:07:16Z</time>
      </trkpt>
      <trkpt lat="44.71651" lon="4.68271">
        <ele>166</ele>
        <time>2013-02-08T11:07:18Z</time>
      </trkpt>
      <trkpt lat="44.71648" lon="4.68271">
        <ele>166</ele>
        <time>2013-02-08T11:07:20Z</time>
      </trkpt>
      <trkpt lat="44.71646" lon="4.6827">
        <ele>166</ele>
        <time>2013-02-08T11:07:22Z</time>
      </trkpt>
      <trkpt lat="44.71644" lon="4.68269">
        <ele>166</ele>
        <time>2013-02-08T11:07:24Z</time>
      </trkpt>
      <trkpt lat="44.7164" lon="4.68268">
        <ele>166</ele>
        <time>2013-02-08T11:07:27Z</time>
      </trkpt>
      <trkpt lat="44.71638" lon="4.68267">
        <ele>166</ele>
        <time>2013-02-08T11:07:29Z</time>
      </trkpt>
      <trkpt lat="44.71636" lon="4.68266">
        <ele>166</ele>
        <time>2013-02-08T11:07:31Z</time>
      </trkpt>
      <trkpt lat="44.71634" lon="4.68265">
        <ele>166</ele>
        <time>2013-02-08T11:07:33Z</time>
      </trkpt>
      <trkpt lat="44.71631" lon="4.68265">
        <ele>166</ele>
        <time>2013-02-08T11:07:35Z</time>
      </trkpt>
      <trkpt lat="44.71629" lon="4.68264">
        <ele>166</ele>
        <time>2013-02-08T11:07:37Z</time>
      </trkpt>
      <trkpt lat="44.71627" lon="4.68263">
        <ele>166</ele>
        <time>2013-02-08T11:07:39Z</time>
      </trkpt>
      <trkpt lat="44.71624" lon="4.68262">
        <ele>165</ele>
        <time>2013-02-08T11:07:41Z</time>
      </trkpt>
      <trkpt lat="44.71622" lon="4.68261">
        <ele>165</ele>
        <time>2013-02-08T11:07:43Z</time>
      </trkpt>
      <trkpt lat="44.71618" lon="4.68259">
        <ele>165</ele>
        <time>2013-02-08T11:07:46Z</time>
      </trkpt>
      <trkpt lat="44.71615" lon="4.68257">
        <ele>165</ele>
        <time>2013-02-08T11:07:49Z</time>
      </trkpt>
      <trkpt lat="44.71612" lon="4.68254">
        <ele>165</ele>
        <time>2013-02-08T11:07:52Z</time>
      </trkpt>
      <trkpt lat="44.7161" lon="4.68253">
        <ele>165</ele>
        <time>2013-02-08T11:07:54Z</time>
      </trkpt>
      <trkpt lat="44.71608" lon="4.68251">
        <ele>165</ele>
        <time>2013-02-08T11:07:56Z</time>
      </trkpt>
      <trkpt lat="44.71606" lon="4.68248">
        <ele>166</ele>
        <time>2013-02-08T11:07:58Z</time>
      </trkpt>
      <trkpt lat="44.71605" lon="4.68246">
        <ele>166</ele>
        <time>2013-02-08T11:08:00Z</time>
      </trkpt>
      <trkpt lat="44.71603" lon="4.68244">
        <ele>166</ele>
        <time>2013-02-08T11:08:02Z</time>
      </trkpt>
      <trkpt lat="44.71602" lon="4.6824">
        <ele>166</ele>
        <time>2013-02-08T11:08:04Z</time>
      </trkpt>
      <trkpt lat="44.71601" lon="4.68238">
        <ele>166</ele>
        <time>2013-02-08T11:08:06Z</time>
      </trkpt>
      <trkpt lat="44.71599" lon="4.68236">
        <ele>166</ele>
        <time>2013-02-08T11:08:08Z</time>
      </trkpt>
      <trkpt lat="44.71598" lon="4.68234">
        <ele>166</ele>
        <time>2013-02-08T11:08:10Z</time>
      </trkpt>
      <trkpt lat="44.71596" lon="4.68232">
        <ele>166</ele>
        <time>2013-02-08T11:08:12Z</time>
      </trkpt>
      <trkpt lat="44.71595" lon="4.6823">
        <ele>166</ele>
        <time>2013-02-08T11:08:14Z</time>
      </trkpt>
      <trkpt lat="44.71592" lon="4.68229">
        <ele>166</ele>
        <time>2013-02-08T11:08:16Z</time>
      </trkpt>
      <trkpt lat="44.71591" lon="4.68227">
        <ele>166</ele>
        <time>2013-02-08T11:08:18Z</time>
      </trkpt>
      <trkpt lat="44.71589" lon="4.68226">
        <ele>166</ele>
        <time>2013-02-08T11:08:20Z</time>
      </trkpt>
      <trkpt lat="44.71587" lon="4.68225">
        <ele>166</ele>
        <time>2013-02-08T11:08:22Z</time>
      </trkpt>
      <trkpt lat="44.71584" lon="4.68223">
        <ele>166</ele>
        <time>2013-02-08T11:08:25Z</time>
      </trkpt>
      <trkpt lat="44.71582" lon="4.68222">
        <ele>168</ele>
        <time>2013-02-08T11:08:27Z</time>
      </trkpt>
      <trkpt lat="44.7158" lon="4.6822">
        <ele>168</ele>
        <time>2013-02-08T11:08:29Z</time>
      </trkpt>
      <trkpt lat="44.71579" lon="4.68219">
        <ele>168</ele>
        <time>2013-02-08T11:08:31Z</time>
      </trkpt>
      <trkpt lat="44.71577" lon="4.68218">
        <ele>168</ele>
        <time>2013-02-08T11:08:33Z</time>
      </trkpt>
      <trkpt lat="44.71575" lon="4.68218">
        <ele>168</ele>
        <time>2013-02-08T11:08:35Z</time>
      </trkpt>
      <trkpt lat="44.71573" lon="4.68217">
        <ele>168</ele>
        <time>2013-02-08T11:08:37Z</time>
      </trkpt>
      <trkpt lat="44.71571" lon="4.68217">
        <ele>168</ele>
        <time>2013-02-08T11:08:39Z</time>
      </trkpt>
      <trkpt lat="44.71569" lon="4.68216">
        <ele>168</ele>
        <time>2013-02-08T11:08:41Z</time>
      </trkpt>
      <trkpt lat="44.71566" lon="4.68215">
        <ele>168</ele>
        <time>2013-02-08T11:08:43Z</time>
      </trkpt>
      <trkpt lat="44.71565" lon="4.68214">
        <ele>168</ele>
        <time>2013-02-08T11:08:45Z</time>
      </trkpt>
      <trkpt lat="44.71562" lon="4.68213">
        <ele>168</ele>
        <time>2013-02-08T11:08:47Z</time>
      </trkpt>
      <trkpt lat="44.7156" lon="4.68212">
        <ele>168</ele>
        <time>2013-02-08T11:08:49Z</time>
      </trkpt>
      <trkpt lat="44.71558" lon="4.68211">
        <ele>169</ele>
        <time>2013-02-08T11:08:51Z</time>
      </trkpt>
      <trkpt lat="44.71557" lon="4.6821">
        <ele>169</ele>
        <time>2013-02-08T11:08:53Z</time>
      </trkpt>
      <trkpt lat="44.71555" lon="4.68209">
        <ele>169</ele>
        <time>2013-02-08T11:08:55Z</time>
      </trkpt>
      <trkpt lat="44.71553" lon="4.68208">
        <ele>169</ele>
        <time>2013-02-08T11:08:57Z</time>
      </trkpt>
      <trkpt lat="44.71551" lon="4.68207">
        <ele>169</ele>
        <time>2013-02-08T11:08:59Z</time>
      </trkpt>
      <trkpt lat="44.7155" lon="4.68206">
        <ele>169</ele>
        <time>2013-02-08T11:09:01Z</time>
      </trkpt>
      <trkpt lat="44.71549" lon="4.68205">
        <ele>169</ele>
        <time>2013-02-08T11:09:03Z</time>
      </trkpt>
      <trkpt lat="44.71547" lon="4.68203">
        <ele>169</ele>
        <time>2013-02-08T11:09:05Z</time>
      </trkpt>
      <trkpt lat="44.71546" lon="4.68203">
        <ele>169</ele>
        <time>2013-02-08T11:09:08Z</time>
      </trkpt>
      <trkpt lat="44.71543" lon="4.68203">
        <ele>169</ele>
        <time>2013-02-08T11:09:10Z</time>
      </trkpt>
      <trkpt lat="44.71542" lon="4.68201">
        <ele>169</ele>
        <time>2013-02-08T11:09:12Z</time>
      </trkpt>
      <trkpt lat="44.7154" lon="4.68201">
        <ele>169</ele>
        <time>2013-02-08T11:09:14Z</time>
      </trkpt>
      <trkpt lat="44.71539" lon="4.682">
        <ele>169</ele>
        <time>2013-02-08T11:09:16Z</time>
      </trkpt>
      <trkpt lat="44.71537" lon="4.682">
        <ele>170</ele>
        <time>2013-02-08T11:09:18Z</time>
      </trkpt>
      <trkpt lat="44.71536" lon="4.68199">
        <ele>170</ele>
        <time>2013-02-08T11:09:20Z</time>
      </trkpt>
      <trkpt lat="44.71534" lon="4.68199">
        <ele>170</ele>
        <time>2013-02-08T11:09:22Z</time>
      </trkpt>
      <trkpt lat="44.71532" lon="4.68198">
        <ele>170</ele>
        <time>2013-02-08T11:09:24Z</time>
      </trkpt>
      <trkpt lat="44.71531" lon="4.68197">
        <ele>170</ele>
        <time>2013-02-08T11:09:26Z</time>
      </trkpt>
      <trkpt lat="44.71529" lon="4.68196">
        <ele>170</ele>
        <time>2013-02-08T11:09:28Z</time>
      </trkpt>
      <trkpt lat="44.71527" lon="4.68196">
        <ele>170</ele>
        <time>2013-02-08T11:09:30Z</time>
      </trkpt>
      <trkpt lat="44.71526" lon="4.68195">
        <ele>170</ele>
        <time>2013-02-08T11:09:32Z</time>
      </trkpt>
      <trkpt lat="44.71524" lon="4.68194">
        <ele>170</ele>
        <time>2013-02-08T11:09:34Z</time>
      </trkpt>
      <trkpt lat="44.71523" lon="4.68192">
        <ele>170</ele>
        <time>2013-02-08T11:09:36Z</time>
      </trkpt>
      <trkpt lat="44.71521" lon="4.68192">
        <ele>171</ele>
        <time>2013-02-08T11:09:38Z</time>
      </trkpt>
      <trkpt lat="44.71519" lon="4.68191">
        <ele>171</ele>
        <time>2013-02-08T11:09:40Z</time>
      </trkpt>
      <trkpt lat="44.71517" lon="4.68191">
        <ele>171</ele>
        <time>2013-02-08T11:09:42Z</time>
      </trkpt>
      <trkpt lat="44.71516" lon="4.68191">
        <ele>171</ele>
        <time>2013-02-08T11:09:44Z</time>
      </trkpt>
      <trkpt lat="44.71514" lon="4.68191">
        <ele>171</ele>
        <time>2013-02-08T11:09:46Z</time>
      </trkpt>
      <trkpt lat="44.71513" lon="4.68192">
        <ele>171</ele>
        <time>2013-02-08T11:09:48Z</time>
      </trkpt>
      <trkpt lat="44.71511" lon="4.68193">
        <ele>171</ele>
        <time>2013-02-08T11:09:50Z</time>
      </trkpt>
      <trkpt lat="44.7151" lon="4.68195">
        <ele>171</ele>
        <time>2013-02-08T11:09:53Z</time>
      </trkpt>
      <trkpt lat="44.71509" lon="4.68198">
        <ele>171</ele>
        <time>2013-02-08T11:09:55Z</time>
      </trkpt>
      <trkpt lat="44.71508" lon="4.682">
        <ele>171</ele>
        <time>2013-02-08T11:09:57Z</time>
      </trkpt>
      <trkpt lat="44.71507" lon="4.68202">
        <ele>171</ele>
        <time>2013-02-08T11:09:59Z</time>
      </trkpt>
      <trkpt lat="44.71506" lon="4.68204">
        <ele>171</ele>
        <time>2013-02-08T11:10:02Z</time>
      </trkpt>
      <trkpt lat="44.71505" lon="4.68206">
        <ele>170</ele>
        <time>2013-02-08T11:10:04Z</time>
      </trkpt>
      <trkpt lat="44.71504" lon="4.68208">
        <ele>170</ele>
        <time>2013-02-08T11:10:06Z</time>
      </trkpt>
      <trkpt lat="44.71504" lon="4.6821">
        <ele>170</ele>
        <time>2013-02-08T11:10:08Z</time>
      </trkpt>
      <trkpt lat="44.71503" lon="4.68212">
        <ele>170</ele>
        <time>2013-02-08T11:10:10Z</time>
      </trkpt>
      <trkpt lat="44.71502" lon="4.68214">
        <ele>170</ele>
        <time>2013-02-08T11:10:12Z</time>
      </trkpt>
      <trkpt lat="44.71501" lon="4.68215">
        <ele>170</ele>
        <time>2013-02-08T11:10:14Z</time>
      </trkpt>
      <trkpt lat="44.715" lon="4.68217">
        <ele>170</ele>
        <time>2013-02-08T11:10:16Z</time>
      </trkpt>
      <trkpt lat="44.715" lon="4.68219">
        <ele>173</ele>
        <time>2013-02-08T11:10:18Z</time>
      </trkpt>
      <trkpt lat="44.71499" lon="4.68222">
        <ele>173</ele>
        <time>2013-02-08T11:10:20Z</time>
      </trkpt>
      <trkpt lat="44.71498" lon="4.68225">
        <ele>173</ele>
        <time>2013-02-08T11:10:22Z</time>
      </trkpt>
      <trkpt lat="44.71497" lon="4.68227">
        <ele>173</ele>
        <time>2013-02-08T11:10:24Z</time>
      </trkpt>
      <trkpt lat="44.71495" lon="4.6823">
        <ele>173</ele>
        <time>2013-02-08T11:10:26Z</time>
      </trkpt>
      <trkpt lat="44.71495" lon="4.68233">
        <ele>173</ele>
        <time>2013-02-08T11:10:28Z</time>
      </trkpt>
      <trkpt lat="44.71494" lon="4.68236">
        <ele>172</ele>
        <time>2013-02-08T11:10:30Z</time>
      </trkpt>
      <trkpt lat="44.71492" lon="4.68239">
        <ele>172</ele>
        <time>2013-02-08T11:10:32Z</time>
      </trkpt>
      <trkpt lat="44.71491" lon="4.68242">
        <ele>172</ele>
        <time>2013-02-08T11:10:34Z</time>
      </trkpt>
      <trkpt lat="44.7149" lon="4.68245">
        <ele>172</ele>
        <time>2013-02-08T11:10:36Z</time>
      </trkpt>
      <trkpt lat="44.71489" lon="4.68248">
        <ele>172</ele>
        <time>2013-02-08T11:10:38Z</time>
      </trkpt>
      <trkpt lat="44.71488" lon="4.6825">
        <ele>171</ele>
        <time>2013-02-08T11:10:40Z</time>
      </trkpt>
      <trkpt lat="44.71486" lon="4.68255">
        <ele>171</ele>
        <time>2013-02-08T11:10:43Z</time>
      </trkpt>
      <trkpt lat="44.71485" lon="4.68259">
        <ele>171</ele>
        <time>2013-02-08T11:10:46Z</time>
      </trkpt>
      <trkpt lat="44.71483" lon="4.68261">
        <ele>171</ele>
        <time>2013-02-08T11:10:48Z</time>
      </trkpt>
      <trkpt lat="44.71481" lon="4.68262">
        <ele>171</ele>
        <time>2013-02-08T11:10:50Z</time>
      </trkpt>
      <trkpt lat="44.71479" lon="4.68263">
        <ele>171</ele>
        <time>2013-02-08T11:10:52Z</time>
      </trkpt>
      <trkpt lat="44.71476" lon="4.68264">
        <ele>171</ele>
        <time>2013-02-08T11:10:54Z</time>
      </trkpt>
      <trkpt lat="44.71473" lon="4.68264">
        <ele>171</ele>
        <time>2013-02-08T11:10:57Z</time>
      </trkpt>
      <trkpt lat="44.7147" lon="4.68263">
        <ele>171</ele>
        <time>2013-02-08T11:11:00Z</time>
      </trkpt>
      <trkpt lat="44.71468" lon="4.68263">
        <ele>171</ele>
        <time>2013-02-08T11:11:02Z</time>
      </trkpt>
      <trkpt lat="44.71467" lon="4.68262">
        <ele>171</ele>
        <time>2013-02-08T11:11:04Z</time>
      </trkpt>
      <trkpt lat="44.71466" lon="4.68261">
        <ele>171</ele>
        <time>2013-02-08T11:11:06Z</time>
      </trkpt>
      <trkpt lat="44.71464" lon="4.68261">
        <ele>171</ele>
        <time>2013-02-08T11:11:08Z</time>
      </trkpt>
      <trkpt lat="44.71463" lon="4.68261">
        <ele>171</ele>
        <time>2013-02-08T11:11:10Z</time>
      </trkpt>
      <trkpt lat="44.71461" lon="4.6826">
        <ele>171</ele>
        <time>2013-02-08T11:11:12Z</time>
      </trkpt>
      <trkpt lat="44.71459" lon="4.6826">
        <ele>171</ele>
        <time>2013-02-08T11:11:14Z</time>
      </trkpt>
      <trkpt lat="44.71457" lon="4.6826">
        <ele>172</ele>
        <time>2013-02-08T11:11:16Z</time>
      </trkpt>
      <trkpt lat="44.71455" lon="4.6826">
        <ele>172</ele>
        <time>2013-02-08T11:11:18Z</time>
      </trkpt>
      <trkpt lat="44.71452" lon="4.6826">
        <ele>172</ele>
        <time>2013-02-08T11:11:20Z</time>
      </trkpt>
      <trkpt lat="44.7145" lon="4.68259">
        <ele>172</ele>
        <time>2013-02-08T11:11:22Z</time>
      </trkpt>
      <trkpt lat="44.71448" lon="4.68259">
        <ele>172</ele>
        <time>2013-02-08T11:11:24Z</time>
      </trkpt>
      <trkpt lat="44.71446" lon="4.68258">
        <ele>172</ele>
        <time>2013-02-08T11:11:26Z</time>
      </trkpt>
      <trkpt lat="44.71443" lon="4.68258">
        <ele>172</ele>
        <time>2013-02-08T11:11:28Z</time>
      </trkpt>
      <trkpt lat="44.71441" lon="4.68257">
        <ele>172</ele>
        <time>2013-02-08T11:11:30Z</time>
      </trkpt>
      <trkpt lat="44.71439" lon="4.68257">
        <ele>173</ele>
        <time>2013-02-08T11:11:32Z</time>
      </trkpt>
      <trkpt lat="44.71436" lon="4.68257">
        <ele>173</ele>
        <time>2013-02-08T11:11:34Z</time>
      </trkpt>
      <trkpt lat="44.71434" lon="4.68257">
        <ele>173</ele>
        <time>2013-02-08T11:11:36Z</time>
      </trkpt>
      <trkpt lat="44.71432" lon="4.68256">
        <ele>173</ele>
        <time>2013-02-08T11:11:38Z</time>
      </trkpt>
      <trkpt lat="44.7143" lon="4.68256">
        <ele>173</ele>
        <time>2013-02-08T11:11:40Z</time>
      </trkpt>
      <trkpt lat="44.71428" lon="4.68256">
        <ele>173</ele>
        <time>2013-02-08T11:11:42Z</time>
      </trkpt>
      <trkpt lat="44.71426" lon="4.68255">
        <ele>174</ele>
        <time>2013-02-08T11:11:44Z</time>
      </trkpt>
      <trkpt lat="44.71423" lon="4.68255">
        <ele>174</ele>
        <time>2013-02-08T11:11:46Z</time>
      </trkpt>
      <trkpt lat="44.7142" lon="4.68254">
        <ele>174</ele>
        <time>2013-02-08T11:11:49Z</time>
      </trkpt>
      <trkpt lat="44.71418" lon="4.68253">
        <ele>174</ele>
        <time>2013-02-08T11:11:51Z</time>
      </trkpt>
      <trkpt lat="44.71415" lon="4.68251">
        <ele>175</ele>
        <time>2013-02-08T11:11:54Z</time>
      </trkpt>
      <trkpt lat="44.71413" lon="4.6825">
        <ele>175</ele>
        <time>2013-02-08T11:11:56Z</time>
      </trkpt>
      <trkpt lat="44.71411" lon="4.6825">
        <ele>175</ele>
        <time>2013-02-08T11:11:58Z</time>
      </trkpt>
      <trkpt lat="44.71409" lon="4.6825">
        <ele>175</ele>
        <time>2013-02-08T11:12:00Z</time>
      </trkpt>
      <trkpt lat="44.71407" lon="4.68249">
        <ele>175</ele>
        <time>2013-02-08T11:12:02Z</time>
      </trkpt>
      <trkpt lat="44.71404" lon="4.68249">
        <ele>175</ele>
        <time>2013-02-08T11:12:04Z</time>
      </trkpt>
      <trkpt lat="44.71402" lon="4.68248">
        <ele>175</ele>
        <time>2013-02-08T11:12:06Z</time>
      </trkpt>
      <trkpt lat="44.71399" lon="4.68248">
        <ele>175</ele>
        <time>2013-02-08T11:12:08Z</time>
      </trkpt>
      <trkpt lat="44.71397" lon="4.68248">
        <ele>175</ele>
        <time>2013-02-08T11:12:10Z</time>
      </trkpt>
      <trkpt lat="44.71395" lon="4.68247">
        <ele>175</ele>
        <time>2013-02-08T11:12:12Z</time>
      </trkpt>
      <trkpt lat="44.71392" lon="4.68247">
        <ele>175</ele>
        <time>2013-02-08T11:12:14Z</time>
      </trkpt>
      <trkpt lat="44.7139" lon="4.68246">
        <ele>175</ele>
        <time>2013-02-08T11:12:16Z</time>
      </trkpt>
      <trkpt lat="44.71386" lon="4.68246">
        <ele>175</ele>
        <time>2013-02-08T11:12:19Z</time>
      </trkpt>
      <trkpt lat="44.71384" lon="4.68245">
        <ele>175</ele>
        <time>2013-02-08T11:12:21Z</time>
      </trkpt>
      <trkpt lat="44.71381" lon="4.68245">
        <ele>175</ele>
        <time>2013-02-08T11:12:23Z</time>
      </trkpt>
      <trkpt lat="44.71379" lon="4.68244">
        <ele>175</ele>
        <time>2013-02-08T11:12:25Z</time>
      </trkpt>
      <trkpt lat="44.71377" lon="4.68243">
        <ele>175</ele>
        <time>2013-02-08T11:12:27Z</time>
      </trkpt>
      <trkpt lat="44.71375" lon="4.68243">
        <ele>174</ele>
        <time>2013-02-08T11:12:29Z</time>
      </trkpt>
      <trkpt lat="44.71372" lon="4.68242">
        <ele>174</ele>
        <time>2013-02-08T11:12:31Z</time>
      </trkpt>
      <trkpt lat="44.71369" lon="4.68242">
        <ele>174</ele>
        <time>2013-02-08T11:12:34Z</time>
      </trkpt>
      <trkpt lat="44.71366" lon="4.68241">
        <ele>174</ele>
        <time>2013-02-08T11:12:37Z</time>
      </trkpt>
      <trkpt lat="44.71364" lon="4.68241">
        <ele>174</ele>
        <time>2013-02-08T11:12:39Z</time>
      </trkpt>
      <trkpt lat="44.71362" lon="4.6824">
        <ele>174</ele>
        <time>2013-02-08T11:12:41Z</time>
      </trkpt>
      <trkpt lat="44.7136" lon="4.6824">
        <ele>174</ele>
        <time>2013-02-08T11:12:43Z</time>
      </trkpt>
      <trkpt lat="44.71357" lon="4.6824">
        <ele>174</ele>
        <time>2013-02-08T11:12:45Z</time>
      </trkpt>
      <trkpt lat="44.71355" lon="4.68239">
        <ele>174</ele>
        <time>2013-02-08T11:12:47Z</time>
      </trkpt>
      <trkpt lat="44.71352" lon="4.6824">
        <ele>174</ele>
        <time>2013-02-08T11:12:49Z</time>
      </trkpt>
      <trkpt lat="44.7135" lon="4.6824">
        <ele>174</ele>
        <time>2013-02-08T11:12:51Z</time>
      </trkpt>
      <trkpt lat="44.71348" lon="4.68239">
        <ele>174</ele>
        <time>2013-02-08T11:12:53Z</time>
      </trkpt>
      <trkpt lat="44.71345" lon="4.6824">
        <ele>174</ele>
        <time>2013-02-08T11:12:55Z</time>
      </trkpt>
      <trkpt lat="44.71343" lon="4.68239">
        <ele>174</ele>
        <time>2013-02-08T11:12:57Z</time>
      </trkpt>
      <trkpt lat="44.7134" lon="4.68238">
        <ele>174</ele>
        <time>2013-02-08T11:13:00Z</time>
      </trkpt>
      <trkpt lat="44.71338" lon="4.68238">
        <ele>174</ele>
        <time>2013-02-08T11:13:02Z</time>
      </trkpt>
      <trkpt lat="44.71335" lon="4.68238">
        <ele>174</ele>
        <time>2013-02-08T11:13:04Z</time>
      </trkpt>
      <trkpt lat="44.71333" lon="4.68239">
        <ele>173</ele>
        <time>2013-02-08T11:13:06Z</time>
      </trkpt>
      <trkpt lat="44.7133" lon="4.68238">
        <ele>173</ele>
        <time>2013-02-08T11:13:08Z</time>
      </trkpt>
      <trkpt lat="44.71328" lon="4.68238">
        <ele>173</ele>
        <time>2013-02-08T11:13:10Z</time>
      </trkpt>
      <trkpt lat="44.71326" lon="4.68238">
        <ele>173</ele>
        <time>2013-02-08T11:13:12Z</time>
      </trkpt>
      <trkpt lat="44.71323" lon="4.68238">
        <ele>173</ele>
        <time>2013-02-08T11:13:14Z</time>
      </trkpt>
      <trkpt lat="44.7132" lon="4.68238">
        <ele>173</ele>
        <time>2013-02-08T11:13:16Z</time>
      </trkpt>
      <trkpt lat="44.71318" lon="4.68238">
        <ele>173</ele>
        <time>2013-02-08T11:13:18Z</time>
      </trkpt>
      <trkpt lat="44.71316" lon="4.68237">
        <ele>173</ele>
        <time>2013-02-08T11:13:20Z</time>
      </trkpt>
      <trkpt lat="44.71314" lon="4.68237">
        <ele>173</ele>
        <time>2013-02-08T11:13:22Z</time>
      </trkpt>
      <trkpt lat="44.71312" lon="4.68237">
        <ele>172</ele>
        <time>2013-02-08T11:13:24Z</time>
      </trkpt>
      <trkpt lat="44.71311" lon="4.68236">
        <ele>172</ele>
        <time>2013-02-08T11:13:26Z</time>
      </trkpt>
      <trkpt lat="44.71308" lon="4.68236">
        <ele>172</ele>
        <time>2013-02-08T11:13:28Z</time>
      </trkpt>
      <trkpt lat="44.71306" lon="4.68236">
        <ele>172</ele>
        <time>2013-02-08T11:13:30Z</time>
      </trkpt>
      <trkpt lat="44.71304" lon="4.68236">
        <ele>172</ele>
        <time>2013-02-08T11:13:32Z</time>
      </trkpt>
      <trkpt lat="44.71301" lon="4.68235">
        <ele>172</ele>
        <time>2013-02-08T11:13:35Z</time>
      </trkpt>
      <trkpt lat="44.71299" lon="4.68235">
        <ele>172</ele>
        <time>2013-02-08T11:13:37Z</time>
      </trkpt>
      <trkpt lat="44.71297" lon="4.68235">
        <ele>172</ele>
        <time>2013-02-08T11:13:39Z</time>
      </trkpt>
      <trkpt lat="44.71294" lon="4.68235">
        <ele>172</ele>
        <time>2013-02-08T11:13:41Z</time>
      </trkpt>
      <trkpt lat="44.71292" lon="4.68235">
        <ele>172</ele>
        <time>2013-02-08T11:13:43Z</time>
      </trkpt>
      <trkpt lat="44.7129" lon="4.68235">
        <ele>172</ele>
        <time>2013-02-08T11:13:45Z</time>
      </trkpt>
      <trkpt lat="44.71287" lon="4.68235">
        <ele>172</ele>
        <time>2013-02-08T11:13:47Z</time>
      </trkpt>
      <trkpt lat="44.71285" lon="4.68235">
        <ele>172</ele>
        <time>2013-02-08T11:13:49Z</time>
      </trkpt>
      <trkpt lat="44.71284" lon="4.68233">
        <ele>172</ele>
        <time>2013-02-08T11:13:51Z</time>
      </trkpt>
      <trkpt lat="44.71282" lon="4.68233">
        <ele>172</ele>
        <time>2013-02-08T11:13:53Z</time>
      </trkpt>
      <trkpt lat="44.7128" lon="4.68233">
        <ele>172</ele>
        <time>2013-02-08T11:13:55Z</time>
      </trkpt>
      <trkpt lat="44.71278" lon="4.68233">
        <ele>172</ele>
        <time>2013-02-08T11:13:57Z</time>
      </trkpt>
      <trkpt lat="44.71275" lon="4.68233">
        <ele>172</ele>
        <time>2013-02-08T11:13:59Z</time>
      </trkpt>
      <trkpt lat="44.71274" lon="4.68233">
        <ele>172</ele>
        <time>2013-02-08T11:14:01Z</time>
      </trkpt>
      <trkpt lat="44.71271" lon="4.68232">
        <ele>172</ele>
        <time>2013-02-08T11:14:03Z</time>
      </trkpt>
      <trkpt lat="44.71268" lon="4.68232">
        <ele>171</ele>
        <time>2013-02-08T11:14:06Z</time>
      </trkpt>
      <trkpt lat="44.71266" lon="4.68232">
        <ele>171</ele>
        <time>2013-02-08T11:14:08Z</time>
      </trkpt>
      <trkpt lat="44.71264" lon="4.68232">
        <ele>171</ele>
        <time>2013-02-08T11:14:10Z</time>
      </trkpt>
      <trkpt lat="44.71261" lon="4.68231">
        <ele>171</ele>
        <time>2013-02-08T11:14:13Z</time>
      </trkpt>
      <trkpt lat="44.71259" lon="4.68231">
        <ele>171</ele>
        <time>2013-02-08T11:14:15Z</time>
      </trkpt>
      <trkpt lat="44.71257" lon="4.6823">
        <ele>171</ele>
        <time>2013-02-08T11:14:17Z</time>
      </trkpt>
      <trkpt lat="44.71254" lon="4.6823">
        <ele>171</ele>
        <time>2013-02-08T11:14:19Z</time>
      </trkpt>
      <trkpt lat="44.71252" lon="4.68229">
        <ele>171</ele>
        <time>2013-02-08T11:14:21Z</time>
      </trkpt>
      <trkpt lat="44.71249" lon="4.68228">
        <ele>168</ele>
        <time>2013-02-08T11:14:24Z</time>
      </trkpt>
      <trkpt lat="44.71247" lon="4.68228">
        <ele>168</ele>
        <time>2013-02-08T11:14:26Z</time>
      </trkpt>
      <trkpt lat="44.71244" lon="4.68227">
        <ele>168</ele>
        <time>2013-02-08T11:14:28Z</time>
      </trkpt>
      <trkpt lat="44.71243" lon="4.68226">
        <ele>167</ele>
        <time>2013-02-08T11:14:30Z</time>
      </trkpt>
      <trkpt lat="44.71241" lon="4.68225">
        <ele>167</ele>
        <time>2013-02-08T11:14:32Z</time>
      </trkpt>
      <trkpt lat="44.71239" lon="4.68223">
        <ele>167</ele>
        <time>2013-02-08T11:14:34Z</time>
      </trkpt>
      <trkpt lat="44.71237" lon="4.68222">
        <ele>167</ele>
        <time>2013-02-08T11:14:36Z</time>
      </trkpt>
      <trkpt lat="44.71236" lon="4.6822">
        <ele>167</ele>
        <time>2013-02-08T11:14:38Z</time>
      </trkpt>
      <trkpt lat="44.71234" lon="4.68217">
        <ele>167</ele>
        <time>2013-02-08T11:14:40Z</time>
      </trkpt>
      <trkpt lat="44.71233" lon="4.68215">
        <ele>167</ele>
        <time>2013-02-08T11:14:42Z</time>
      </trkpt>
      <trkpt lat="44.71232" lon="4.68214">
        <ele>167</ele>
        <time>2013-02-08T11:14:44Z</time>
      </trkpt>
      <trkpt lat="44.7123" lon="4.68212">
        <ele>167</ele>
        <time>2013-02-08T11:14:46Z</time>
      </trkpt>
      <trkpt lat="44.71229" lon="4.6821">
        <ele>167</ele>
        <time>2013-02-08T11:14:48Z</time>
      </trkpt>
      <trkpt lat="44.71228" lon="4.68208">
        <ele>167</ele>
        <time>2013-02-08T11:14:50Z</time>
      </trkpt>
      <trkpt lat="44.71226" lon="4.68206">
        <ele>167</ele>
        <time>2013-02-08T11:14:52Z</time>
      </trkpt>
      <trkpt lat="44.71225" lon="4.68204">
        <ele>167</ele>
        <time>2013-02-08T11:14:54Z</time>
      </trkpt>
      <trkpt lat="44.71224" lon="4.68202">
        <ele>166</ele>
        <time>2013-02-08T11:14:56Z</time>
      </trkpt>
      <trkpt lat="44.71222" lon="4.68201">
        <ele>166</ele>
        <time>2013-02-08T11:14:58Z</time>
      </trkpt>
      <trkpt lat="44.7122" lon="4.68199">
        <ele>166</ele>
        <time>2013-02-08T11:15:00Z</time>
      </trkpt>
      <trkpt lat="44.71219" lon="4.68198">
        <ele>166</ele>
        <time>2013-02-08T11:15:02Z</time>
      </trkpt>
      <trkpt lat="44.71217" lon="4.68197">
        <ele>166</ele>
        <time>2013-02-08T11:15:04Z</time>
      </trkpt>
      <trkpt lat="44.71216" lon="4.68195">
        <ele>166</ele>
        <time>2013-02-08T11:15:06Z</time>
      </trkpt>
      <trkpt lat="44.71214" lon="4.68193">
        <ele>166</ele>
        <time>2013-02-08T11:15:08Z</time>
      </trkpt>
      <trkpt lat="44.71212" lon="4.68192">
        <ele>166</ele>
        <time>2013-02-08T11:15:10Z</time>
      </trkpt>
      <trkpt lat="44.71211" lon="4.68191">
        <ele>166</ele>
        <time>2013-02-08T11:15:12Z</time>
      </trkpt>
      <trkpt lat="44.71209" lon="4.68189">
        <ele>166</ele>
        <time>2013-02-08T11:15:14Z</time>
      </trkpt>
      <trkpt lat="44.71207" lon="4.68188">
        <ele>165</ele>
        <time>2013-02-08T11:15:16Z</time>
      </trkpt>
      <trkpt lat="44.71205" lon="4.68186">
        <ele>165</ele>
        <time>2013-02-08T11:15:18Z</time>
      </trkpt>
      <trkpt lat="44.71203" lon="4.68185">
        <ele>165</ele>
        <time>2013-02-08T11:15:20Z</time>
      </trkpt>
      <trkpt lat="44.71201" lon="4.68184">
        <ele>165</ele>
        <time>2013-02-08T11:15:22Z</time>
      </trkpt>
      <trkpt lat="44.71199" lon="4.68183">
        <ele>165</ele>
        <time>2013-02-08T11:15:24Z</time>
      </trkpt>
      <trkpt lat="44.71197" lon="4.68181">
        <ele>165</ele>
        <time>2013-02-08T11:15:26Z</time>
      </trkpt>
      <trkpt lat="44.71195" lon="4.6818">
        <ele>165</ele>
        <time>2013-02-08T11:15:28Z</time>
      </trkpt>
      <trkpt lat="44.71193" lon="4.68179">
        <ele>164</ele>
        <time>2013-02-08T11:15:30Z</time>
      </trkpt>
      <trkpt lat="44.71191" lon="4.68178">
        <ele>164</ele>
        <time>2013-02-08T11:15:32Z</time>
      </trkpt>
      <trkpt lat="44.71189" lon="4.68177">
        <ele>164</ele>
        <time>2013-02-08T11:15:34Z</time>
      </trkpt>
      <trkpt lat="44.71187" lon="4.68176">
        <ele>164</ele>
        <time>2013-02-08T11:15:36Z</time>
      </trkpt>
      <trkpt lat="44.71185" lon="4.68174">
        <ele>164</ele>
        <time>2013-02-08T11:15:38Z</time>
      </trkpt>
      <trkpt lat="44.71183" lon="4.68173">
        <ele>163</ele>
        <time>2013-02-08T11:15:40Z</time>
      </trkpt>
      <trkpt lat="44.71182" lon="4.68172">
        <ele>163</ele>
        <time>2013-02-08T11:15:42Z</time>
      </trkpt>
      <trkpt lat="44.7118" lon="4.68171">
        <ele>163</ele>
        <time>2013-02-08T11:15:44Z</time>
      </trkpt>
      <trkpt lat="44.71179" lon="4.6817">
        <ele>163</ele>
        <time>2013-02-08T11:15:46Z</time>
      </trkpt>
      <trkpt lat="44.71178" lon="4.68169">
        <ele>163</ele>
        <time>2013-02-08T11:15:48Z</time>
      </trkpt>
      <trkpt lat="44.71176" lon="4.68168">
        <ele>162</ele>
        <time>2013-02-08T11:15:50Z</time>
      </trkpt>
      <trkpt lat="44.71174" lon="4.68167">
        <ele>162</ele>
        <time>2013-02-08T11:15:52Z</time>
      </trkpt>
      <trkpt lat="44.7117" lon="4.68164">
        <ele>161</ele>
        <time>2013-02-08T11:15:56Z</time>
      </trkpt>
      <trkpt lat="44.71169" lon="4.68163">
        <ele>161</ele>
        <time>2013-02-08T11:15:58Z</time>
      </trkpt>
      <trkpt lat="44.71168" lon="4.68161">
        <ele>162</ele>
        <time>2013-02-08T11:16:00Z</time>
      </trkpt>
      <trkpt lat="44.71167" lon="4.6816">
        <ele>160</ele>
        <time>2013-02-08T11:16:02Z</time>
      </trkpt>
      <trkpt lat="44.71165" lon="4.68159">
        <ele>159</ele>
        <time>2013-02-08T11:16:04Z</time>
      </trkpt>
      <trkpt lat="44.71163" lon="4.68158">
        <ele>159</ele>
        <time>2013-02-08T11:16:06Z</time>
      </trkpt>
      <trkpt lat="44.71161" lon="4.68157">
        <ele>159</ele>
        <time>2013-02-08T11:16:08Z</time>
      </trkpt>
      <trkpt lat="44.71159" lon="4.68156">
        <ele>159</ele>
        <time>2013-02-08T11:16:10Z</time>
      </trkpt>
      <trkpt lat="44.71158" lon="4.68154">
        <ele>158</ele>
        <time>2013-02-08T11:16:12Z</time>
      </trkpt>
      <trkpt lat="44.71156" lon="4.68153">
        <ele>158</ele>
        <time>2013-02-08T11:16:14Z</time>
      </trkpt>
      <trkpt lat="44.71154" lon="4.68153">
        <ele>158</ele>
        <time>2013-02-08T11:16:16Z</time>
      </trkpt>
      <trkpt lat="44.71151" lon="4.68156">
        <ele>158</ele>
        <time>2013-02-08T11:16:20Z</time>
      </trkpt>
      <trkpt lat="44.7115" lon="4.68157">
        <ele>158</ele>
        <time>2013-02-08T11:16:22Z</time>
      </trkpt>
      <trkpt lat="44.71148" lon="4.68159">
        <ele>158</ele>
        <time>2013-02-08T11:16:24Z</time>
      </trkpt>
      <trkpt lat="44.71147" lon="4.68161">
        <ele>158</ele>
        <time>2013-02-08T11:16:26Z</time>
      </trkpt>
      <trkpt lat="44.71146" lon="4.68163">
        <ele>158</ele>
        <time>2013-02-08T11:16:28Z</time>
      </trkpt>
      <trkpt lat="44.71144" lon="4.68165">
        <ele>157</ele>
        <time>2013-02-08T11:16:30Z</time>
      </trkpt>
      <trkpt lat="44.71143" lon="4.68167">
        <ele>157</ele>
        <time>2013-02-08T11:16:32Z</time>
      </trkpt>
      <trkpt lat="44.71142" lon="4.68169">
        <ele>157</ele>
        <time>2013-02-08T11:16:34Z</time>
      </trkpt>
      <trkpt lat="44.71141" lon="4.68171">
        <ele>157</ele>
        <time>2013-02-08T11:16:36Z</time>
      </trkpt>
      <trkpt lat="44.71139" lon="4.68174">
        <ele>157</ele>
        <time>2013-02-08T11:16:38Z</time>
      </trkpt>
      <trkpt lat="44.71138" lon="4.68177">
        <ele>157</ele>
        <time>2013-02-08T11:16:40Z</time>
      </trkpt>
      <trkpt lat="44.71137" lon="4.68179">
        <ele>156</ele>
        <time>2013-02-08T11:16:42Z</time>
      </trkpt>
      <trkpt lat="44.71135" lon="4.68181">
        <ele>156</ele>
        <time>2013-02-08T11:16:44Z</time>
      </trkpt>
      <trkpt lat="44.71134" lon="4.68183">
        <ele>156</ele>
        <time>2013-02-08T11:16:46Z</time>
      </trkpt>
      <trkpt lat="44.71133" lon="4.68185">
        <ele>156</ele>
        <time>2013-02-08T11:16:48Z</time>
      </trkpt>
      <trkpt lat="44.71132" lon="4.68187">
        <ele>156</ele>
        <time>2013-02-08T11:16:50Z</time>
      </trkpt>
      <trkpt lat="44.7113" lon="4.68189">
        <ele>156</ele>
        <time>2013-02-08T11:16:52Z</time>
      </trkpt>
      <trkpt lat="44.71129" lon="4.68192">
        <ele>156</ele>
        <time>2013-02-08T11:16:54Z</time>
      </trkpt>
      <trkpt lat="44.71127" lon="4.68194">
        <ele>156</ele>
        <time>2013-02-08T11:16:56Z</time>
      </trkpt>
      <trkpt lat="44.71126" lon="4.68196">
        <ele>155</ele>
        <time>2013-02-08T11:16:58Z</time>
      </trkpt>
      <trkpt lat="44.71125" lon="4.68198">
        <ele>155</ele>
        <time>2013-02-08T11:17:00Z</time>
      </trkpt>
      <trkpt lat="44.71123" lon="4.682">
        <ele>155</ele>
        <time>2013-02-08T11:17:02Z</time>
      </trkpt>
      <trkpt lat="44.71122" lon="4.68203">
        <ele>155</ele>
        <time>2013-02-08T11:17:04Z</time>
      </trkpt>
      <trkpt lat="44.71121" lon="4.68205">
        <ele>155</ele>
        <time>2013-02-08T11:17:06Z</time>
      </trkpt>
      <trkpt lat="44.7112" lon="4.68207">
        <ele>155</ele>
        <time>2013-02-08T11:17:08Z</time>
      </trkpt>
      <trkpt lat="44.71118" lon="4.68209">
        <ele>155</ele>
        <time>2013-02-08T11:17:10Z</time>
      </trkpt>
      <trkpt lat="44.71117" lon="4.68212">
        <ele>155</ele>
        <time>2013-02-08T11:17:12Z</time>
      </trkpt>
      <trkpt lat="44.71116" lon="4.68214">
        <ele>155</ele>
        <time>2013-02-08T11:17:14Z</time>
      </trkpt>
      <trkpt lat="44.71113" lon="4.68216">
        <ele>154</ele>
        <time>2013-02-08T11:17:20Z</time>
      </trkpt>
      <trkpt lat="44.71112" lon="4.68218">
        <ele>154</ele>
        <time>2013-02-08T11:17:22Z</time>
      </trkpt>
      <trkpt lat="44.71111" lon="4.6822">
        <ele>154</ele>
        <time>2013-02-08T11:17:24Z</time>
      </trkpt>
      <trkpt lat="44.71109" lon="4.68221">
        <ele>154</ele>
        <time>2013-02-08T11:17:26Z</time>
      </trkpt>
      <trkpt lat="44.71107" lon="4.68223">
        <ele>154</ele>
        <time>2013-02-08T11:17:30Z</time>
      </trkpt>
      <trkpt lat="44.71106" lon="4.68223">
        <ele>154</ele>
        <time>2013-02-08T11:17:32Z</time>
      </trkpt>
      <trkpt lat="44.71106" lon="4.68221">
        <ele>154</ele>
        <time>2013-02-08T11:18:18Z</time>
      </trkpt>
      <trkpt lat="44.71107" lon="4.6822">
        <ele>154</ele>
        <time>2013-02-08T11:18:26Z</time>
      </trkpt>
      <trkpt lat="44.71108" lon="4.68218">
        <ele>154</ele>
        <time>2013-02-08T11:18:33Z</time>
      </trkpt>
      <trkpt lat="44.71108" lon="4.68216">
        <ele>154</ele>
        <time>2013-02-08T11:18:36Z</time>
      </trkpt>
      <trkpt lat="44.71108" lon="4.68214">
        <ele>154</ele>
        <time>2013-02-08T11:18:39Z</time>
      </trkpt>
      <trkpt lat="44.71108" lon="4.68209">
        <ele>154</ele>
        <time>2013-02-08T11:18:43Z</time>
      </trkpt>
      <trkpt lat="44.71108" lon="4.68207">
        <ele>154</ele>
        <time>2013-02-08T11:18:45Z</time>
      </trkpt>
      <trkpt lat="44.71109" lon="4.68205">
        <ele>154</ele>
        <time>2013-02-08T11:18:47Z</time>
      </trkpt>
      <trkpt lat="44.71109" lon="4.68203">
        <ele>154</ele>
        <time>2013-02-08T11:18:51Z</time>
      </trkpt>
      <trkpt lat="44.7111" lon="4.68199">
        <ele>154</ele>
        <time>2013-02-08T11:18:55Z</time>
      </trkpt>
      <trkpt lat="44.71111" lon="4.68196">
        <ele>154</ele>
        <time>2013-02-08T11:18:57Z</time>
      </trkpt>
      <trkpt lat="44.71111" lon="4.68194">
        <ele>154</ele>
        <time>2013-02-08T11:18:59Z</time>
      </trkpt>
      <trkpt lat="44.71112" lon="4.68188">
        <ele>154</ele>
        <time>2013-02-08T11:19:03Z</time>
      </trkpt>
      <trkpt lat="44.71112" lon="4.68183">
        <ele>154</ele>
        <time>2013-02-08T11:19:06Z</time>
      </trkpt>
      <trkpt lat="44.71112" lon="4.68178">
        <ele>154</ele>
        <time>2013-02-08T11:19:09Z</time>
      </trkpt>
      <trkpt lat="44.71113" lon="4.68175">
        <ele>154</ele>
        <time>2013-02-08T11:19:11Z</time>
      </trkpt>
      <trkpt lat="44.71113" lon="4.6817">
        <ele>154</ele>
        <time>2013-02-08T11:19:14Z</time>
      </trkpt>
      <trkpt lat="44.71113" lon="4.68165">
        <ele>155</ele>
        <time>2013-02-08T11:19:17Z</time>
      </trkpt>
      <trkpt lat="44.71113" lon="4.68161">
        <ele>155</ele>
        <time>2013-02-08T11:19:19Z</time>
      </trkpt>
      <trkpt lat="44.71114" lon="4.68157">
        <ele>155</ele>
        <time>2013-02-08T11:19:22Z</time>
      </trkpt>
      <trkpt lat="44.71114" lon="4.68154">
        <ele>155</ele>
        <time>2013-02-08T11:19:24Z</time>
      </trkpt>
      <trkpt lat="44.71115" lon="4.68148">
        <ele>155</ele>
        <time>2013-02-08T11:19:27Z</time>
      </trkpt>
      <trkpt lat="44.71115" lon="4.68144">
        <ele>155</ele>
        <time>2013-02-08T11:19:30Z</time>
      </trkpt>
      <trkpt lat="44.71115" lon="4.68139">
        <ele>155</ele>
        <time>2013-02-08T11:19:33Z</time>
      </trkpt>
      <trkpt lat="44.71116" lon="4.68135">
        <ele>155</ele>
        <time>2013-02-08T11:19:35Z</time>
      </trkpt>
      <trkpt lat="44.71116" lon="4.68131">
        <ele>155</ele>
        <time>2013-02-08T11:19:38Z</time>
      </trkpt>
      <trkpt lat="44.71116" lon="4.68125">
        <ele>155</ele>
        <time>2013-02-08T11:19:41Z</time>
      </trkpt>
      <trkpt lat="44.71117" lon="4.68121">
        <ele>155</ele>
        <time>2013-02-08T11:19:43Z</time>
      </trkpt>
      <trkpt lat="44.71117" lon="4.68117">
        <ele>155</ele>
        <time>2013-02-08T11:19:46Z</time>
      </trkpt>
      <trkpt lat="44.71117" lon="4.68113">
        <ele>155</ele>
        <time>2013-02-08T11:19:48Z</time>
      </trkpt>
      <trkpt lat="44.71118" lon="4.6811">
        <ele>155</ele>
        <time>2013-02-08T11:19:50Z</time>
      </trkpt>
      <trkpt lat="44.71118" lon="4.68107">
        <ele>155</ele>
        <time>2013-02-08T11:19:52Z</time>
      </trkpt>
      <trkpt lat="44.71119" lon="4.68103">
        <ele>155</ele>
        <time>2013-02-08T11:19:54Z</time>
      </trkpt>
      <trkpt lat="44.71119" lon="4.68098">
        <ele>155</ele>
        <time>2013-02-08T11:19:57Z</time>
      </trkpt>
      <trkpt lat="44.71119" lon="4.68093">
        <ele>155</ele>
        <time>2013-02-08T11:20:00Z</time>
      </trkpt>
      <trkpt lat="44.71119" lon="4.68089">
        <ele>155</ele>
        <time>2013-02-08T11:20:02Z</time>
      </trkpt>
      <trkpt lat="44.7112" lon="4.68084">
        <ele>155</ele>
        <time>2013-02-08T11:20:05Z</time>
      </trkpt>
      <trkpt lat="44.7112" lon="4.68078">
        <ele>154</ele>
        <time>2013-02-08T11:20:08Z</time>
      </trkpt>
      <trkpt lat="44.7112" lon="4.68074">
        <ele>154</ele>
        <time>2013-02-08T11:20:11Z</time>
      </trkpt>
      <trkpt lat="44.71121" lon="4.68071">
        <ele>154</ele>
        <time>2013-02-08T11:20:13Z</time>
      </trkpt>
      <trkpt lat="44.71121" lon="4.68067">
        <ele>154</ele>
        <time>2013-02-08T11:20:16Z</time>
      </trkpt>
      <trkpt lat="44.71121" lon="4.68064">
        <ele>154</ele>
        <time>2013-02-08T11:20:18Z</time>
      </trkpt>
      <trkpt lat="44.71121" lon="4.68059">
        <ele>154</ele>
        <time>2013-02-08T11:20:21Z</time>
      </trkpt>
      <trkpt lat="44.71122" lon="4.68055">
        <ele>154</ele>
        <time>2013-02-08T11:20:23Z</time>
      </trkpt>
      <trkpt lat="44.71122" lon="4.68052">
        <ele>154</ele>
        <time>2013-02-08T11:20:25Z</time>
      </trkpt>
      <trkpt lat="44.71122" lon="4.68047">
        <ele>154</ele>
        <time>2013-02-08T11:20:28Z</time>
      </trkpt>
      <trkpt lat="44.71123" lon="4.68044">
        <ele>154</ele>
        <time>2013-02-08T11:20:30Z</time>
      </trkpt>
      <trkpt lat="44.71124" lon="4.68039">
        <ele>154</ele>
        <time>2013-02-08T11:20:33Z</time>
      </trkpt>
      <trkpt lat="44.71124" lon="4.68036">
        <ele>154</ele>
        <time>2013-02-08T11:20:35Z</time>
      </trkpt>
      <trkpt lat="44.71125" lon="4.68031">
        <ele>154</ele>
        <time>2013-02-08T11:20:38Z</time>
      </trkpt>
      <trkpt lat="44.71125" lon="4.68028">
        <ele>154</ele>
        <time>2013-02-08T11:20:40Z</time>
      </trkpt>
      <trkpt lat="44.71125" lon="4.68023">
        <ele>154</ele>
        <time>2013-02-08T11:20:43Z</time>
      </trkpt>
      <trkpt lat="44.71126" lon="4.68019">
        <ele>154</ele>
        <time>2013-02-08T11:20:45Z</time>
      </trkpt>
      <trkpt lat="44.71126" lon="4.68014">
        <ele>154</ele>
        <time>2013-02-08T11:20:48Z</time>
      </trkpt>
      <trkpt lat="44.71127" lon="4.6801">
        <ele>154</ele>
        <time>2013-02-08T11:20:50Z</time>
      </trkpt>
      <trkpt lat="44.71127" lon="4.68005">
        <ele>154</ele>
        <time>2013-02-08T11:20:53Z</time>
      </trkpt>
      <trkpt lat="44.71128" lon="4.68002">
        <ele>154</ele>
        <time>2013-02-08T11:20:55Z</time>
      </trkpt>
      <trkpt lat="44.71128" lon="4.67997">
        <ele>153</ele>
        <time>2013-02-08T11:20:58Z</time>
      </trkpt>
      <trkpt lat="44.71129" lon="4.67993">
        <ele>153</ele>
        <time>2013-02-08T11:21:00Z</time>
      </trkpt>
      <trkpt lat="44.71129" lon="4.67988">
        <ele>153</ele>
        <time>2013-02-08T11:21:03Z</time>
      </trkpt>
      <trkpt lat="44.7113" lon="4.67985">
        <ele>153</ele>
        <time>2013-02-08T11:21:05Z</time>
      </trkpt>
      <trkpt lat="44.7113" lon="4.6798">
        <ele>153</ele>
        <time>2013-02-08T11:21:08Z</time>
      </trkpt>
      <trkpt lat="44.7113" lon="4.67976">
        <ele>153</ele>
        <time>2013-02-08T11:21:10Z</time>
      </trkpt>
      <trkpt lat="44.7113" lon="4.67971">
        <ele>153</ele>
        <time>2013-02-08T11:21:13Z</time>
      </trkpt>
      <trkpt lat="44.7113" lon="4.67968">
        <ele>153</ele>
        <time>2013-02-08T11:21:15Z</time>
      </trkpt>
      <trkpt lat="44.71131" lon="4.67963">
        <ele>153</ele>
        <time>2013-02-08T11:21:18Z</time>
      </trkpt>
      <trkpt lat="44.71132" lon="4.6796">
        <ele>153</ele>
        <time>2013-02-08T11:21:20Z</time>
      </trkpt>
      <trkpt lat="44.71132" lon="4.67955">
        <ele>153</ele>
        <time>2013-02-08T11:21:23Z</time>
      </trkpt>
      <trkpt lat="44.71132" lon="4.67951">
        <ele>153</ele>
        <time>2013-02-08T11:21:25Z</time>
      </trkpt>
      <trkpt lat="44.71133" lon="4.67946">
        <ele>153</ele>
        <time>2013-02-08T11:21:28Z</time>
      </trkpt>
      <trkpt lat="44.71133" lon="4.67943">
        <ele>153</ele>
        <time>2013-02-08T11:21:30Z</time>
      </trkpt>
      <trkpt lat="44.71134" lon="4.67938">
        <ele>153</ele>
        <time>2013-02-08T11:21:33Z</time>
      </trkpt>
      <trkpt lat="44.71135" lon="4.67934">
        <ele>153</ele>
        <time>2013-02-08T11:21:35Z</time>
      </trkpt>
      <trkpt lat="44.71135" lon="4.6793">
        <ele>153</ele>
        <time>2013-02-08T11:21:38Z</time>
      </trkpt>
      <trkpt lat="44.71135" lon="4.67926">
        <ele>153</ele>
        <time>2013-02-08T11:21:40Z</time>
      </trkpt>
      <trkpt lat="44.71135" lon="4.67923">
        <ele>153</ele>
        <time>2013-02-08T11:21:42Z</time>
      </trkpt>
      <trkpt lat="44.71136" lon="4.67918">
        <ele>153</ele>
        <time>2013-02-08T11:21:45Z</time>
      </trkpt>
      <trkpt lat="44.71137" lon="4.67913">
        <ele>153</ele>
        <time>2013-02-08T11:21:48Z</time>
      </trkpt>
      <trkpt lat="44.71137" lon="4.6791">
        <ele>153</ele>
        <time>2013-02-08T11:21:50Z</time>
      </trkpt>
      <trkpt lat="44.71137" lon="4.67905">
        <ele>153</ele>
        <time>2013-02-08T11:21:53Z</time>
      </trkpt>
      <trkpt lat="44.71137" lon="4.67902">
        <ele>153</ele>
        <time>2013-02-08T11:21:55Z</time>
      </trkpt>
      <trkpt lat="44.71138" lon="4.67897">
        <ele>153</ele>
        <time>2013-02-08T11:21:58Z</time>
      </trkpt>
      <trkpt lat="44.71138" lon="4.67893">
        <ele>153</ele>
        <time>2013-02-08T11:22:00Z</time>
      </trkpt>
      <trkpt lat="44.71138" lon="4.67888">
        <ele>153</ele>
        <time>2013-02-08T11:22:03Z</time>
      </trkpt>
      <trkpt lat="44.71139" lon="4.67885">
        <ele>153</ele>
        <time>2013-02-08T11:22:05Z</time>
      </trkpt>
      <trkpt lat="44.71139" lon="4.6788">
        <ele>153</ele>
        <time>2013-02-08T11:22:08Z</time>
      </trkpt>
      <trkpt lat="44.71139" lon="4.67876">
        <ele>153</ele>
        <time>2013-02-08T11:22:10Z</time>
      </trkpt>
      <trkpt lat="44.7114" lon="4.67871">
        <ele>153</ele>
        <time>2013-02-08T11:22:13Z</time>
      </trkpt>
      <trkpt lat="44.7114" lon="4.67868">
        <ele>153</ele>
        <time>2013-02-08T11:22:15Z</time>
      </trkpt>
      <trkpt lat="44.7114" lon="4.67863">
        <ele>153</ele>
        <time>2013-02-08T11:22:18Z</time>
      </trkpt>
      <trkpt lat="44.7114" lon="4.67859">
        <ele>153</ele>
        <time>2013-02-08T11:22:20Z</time>
      </trkpt>
      <trkpt lat="44.7114" lon="4.67854">
        <ele>153</ele>
        <time>2013-02-08T11:22:23Z</time>
      </trkpt>
      <trkpt lat="44.71141" lon="4.67851">
        <ele>153</ele>
        <time>2013-02-08T11:22:25Z</time>
      </trkpt>
      <trkpt lat="44.71141" lon="4.67846">
        <ele>153</ele>
        <time>2013-02-08T11:22:28Z</time>
      </trkpt>
      <trkpt lat="44.71141" lon="4.67843">
        <ele>153</ele>
        <time>2013-02-08T11:22:30Z</time>
      </trkpt>
      <trkpt lat="44.71141" lon="4.67838">
        <ele>153</ele>
        <time>2013-02-08T11:22:33Z</time>
      </trkpt>
      <trkpt lat="44.71141" lon="4.67834">
        <ele>153</ele>
        <time>2013-02-08T11:22:35Z</time>
      </trkpt>
      <trkpt lat="44.71141" lon="4.67829">
        <ele>153</ele>
        <time>2013-02-08T11:22:38Z</time>
      </trkpt>
      <trkpt lat="44.71141" lon="4.67825">
        <ele>153</ele>
        <time>2013-02-08T11:22:40Z</time>
      </trkpt>
      <trkpt lat="44.71142" lon="4.6782">
        <ele>153</ele>
        <time>2013-02-08T11:22:43Z</time>
      </trkpt>
      <trkpt lat="44.71142" lon="4.67817">
        <ele>153</ele>
        <time>2013-02-08T11:22:45Z</time>
      </trkpt>
      <trkpt lat="44.71142" lon="4.67812">
        <ele>153</ele>
        <time>2013-02-08T11:22:48Z</time>
      </trkpt>
      <trkpt lat="44.71143" lon="4.67808">
        <ele>153</ele>
        <time>2013-02-08T11:22:50Z</time>
      </trkpt>
      <trkpt lat="44.71143" lon="4.67803">
        <ele>153</ele>
        <time>2013-02-08T11:22:53Z</time>
      </trkpt>
      <trkpt lat="44.71143" lon="4.678">
        <ele>153</ele>
        <time>2013-02-08T11:22:55Z</time>
      </trkpt>
      <trkpt lat="44.71144" lon="4.67794">
        <ele>153</ele>
        <time>2013-02-08T11:22:58Z</time>
      </trkpt>
      <trkpt lat="44.71144" lon="4.67791">
        <ele>153</ele>
        <time>2013-02-08T11:23:00Z</time>
      </trkpt>
      <trkpt lat="44.71145" lon="4.67786">
        <ele>153</ele>
        <time>2013-02-08T11:23:03Z</time>
      </trkpt>
      <trkpt lat="44.71145" lon="4.67782">
        <ele>153</ele>
        <time>2013-02-08T11:23:05Z</time>
      </trkpt>
      <trkpt lat="44.71146" lon="4.67777">
        <ele>153</ele>
        <time>2013-02-08T11:23:08Z</time>
      </trkpt>
      <trkpt lat="44.71146" lon="4.67774">
        <ele>153</ele>
        <time>2013-02-08T11:23:10Z</time>
      </trkpt>
      <trkpt lat="44.71146" lon="4.67771">
        <ele>153</ele>
        <time>2013-02-08T11:23:12Z</time>
      </trkpt>
      <trkpt lat="44.71146" lon="4.67766">
        <ele>153</ele>
        <time>2013-02-08T11:23:15Z</time>
      </trkpt>
      <trkpt lat="44.71146" lon="4.6776">
        <ele>153</ele>
        <time>2013-02-08T11:23:18Z</time>
      </trkpt>
      <trkpt lat="44.71147" lon="4.67757">
        <ele>153</ele>
        <time>2013-02-08T11:23:20Z</time>
      </trkpt>
      <trkpt lat="44.71148" lon="4.67752">
        <ele>154</ele>
        <time>2013-02-08T11:23:23Z</time>
      </trkpt>
      <trkpt lat="44.71148" lon="4.67749">
        <ele>154</ele>
        <time>2013-02-08T11:23:25Z</time>
      </trkpt>
      <trkpt lat="44.71149" lon="4.67745">
        <ele>154</ele>
        <time>2013-02-08T11:23:27Z</time>
      </trkpt>
      <trkpt lat="44.71149" lon="4.67742">
        <ele>154</ele>
        <time>2013-02-08T11:23:29Z</time>
      </trkpt>
      <trkpt lat="44.7115" lon="4.67738">
        <ele>154</ele>
        <time>2013-02-08T11:23:31Z</time>
      </trkpt>
      <trkpt lat="44.7115" lon="4.67735">
        <ele>154</ele>
        <time>2013-02-08T11:23:33Z</time>
      </trkpt>
      <trkpt lat="44.71151" lon="4.67731">
        <ele>154</ele>
        <time>2013-02-08T11:23:35Z</time>
      </trkpt>
      <trkpt lat="44.71151" lon="4.67726">
        <ele>154</ele>
        <time>2013-02-08T11:23:38Z</time>
      </trkpt>
      <trkpt lat="44.71152" lon="4.67723">
        <ele>154</ele>
        <time>2013-02-08T11:23:40Z</time>
      </trkpt>
      <trkpt lat="44.71153" lon="4.6772">
        <ele>154</ele>
        <time>2013-02-08T11:23:42Z</time>
      </trkpt>
      <trkpt lat="44.71154" lon="4.67715">
        <ele>154</ele>
        <time>2013-02-08T11:23:45Z</time>
      </trkpt>
      <trkpt lat="44.71155" lon="4.67712">
        <ele>154</ele>
        <time>2013-02-08T11:23:47Z</time>
      </trkpt>
      <trkpt lat="44.71156" lon="4.67709">
        <ele>154</ele>
        <time>2013-02-08T11:23:49Z</time>
      </trkpt>
      <trkpt lat="44.71157" lon="4.67706">
        <ele>154</ele>
        <time>2013-02-08T11:23:51Z</time>
      </trkpt>
      <trkpt lat="44.71158" lon="4.67702">
        <ele>154</ele>
        <time>2013-02-08T11:23:53Z</time>
      </trkpt>
      <trkpt lat="44.71159" lon="4.67699">
        <ele>154</ele>
        <time>2013-02-08T11:23:55Z</time>
      </trkpt>
      <trkpt lat="44.7116" lon="4.67696">
        <ele>154</ele>
        <time>2013-02-08T11:23:57Z</time>
      </trkpt>
      <trkpt lat="44.71161" lon="4.67693">
        <ele>155</ele>
        <time>2013-02-08T11:23:59Z</time>
      </trkpt>
      <trkpt lat="44.71162" lon="4.6769">
        <ele>155</ele>
        <time>2013-02-08T11:24:01Z</time>
      </trkpt>
      <trkpt lat="44.71163" lon="4.67687">
        <ele>155</ele>
        <time>2013-02-08T11:24:03Z</time>
      </trkpt>
      <trkpt lat="44.71164" lon="4.67684">
        <ele>155</ele>
        <time>2013-02-08T11:24:05Z</time>
      </trkpt>
      <trkpt lat="44.71165" lon="4.67681">
        <ele>155</ele>
        <time>2013-02-08T11:24:07Z</time>
      </trkpt>
      <trkpt lat="44.71166" lon="4.67676">
        <ele>155</ele>
        <time>2013-02-08T11:24:10Z</time>
      </trkpt>
      <trkpt lat="44.71167" lon="4.67673">
        <ele>155</ele>
        <time>2013-02-08T11:24:12Z</time>
      </trkpt>
      <trkpt lat="44.71168" lon="4.67669">
        <ele>155</ele>
        <time>2013-02-08T11:24:14Z</time>
      </trkpt>
      <trkpt lat="44.7117" lon="4.67664">
        <ele>155</ele>
        <time>2013-02-08T11:24:17Z</time>
      </trkpt>
      <trkpt lat="44.7117" lon="4.67661">
        <ele>156</ele>
        <time>2013-02-08T11:24:19Z</time>
      </trkpt>
      <trkpt lat="44.71171" lon="4.67658">
        <ele>156</ele>
        <time>2013-02-08T11:24:21Z</time>
      </trkpt>
      <trkpt lat="44.71172" lon="4.67655">
        <ele>156</ele>
        <time>2013-02-08T11:24:23Z</time>
      </trkpt>
      <trkpt lat="44.71173" lon="4.6765">
        <ele>156</ele>
        <time>2013-02-08T11:24:26Z</time>
      </trkpt>
      <trkpt lat="44.71175" lon="4.67644">
        <ele>156</ele>
        <time>2013-02-08T11:24:30Z</time>
      </trkpt>
      <trkpt lat="44.71176" lon="4.67642">
        <ele>156</ele>
        <time>2013-02-08T11:24:33Z</time>
      </trkpt>
      <trkpt lat="44.71177" lon="4.6764">
        <ele>157</ele>
        <time>2013-02-08T11:24:35Z</time>
      </trkpt>
      <trkpt lat="44.71178" lon="4.67638">
        <ele>157</ele>
        <time>2013-02-08T11:24:37Z</time>
      </trkpt>
      <trkpt lat="44.71178" lon="4.67635">
        <ele>157</ele>
        <time>2013-02-08T11:24:39Z</time>
      </trkpt>
      <trkpt lat="44.7118" lon="4.6763">
        <ele>157</ele>
        <time>2013-02-08T11:24:42Z</time>
      </trkpt>
      <trkpt lat="44.7118" lon="4.67625">
        <ele>157</ele>
        <time>2013-02-08T11:24:45Z</time>
      </trkpt>
      <trkpt lat="44.71181" lon="4.67622">
        <ele>157</ele>
        <time>2013-02-08T11:24:47Z</time>
      </trkpt>
      <trkpt lat="44.71182" lon="4.67619">
        <ele>157</ele>
        <time>2013-02-08T11:24:49Z</time>
      </trkpt>
      <trkpt lat="44.71182" lon="4.67614">
        <ele>157</ele>
        <time>2013-02-08T11:24:52Z</time>
      </trkpt>
      <trkpt lat="44.71183" lon="4.6761">
        <ele>157</ele>
        <time>2013-02-08T11:24:54Z</time>
      </trkpt>
      <trkpt lat="44.71184" lon="4.67606">
        <ele>157</ele>
        <time>2013-02-08T11:24:57Z</time>
      </trkpt>
      <trkpt lat="44.71185" lon="4.67602">
        <ele>157</ele>
        <time>2013-02-08T11:24:59Z</time>
      </trkpt>
      <trkpt lat="44.71187" lon="4.67597">
        <ele>157</ele>
        <time>2013-02-08T11:25:02Z</time>
      </trkpt>
      <trkpt lat="44.71187" lon="4.67594">
        <ele>157</ele>
        <time>2013-02-08T11:25:04Z</time>
      </trkpt>
      <trkpt lat="44.71188" lon="4.67591">
        <ele>157</ele>
        <time>2013-02-08T11:25:06Z</time>
      </trkpt>
      <trkpt lat="44.71189" lon="4.67588">
        <ele>157</ele>
        <time>2013-02-08T11:25:08Z</time>
      </trkpt>
      <trkpt lat="44.7119" lon="4.67585">
        <ele>157</ele>
        <time>2013-02-08T11:25:10Z</time>
      </trkpt>
      <trkpt lat="44.71191" lon="4.67581">
        <ele>157</ele>
        <time>2013-02-08T11:25:13Z</time>
      </trkpt>
      <trkpt lat="44.71191" lon="4.67578">
        <ele>157</ele>
        <time>2013-02-08T11:25:15Z</time>
      </trkpt>
      <trkpt lat="44.71192" lon="4.67573">
        <ele>157</ele>
        <time>2013-02-08T11:25:18Z</time>
      </trkpt>
      <trkpt lat="44.71193" lon="4.6757">
        <ele>157</ele>
        <time>2013-02-08T11:25:20Z</time>
      </trkpt>
      <trkpt lat="44.71194" lon="4.67565">
        <ele>157</ele>
        <time>2013-02-08T11:25:23Z</time>
      </trkpt>
      <trkpt lat="44.71195" lon="4.67562">
        <ele>157</ele>
        <time>2013-02-08T11:25:25Z</time>
      </trkpt>
      <trkpt lat="44.71196" lon="4.67557">
        <ele>157</ele>
        <time>2013-02-08T11:25:28Z</time>
      </trkpt>
      <trkpt lat="44.71197" lon="4.67554">
        <ele>157</ele>
        <time>2013-02-08T11:25:30Z</time>
      </trkpt>
      <trkpt lat="44.71197" lon="4.6755">
        <ele>157</ele>
        <time>2013-02-08T11:25:33Z</time>
      </trkpt>
      <trkpt lat="44.71197" lon="4.67546">
        <ele>157</ele>
        <time>2013-02-08T11:25:35Z</time>
      </trkpt>
      <trkpt lat="44.71199" lon="4.67541">
        <ele>157</ele>
        <time>2013-02-08T11:25:38Z</time>
      </trkpt>
      <trkpt lat="44.71199" lon="4.67538">
        <ele>157</ele>
        <time>2013-02-08T11:25:40Z</time>
      </trkpt>
      <trkpt lat="44.71201" lon="4.67534">
        <ele>157</ele>
        <time>2013-02-08T11:25:43Z</time>
      </trkpt>
      <trkpt lat="44.71202" lon="4.67531">
        <ele>157</ele>
        <time>2013-02-08T11:25:45Z</time>
      </trkpt>
      <trkpt lat="44.71203" lon="4.67526">
        <ele>157</ele>
        <time>2013-02-08T11:25:48Z</time>
      </trkpt>
      <trkpt lat="44.71203" lon="4.67523">
        <ele>157</ele>
        <time>2013-02-08T11:25:50Z</time>
      </trkpt>
      <trkpt lat="44.71204" lon="4.67518">
        <ele>157</ele>
        <time>2013-02-08T11:25:53Z</time>
      </trkpt>
      <trkpt lat="44.71205" lon="4.67515">
        <ele>157</ele>
        <time>2013-02-08T11:25:55Z</time>
      </trkpt>
      <trkpt lat="44.71206" lon="4.6751">
        <ele>157</ele>
        <time>2013-02-08T11:25:58Z</time>
      </trkpt>
      <trkpt lat="44.71207" lon="4.67507">
        <ele>157</ele>
        <time>2013-02-08T11:26:00Z</time>
      </trkpt>
      <trkpt lat="44.71209" lon="4.67503">
        <ele>157</ele>
        <time>2013-02-08T11:26:03Z</time>
      </trkpt>
      <trkpt lat="44.71209" lon="4.675">
        <ele>157</ele>
        <time>2013-02-08T11:26:05Z</time>
      </trkpt>
      <trkpt lat="44.7121" lon="4.67496">
        <ele>157</ele>
        <time>2013-02-08T11:26:07Z</time>
      </trkpt>
      <trkpt lat="44.71211" lon="4.67491">
        <ele>157</ele>
        <time>2013-02-08T11:26:10Z</time>
      </trkpt>
      <trkpt lat="44.71212" lon="4.67488">
        <ele>157</ele>
        <time>2013-02-08T11:26:12Z</time>
      </trkpt>
      <trkpt lat="44.71213" lon="4.67483">
        <ele>157</ele>
        <time>2013-02-08T11:26:15Z</time>
      </trkpt>
      <trkpt lat="44.71214" lon="4.6748">
        <ele>157</ele>
        <time>2013-02-08T11:26:17Z</time>
      </trkpt>
      <trkpt lat="44.71214" lon="4.67477">
        <ele>157</ele>
        <time>2013-02-08T11:26:19Z</time>
      </trkpt>
      <trkpt lat="44.71215" lon="4.67474">
        <ele>157</ele>
        <time>2013-02-08T11:26:21Z</time>
      </trkpt>
      <trkpt lat="44.71216" lon="4.67469">
        <ele>157</ele>
        <time>2013-02-08T11:26:24Z</time>
      </trkpt>
      <trkpt lat="44.71217" lon="4.67466">
        <ele>157</ele>
        <time>2013-02-08T11:26:26Z</time>
      </trkpt>
      <trkpt lat="44.71218" lon="4.67461">
        <ele>157</ele>
        <time>2013-02-08T11:26:29Z</time>
      </trkpt>
      <trkpt lat="44.71219" lon="4.67459">
        <ele>157</ele>
        <time>2013-02-08T11:26:31Z</time>
      </trkpt>
      <trkpt lat="44.7122" lon="4.67454">
        <ele>157</ele>
        <time>2013-02-08T11:26:34Z</time>
      </trkpt>
      <trkpt lat="44.71221" lon="4.67451">
        <ele>157</ele>
        <time>2013-02-08T11:26:36Z</time>
      </trkpt>
      <trkpt lat="44.71223" lon="4.67445">
        <ele>157</ele>
        <time>2013-02-08T11:26:40Z</time>
      </trkpt>
      <trkpt lat="44.71224" lon="4.67442">
        <ele>157</ele>
        <time>2013-02-08T11:26:42Z</time>
      </trkpt>
      <trkpt lat="44.71224" lon="4.67439">
        <ele>157</ele>
        <time>2013-02-08T11:26:44Z</time>
      </trkpt>
      <trkpt lat="44.71225" lon="4.67435">
        <ele>158</ele>
        <time>2013-02-08T11:26:47Z</time>
      </trkpt>
      <trkpt lat="44.71226" lon="4.6743">
        <ele>158</ele>
        <time>2013-02-08T11:26:50Z</time>
      </trkpt>
      <trkpt lat="44.71227" lon="4.67427">
        <ele>158</ele>
        <time>2013-02-08T11:26:52Z</time>
      </trkpt>
      <trkpt lat="44.71229" lon="4.67423">
        <ele>158</ele>
        <time>2013-02-08T11:26:55Z</time>
      </trkpt>
      <trkpt lat="44.7123" lon="4.67419">
        <ele>158</ele>
        <time>2013-02-08T11:26:58Z</time>
      </trkpt>
      <trkpt lat="44.71232" lon="4.67415">
        <ele>158</ele>
        <time>2013-02-08T11:27:01Z</time>
      </trkpt>
      <trkpt lat="44.71232" lon="4.67411">
        <ele>158</ele>
        <time>2013-02-08T11:27:03Z</time>
      </trkpt>
      <trkpt lat="44.71234" lon="4.67407">
        <ele>158</ele>
        <time>2013-02-08T11:27:06Z</time>
      </trkpt>
      <trkpt lat="44.71236" lon="4.67403">
        <ele>158</ele>
        <time>2013-02-08T11:27:09Z</time>
      </trkpt>
      <trkpt lat="44.71238" lon="4.67399">
        <ele>158</ele>
        <time>2013-02-08T11:27:12Z</time>
      </trkpt>
      <trkpt lat="44.71239" lon="4.67396">
        <ele>158</ele>
        <time>2013-02-08T11:27:14Z</time>
      </trkpt>
      <trkpt lat="44.71242" lon="4.67391">
        <ele>158</ele>
        <time>2013-02-08T11:27:18Z</time>
      </trkpt>
      <trkpt lat="44.71244" lon="4.67388">
        <ele>158</ele>
        <time>2013-02-08T11:27:20Z</time>
      </trkpt>
      <trkpt lat="44.71247" lon="4.67383">
        <ele>158</ele>
        <time>2013-02-08T11:27:24Z</time>
      </trkpt>
      <trkpt lat="44.71248" lon="4.6738">
        <ele>158</ele>
        <time>2013-02-08T11:27:26Z</time>
      </trkpt>
      <trkpt lat="44.71251" lon="4.67374">
        <ele>158</ele>
        <time>2013-02-08T11:27:30Z</time>
      </trkpt>
      <trkpt lat="44.71253" lon="4.67372">
        <ele>158</ele>
        <time>2013-02-08T11:27:32Z</time>
      </trkpt>
      <trkpt lat="44.71254" lon="4.67369">
        <ele>158</ele>
        <time>2013-02-08T11:27:34Z</time>
      </trkpt>
      <trkpt lat="44.71255" lon="4.67367">
        <ele>158</ele>
        <time>2013-02-08T11:27:36Z</time>
      </trkpt>
      <trkpt lat="44.71256" lon="4.67364">
        <ele>158</ele>
        <time>2013-02-08T11:27:38Z</time>
      </trkpt>
      <trkpt lat="44.71257" lon="4.67361">
        <ele>158</ele>
        <time>2013-02-08T11:27:40Z</time>
      </trkpt>
      <trkpt lat="44.71258" lon="4.67358">
        <ele>158</ele>
        <time>2013-02-08T11:27:42Z</time>
      </trkpt>
      <trkpt lat="44.71259" lon="4.67353">
        <ele>158</ele>
        <time>2013-02-08T11:27:45Z</time>
      </trkpt>
      <trkpt lat="44.71259" lon="4.6735">
        <ele>158</ele>
        <time>2013-02-08T11:27:47Z</time>
      </trkpt>
      <trkpt lat="44.7126" lon="4.67345">
        <ele>158</ele>
        <time>2013-02-08T11:27:50Z</time>
      </trkpt>
      <trkpt lat="44.7126" lon="4.67341">
        <ele>158</ele>
        <time>2013-02-08T11:27:52Z</time>
      </trkpt>
      <trkpt lat="44.71259" lon="4.67335">
        <ele>158</ele>
        <time>2013-02-08T11:27:56Z</time>
      </trkpt>
      <trkpt lat="44.71259" lon="4.67334">
        <ele>158</ele>
        <time>2013-02-08T11:27:58Z</time>
      </trkpt>
      <trkpt lat="44.71257" lon="4.67332">
        <ele>158</ele>
        <time>2013-02-08T11:28:01Z</time>
      </trkpt>
      <trkpt lat="44.71257" lon="4.67328">
        <ele>158</ele>
        <time>2013-02-08T11:28:03Z</time>
      </trkpt>
      <trkpt lat="44.71255" lon="4.67323">
        <ele>158</ele>
        <time>2013-02-08T11:28:06Z</time>
      </trkpt>
      <trkpt lat="44.71254" lon="4.6732">
        <ele>158</ele>
        <time>2013-02-08T11:28:08Z</time>
      </trkpt>
      <trkpt lat="44.71252" lon="4.67316">
        <ele>159</ele>
        <time>2013-02-08T11:28:11Z</time>
      </trkpt>
      <trkpt lat="44.71251" lon="4.67312">
        <ele>159</ele>
        <time>2013-02-08T11:28:13Z</time>
      </trkpt>
      <trkpt lat="44.71249" lon="4.67308">
        <ele>158</ele>
        <time>2013-02-08T11:28:16Z</time>
      </trkpt>
      <trkpt lat="44.71248" lon="4.67304">
        <ele>158</ele>
        <time>2013-02-08T11:28:18Z</time>
      </trkpt>
      <trkpt lat="44.71246" lon="4.673">
        <ele>158</ele>
        <time>2013-02-08T11:28:21Z</time>
      </trkpt>
      <trkpt lat="44.71245" lon="4.67297">
        <ele>158</ele>
        <time>2013-02-08T11:28:23Z</time>
      </trkpt>
      <trkpt lat="44.71243" lon="4.67292">
        <ele>158</ele>
        <time>2013-02-08T11:28:26Z</time>
      </trkpt>
      <trkpt lat="44.71242" lon="4.67289">
        <ele>158</ele>
        <time>2013-02-08T11:28:28Z</time>
      </trkpt>
      <trkpt lat="44.71241" lon="4.67284">
        <ele>158</ele>
        <time>2013-02-08T11:28:31Z</time>
      </trkpt>
      <trkpt lat="44.71239" lon="4.67281">
        <ele>158</ele>
        <time>2013-02-08T11:28:33Z</time>
      </trkpt>
      <trkpt lat="44.71238" lon="4.67276">
        <ele>158</ele>
        <time>2013-02-08T11:28:36Z</time>
      </trkpt>
      <trkpt lat="44.71237" lon="4.67273">
        <ele>158</ele>
        <time>2013-02-08T11:28:38Z</time>
      </trkpt>
      <trkpt lat="44.71236" lon="4.67267">
        <ele>158</ele>
        <time>2013-02-08T11:28:41Z</time>
      </trkpt>
      <trkpt lat="44.71236" lon="4.67264">
        <ele>158</ele>
        <time>2013-02-08T11:28:43Z</time>
      </trkpt>
      <trkpt lat="44.71235" lon="4.67259">
        <ele>158</ele>
        <time>2013-02-08T11:28:46Z</time>
      </trkpt>
      <trkpt lat="44.71235" lon="4.67256">
        <ele>159</ele>
        <time>2013-02-08T11:28:48Z</time>
      </trkpt>
      <trkpt lat="44.71234" lon="4.6725">
        <ele>159</ele>
        <time>2013-02-08T11:28:51Z</time>
      </trkpt>
      <trkpt lat="44.71233" lon="4.67247">
        <ele>159</ele>
        <time>2013-02-08T11:28:53Z</time>
      </trkpt>
      <trkpt lat="44.71233" lon="4.67242">
        <ele>159</ele>
        <time>2013-02-08T11:28:56Z</time>
      </trkpt>
      <trkpt lat="44.71232" lon="4.67238">
        <ele>160</ele>
        <time>2013-02-08T11:28:58Z</time>
      </trkpt>
      <trkpt lat="44.71232" lon="4.67233">
        <ele>160</ele>
        <time>2013-02-08T11:29:01Z</time>
      </trkpt>
      <trkpt lat="44.71231" lon="4.6723">
        <ele>160</ele>
        <time>2013-02-08T11:29:03Z</time>
      </trkpt>
      <trkpt lat="44.7123" lon="4.67225">
        <ele>160</ele>
        <time>2013-02-08T11:29:06Z</time>
      </trkpt>
      <trkpt lat="44.7123" lon="4.67221">
        <ele>160</ele>
        <time>2013-02-08T11:29:08Z</time>
      </trkpt>
      <trkpt lat="44.71229" lon="4.67216">
        <ele>160</ele>
        <time>2013-02-08T11:29:11Z</time>
      </trkpt>
      <trkpt lat="44.71228" lon="4.67213">
        <ele>160</ele>
        <time>2013-02-08T11:29:13Z</time>
      </trkpt>
      <trkpt lat="44.71228" lon="4.67208">
        <ele>160</ele>
        <time>2013-02-08T11:29:16Z</time>
      </trkpt>
      <trkpt lat="44.71228" lon="4.67205">
        <ele>160</ele>
        <time>2013-02-08T11:29:18Z</time>
      </trkpt>
      <trkpt lat="44.71227" lon="4.672">
        <ele>160</ele>
        <time>2013-02-08T11:29:21Z</time>
      </trkpt>
      <trkpt lat="44.71227" lon="4.67196">
        <ele>160</ele>
        <time>2013-02-08T11:29:23Z</time>
      </trkpt>
      <trkpt lat="44.71227" lon="4.67192">
        <ele>160</ele>
        <time>2013-02-08T11:29:26Z</time>
      </trkpt>
      <trkpt lat="44.71227" lon="4.67188">
        <ele>161</ele>
        <time>2013-02-08T11:29:28Z</time>
      </trkpt>
      <trkpt lat="44.71227" lon="4.67185">
        <ele>161</ele>
        <time>2013-02-08T11:29:30Z</time>
      </trkpt>
      <trkpt lat="44.71227" lon="4.67182">
        <ele>161</ele>
        <time>2013-02-08T11:29:32Z</time>
      </trkpt>
      <trkpt lat="44.71228" lon="4.67179">
        <ele>161</ele>
        <time>2013-02-08T11:29:34Z</time>
      </trkpt>
      <trkpt lat="44.71229" lon="4.67175">
        <ele>161</ele>
        <time>2013-02-08T11:29:37Z</time>
      </trkpt>
      <trkpt lat="44.7123" lon="4.67172">
        <ele>161</ele>
        <time>2013-02-08T11:29:39Z</time>
      </trkpt>
      <trkpt lat="44.71231" lon="4.67168">
        <ele>161</ele>
        <time>2013-02-08T11:29:42Z</time>
      </trkpt>
      <trkpt lat="44.71232" lon="4.67165">
        <ele>162</ele>
        <time>2013-02-08T11:29:44Z</time>
      </trkpt>
      <trkpt lat="44.71233" lon="4.67162">
        <ele>162</ele>
        <time>2013-02-08T11:29:46Z</time>
      </trkpt>
      <trkpt lat="44.71234" lon="4.67159">
        <ele>162</ele>
        <time>2013-02-08T11:29:48Z</time>
      </trkpt>
      <trkpt lat="44.71235" lon="4.67156">
        <ele>162</ele>
        <time>2013-02-08T11:29:50Z</time>
      </trkpt>
      <trkpt lat="44.71236" lon="4.67153">
        <ele>162</ele>
        <time>2013-02-08T11:29:52Z</time>
      </trkpt>
      <trkpt lat="44.71238" lon="4.6715">
        <ele>162</ele>
        <time>2013-02-08T11:29:54Z</time>
      </trkpt>
      <trkpt lat="44.71239" lon="4.67147">
        <ele>163</ele>
        <time>2013-02-08T11:29:56Z</time>
      </trkpt>
      <trkpt lat="44.7124" lon="4.67144">
        <ele>163</ele>
        <time>2013-02-08T11:29:58Z</time>
      </trkpt>
      <trkpt lat="44.71241" lon="4.67141">
        <ele>163</ele>
        <time>2013-02-08T11:30:00Z</time>
      </trkpt>
      <trkpt lat="44.71241" lon="4.67138">
        <ele>163</ele>
        <time>2013-02-08T11:30:02Z</time>
      </trkpt>
      <trkpt lat="44.71243" lon="4.67135">
        <ele>163</ele>
        <time>2013-02-08T11:30:04Z</time>
      </trkpt>
      <trkpt lat="44.71244" lon="4.6713">
        <ele>163</ele>
        <time>2013-02-08T11:30:07Z</time>
      </trkpt>
      <trkpt lat="44.71246" lon="4.67127">
        <ele>163</ele>
        <time>2013-02-08T11:30:09Z</time>
      </trkpt>
      <trkpt lat="44.71247" lon="4.67124">
        <ele>163</ele>
        <time>2013-02-08T11:30:11Z</time>
      </trkpt>
      <trkpt lat="44.71248" lon="4.67121">
        <ele>163</ele>
        <time>2013-02-08T11:30:13Z</time>
      </trkpt>
      <trkpt lat="44.71249" lon="4.67118">
        <ele>163</ele>
        <time>2013-02-08T11:30:15Z</time>
      </trkpt>
      <trkpt lat="44.7125" lon="4.67115">
        <ele>162</ele>
        <time>2013-02-08T11:30:17Z</time>
      </trkpt>
      <trkpt lat="44.71251" lon="4.67112">
        <ele>162</ele>
        <time>2013-02-08T11:30:19Z</time>
      </trkpt>
      <trkpt lat="44.71252" lon="4.67109">
        <ele>163</ele>
        <time>2013-02-08T11:30:21Z</time>
      </trkpt>
      <trkpt lat="44.71253" lon="4.67106">
        <ele>163</ele>
        <time>2013-02-08T11:30:23Z</time>
      </trkpt>
      <trkpt lat="44.71254" lon="4.67103">
        <ele>163</ele>
        <time>2013-02-08T11:30:25Z</time>
      </trkpt>
      <trkpt lat="44.71255" lon="4.67099">
        <ele>163</ele>
        <time>2013-02-08T11:30:27Z</time>
      </trkpt>
      <trkpt lat="44.71256" lon="4.67096">
        <ele>163</ele>
        <time>2013-02-08T11:30:29Z</time>
      </trkpt>
      <trkpt lat="44.71257" lon="4.67093">
        <ele>163</ele>
        <time>2013-02-08T11:30:31Z</time>
      </trkpt>
      <trkpt lat="44.71258" lon="4.6709">
        <ele>163</ele>
        <time>2013-02-08T11:30:33Z</time>
      </trkpt>
      <trkpt lat="44.71259" lon="4.67086">
        <ele>163</ele>
        <time>2013-02-08T11:30:36Z</time>
      </trkpt>
      <trkpt lat="44.7126" lon="4.67082">
        <ele>163</ele>
        <time>2013-02-08T11:30:38Z</time>
      </trkpt>
      <trkpt lat="44.71261" lon="4.67079">
        <ele>163</ele>
        <time>2013-02-08T11:30:40Z</time>
      </trkpt>
      <trkpt lat="44.71261" lon="4.67076">
        <ele>163</ele>
        <time>2013-02-08T11:30:42Z</time>
      </trkpt>
      <trkpt lat="44.71262" lon="4.67073">
        <ele>163</ele>
        <time>2013-02-08T11:30:44Z</time>
      </trkpt>
      <trkpt lat="44.71262" lon="4.67069">
        <ele>163</ele>
        <time>2013-02-08T11:30:46Z</time>
      </trkpt>
      <trkpt lat="44.71263" lon="4.67066">
        <ele>163</ele>
        <time>2013-02-08T11:30:48Z</time>
      </trkpt>
      <trkpt lat="44.71263" lon="4.67063">
        <ele>163</ele>
        <time>2013-02-08T11:30:50Z</time>
      </trkpt>
      <trkpt lat="44.71264" lon="4.67059">
        <ele>163</ele>
        <time>2013-02-08T11:30:52Z</time>
      </trkpt>
      <trkpt lat="44.71264" lon="4.67056">
        <ele>163</ele>
        <time>2013-02-08T11:30:54Z</time>
      </trkpt>
      <trkpt lat="44.71265" lon="4.67053">
        <ele>163</ele>
        <time>2013-02-08T11:30:56Z</time>
      </trkpt>
      <trkpt lat="44.71265" lon="4.67049">
        <ele>163</ele>
        <time>2013-02-08T11:30:58Z</time>
      </trkpt>
      <trkpt lat="44.71266" lon="4.67046">
        <ele>163</ele>
        <time>2013-02-08T11:31:00Z</time>
      </trkpt>
      <trkpt lat="44.71267" lon="4.6704">
        <ele>163</ele>
        <time>2013-02-08T11:31:04Z</time>
      </trkpt>
      <trkpt lat="44.71269" lon="4.67038">
        <ele>163</ele>
        <time>2013-02-08T11:31:06Z</time>
      </trkpt>
      <trkpt lat="44.71269" lon="4.67035">
        <ele>163</ele>
        <time>2013-02-08T11:31:08Z</time>
      </trkpt>
      <trkpt lat="44.71271" lon="4.67031">
        <ele>163</ele>
        <time>2013-02-08T11:31:11Z</time>
      </trkpt>
      <trkpt lat="44.71272" lon="4.67028">
        <ele>163</ele>
        <time>2013-02-08T11:31:13Z</time>
      </trkpt>
      <trkpt lat="44.71273" lon="4.67025">
        <ele>163</ele>
        <time>2013-02-08T11:31:15Z</time>
      </trkpt>
      <trkpt lat="44.71275" lon="4.67023">
        <ele>163</ele>
        <time>2013-02-08T11:31:17Z</time>
      </trkpt>
      <trkpt lat="44.71277" lon="4.67021">
        <ele>163</ele>
        <time>2013-02-08T11:31:19Z</time>
      </trkpt>
      <trkpt lat="44.71278" lon="4.67018">
        <ele>163</ele>
        <time>2013-02-08T11:31:21Z</time>
      </trkpt>
      <trkpt lat="44.71279" lon="4.67015">
        <ele>163</ele>
        <time>2013-02-08T11:31:23Z</time>
      </trkpt>
      <trkpt lat="44.71281" lon="4.67013">
        <ele>163</ele>
        <time>2013-02-08T11:31:25Z</time>
      </trkpt>
      <trkpt lat="44.71282" lon="4.6701">
        <ele>163</ele>
        <time>2013-02-08T11:31:27Z</time>
      </trkpt>
      <trkpt lat="44.71283" lon="4.67008">
        <ele>163</ele>
        <time>2013-02-08T11:31:29Z</time>
      </trkpt>
      <trkpt lat="44.71285" lon="4.67005">
        <ele>163</ele>
        <time>2013-02-08T11:31:31Z</time>
      </trkpt>
      <trkpt lat="44.71286" lon="4.67003">
        <ele>163</ele>
        <time>2013-02-08T11:31:33Z</time>
      </trkpt>
      <trkpt lat="44.71288" lon="4.67">
        <ele>163</ele>
        <time>2013-02-08T11:31:35Z</time>
      </trkpt>
      <trkpt lat="44.7129" lon="4.66998">
        <ele>164</ele>
        <time>2013-02-08T11:31:37Z</time>
      </trkpt>
      <trkpt lat="44.71291" lon="4.66996">
        <ele>164</ele>
        <time>2013-02-08T11:31:39Z</time>
      </trkpt>
      <trkpt lat="44.71292" lon="4.66993">
        <ele>164</ele>
        <time>2013-02-08T11:31:41Z</time>
      </trkpt>
      <trkpt lat="44.71293" lon="4.66991">
        <ele>164</ele>
        <time>2013-02-08T11:31:43Z</time>
      </trkpt>
      <trkpt lat="44.71295" lon="4.66987">
        <ele>164</ele>
        <time>2013-02-08T11:31:46Z</time>
      </trkpt>
      <trkpt lat="44.71297" lon="4.66984">
        <ele>164</ele>
        <time>2013-02-08T11:31:48Z</time>
      </trkpt>
      <trkpt lat="44.71298" lon="4.6698">
        <ele>164</ele>
        <time>2013-02-08T11:31:50Z</time>
      </trkpt>
      <trkpt lat="44.71299" lon="4.66977">
        <ele>164</ele>
        <time>2013-02-08T11:31:52Z</time>
      </trkpt>
      <trkpt lat="44.713" lon="4.66974">
        <ele>164</ele>
        <time>2013-02-08T11:31:54Z</time>
      </trkpt>
      <trkpt lat="44.71301" lon="4.66971">
        <ele>164</ele>
        <time>2013-02-08T11:31:56Z</time>
      </trkpt>
      <trkpt lat="44.71302" lon="4.66967">
        <ele>164</ele>
        <time>2013-02-08T11:31:58Z</time>
      </trkpt>
      <trkpt lat="44.71303" lon="4.66964">
        <ele>164</ele>
        <time>2013-02-08T11:32:00Z</time>
      </trkpt>
      <trkpt lat="44.71304" lon="4.66961">
        <ele>164</ele>
        <time>2013-02-08T11:32:02Z</time>
      </trkpt>
      <trkpt lat="44.71306" lon="4.66958">
        <ele>164</ele>
        <time>2013-02-08T11:32:04Z</time>
      </trkpt>
      <trkpt lat="44.71306" lon="4.66955">
        <ele>164</ele>
        <time>2013-02-08T11:32:06Z</time>
      </trkpt>
      <trkpt lat="44.71308" lon="4.66951">
        <ele>164</ele>
        <time>2013-02-08T11:32:09Z</time>
      </trkpt>
      <trkpt lat="44.71309" lon="4.66948">
        <ele>164</ele>
        <time>2013-02-08T11:32:11Z</time>
      </trkpt>
      <trkpt lat="44.7131" lon="4.66945">
        <ele>164</ele>
        <time>2013-02-08T11:32:13Z</time>
      </trkpt>
      <trkpt lat="44.71311" lon="4.66942">
        <ele>164</ele>
        <time>2013-02-08T11:32:15Z</time>
      </trkpt>
      <trkpt lat="44.71312" lon="4.66939">
        <ele>164</ele>
        <time>2013-02-08T11:32:17Z</time>
      </trkpt>
      <trkpt lat="44.71313" lon="4.66935">
        <ele>164</ele>
        <time>2013-02-08T11:32:19Z</time>
      </trkpt>
      <trkpt lat="44.71314" lon="4.66932">
        <ele>164</ele>
        <time>2013-02-08T11:32:21Z</time>
      </trkpt>
      <trkpt lat="44.71314" lon="4.66929">
        <ele>164</ele>
        <time>2013-02-08T11:32:23Z</time>
      </trkpt>
      <trkpt lat="44.71315" lon="4.66926">
        <ele>164</ele>
        <time>2013-02-08T11:32:25Z</time>
      </trkpt>
      <trkpt lat="44.71316" lon="4.66922">
        <ele>164</ele>
        <time>2013-02-08T11:32:27Z</time>
      </trkpt>
      <trkpt lat="44.71317" lon="4.66919">
        <ele>164</ele>
        <time>2013-02-08T11:32:29Z</time>
      </trkpt>
      <trkpt lat="44.71317" lon="4.66916">
        <ele>164</ele>
        <time>2013-02-08T11:32:31Z</time>
      </trkpt>
      <trkpt lat="44.71318" lon="4.66912">
        <ele>164</ele>
        <time>2013-02-08T11:32:33Z</time>
      </trkpt>
      <trkpt lat="44.71318" lon="4.66908">
        <ele>164</ele>
        <time>2013-02-08T11:32:35Z</time>
      </trkpt>
      <trkpt lat="44.71318" lon="4.66904">
        <ele>164</ele>
        <time>2013-02-08T11:32:37Z</time>
      </trkpt>
      <trkpt lat="44.71319" lon="4.669">
        <ele>164</ele>
        <time>2013-02-08T11:32:39Z</time>
      </trkpt>
      <trkpt lat="44.71319" lon="4.66897">
        <ele>164</ele>
        <time>2013-02-08T11:32:41Z</time>
      </trkpt>
      <trkpt lat="44.71319" lon="4.66894">
        <ele>164</ele>
        <time>2013-02-08T11:32:43Z</time>
      </trkpt>
      <trkpt lat="44.7132" lon="4.6689">
        <ele>164</ele>
        <time>2013-02-08T11:32:45Z</time>
      </trkpt>
      <trkpt lat="44.7132" lon="4.66885">
        <ele>164</ele>
        <time>2013-02-08T11:32:48Z</time>
      </trkpt>
      <trkpt lat="44.71321" lon="4.66882">
        <ele>164</ele>
        <time>2013-02-08T11:32:50Z</time>
      </trkpt>
      <trkpt lat="44.71321" lon="4.66879">
        <ele>164</ele>
        <time>2013-02-08T11:32:52Z</time>
      </trkpt>
      <trkpt lat="44.71321" lon="4.66875">
        <ele>164</ele>
        <time>2013-02-08T11:32:54Z</time>
      </trkpt>
      <trkpt lat="44.71322" lon="4.66872">
        <ele>164</ele>
        <time>2013-02-08T11:32:56Z</time>
      </trkpt>
      <trkpt lat="44.71322" lon="4.66869">
        <ele>164</ele>
        <time>2013-02-08T11:32:58Z</time>
      </trkpt>
      <trkpt lat="44.71321" lon="4.66864">
        <ele>164</ele>
        <time>2013-02-08T11:33:01Z</time>
      </trkpt>
      <trkpt lat="44.7132" lon="4.66861">
        <ele>164</ele>
        <time>2013-02-08T11:33:03Z</time>
      </trkpt>
      <trkpt lat="44.71319" lon="4.66858">
        <ele>164</ele>
        <time>2013-02-08T11:33:05Z</time>
      </trkpt>
      <trkpt lat="44.71318" lon="4.66854">
        <ele>164</ele>
        <time>2013-02-08T11:33:08Z</time>
      </trkpt>
      <trkpt lat="44.71318" lon="4.66851">
        <ele>164</ele>
        <time>2013-02-08T11:33:10Z</time>
      </trkpt>
      <trkpt lat="44.71317" lon="4.66848">
        <ele>164</ele>
        <time>2013-02-08T11:33:12Z</time>
      </trkpt>
      <trkpt lat="44.71315" lon="4.66844">
        <ele>164</ele>
        <time>2013-02-08T11:33:15Z</time>
      </trkpt>
      <trkpt lat="44.71314" lon="4.66841">
        <ele>164</ele>
        <time>2013-02-08T11:33:17Z</time>
      </trkpt>
      <trkpt lat="44.71314" lon="4.66838">
        <ele>164</ele>
        <time>2013-02-08T11:33:19Z</time>
      </trkpt>
      <trkpt lat="44.71312" lon="4.66834">
        <ele>164</ele>
        <time>2013-02-08T11:33:22Z</time>
      </trkpt>
      <trkpt lat="44.71311" lon="4.66831">
        <ele>164</ele>
        <time>2013-02-08T11:33:24Z</time>
      </trkpt>
      <trkpt lat="44.71311" lon="4.66828">
        <ele>164</ele>
        <time>2013-02-08T11:33:26Z</time>
      </trkpt>
      <trkpt lat="44.7131" lon="4.66825">
        <ele>164</ele>
        <time>2013-02-08T11:33:28Z</time>
      </trkpt>
      <trkpt lat="44.7131" lon="4.66823">
        <ele>164</ele>
        <time>2013-02-08T11:33:30Z</time>
      </trkpt>
      <trkpt lat="44.71309" lon="4.6682">
        <ele>164</ele>
        <time>2013-02-08T11:33:32Z</time>
      </trkpt>
      <trkpt lat="44.71309" lon="4.66818">
        <ele>164</ele>
        <time>2013-02-08T11:33:34Z</time>
      </trkpt>
      <trkpt lat="44.71308" lon="4.66813">
        <ele>164</ele>
        <time>2013-02-08T11:33:37Z</time>
      </trkpt>
      <trkpt lat="44.71307" lon="4.6681">
        <ele>165</ele>
        <time>2013-02-08T11:33:40Z</time>
      </trkpt>
      <trkpt lat="44.71306" lon="4.66809">
        <ele>165</ele>
        <time>2013-02-08T11:33:42Z</time>
      </trkpt>
      <trkpt lat="44.71304" lon="4.66809">
        <ele>165</ele>
        <time>2013-02-08T11:33:44Z</time>
      </trkpt>
      <trkpt lat="44.71302" lon="4.6681">
        <ele>165</ele>
        <time>2013-02-08T11:33:46Z</time>
      </trkpt>
      <trkpt lat="44.71301" lon="4.6681">
        <ele>165</ele>
        <time>2013-02-08T11:33:48Z</time>
      </trkpt>
      <trkpt lat="44.71299" lon="4.66809">
        <ele>165</ele>
        <time>2013-02-08T11:33:50Z</time>
      </trkpt>
      <trkpt lat="44.71298" lon="4.66808">
        <ele>165</ele>
        <time>2013-02-08T11:34:08Z</time>
      </trkpt>
      <trkpt lat="44.71298" lon="4.66806">
        <ele>165</ele>
        <time>2013-02-08T11:34:30Z</time>
      </trkpt>
      <trkpt lat="44.71297" lon="4.66804">
        <ele>165</ele>
        <time>2013-02-08T11:34:32Z</time>
      </trkpt>
      <trkpt lat="44.71296" lon="4.66803">
        <ele>165</ele>
        <time>2013-02-08T11:34:41Z</time>
      </trkpt>
      <trkpt lat="44.71296" lon="4.66801">
        <ele>165</ele>
        <time>2013-02-08T11:34:55Z</time>
      </trkpt>
      <trkpt lat="44.71296" lon="4.66803">
        <ele>165</ele>
        <time>2013-02-08T11:35:07Z</time>
      </trkpt>
      <trkpt lat="44.71296" lon="4.66805">
        <ele>165</ele>
        <time>2013-02-08T11:35:13Z</time>
      </trkpt>
      <trkpt lat="44.71294" lon="4.66806">
        <ele>165</ele>
        <time>2013-02-08T11:35:19Z</time>
      </trkpt>
      <trkpt lat="44.71292" lon="4.66807">
        <ele>165</ele>
        <time>2013-02-08T11:35:22Z</time>
      </trkpt>
      <trkpt lat="44.71291" lon="4.66806">
        <ele>165</ele>
        <time>2013-02-08T11:35:24Z</time>
      </trkpt>
      <trkpt lat="44.71289" lon="4.66806">
        <ele>165</ele>
        <time>2013-02-08T11:35:26Z</time>
      </trkpt>
      <trkpt lat="44.71287" lon="4.66805">
        <ele>165</ele>
        <time>2013-02-08T11:35:28Z</time>
      </trkpt>
      <trkpt lat="44.71285" lon="4.66805">
        <ele>165</ele>
        <time>2013-02-08T11:35:30Z</time>
      </trkpt>
      <trkpt lat="44.71283" lon="4.66804">
        <ele>165</ele>
        <time>2013-02-08T11:35:32Z</time>
      </trkpt>
      <trkpt lat="44.71282" lon="4.66802">
        <ele>165</ele>
        <time>2013-02-08T11:35:34Z</time>
      </trkpt>
      <trkpt lat="44.71281" lon="4.668">
        <ele>165</ele>
        <time>2013-02-08T11:35:36Z</time>
      </trkpt>
      <trkpt lat="44.7128" lon="4.66797">
        <ele>165</ele>
        <time>2013-02-08T11:35:38Z</time>
      </trkpt>
      <trkpt lat="44.7128" lon="4.66795">
        <ele>165</ele>
        <time>2013-02-08T11:35:40Z</time>
      </trkpt>
      <trkpt lat="44.71279" lon="4.66794">
        <ele>165</ele>
        <time>2013-02-08T11:35:42Z</time>
      </trkpt>
      <trkpt lat="44.71279" lon="4.66792">
        <ele>165</ele>
        <time>2013-02-08T11:35:44Z</time>
      </trkpt>
      <trkpt lat="44.71281" lon="4.66791">
        <ele>165</ele>
        <time>2013-02-08T11:35:49Z</time>
      </trkpt>
      <trkpt lat="44.71282" lon="4.66791">
        <ele>165</ele>
        <time>2013-02-08T11:35:52Z</time>
      </trkpt>
      <trkpt lat="44.71282" lon="4.66789">
        <ele>165</ele>
        <time>2013-02-08T11:35:56Z</time>
      </trkpt>
      <trkpt lat="44.71281" lon="4.66788">
        <ele>165</ele>
        <time>2013-02-08T11:36:00Z</time>
      </trkpt>
      <trkpt lat="44.7128" lon="4.66786">
        <ele>165</ele>
        <time>2013-02-08T11:36:03Z</time>
      </trkpt>
      <trkpt lat="44.71279" lon="4.66784">
        <ele>165</ele>
        <time>2013-02-08T11:36:05Z</time>
      </trkpt>
      <trkpt lat="44.71277" lon="4.66782">
        <ele>165</ele>
        <time>2013-02-08T11:36:07Z</time>
      </trkpt>
      <trkpt lat="44.71275" lon="4.6678">
        <ele>165</ele>
        <time>2013-02-08T11:36:09Z</time>
      </trkpt>
      <trkpt lat="44.71274" lon="4.66778">
        <ele>165</ele>
        <time>2013-02-08T11:36:11Z</time>
      </trkpt>
      <trkpt lat="44.71272" lon="4.66776">
        <ele>166</ele>
        <time>2013-02-08T11:36:13Z</time>
      </trkpt>
      <trkpt lat="44.7127" lon="4.66774">
        <ele>166</ele>
        <time>2013-02-08T11:36:15Z</time>
      </trkpt>
      <trkpt lat="44.71269" lon="4.66773">
        <ele>166</ele>
        <time>2013-02-08T11:36:17Z</time>
      </trkpt>
      <trkpt lat="44.71267" lon="4.66771">
        <ele>166</ele>
        <time>2013-02-08T11:36:19Z</time>
      </trkpt>
      <trkpt lat="44.71265" lon="4.6677">
        <ele>166</ele>
        <time>2013-02-08T11:36:21Z</time>
      </trkpt>
      <trkpt lat="44.71263" lon="4.66768">
        <ele>166</ele>
        <time>2013-02-08T11:36:23Z</time>
      </trkpt>
      <trkpt lat="44.71261" lon="4.66766">
        <ele>166</ele>
        <time>2013-02-08T11:36:25Z</time>
      </trkpt>
      <trkpt lat="44.7126" lon="4.66765">
        <ele>166</ele>
        <time>2013-02-08T11:36:27Z</time>
      </trkpt>
      <trkpt lat="44.71258" lon="4.66763">
        <ele>166</ele>
        <time>2013-02-08T11:36:29Z</time>
      </trkpt>
      <trkpt lat="44.71256" lon="4.66761">
        <ele>166</ele>
        <time>2013-02-08T11:36:31Z</time>
      </trkpt>
      <trkpt lat="44.71254" lon="4.66759">
        <ele>166</ele>
        <time>2013-02-08T11:36:33Z</time>
      </trkpt>
      <trkpt lat="44.71252" lon="4.66758">
        <ele>166</ele>
        <time>2013-02-08T11:36:35Z</time>
      </trkpt>
      <trkpt lat="44.7125" lon="4.66756">
        <ele>167</ele>
        <time>2013-02-08T11:36:37Z</time>
      </trkpt>
      <trkpt lat="44.71248" lon="4.66754">
        <ele>168</ele>
        <time>2013-02-08T11:36:39Z</time>
      </trkpt>
      <trkpt lat="44.71246" lon="4.66753">
        <ele>168</ele>
        <time>2013-02-08T11:36:41Z</time>
      </trkpt>
      <trkpt lat="44.71245" lon="4.66751">
        <ele>168</ele>
        <time>2013-02-08T11:36:43Z</time>
      </trkpt>
      <trkpt lat="44.71243" lon="4.66749">
        <ele>168</ele>
        <time>2013-02-08T11:36:45Z</time>
      </trkpt>
      <trkpt lat="44.71241" lon="4.66747">
        <ele>168</ele>
        <time>2013-02-08T11:36:47Z</time>
      </trkpt>
      <trkpt lat="44.7124" lon="4.66745">
        <ele>169</ele>
        <time>2013-02-08T11:36:49Z</time>
      </trkpt>
      <trkpt lat="44.71238" lon="4.66743">
        <ele>169</ele>
        <time>2013-02-08T11:36:51Z</time>
      </trkpt>
      <trkpt lat="44.71236" lon="4.66742">
        <ele>169</ele>
        <time>2013-02-08T11:36:53Z</time>
      </trkpt>
      <trkpt lat="44.71234" lon="4.6674">
        <ele>169</ele>
        <time>2013-02-08T11:36:55Z</time>
      </trkpt>
      <trkpt lat="44.71233" lon="4.66738">
        <ele>170</ele>
        <time>2013-02-08T11:36:57Z</time>
      </trkpt>
      <trkpt lat="44.71231" lon="4.66736">
        <ele>170</ele>
        <time>2013-02-08T11:36:59Z</time>
      </trkpt>
      <trkpt lat="44.7123" lon="4.66734">
        <ele>170</ele>
        <time>2013-02-08T11:37:01Z</time>
      </trkpt>
      <trkpt lat="44.71228" lon="4.66733">
        <ele>170</ele>
        <time>2013-02-08T11:37:03Z</time>
      </trkpt>
      <trkpt lat="44.71226" lon="4.66731">
        <ele>170</ele>
        <time>2013-02-08T11:37:05Z</time>
      </trkpt>
      <trkpt lat="44.71224" lon="4.66729">
        <ele>171</ele>
        <time>2013-02-08T11:37:07Z</time>
      </trkpt>
      <trkpt lat="44.71222" lon="4.66727">
        <ele>171</ele>
        <time>2013-02-08T11:37:09Z</time>
      </trkpt>
      <trkpt lat="44.71221" lon="4.66725">
        <ele>171</ele>
        <time>2013-02-08T11:37:11Z</time>
      </trkpt>
      <trkpt lat="44.71219" lon="4.66724">
        <ele>171</ele>
        <time>2013-02-08T11:37:13Z</time>
      </trkpt>
      <trkpt lat="44.71217" lon="4.66722">
        <ele>171</ele>
        <time>2013-02-08T11:37:15Z</time>
      </trkpt>
      <trkpt lat="44.71216" lon="4.6672">
        <ele>171</ele>
        <time>2013-02-08T11:37:17Z</time>
      </trkpt>
      <trkpt lat="44.71214" lon="4.66717">
        <ele>171</ele>
        <time>2013-02-08T11:37:19Z</time>
      </trkpt>
      <trkpt lat="44.71212" lon="4.66716">
        <ele>171</ele>
        <time>2013-02-08T11:37:21Z</time>
      </trkpt>
      <trkpt lat="44.7121" lon="4.66714">
        <ele>172</ele>
        <time>2013-02-08T11:37:23Z</time>
      </trkpt>
      <trkpt lat="44.71208" lon="4.66712">
        <ele>172</ele>
        <time>2013-02-08T11:37:25Z</time>
      </trkpt>
      <trkpt lat="44.71207" lon="4.6671">
        <ele>172</ele>
        <time>2013-02-08T11:37:27Z</time>
      </trkpt>
      <trkpt lat="44.71205" lon="4.66709">
        <ele>172</ele>
        <time>2013-02-08T11:37:29Z</time>
      </trkpt>
      <trkpt lat="44.71203" lon="4.66707">
        <ele>172</ele>
        <time>2013-02-08T11:37:31Z</time>
      </trkpt>
      <trkpt lat="44.71201" lon="4.66706">
        <ele>172</ele>
        <time>2013-02-08T11:37:33Z</time>
      </trkpt>
      <trkpt lat="44.71199" lon="4.66705">
        <ele>172</ele>
        <time>2013-02-08T11:37:35Z</time>
      </trkpt>
      <trkpt lat="44.71198" lon="4.66703">
        <ele>172</ele>
        <time>2013-02-08T11:37:37Z</time>
      </trkpt>
      <trkpt lat="44.71196" lon="4.66701">
        <ele>173</ele>
        <time>2013-02-08T11:37:39Z</time>
      </trkpt>
      <trkpt lat="44.71194" lon="4.667">
        <ele>173</ele>
        <time>2013-02-08T11:37:41Z</time>
      </trkpt>
      <trkpt lat="44.71192" lon="4.66698">
        <ele>173</ele>
        <time>2013-02-08T11:37:43Z</time>
      </trkpt>
      <trkpt lat="44.7119" lon="4.66697">
        <ele>173</ele>
        <time>2013-02-08T11:37:45Z</time>
      </trkpt>
      <trkpt lat="44.71188" lon="4.66696">
        <ele>173</ele>
        <time>2013-02-08T11:37:47Z</time>
      </trkpt>
      <trkpt lat="44.71187" lon="4.66694">
        <ele>173</ele>
        <time>2013-02-08T11:37:49Z</time>
      </trkpt>
      <trkpt lat="44.71184" lon="4.66692">
        <ele>174</ele>
        <time>2013-02-08T11:37:52Z</time>
      </trkpt>
      <trkpt lat="44.71182" lon="4.66691">
        <ele>174</ele>
        <time>2013-02-08T11:37:54Z</time>
      </trkpt>
      <trkpt lat="44.71179" lon="4.6669">
        <ele>174</ele>
        <time>2013-02-08T11:37:56Z</time>
      </trkpt>
      <trkpt lat="44.71177" lon="4.66689">
        <ele>174</ele>
        <time>2013-02-08T11:37:58Z</time>
      </trkpt>
      <trkpt lat="44.71174" lon="4.66687">
        <ele>174</ele>
        <time>2013-02-08T11:38:01Z</time>
      </trkpt>
      <trkpt lat="44.71172" lon="4.66686">
        <ele>175</ele>
        <time>2013-02-08T11:38:03Z</time>
      </trkpt>
      <trkpt lat="44.7117" lon="4.66685">
        <ele>175</ele>
        <time>2013-02-08T11:38:05Z</time>
      </trkpt>
      <trkpt lat="44.71169" lon="4.66684">
        <ele>175</ele>
        <time>2013-02-08T11:38:07Z</time>
      </trkpt>
      <trkpt lat="44.71167" lon="4.66682">
        <ele>178</ele>
        <time>2013-02-08T11:38:09Z</time>
      </trkpt>
      <trkpt lat="44.71165" lon="4.66681">
        <ele>178</ele>
        <time>2013-02-08T11:38:11Z</time>
      </trkpt>
      <trkpt lat="44.71163" lon="4.6668">
        <ele>178</ele>
        <time>2013-02-08T11:38:13Z</time>
      </trkpt>
      <trkpt lat="44.71161" lon="4.66679">
        <ele>178</ele>
        <time>2013-02-08T11:38:15Z</time>
      </trkpt>
      <trkpt lat="44.71159" lon="4.66678">
        <ele>178</ele>
        <time>2013-02-08T11:38:17Z</time>
      </trkpt>
      <trkpt lat="44.71158" lon="4.66678">
        <ele>178</ele>
        <time>2013-02-08T11:38:19Z</time>
      </trkpt>
      <trkpt lat="44.71155" lon="4.66676">
        <ele>178</ele>
        <time>2013-02-08T11:38:21Z</time>
      </trkpt>
      <trkpt lat="44.71154" lon="4.66675">
        <ele>178</ele>
        <time>2013-02-08T11:38:23Z</time>
      </trkpt>
      <trkpt lat="44.71152" lon="4.66673">
        <ele>178</ele>
        <time>2013-02-08T11:38:25Z</time>
      </trkpt>
      <trkpt lat="44.71151" lon="4.6667">
        <ele>178</ele>
        <time>2013-02-08T11:38:27Z</time>
      </trkpt>
      <trkpt lat="44.7115" lon="4.66667">
        <ele>178</ele>
        <time>2013-02-08T11:38:29Z</time>
      </trkpt>
      <trkpt lat="44.71149" lon="4.66665">
        <ele>179</ele>
        <time>2013-02-08T11:38:31Z</time>
      </trkpt>
      <trkpt lat="44.71147" lon="4.66662">
        <ele>179</ele>
        <time>2013-02-08T11:38:33Z</time>
      </trkpt>
      <trkpt lat="44.71146" lon="4.66658">
        <ele>179</ele>
        <time>2013-02-08T11:38:36Z</time>
      </trkpt>
      <trkpt lat="44.71145" lon="4.66655">
        <ele>179</ele>
        <time>2013-02-08T11:38:38Z</time>
      </trkpt>
      <trkpt lat="44.71144" lon="4.66652">
        <ele>179</ele>
        <time>2013-02-08T11:38:40Z</time>
      </trkpt>
      <trkpt lat="44.71143" lon="4.6665">
        <ele>179</ele>
        <time>2013-02-08T11:38:42Z</time>
      </trkpt>
      <trkpt lat="44.71141" lon="4.66645">
        <ele>179</ele>
        <time>2013-02-08T11:38:45Z</time>
      </trkpt>
      <trkpt lat="44.7114" lon="4.66643">
        <ele>179</ele>
        <time>2013-02-08T11:38:47Z</time>
      </trkpt>
      <trkpt lat="44.71139" lon="4.6664">
        <ele>179</ele>
        <time>2013-02-08T11:38:49Z</time>
      </trkpt>
      <trkpt lat="44.71138" lon="4.66636">
        <ele>179</ele>
        <time>2013-02-08T11:38:52Z</time>
      </trkpt>
      <trkpt lat="44.71136" lon="4.66633">
        <ele>179</ele>
        <time>2013-02-08T11:38:54Z</time>
      </trkpt>
      <trkpt lat="44.71135" lon="4.6663">
        <ele>179</ele>
        <time>2013-02-08T11:38:56Z</time>
      </trkpt>
      <trkpt lat="44.71134" lon="4.66627">
        <ele>179</ele>
        <time>2013-02-08T11:38:58Z</time>
      </trkpt>
      <trkpt lat="44.71133" lon="4.66623">
        <ele>179</ele>
        <time>2013-02-08T11:39:01Z</time>
      </trkpt>
      <trkpt lat="44.71132" lon="4.6662">
        <ele>180</ele>
        <time>2013-02-08T11:39:03Z</time>
      </trkpt>
      <trkpt lat="44.7113" lon="4.66617">
        <ele>180</ele>
        <time>2013-02-08T11:39:05Z</time>
      </trkpt>
      <trkpt lat="44.71129" lon="4.66613">
        <ele>180</ele>
        <time>2013-02-08T11:39:08Z</time>
      </trkpt>
      <trkpt lat="44.71127" lon="4.66609">
        <ele>180</ele>
        <time>2013-02-08T11:39:11Z</time>
      </trkpt>
      <trkpt lat="44.71126" lon="4.66606">
        <ele>180</ele>
        <time>2013-02-08T11:39:13Z</time>
      </trkpt>
      <trkpt lat="44.71124" lon="4.66604">
        <ele>180</ele>
        <time>2013-02-08T11:39:15Z</time>
      </trkpt>
      <trkpt lat="44.71123" lon="4.66599">
        <ele>180</ele>
        <time>2013-02-08T11:39:18Z</time>
      </trkpt>
      <trkpt lat="44.71122" lon="4.66597">
        <ele>180</ele>
        <time>2013-02-08T11:39:20Z</time>
      </trkpt>
      <trkpt lat="44.71121" lon="4.66594">
        <ele>180</ele>
        <time>2013-02-08T11:39:22Z</time>
      </trkpt>
      <trkpt lat="44.7112" lon="4.66592">
        <ele>180</ele>
        <time>2013-02-08T11:39:24Z</time>
      </trkpt>
      <trkpt lat="44.71119" lon="4.6659">
        <ele>180</ele>
        <time>2013-02-08T11:39:26Z</time>
      </trkpt>
      <trkpt lat="44.71118" lon="4.66588">
        <ele>180</ele>
        <time>2013-02-08T11:39:28Z</time>
      </trkpt>
      <trkpt lat="44.71117" lon="4.66586">
        <ele>180</ele>
        <time>2013-02-08T11:39:30Z</time>
      </trkpt>
      <trkpt lat="44.71116" lon="4.66584">
        <ele>180</ele>
        <time>2013-02-08T11:39:32Z</time>
      </trkpt>
      <trkpt lat="44.71116" lon="4.66582">
        <ele>181</ele>
        <time>2013-02-08T11:39:34Z</time>
      </trkpt>
      <trkpt lat="44.71115" lon="4.6658">
        <ele>181</ele>
        <time>2013-02-08T11:39:36Z</time>
      </trkpt>
      <trkpt lat="44.71114" lon="4.66578">
        <ele>181</ele>
        <time>2013-02-08T11:39:38Z</time>
      </trkpt>
      <trkpt lat="44.71113" lon="4.66576">
        <ele>181</ele>
        <time>2013-02-08T11:39:40Z</time>
      </trkpt>
      <trkpt lat="44.71112" lon="4.66574">
        <ele>181</ele>
        <time>2013-02-08T11:39:42Z</time>
      </trkpt>
      <trkpt lat="44.71111" lon="4.66572">
        <ele>181</ele>
        <time>2013-02-08T11:39:44Z</time>
      </trkpt>
      <trkpt lat="44.7111" lon="4.6657">
        <ele>181</ele>
        <time>2013-02-08T11:39:46Z</time>
      </trkpt>
      <trkpt lat="44.71109" lon="4.66568">
        <ele>181</ele>
        <time>2013-02-08T11:39:48Z</time>
      </trkpt>
      <trkpt lat="44.71108" lon="4.66566">
        <ele>181</ele>
        <time>2013-02-08T11:39:50Z</time>
      </trkpt>
      <trkpt lat="44.71108" lon="4.66564">
        <ele>181</ele>
        <time>2013-02-08T11:39:52Z</time>
      </trkpt>
      <trkpt lat="44.71108" lon="4.66562">
        <ele>181</ele>
        <time>2013-02-08T11:39:54Z</time>
      </trkpt>
      <trkpt lat="44.71108" lon="4.6656">
        <ele>181</ele>
        <time>2013-02-08T11:40:00Z</time>
      </trkpt>
      <trkpt lat="44.71108" lon="4.6656">
        <ele>181</ele>
        <time>2013-02-08T11:40:05Z</time>
      </trkpt>
    </trkseg>
  </trk>
</gpx>